<?xml version='1.0' encoding='UTF-8'?><gpx version="1.1" creator="JPX - https://github.com/jenetics/jpx" xmlns="http://www.topografix.com/GPX/1/1"><trk><trkseg><trkpt lat="44.4128801" lon="9.1596427"><ele>324.0</ele><time>2026-04-16T14:16:21.9Z</time></trkpt><trkpt lat="44.4128447" lon="9.1595416"><ele>324.0</ele><time>2026-04-16T14:16:27.94Z</time></trkpt><trkpt lat="44.4128553" lon="9.1594489"><ele>324.0</ele><time>2026-04-16T14:18:30.95Z</time></trkpt><trkpt lat="44.4128196" lon="9.1593633"><ele>324.0</ele><time>2026-04-16T14:18:44.919Z</time></trkpt><trkpt lat="44.4127384" lon="9.1593336"><ele>324.0</ele><time>2026-04-16T14:19:35.885Z</time></trkpt><trkpt lat="44.4127923" lon="9.1592548"><ele>324.0</ele><time>2026-04-16T14:19:37.875Z</time></trkpt><trkpt lat="44.4128764" lon="9.1591706"><ele>324.0</ele><time>2026-04-16T14:19:38.878Z</time></trkpt><trkpt lat="44.4129364" lon="9.1591109"><ele>324.0</ele><time>2026-04-16T14:19:39.873Z</time></trkpt><trkpt lat="44.4129969" lon="9.1590319"><ele>324.0</ele><time>2026-04-16T14:19:41.875Z</time></trkpt><trkpt lat="44.4129171" lon="9.1590651"><ele>324.0</ele><time>2026-04-16T14:19:46.889Z</time></trkpt><trkpt lat="44.4128573" lon="9.1591019"><ele>324.0</ele><time>2026-04-16T14:19:47.876Z</time></trkpt><trkpt lat="44.4127914" lon="9.1591291"><ele>324.0</ele><time>2026-04-16T14:19:48.875Z</time></trkpt><trkpt lat="44.4127194" lon="9.1591597"><ele>324.0</ele><time>2026-04-16T14:19:49.874Z</time></trkpt><trkpt lat="44.4126517" lon="9.1591965"><ele>324.0</ele><time>2026-04-16T14:19:50.875Z</time></trkpt><trkpt lat="44.4125906" lon="9.1592348"><ele>324.0</ele><time>2026-04-16T14:19:51.876Z</time></trkpt><trkpt lat="44.4125293" lon="9.1592685"><ele>324.0</ele><time>2026-04-16T14:19:52.872Z</time></trkpt><trkpt lat="44.4124651" lon="9.1593049"><ele>324.0</ele><time>2026-04-16T14:19:53.873Z</time></trkpt><trkpt lat="44.4124" lon="9.1593467"><ele>324.0</ele><time>2026-04-16T14:19:54.873Z</time></trkpt><trkpt lat="44.41234" lon="9.1593917"><ele>324.0</ele><time>2026-04-16T14:19:55.876Z</time></trkpt><trkpt lat="44.4122767" lon="9.1594433"><ele>324.0</ele><time>2026-04-16T14:19:56.879Z</time></trkpt><trkpt lat="44.4122167" lon="9.159515"><ele>324.0</ele><time>2026-04-16T14:19:57.876Z</time></trkpt><trkpt lat="44.41218" lon="9.1596017"><ele>324.0</ele><time>2026-04-16T14:19:58.872Z</time></trkpt><trkpt lat="44.4121667" lon="9.1597067"><ele>324.0</ele><time>2026-04-16T14:19:59.874Z</time></trkpt><trkpt lat="44.4121733" lon="9.159825"><ele>324.0</ele><time>2026-04-16T14:20:00.875Z</time></trkpt><trkpt lat="44.4121933" lon="9.159935"><ele>324.0</ele><time>2026-04-16T14:20:01.874Z</time></trkpt><trkpt lat="44.412235" lon="9.160025"><ele>324.0</ele><time>2026-04-16T14:20:02.874Z</time></trkpt><trkpt lat="44.412295" lon="9.1600867"><ele>325.0</ele><time>2026-04-16T14:20:03.873Z</time></trkpt><trkpt lat="44.412365" lon="9.1601133"><ele>326.0</ele><time>2026-04-16T14:20:04.873Z</time></trkpt><trkpt lat="44.41243" lon="9.16014"><ele>327.0</ele><time>2026-04-16T14:20:05.876Z</time></trkpt><trkpt lat="44.4125367" lon="9.1602133"><ele>328.0</ele><time>2026-04-16T14:20:07.876Z</time></trkpt><trkpt lat="44.4126317" lon="9.1602967"><ele>329.0</ele><time>2026-04-16T14:20:09.873Z</time></trkpt><trkpt lat="44.412695" lon="9.1604117"><ele>329.0</ele><time>2026-04-16T14:20:11.873Z</time></trkpt><trkpt lat="44.412665" lon="9.1605517"><ele>329.0</ele><time>2026-04-16T14:20:13.874Z</time></trkpt><trkpt lat="44.4126167" lon="9.1607117"><ele>329.0</ele><time>2026-04-16T14:20:15.874Z</time></trkpt><trkpt lat="44.4126017" lon="9.1607983"><ele>329.0</ele><time>2026-04-16T14:20:16.873Z</time></trkpt><trkpt lat="44.41259" lon="9.1609133"><ele>329.0</ele><time>2026-04-16T14:20:18.873Z</time></trkpt><trkpt lat="44.4125767" lon="9.1610467"><ele>328.79999999999995</ele><time>2026-04-16T14:20:21.874Z</time></trkpt><trkpt lat="44.41257" lon="9.16118"><ele>328.59999999999997</ele><time>2026-04-16T14:20:23.874Z</time></trkpt><trkpt lat="44.4125517" lon="9.1613433"><ele>328.4</ele><time>2026-04-16T14:20:25.875Z</time></trkpt><trkpt lat="44.41251" lon="9.1614983"><ele>328.2</ele><time>2026-04-16T14:20:27.872Z</time></trkpt><trkpt lat="44.412475" lon="9.1615867"><ele>328.0</ele><time>2026-04-16T14:20:29.876Z</time></trkpt><trkpt lat="44.4124417" lon="9.161675"><ele>329.8333333333333</ele><time>2026-04-16T14:20:32.874Z</time></trkpt><trkpt lat="44.4124033" lon="9.1617583"><ele>331.66666666666663</ele><time>2026-04-16T14:20:34.874Z</time></trkpt><trkpt lat="44.4123583" lon="9.1618617"><ele>333.5</ele><time>2026-04-16T14:20:36.874Z</time></trkpt><trkpt lat="44.4122917" lon="9.1619817"><ele>335.3333333333333</ele><time>2026-04-16T14:20:38.874Z</time></trkpt><trkpt lat="44.41225" lon="9.162055"><ele>337.1666666666667</ele><time>2026-04-16T14:20:39.874Z</time></trkpt><trkpt lat="44.4122167" lon="9.1621317"><ele>339.0</ele><time>2026-04-16T14:20:40.873Z</time></trkpt><trkpt lat="44.4121917" lon="9.1622217"><ele>339.0</ele><time>2026-04-16T14:20:41.873Z</time></trkpt><trkpt lat="44.4121717" lon="9.1623167"><ele>339.0</ele><time>2026-04-16T14:20:42.874Z</time></trkpt><trkpt lat="44.4121533" lon="9.1624117"><ele>339.0</ele><time>2026-04-16T14:20:43.874Z</time></trkpt><trkpt lat="44.41214" lon="9.1625033"><ele>339.0</ele><time>2026-04-16T14:20:44.873Z</time></trkpt><trkpt lat="44.4121267" lon="9.162595"><ele>339.0</ele><time>2026-04-16T14:20:45.874Z</time></trkpt><trkpt lat="44.412115" lon="9.1626833"><ele>339.0</ele><time>2026-04-16T14:20:46.873Z</time></trkpt><trkpt lat="44.4121033" lon="9.1627717"><ele>339.0</ele><time>2026-04-16T14:20:47.873Z</time></trkpt><trkpt lat="44.412095" lon="9.16286"><ele>341.0</ele><time>2026-04-16T14:20:48.874Z</time></trkpt><trkpt lat="44.412095" lon="9.1629517"><ele>343.0</ele><time>2026-04-16T14:20:49.875Z</time></trkpt><trkpt lat="44.4121" lon="9.1631217"><ele>345.0</ele><time>2026-04-16T14:20:51.886Z</time></trkpt><trkpt lat="44.4121183" lon="9.1632967"><ele>347.0</ele><time>2026-04-16T14:20:53.872Z</time></trkpt><trkpt lat="44.412135" lon="9.1633833"><ele>349.0</ele><time>2026-04-16T14:20:54.874Z</time></trkpt><trkpt lat="44.4121583" lon="9.1635333"><ele>349.0</ele><time>2026-04-16T14:20:56.876Z</time></trkpt><trkpt lat="44.4121883" lon="9.1636867"><ele>349.0</ele><time>2026-04-16T14:20:58.874Z</time></trkpt><trkpt lat="44.4122083" lon="9.1638283"><ele>349.0</ele><time>2026-04-16T14:21:00.875Z</time></trkpt><trkpt lat="44.4121667" lon="9.1639083"><ele>349.0</ele><time>2026-04-16T14:21:02.877Z</time></trkpt><trkpt lat="44.41208" lon="9.16391"><ele>349.0</ele><time>2026-04-16T14:21:04.873Z</time></trkpt><trkpt lat="44.4120117" lon="9.1639017"><ele>349.0</ele><time>2026-04-16T14:21:06.874Z</time></trkpt><trkpt lat="44.4119183" lon="9.1639017"><ele>346.79999999999995</ele><time>2026-04-16T14:21:09.877Z</time></trkpt><trkpt lat="44.4118383" lon="9.16393"><ele>344.59999999999997</ele><time>2026-04-16T14:21:11.875Z</time></trkpt><trkpt lat="44.4117417" lon="9.1639867"><ele>342.4</ele><time>2026-04-16T14:21:13.874Z</time></trkpt><trkpt lat="44.4116333" lon="9.1640533"><ele>340.2</ele><time>2026-04-16T14:21:15.873Z</time></trkpt><trkpt lat="44.411575" lon="9.1640883"><ele>338.0</ele><time>2026-04-16T14:21:16.873Z</time></trkpt><trkpt lat="44.4114633" lon="9.1641333"><ele>338.0</ele><time>2026-04-16T14:21:18.873Z</time></trkpt><trkpt lat="44.4113733" lon="9.16414"><ele>338.0</ele><time>2026-04-16T14:21:20.874Z</time></trkpt><trkpt lat="44.4112883" lon="9.1641317"><ele>338.0</ele><time>2026-04-16T14:21:22.874Z</time></trkpt><trkpt lat="44.4112033" lon="9.1641217"><ele>338.0</ele><time>2026-04-16T14:21:24.872Z</time></trkpt><trkpt lat="44.4111217" lon="9.1641033"><ele>338.0</ele><time>2026-04-16T14:21:29.875Z</time></trkpt><trkpt lat="44.4110767" lon="9.16418"><ele>338.0</ele><time>2026-04-16T14:21:32.873Z</time></trkpt><trkpt lat="44.4111717" lon="9.16427"><ele>338.0</ele><time>2026-04-16T14:21:34.874Z</time></trkpt><trkpt lat="44.4112383" lon="9.1643033"><ele>338.0</ele><time>2026-04-16T14:21:35.872Z</time></trkpt><trkpt lat="44.4113117" lon="9.16433"><ele>338.0</ele><time>2026-04-16T14:21:36.873Z</time></trkpt><trkpt lat="44.4113817" lon="9.16435"><ele>338.0</ele><time>2026-04-16T14:21:37.872Z</time></trkpt><trkpt lat="44.4114517" lon="9.164365"><ele>338.0</ele><time>2026-04-16T14:21:38.872Z</time></trkpt><trkpt lat="44.41152" lon="9.1643683"><ele>338.0</ele><time>2026-04-16T14:21:39.875Z</time></trkpt><trkpt lat="44.4115867" lon="9.164355"><ele>338.0</ele><time>2026-04-16T14:21:40.874Z</time></trkpt><trkpt lat="44.411645" lon="9.1643183"><ele>338.0</ele><time>2026-04-16T14:21:41.873Z</time></trkpt><trkpt lat="44.4117467" lon="9.1642233"><ele>338.0</ele><time>2026-04-16T14:21:43.872Z</time></trkpt><trkpt lat="44.411845" lon="9.1642317"><ele>338.0</ele><time>2026-04-16T14:21:45.874Z</time></trkpt><trkpt lat="44.4118517" lon="9.16434"><ele>338.0</ele><time>2026-04-16T14:21:47.874Z</time></trkpt><trkpt lat="44.41177" lon="9.1644067"><ele>338.0</ele><time>2026-04-16T14:21:49.874Z</time></trkpt><trkpt lat="44.4116983" lon="9.1644117"><ele>338.0</ele><time>2026-04-16T14:21:50.869Z</time></trkpt><trkpt lat="44.411625" lon="9.1644167"><ele>338.0</ele><time>2026-04-16T14:21:51.874Z</time></trkpt><trkpt lat="44.4115467" lon="9.1644167"><ele>338.0</ele><time>2026-04-16T14:21:52.873Z</time></trkpt><trkpt lat="44.4114717" lon="9.1644183"><ele>338.0</ele><time>2026-04-16T14:21:53.874Z</time></trkpt><trkpt lat="44.4113983" lon="9.1644233"><ele>338.0</ele><time>2026-04-16T14:21:54.874Z</time></trkpt><trkpt lat="44.4113233" lon="9.1644417"><ele>338.0</ele><time>2026-04-16T14:21:55.873Z</time></trkpt><trkpt lat="44.411255" lon="9.16448"><ele>338.83333333333337</ele><time>2026-04-16T14:21:56.872Z</time></trkpt><trkpt lat="44.411185" lon="9.1645317"><ele>339.6666666666667</ele><time>2026-04-16T14:21:57.874Z</time></trkpt><trkpt lat="44.41112" lon="9.1645983"><ele>340.5</ele><time>2026-04-16T14:21:58.874Z</time></trkpt><trkpt lat="44.41106" lon="9.1646667"><ele>341.3333333333333</ele><time>2026-04-16T14:21:59.872Z</time></trkpt><trkpt lat="44.411025" lon="9.16476"><ele>342.16666666666663</ele><time>2026-04-16T14:22:00.873Z</time></trkpt><trkpt lat="44.410995" lon="9.1648567"><ele>343.0</ele><time>2026-04-16T14:22:01.872Z</time></trkpt><trkpt lat="44.4109883" lon="9.1649617"><ele>343.0</ele><time>2026-04-16T14:22:02.874Z</time></trkpt><trkpt lat="44.411" lon="9.1650683"><ele>343.0</ele><time>2026-04-16T14:22:03.873Z</time></trkpt><trkpt lat="44.4110283" lon="9.1651633"><ele>343.0</ele><time>2026-04-16T14:22:04.873Z</time></trkpt><trkpt lat="44.4111017" lon="9.1652967"><ele>343.0</ele><time>2026-04-16T14:22:06.872Z</time></trkpt><trkpt lat="44.4111433" lon="9.16544"><ele>343.0</ele><time>2026-04-16T14:22:08.876Z</time></trkpt><trkpt lat="44.411095" lon="9.165585"><ele>343.0</ele><time>2026-04-16T14:22:10.87Z</time></trkpt><trkpt lat="44.4110533" lon="9.165655"><ele>343.0</ele><time>2026-04-16T14:22:11.873Z</time></trkpt><trkpt lat="44.4110133" lon="9.1657367"><ele>343.0</ele><time>2026-04-16T14:22:12.872Z</time></trkpt><trkpt lat="44.4109817" lon="9.165825"><ele>343.0</ele><time>2026-04-16T14:22:13.872Z</time></trkpt><trkpt lat="44.4109583" lon="9.16592"><ele>343.0</ele><time>2026-04-16T14:22:14.873Z</time></trkpt><trkpt lat="44.4109383" lon="9.1660233"><ele>343.0</ele><time>2026-04-16T14:22:15.875Z</time></trkpt><trkpt lat="44.410925" lon="9.1661217"><ele>343.0</ele><time>2026-04-16T14:22:16.873Z</time></trkpt><trkpt lat="44.410905" lon="9.166225"><ele>343.5</ele><time>2026-04-16T14:22:17.873Z</time></trkpt><trkpt lat="44.410885" lon="9.1663283"><ele>344.0</ele><time>2026-04-16T14:22:18.874Z</time></trkpt><trkpt lat="44.410865" lon="9.1664267"><ele>344.5</ele><time>2026-04-16T14:22:19.875Z</time></trkpt><trkpt lat="44.4108567" lon="9.166525"><ele>345.0</ele><time>2026-04-16T14:22:20.878Z</time></trkpt><trkpt lat="44.4108683" lon="9.1666167"><ele>345.5</ele><time>2026-04-16T14:22:21.874Z</time></trkpt><trkpt lat="44.4109383" lon="9.1667217"><ele>346.0</ele><time>2026-04-16T14:22:23.874Z</time></trkpt><trkpt lat="44.4110367" lon="9.1666467"><ele>346.0</ele><time>2026-04-16T14:22:25.872Z</time></trkpt><trkpt lat="44.4110583" lon="9.16655"><ele>346.0</ele><time>2026-04-16T14:22:26.874Z</time></trkpt><trkpt lat="44.4110667" lon="9.1664133"><ele>346.0</ele><time>2026-04-16T14:22:27.874Z</time></trkpt><trkpt lat="44.4110767" lon="9.1662967"><ele>346.0</ele><time>2026-04-16T14:22:28.873Z</time></trkpt><trkpt lat="44.4110917" lon="9.1661833"><ele>346.0</ele><time>2026-04-16T14:22:29.873Z</time></trkpt><trkpt lat="44.4111717" lon="9.1660017"><ele>346.0</ele><time>2026-04-16T14:22:31.873Z</time></trkpt><trkpt lat="44.4112283" lon="9.1659483"><ele>346.0</ele><time>2026-04-16T14:22:32.873Z</time></trkpt><trkpt lat="44.4112867" lon="9.1659133"><ele>346.0</ele><time>2026-04-16T14:22:33.874Z</time></trkpt><trkpt lat="44.4113583" lon="9.1658917"><ele>346.0</ele><time>2026-04-16T14:22:34.873Z</time></trkpt><trkpt lat="44.41143" lon="9.16589"><ele>346.0</ele><time>2026-04-16T14:22:35.874Z</time></trkpt><trkpt lat="44.4115" lon="9.1658917"><ele>346.0</ele><time>2026-04-16T14:22:36.874Z</time></trkpt><trkpt lat="44.41157" lon="9.1658717"><ele>346.0</ele><time>2026-04-16T14:22:37.874Z</time></trkpt><trkpt lat="44.4116317" lon="9.1658267"><ele>348.3333333333333</ele><time>2026-04-16T14:22:38.874Z</time></trkpt><trkpt lat="44.4116783" lon="9.1657667"><ele>350.66666666666663</ele><time>2026-04-16T14:22:39.874Z</time></trkpt><trkpt lat="44.4117083" lon="9.1656083"><ele>353.0</ele><time>2026-04-16T14:22:41.872Z</time></trkpt><trkpt lat="44.41169" lon="9.1655167"><ele>355.3333333333333</ele><time>2026-04-16T14:22:42.874Z</time></trkpt><trkpt lat="44.4116683" lon="9.1654283"><ele>357.6666666666667</ele><time>2026-04-16T14:22:43.872Z</time></trkpt><trkpt lat="44.41166" lon="9.165325"><ele>360.0</ele><time>2026-04-16T14:22:44.875Z</time></trkpt><trkpt lat="44.411665" lon="9.1652233"><ele>360.0</ele><time>2026-04-16T14:22:45.874Z</time></trkpt><trkpt lat="44.411685" lon="9.1651283"><ele>360.0</ele><time>2026-04-16T14:22:46.872Z</time></trkpt><trkpt lat="44.4117167" lon="9.165035"><ele>360.0</ele><time>2026-04-16T14:22:47.873Z</time></trkpt><trkpt lat="44.411765" lon="9.1649433"><ele>360.0</ele><time>2026-04-16T14:22:48.875Z</time></trkpt><trkpt lat="44.4118283" lon="9.164865"><ele>360.0</ele><time>2026-04-16T14:22:49.873Z</time></trkpt><trkpt lat="44.4119017" lon="9.1648"><ele>360.0</ele><time>2026-04-16T14:22:50.875Z</time></trkpt><trkpt lat="44.411975" lon="9.1647533"><ele>360.1666666666667</ele><time>2026-04-16T14:22:51.872Z</time></trkpt><trkpt lat="44.4120533" lon="9.1647117"><ele>360.3333333333333</ele><time>2026-04-16T14:22:52.872Z</time></trkpt><trkpt lat="44.4121333" lon="9.1646833"><ele>360.5</ele><time>2026-04-16T14:22:53.874Z</time></trkpt><trkpt lat="44.4122117" lon="9.1646617"><ele>360.66666666666663</ele><time>2026-04-16T14:22:54.875Z</time></trkpt><trkpt lat="44.4123" lon="9.16465"><ele>360.8333333333333</ele><time>2026-04-16T14:22:55.872Z</time></trkpt><trkpt lat="44.4123817" lon="9.1646233"><ele>361.0</ele><time>2026-04-16T14:22:56.873Z</time></trkpt><trkpt lat="44.4124633" lon="9.164595"><ele>361.0</ele><time>2026-04-16T14:22:57.874Z</time></trkpt><trkpt lat="44.4125433" lon="9.1645617"><ele>361.0</ele><time>2026-04-16T14:22:58.873Z</time></trkpt><trkpt lat="44.4126317" lon="9.1645317"><ele>361.0</ele><time>2026-04-16T14:22:59.874Z</time></trkpt><trkpt lat="44.4127183" lon="9.1645067"><ele>361.0</ele><time>2026-04-16T14:23:00.874Z</time></trkpt><trkpt lat="44.4128083" lon="9.1644917"><ele>361.0</ele><time>2026-04-16T14:23:01.872Z</time></trkpt><trkpt lat="44.412895" lon="9.1644767"><ele>361.0</ele><time>2026-04-16T14:23:02.873Z</time></trkpt><trkpt lat="44.4129783" lon="9.1644483"><ele>365.5</ele><time>2026-04-16T14:23:03.872Z</time></trkpt><trkpt lat="44.4130583" lon="9.1643983"><ele>370.0</ele><time>2026-04-16T14:23:04.873Z</time></trkpt><trkpt lat="44.4131183" lon="9.16432"><ele>374.5</ele><time>2026-04-16T14:23:05.875Z</time></trkpt><trkpt lat="44.4131583" lon="9.1642217"><ele>379.0</ele><time>2026-04-16T14:23:06.873Z</time></trkpt><trkpt lat="44.41318" lon="9.1641117"><ele>383.50000000000006</ele><time>2026-04-16T14:23:07.871Z</time></trkpt><trkpt lat="44.4131883" lon="9.164015"><ele>388.0</ele><time>2026-04-16T14:23:08.874Z</time></trkpt><trkpt lat="44.4131983" lon="9.163925"><ele>388.00000000000006</ele><time>2026-04-16T14:23:09.873Z</time></trkpt><trkpt lat="44.4132233" lon="9.1638283"><ele>388.0</ele><time>2026-04-16T14:23:10.874Z</time></trkpt><trkpt lat="44.4132467" lon="9.163705"><ele>388.0</ele><time>2026-04-16T14:23:11.873Z</time></trkpt><trkpt lat="44.4132633" lon="9.1635767"><ele>388.0</ele><time>2026-04-16T14:23:12.872Z</time></trkpt><trkpt lat="44.4132683" lon="9.1634433"><ele>388.00000000000006</ele><time>2026-04-16T14:23:13.873Z</time></trkpt><trkpt lat="44.413265" lon="9.16332"><ele>388.0</ele><time>2026-04-16T14:23:14.874Z</time></trkpt><trkpt lat="44.4132633" lon="9.1632067"><ele>388.00000000000006</ele><time>2026-04-16T14:23:15.874Z</time></trkpt><trkpt lat="44.4132617" lon="9.163105"><ele>388.0</ele><time>2026-04-16T14:23:16.872Z</time></trkpt><trkpt lat="44.413235" lon="9.1630233"><ele>388.0</ele><time>2026-04-16T14:23:17.872Z</time></trkpt><trkpt lat="44.41322" lon="9.1629133"><ele>388.0</ele><time>2026-04-16T14:23:19.874Z</time></trkpt><trkpt lat="44.413295" lon="9.1630167"><ele>388.00000000000006</ele><time>2026-04-16T14:23:22.874Z</time></trkpt><trkpt lat="44.4133133" lon="9.16314"><ele>388.0</ele><time>2026-04-16T14:23:23.874Z</time></trkpt><trkpt lat="44.4133367" lon="9.1632783"><ele>388.0</ele><time>2026-04-16T14:23:24.874Z</time></trkpt><trkpt lat="44.4133583" lon="9.1634133"><ele>388.0</ele><time>2026-04-16T14:23:25.874Z</time></trkpt><trkpt lat="44.4133733" lon="9.1635467"><ele>388.0</ele><time>2026-04-16T14:23:26.885Z</time></trkpt><trkpt lat="44.413375" lon="9.163675"><ele>388.0</ele><time>2026-04-16T14:23:27.875Z</time></trkpt><trkpt lat="44.413355" lon="9.1637917"><ele>388.0</ele><time>2026-04-16T14:23:28.873Z</time></trkpt><trkpt lat="44.4133167" lon="9.16391"><ele>389.2</ele><time>2026-04-16T14:23:29.874Z</time></trkpt><trkpt lat="44.4132867" lon="9.1640333"><ele>390.4</ele><time>2026-04-16T14:23:30.873Z</time></trkpt><trkpt lat="44.41327" lon="9.1641717"><ele>391.59999999999997</ele><time>2026-04-16T14:23:31.874Z</time></trkpt><trkpt lat="44.41329" lon="9.1643017"><ele>392.79999999999995</ele><time>2026-04-16T14:23:32.873Z</time></trkpt><trkpt lat="44.4133" lon="9.1644333"><ele>394.0</ele><time>2026-04-16T14:23:33.872Z</time></trkpt><trkpt lat="44.4133" lon="9.16457"><ele>394.0</ele><time>2026-04-16T14:23:34.874Z</time></trkpt><trkpt lat="44.4132983" lon="9.164705"><ele>394.0</ele><time>2026-04-16T14:23:35.875Z</time></trkpt><trkpt lat="44.4132867" lon="9.1648267"><ele>394.0</ele><time>2026-04-16T14:23:36.87Z</time></trkpt><trkpt lat="44.4132583" lon="9.1649383"><ele>394.0</ele><time>2026-04-16T14:23:37.874Z</time></trkpt><trkpt lat="44.4132067" lon="9.165"><ele>394.0</ele><time>2026-04-16T14:23:38.875Z</time></trkpt><trkpt lat="44.4130833" lon="9.1650317"><ele>392.79999999999995</ele><time>2026-04-16T14:23:40.877Z</time></trkpt><trkpt lat="44.413005" lon="9.1650583"><ele>391.59999999999997</ele><time>2026-04-16T14:23:41.872Z</time></trkpt><trkpt lat="44.412925" lon="9.1651433"><ele>390.4</ele><time>2026-04-16T14:23:42.873Z</time></trkpt><trkpt lat="44.4128683" lon="9.1652733"><ele>389.2</ele><time>2026-04-16T14:23:43.877Z</time></trkpt><trkpt lat="44.4128067" lon="9.165415"><ele>388.0</ele><time>2026-04-16T14:23:44.874Z</time></trkpt><trkpt lat="44.4127483" lon="9.165565"><ele>389.59999999999997</ele><time>2026-04-16T14:23:45.873Z</time></trkpt><trkpt lat="44.4127" lon="9.16571"><ele>391.2</ele><time>2026-04-16T14:23:46.874Z</time></trkpt><trkpt lat="44.4126617" lon="9.1658467"><ele>392.8</ele><time>2026-04-16T14:23:47.875Z</time></trkpt><trkpt lat="44.4126317" lon="9.1659833"><ele>394.4</ele><time>2026-04-16T14:23:48.874Z</time></trkpt><trkpt lat="44.4126033" lon="9.1661183"><ele>396.0</ele><time>2026-04-16T14:23:49.874Z</time></trkpt><trkpt lat="44.4125767" lon="9.16625"><ele>396.0</ele><time>2026-04-16T14:23:50.874Z</time></trkpt><trkpt lat="44.4125617" lon="9.16637"><ele>396.0</ele><time>2026-04-16T14:23:51.873Z</time></trkpt><trkpt lat="44.4125583" lon="9.1664717"><ele>396.0</ele><time>2026-04-16T14:23:52.87Z</time></trkpt><trkpt lat="44.4125583" lon="9.16656"><ele>396.0</ele><time>2026-04-16T14:23:53.874Z</time></trkpt><trkpt lat="44.4125683" lon="9.1667167"><ele>396.0</ele><time>2026-04-16T14:23:55.871Z</time></trkpt><trkpt lat="44.41261" lon="9.1668467"><ele>396.0</ele><time>2026-04-16T14:23:57.872Z</time></trkpt><trkpt lat="44.4126467" lon="9.16692"><ele>397.3333333333333</ele><time>2026-04-16T14:23:58.873Z</time></trkpt><trkpt lat="44.4126817" lon="9.1669983"><ele>398.66666666666663</ele><time>2026-04-16T14:23:59.874Z</time></trkpt><trkpt lat="44.412715" lon="9.1670783"><ele>400.0</ele><time>2026-04-16T14:24:00.872Z</time></trkpt><trkpt lat="44.4127583" lon="9.167185"><ele>401.3333333333333</ele><time>2026-04-16T14:24:02.872Z</time></trkpt><trkpt lat="44.4127783" lon="9.167275"><ele>402.66666666666663</ele><time>2026-04-16T14:24:05.875Z</time></trkpt><trkpt lat="44.412795" lon="9.1673917"><ele>404.0</ele><time>2026-04-16T14:24:11.874Z</time></trkpt><trkpt lat="44.41279" lon="9.1675133"><ele>404.6</ele><time>2026-04-16T14:24:17.873Z</time></trkpt><trkpt lat="44.412835" lon="9.167675"><ele>405.2</ele><time>2026-04-16T14:24:19.876Z</time></trkpt><trkpt lat="44.4128883" lon="9.16777"><ele>405.8</ele><time>2026-04-16T14:24:20.875Z</time></trkpt><trkpt lat="44.4129533" lon="9.1678617"><ele>406.40000000000003</ele><time>2026-04-16T14:24:21.873Z</time></trkpt><trkpt lat="44.413025" lon="9.1679367"><ele>407.0</ele><time>2026-04-16T14:24:22.875Z</time></trkpt><trkpt lat="44.4131067" lon="9.1680183"><ele>410.66666666666663</ele><time>2026-04-16T14:24:23.874Z</time></trkpt><trkpt lat="44.4131717" lon="9.16809"><ele>414.3333333333333</ele><time>2026-04-16T14:24:24.873Z</time></trkpt><trkpt lat="44.4132167" lon="9.168175"><ele>418.0</ele><time>2026-04-16T14:24:25.873Z</time></trkpt><trkpt lat="44.41323" lon="9.1682733"><ele>421.66666666666663</ele><time>2026-04-16T14:24:26.873Z</time></trkpt><trkpt lat="44.413235" lon="9.168425"><ele>425.3333333333333</ele><time>2026-04-16T14:24:28.872Z</time></trkpt><trkpt lat="44.4133167" lon="9.1685167"><ele>429.0</ele><time>2026-04-16T14:24:47.873Z</time></trkpt><trkpt lat="44.4134133" lon="9.1686"><ele>429.0</ele><time>2026-04-16T14:24:49.874Z</time></trkpt><trkpt lat="44.41352" lon="9.168695"><ele>429.0</ele><time>2026-04-16T14:24:51.873Z</time></trkpt><trkpt lat="44.4135267" lon="9.1688183"><ele>429.0</ele><time>2026-04-16T14:24:54.879Z</time></trkpt><trkpt lat="44.4135033" lon="9.1689033"><ele>429.0</ele><time>2026-04-16T14:24:56.876Z</time></trkpt><trkpt lat="44.4134583" lon="9.1690367"><ele>429.0</ele><time>2026-04-16T14:24:58.875Z</time></trkpt><trkpt lat="44.4134317" lon="9.1691183"><ele>429.0</ele><time>2026-04-16T14:24:59.875Z</time></trkpt><trkpt lat="44.413405" lon="9.1692283"><ele>430.0</ele><time>2026-04-16T14:25:01.872Z</time></trkpt><trkpt lat="44.413415" lon="9.1693333"><ele>431.0</ele><time>2026-04-16T14:25:03.873Z</time></trkpt><trkpt lat="44.41346" lon="9.1694183"><ele>432.0</ele><time>2026-04-16T14:25:05.873Z</time></trkpt><trkpt lat="44.41354" lon="9.1694417"><ele>433.0</ele><time>2026-04-16T14:25:09.876Z</time></trkpt><trkpt lat="44.4136067" lon="9.1695133"><ele>434.0</ele><time>2026-04-16T14:25:11.877Z</time></trkpt><trkpt lat="44.41367" lon="9.1696317"><ele>435.0</ele><time>2026-04-16T14:25:13.874Z</time></trkpt><trkpt lat="44.4136967" lon="9.1697183"><ele>436.5</ele><time>2026-04-16T14:25:14.875Z</time></trkpt><trkpt lat="44.413725" lon="9.16987"><ele>438.0</ele><time>2026-04-16T14:25:16.875Z</time></trkpt><trkpt lat="44.4137467" lon="9.16998"><ele>439.5</ele><time>2026-04-16T14:25:18.876Z</time></trkpt><trkpt lat="44.4137583" lon="9.17008"><ele>441.0</ele><time>2026-04-16T14:25:20.876Z</time></trkpt><trkpt lat="44.4137783" lon="9.1701883"><ele>442.5</ele><time>2026-04-16T14:25:22.875Z</time></trkpt><trkpt lat="44.4137933" lon="9.170305"><ele>444.0</ele><time>2026-04-16T14:25:24.876Z</time></trkpt><trkpt lat="44.413835" lon="9.170415"><ele>450.79999999999995</ele><time>2026-04-16T14:25:26.876Z</time></trkpt><trkpt lat="44.4138517" lon="9.1705283"><ele>457.59999999999997</ele><time>2026-04-16T14:25:28.883Z</time></trkpt><trkpt lat="44.4138633" lon="9.1706417"><ele>464.4</ele><time>2026-04-16T14:25:30.873Z</time></trkpt><trkpt lat="44.4138733" lon="9.1707783"><ele>471.2</ele><time>2026-04-16T14:25:32.874Z</time></trkpt><trkpt lat="44.4138383" lon="9.170955"><ele>478.0</ele><time>2026-04-16T14:25:34.874Z</time></trkpt><trkpt lat="44.4138233" lon="9.1710517"><ele>479.7142857142858</ele><time>2026-04-16T14:25:35.874Z</time></trkpt><trkpt lat="44.41381" lon="9.171145"><ele>481.42857142857144</ele><time>2026-04-16T14:25:36.875Z</time></trkpt><trkpt lat="44.4138133" lon="9.1712467"><ele>483.14285714285717</ele><time>2026-04-16T14:25:37.874Z</time></trkpt><trkpt lat="44.4138267" lon="9.1713417"><ele>484.8571428571429</ele><time>2026-04-16T14:25:38.875Z</time></trkpt><trkpt lat="44.41384" lon="9.1714383"><ele>486.57142857142856</ele><time>2026-04-16T14:25:39.872Z</time></trkpt><trkpt lat="44.4138483" lon="9.1715533"><ele>488.2857142857143</ele><time>2026-04-16T14:25:40.871Z</time></trkpt><trkpt lat="44.4138483" lon="9.1716483"><ele>490.0</ele><time>2026-04-16T14:25:41.872Z</time></trkpt><trkpt lat="44.4138467" lon="9.1717517"><ele>492.33333333333337</ele><time>2026-04-16T14:25:42.874Z</time></trkpt><trkpt lat="44.4138383" lon="9.1718433"><ele>494.6666666666667</ele><time>2026-04-16T14:25:43.872Z</time></trkpt><trkpt lat="44.4138167" lon="9.171975"><ele>497.0</ele><time>2026-04-16T14:25:45.874Z</time></trkpt><trkpt lat="44.4138967" lon="9.172065"><ele>499.33333333333337</ele><time>2026-04-16T14:25:48.874Z</time></trkpt><trkpt lat="44.4139583" lon="9.17213"><ele>501.6666666666667</ele><time>2026-04-16T14:25:50.877Z</time></trkpt><trkpt lat="44.414" lon="9.1722167"><ele>504.0</ele><time>2026-04-16T14:25:52.874Z</time></trkpt><trkpt lat="44.4139833" lon="9.1723067"><ele>504.0</ele><time>2026-04-16T14:25:56.875Z</time></trkpt><trkpt lat="44.41406" lon="9.1723117"><ele>504.0</ele><time>2026-04-16T14:25:58.873Z</time></trkpt><trkpt lat="44.4141667" lon="9.1722983"><ele>504.0</ele><time>2026-04-16T14:26:00.873Z</time></trkpt><trkpt lat="44.41423" lon="9.17226"><ele>504.0</ele><time>2026-04-16T14:26:01.876Z</time></trkpt><trkpt lat="44.4142783" lon="9.1722033"><ele>504.0</ele><time>2026-04-16T14:26:02.874Z</time></trkpt><trkpt lat="44.4143617" lon="9.1720967"><ele>504.0</ele><time>2026-04-16T14:26:04.876Z</time></trkpt><trkpt lat="44.4144367" lon="9.1719533"><ele>504.0</ele><time>2026-04-16T14:26:06.874Z</time></trkpt><trkpt lat="44.4145033" lon="9.1718667"><ele>504.0</ele><time>2026-04-16T14:26:08.874Z</time></trkpt><trkpt lat="44.4145717" lon="9.1719333"><ele>504.0</ele><time>2026-04-16T14:26:10.872Z</time></trkpt><trkpt lat="44.4146217" lon="9.17199"><ele>504.0</ele><time>2026-04-16T14:26:11.875Z</time></trkpt><trkpt lat="44.4146733" lon="9.1720433"><ele>504.0</ele><time>2026-04-16T14:26:12.874Z</time></trkpt><trkpt lat="44.4147517" lon="9.1721417"><ele>504.0</ele><time>2026-04-16T14:26:14.874Z</time></trkpt><trkpt lat="44.4148083" lon="9.1722133"><ele>507.0</ele><time>2026-04-16T14:26:17.875Z</time></trkpt><trkpt lat="44.4148067" lon="9.17231"><ele>510.0</ele><time>2026-04-16T14:26:19.873Z</time></trkpt><trkpt lat="44.4147867" lon="9.1724117"><ele>513.0</ele><time>2026-04-16T14:26:21.875Z</time></trkpt><trkpt lat="44.41471" lon="9.172395"><ele>516.0</ele><time>2026-04-16T14:26:28.875Z</time></trkpt><trkpt lat="44.4146683" lon="9.1724633"><ele>519.0</ele><time>2026-04-16T14:26:31.875Z</time></trkpt><trkpt lat="44.4146333" lon="9.172565"><ele>522.0</ele><time>2026-04-16T14:26:33.874Z</time></trkpt><trkpt lat="44.414575" lon="9.17271"><ele>522.0</ele><time>2026-04-16T14:26:35.874Z</time></trkpt><trkpt lat="44.4145417" lon="9.1727933"><ele>522.0</ele><time>2026-04-16T14:26:36.874Z</time></trkpt><trkpt lat="44.4145083" lon="9.172885"><ele>522.0</ele><time>2026-04-16T14:26:37.872Z</time></trkpt><trkpt lat="44.4144733" lon="9.1729733"><ele>522.0</ele><time>2026-04-16T14:26:38.875Z</time></trkpt><trkpt lat="44.4144467" lon="9.1730583"><ele>522.0</ele><time>2026-04-16T14:26:39.874Z</time></trkpt><trkpt lat="44.4144267" lon="9.1732333"><ele>522.0</ele><time>2026-04-16T14:26:41.875Z</time></trkpt><trkpt lat="44.4144167" lon="9.173335"><ele>525.6666666666666</ele><time>2026-04-16T14:26:42.875Z</time></trkpt><trkpt lat="44.4144117" lon="9.17343"><ele>529.3333333333334</ele><time>2026-04-16T14:26:43.873Z</time></trkpt><trkpt lat="44.4144083" lon="9.1735317"><ele>533.0</ele><time>2026-04-16T14:26:44.876Z</time></trkpt><trkpt lat="44.4143917" lon="9.1736383"><ele>536.6666666666667</ele><time>2026-04-16T14:26:45.873Z</time></trkpt><trkpt lat="44.4143767" lon="9.17375"><ele>540.3333333333334</ele><time>2026-04-16T14:26:46.873Z</time></trkpt><trkpt lat="44.4143633" lon="9.173855"><ele>544.0</ele><time>2026-04-16T14:26:47.873Z</time></trkpt><trkpt lat="44.41435" lon="9.17397"><ele>546.0</ele><time>2026-04-16T14:26:48.874Z</time></trkpt><trkpt lat="44.4143467" lon="9.1741"><ele>548.0</ele><time>2026-04-16T14:26:49.874Z</time></trkpt><trkpt lat="44.4143633" lon="9.1742267"><ele>550.0</ele><time>2026-04-16T14:26:50.877Z</time></trkpt><trkpt lat="44.4143767" lon="9.1743467"><ele>552.0</ele><time>2026-04-16T14:26:51.874Z</time></trkpt><trkpt lat="44.4143767" lon="9.174445"><ele>554.0</ele><time>2026-04-16T14:26:52.874Z</time></trkpt><trkpt lat="44.4143567" lon="9.174555"><ele>556.0</ele><time>2026-04-16T14:26:53.874Z</time></trkpt><trkpt lat="44.4143317" lon="9.1746667"><ele>556.0</ele><time>2026-04-16T14:26:54.873Z</time></trkpt><trkpt lat="44.4143067" lon="9.1747733"><ele>556.0</ele><time>2026-04-16T14:26:55.873Z</time></trkpt><trkpt lat="44.4142917" lon="9.1748717"><ele>556.0</ele><time>2026-04-16T14:26:56.874Z</time></trkpt><trkpt lat="44.414265" lon="9.174955"><ele>556.0</ele><time>2026-04-16T14:26:57.873Z</time></trkpt><trkpt lat="44.4142217" lon="9.1750333"><ele>556.0</ele><time>2026-04-16T14:26:58.871Z</time></trkpt><trkpt lat="44.4141867" lon="9.17512"><ele>556.0</ele><time>2026-04-16T14:26:59.872Z</time></trkpt><trkpt lat="44.414155" lon="9.1752033"><ele>556.0</ele><time>2026-04-16T14:27:00.873Z</time></trkpt><trkpt lat="44.4141233" lon="9.1752867"><ele>557.8333333333334</ele><time>2026-04-16T14:27:01.874Z</time></trkpt><trkpt lat="44.4140933" lon="9.1753717"><ele>559.6666666666667</ele><time>2026-04-16T14:27:02.873Z</time></trkpt><trkpt lat="44.4140633" lon="9.1754617"><ele>561.5</ele><time>2026-04-16T14:27:03.873Z</time></trkpt><trkpt lat="44.4140267" lon="9.1755583"><ele>563.3333333333334</ele><time>2026-04-16T14:27:04.873Z</time></trkpt><trkpt lat="44.41399" lon="9.1756633"><ele>565.1666666666666</ele><time>2026-04-16T14:27:05.875Z</time></trkpt><trkpt lat="44.4139617" lon="9.1757733"><ele>567.0</ele><time>2026-04-16T14:27:06.874Z</time></trkpt><trkpt lat="44.41394" lon="9.175885"><ele>568.6666666666666</ele><time>2026-04-16T14:27:07.874Z</time></trkpt><trkpt lat="44.413915" lon="9.1759983"><ele>570.3333333333334</ele><time>2026-04-16T14:27:08.874Z</time></trkpt><trkpt lat="44.41389" lon="9.176115"><ele>572.0</ele><time>2026-04-16T14:27:09.874Z</time></trkpt><trkpt lat="44.413865" lon="9.17621"><ele>573.6666666666667</ele><time>2026-04-16T14:27:10.87Z</time></trkpt><trkpt lat="44.41384" lon="9.1763867"><ele>575.3333333333334</ele><time>2026-04-16T14:27:12.874Z</time></trkpt><trkpt lat="44.413825" lon="9.1764833"><ele>577.0</ele><time>2026-04-16T14:27:13.874Z</time></trkpt><trkpt lat="44.413825" lon="9.1765867"><ele>577.8333333333334</ele><time>2026-04-16T14:27:14.875Z</time></trkpt><trkpt lat="44.41385" lon="9.1767133"><ele>578.6666666666667</ele><time>2026-04-16T14:27:15.873Z</time></trkpt><trkpt lat="44.4138733" lon="9.17684"><ele>579.5</ele><time>2026-04-16T14:27:16.873Z</time></trkpt><trkpt lat="44.4138717" lon="9.176955"><ele>580.3333333333334</ele><time>2026-04-16T14:27:17.875Z</time></trkpt><trkpt lat="44.4138517" lon="9.17707"><ele>581.1666666666666</ele><time>2026-04-16T14:27:18.875Z</time></trkpt><trkpt lat="44.4138317" lon="9.1771933"><ele>582.0</ele><time>2026-04-16T14:27:19.875Z</time></trkpt><trkpt lat="44.4138233" lon="9.17734"><ele>582.0</ele><time>2026-04-16T14:27:20.876Z</time></trkpt><trkpt lat="44.4138233" lon="9.177485"><ele>582.0</ele><time>2026-04-16T14:27:21.875Z</time></trkpt><trkpt lat="44.41381" lon="9.1776"><ele>582.0</ele><time>2026-04-16T14:27:22.874Z</time></trkpt><trkpt lat="44.41377" lon="9.177695"><ele>582.0</ele><time>2026-04-16T14:27:23.873Z</time></trkpt><trkpt lat="44.4137317" lon="9.1777917"><ele>582.0</ele><time>2026-04-16T14:27:24.875Z</time></trkpt><trkpt lat="44.41371" lon="9.1778933"><ele>582.0</ele><time>2026-04-16T14:27:25.874Z</time></trkpt><trkpt lat="44.413695" lon="9.1780367"><ele>582.0</ele><time>2026-04-16T14:27:26.874Z</time></trkpt><trkpt lat="44.413675" lon="9.1781733"><ele>582.0</ele><time>2026-04-16T14:27:27.874Z</time></trkpt><trkpt lat="44.4136433" lon="9.1782867"><ele>582.0</ele><time>2026-04-16T14:27:28.875Z</time></trkpt><trkpt lat="44.4135983" lon="9.17837"><ele>582.0</ele><time>2026-04-16T14:27:29.875Z</time></trkpt><trkpt lat="44.4135283" lon="9.178425"><ele>582.0</ele><time>2026-04-16T14:27:30.874Z</time></trkpt><trkpt lat="44.4134283" lon="9.1784617"><ele>582.0</ele><time>2026-04-16T14:27:31.874Z</time></trkpt><trkpt lat="44.41333" lon="9.1785033"><ele>583.0</ele><time>2026-04-16T14:27:32.873Z</time></trkpt><trkpt lat="44.413235" lon="9.178545"><ele>584.0</ele><time>2026-04-16T14:27:33.875Z</time></trkpt><trkpt lat="44.4131333" lon="9.17858"><ele>585.0</ele><time>2026-04-16T14:27:34.874Z</time></trkpt><trkpt lat="44.4130067" lon="9.1786117"><ele>586.0</ele><time>2026-04-16T14:27:35.874Z</time></trkpt><trkpt lat="44.4128783" lon="9.1786467"><ele>586.0</ele><time>2026-04-16T14:27:36.874Z</time></trkpt><trkpt lat="44.412785" lon="9.1786833"><ele>586.0</ele><time>2026-04-16T14:27:37.873Z</time></trkpt><trkpt lat="44.4127133" lon="9.1787267"><ele>586.0</ele><time>2026-04-16T14:27:38.876Z</time></trkpt><trkpt lat="44.4126417" lon="9.1787867"><ele>586.0</ele><time>2026-04-16T14:27:39.876Z</time></trkpt><trkpt lat="44.4125733" lon="9.178865"><ele>586.0</ele><time>2026-04-16T14:27:40.875Z</time></trkpt><trkpt lat="44.4125083" lon="9.1789367"><ele>586.0</ele><time>2026-04-16T14:27:41.876Z</time></trkpt><trkpt lat="44.412445" lon="9.1790133"><ele>588.6</ele><time>2026-04-16T14:27:42.877Z</time></trkpt><trkpt lat="44.4123717" lon="9.1791067"><ele>591.2</ele><time>2026-04-16T14:27:43.873Z</time></trkpt><trkpt lat="44.4123033" lon="9.1792017"><ele>593.8</ele><time>2026-04-16T14:27:44.874Z</time></trkpt><trkpt lat="44.41225" lon="9.1793033"><ele>596.4</ele><time>2026-04-16T14:27:45.874Z</time></trkpt><trkpt lat="44.4122033" lon="9.1794067"><ele>599.0</ele><time>2026-04-16T14:27:46.871Z</time></trkpt><trkpt lat="44.4121567" lon="9.17951"><ele>598.5</ele><time>2026-04-16T14:27:47.874Z</time></trkpt><trkpt lat="44.4121" lon="9.179605"><ele>598.0</ele><time>2026-04-16T14:27:48.874Z</time></trkpt><trkpt lat="44.41204" lon="9.179685"><ele>597.5</ele><time>2026-04-16T14:27:49.874Z</time></trkpt><trkpt lat="44.411965" lon="9.1797583"><ele>597.0</ele><time>2026-04-16T14:27:50.88Z</time></trkpt><trkpt lat="44.4118917" lon="9.179835"><ele>596.5</ele><time>2026-04-16T14:27:51.873Z</time></trkpt><trkpt lat="44.4118167" lon="9.1798933"><ele>596.0</ele><time>2026-04-16T14:27:52.872Z</time></trkpt><trkpt lat="44.4117333" lon="9.1799383"><ele>596.0</ele><time>2026-04-16T14:27:53.872Z</time></trkpt><trkpt lat="44.4116417" lon="9.1799767"><ele>596.0</ele><time>2026-04-16T14:27:54.874Z</time></trkpt><trkpt lat="44.4115417" lon="9.1800167"><ele>596.0</ele><time>2026-04-16T14:27:55.873Z</time></trkpt><trkpt lat="44.4114483" lon="9.18005"><ele>596.0</ele><time>2026-04-16T14:27:56.874Z</time></trkpt><trkpt lat="44.4113833" lon="9.18005"><ele>596.0</ele><time>2026-04-16T14:27:57.883Z</time></trkpt><trkpt lat="44.4112783" lon="9.1799933"><ele>596.3333333333333</ele><time>2026-04-16T14:27:59.875Z</time></trkpt><trkpt lat="44.4112083" lon="9.1799567"><ele>596.6666666666666</ele><time>2026-04-16T14:28:01.873Z</time></trkpt><trkpt lat="44.411125" lon="9.1800117"><ele>597.0</ele><time>2026-04-16T14:28:03.874Z</time></trkpt><trkpt lat="44.4110833" lon="9.1801083"><ele>597.3333333333334</ele><time>2026-04-16T14:28:05.873Z</time></trkpt><trkpt lat="44.41104" lon="9.180215"><ele>597.6666666666667</ele><time>2026-04-16T14:28:07.874Z</time></trkpt><trkpt lat="44.411" lon="9.1803133"><ele>598.0</ele><time>2026-04-16T14:28:09.874Z</time></trkpt><trkpt lat="44.41094" lon="9.1803833"><ele>598.0</ele><time>2026-04-16T14:28:11.874Z</time></trkpt><trkpt lat="44.41085" lon="9.1804383"><ele>598.0</ele><time>2026-04-16T14:28:14.877Z</time></trkpt><trkpt lat="44.4107617" lon="9.18047"><ele>598.0</ele><time>2026-04-16T14:28:17.874Z</time></trkpt><trkpt lat="44.410635" lon="9.18054"><ele>598.0</ele><time>2026-04-16T14:28:19.873Z</time></trkpt><trkpt lat="44.410575" lon="9.18061"><ele>598.0</ele><time>2026-04-16T14:28:21.874Z</time></trkpt><trkpt lat="44.4105317" lon="9.1807167"><ele>601.0</ele><time>2026-04-16T14:28:23.877Z</time></trkpt><trkpt lat="44.4105017" lon="9.180825"><ele>604.0</ele><time>2026-04-16T14:28:24.876Z</time></trkpt><trkpt lat="44.410455" lon="9.1809567"><ele>607.0</ele><time>2026-04-16T14:28:25.875Z</time></trkpt><trkpt lat="44.4104017" lon="9.18107"><ele>610.0</ele><time>2026-04-16T14:28:26.876Z</time></trkpt><trkpt lat="44.4103433" lon="9.1811533"><ele>613.0</ele><time>2026-04-16T14:28:27.873Z</time></trkpt><trkpt lat="44.4102967" lon="9.1812317"><ele>616.0</ele><time>2026-04-16T14:28:28.875Z</time></trkpt><trkpt lat="44.4102983" lon="9.1813683"><ele>616.1666666666667</ele><time>2026-04-16T14:28:30.874Z</time></trkpt><trkpt lat="44.4102583" lon="9.1814533"><ele>616.3333333333334</ele><time>2026-04-16T14:28:33.874Z</time></trkpt><trkpt lat="44.41019" lon="9.18152"><ele>616.5</ele><time>2026-04-16T14:28:35.876Z</time></trkpt><trkpt lat="44.4101233" lon="9.1816267"><ele>616.6666666666666</ele><time>2026-04-16T14:28:37.874Z</time></trkpt><trkpt lat="44.4100817" lon="9.1817667"><ele>616.8333333333333</ele><time>2026-04-16T14:28:39.874Z</time></trkpt><trkpt lat="44.410045" lon="9.1818567"><ele>617.0</ele><time>2026-04-16T14:28:41.873Z</time></trkpt><trkpt lat="44.4099717" lon="9.1818533"><ele>617.3333333333333</ele><time>2026-04-16T14:28:44.877Z</time></trkpt><trkpt lat="44.4099017" lon="9.18184"><ele>617.6666666666666</ele><time>2026-04-16T14:28:46.872Z</time></trkpt><trkpt lat="44.40981" lon="9.181875"><ele>618.0</ele><time>2026-04-16T14:28:48.876Z</time></trkpt><trkpt lat="44.40976" lon="9.181935"><ele>618.3333333333334</ele><time>2026-04-16T14:28:49.873Z</time></trkpt><trkpt lat="44.4097083" lon="9.1820167"><ele>618.6666666666667</ele><time>2026-04-16T14:28:50.874Z</time></trkpt><trkpt lat="44.40966" lon="9.1820983"><ele>619.0</ele><time>2026-04-16T14:28:51.878Z</time></trkpt><trkpt lat="44.40961" lon="9.1821833"><ele>619.0</ele><time>2026-04-16T14:28:52.872Z</time></trkpt><trkpt lat="44.4095667" lon="9.1822583"><ele>619.0</ele><time>2026-04-16T14:28:53.874Z</time></trkpt><trkpt lat="44.4095333" lon="9.1823583"><ele>619.0</ele><time>2026-04-16T14:28:54.874Z</time></trkpt><trkpt lat="44.409495" lon="9.1824633"><ele>619.0</ele><time>2026-04-16T14:28:55.875Z</time></trkpt><trkpt lat="44.40945" lon="9.18256"><ele>619.0</ele><time>2026-04-16T14:28:56.876Z</time></trkpt><trkpt lat="44.409395" lon="9.1826533"><ele>619.0</ele><time>2026-04-16T14:28:57.875Z</time></trkpt><trkpt lat="44.4093267" lon="9.1827383"><ele>623.8</ele><time>2026-04-16T14:28:58.872Z</time></trkpt><trkpt lat="44.40925" lon="9.18281"><ele>628.5999999999999</ele><time>2026-04-16T14:28:59.874Z</time></trkpt><trkpt lat="44.4091767" lon="9.1828767"><ele>633.4</ele><time>2026-04-16T14:29:00.875Z</time></trkpt><trkpt lat="44.4091083" lon="9.1829533"><ele>638.1999999999999</ele><time>2026-04-16T14:29:01.874Z</time></trkpt><trkpt lat="44.40904" lon="9.1830433"><ele>643.0</ele><time>2026-04-16T14:29:02.874Z</time></trkpt><trkpt lat="44.4089733" lon="9.1831317"><ele>642.4</ele><time>2026-04-16T14:29:03.874Z</time></trkpt><trkpt lat="44.4088967" lon="9.1832067"><ele>641.8</ele><time>2026-04-16T14:29:04.874Z</time></trkpt><trkpt lat="44.4088167" lon="9.1832633"><ele>641.2</ele><time>2026-04-16T14:29:05.874Z</time></trkpt><trkpt lat="44.40873" lon="9.1833233"><ele>640.6</ele><time>2026-04-16T14:29:06.872Z</time></trkpt><trkpt lat="44.4086483" lon="9.1833967"><ele>640.0</ele><time>2026-04-16T14:29:07.875Z</time></trkpt><trkpt lat="44.40858" lon="9.183465"><ele>638.8</ele><time>2026-04-16T14:29:08.875Z</time></trkpt><trkpt lat="44.4084933" lon="9.183545"><ele>637.6</ele><time>2026-04-16T14:29:10.87Z</time></trkpt><trkpt lat="44.40841" lon="9.1836167"><ele>636.4</ele><time>2026-04-16T14:29:18.877Z</time></trkpt><trkpt lat="44.4083033" lon="9.1836733"><ele>635.2</ele><time>2026-04-16T14:29:20.877Z</time></trkpt><trkpt lat="44.408205" lon="9.1837483"><ele>634.0</ele><time>2026-04-16T14:29:22.875Z</time></trkpt><trkpt lat="44.408115" lon="9.18383"><ele>634.0</ele><time>2026-04-16T14:29:24.874Z</time></trkpt><trkpt lat="44.4080667" lon="9.1838883"><ele>634.0</ele><time>2026-04-16T14:29:25.876Z</time></trkpt><trkpt lat="44.40801" lon="9.1839483"><ele>634.0</ele><time>2026-04-16T14:29:26.877Z</time></trkpt><trkpt lat="44.407955" lon="9.1840183"><ele>634.0</ele><time>2026-04-16T14:29:27.876Z</time></trkpt><trkpt lat="44.40791" lon="9.1840883"><ele>634.0</ele><time>2026-04-16T14:29:28.874Z</time></trkpt><trkpt lat="44.4078317" lon="9.1841667"><ele>634.0</ele><time>2026-04-16T14:29:30.876Z</time></trkpt><trkpt lat="44.4077267" lon="9.184165"><ele>632.1666666666667</ele><time>2026-04-16T14:29:32.878Z</time></trkpt><trkpt lat="44.4075917" lon="9.18418"><ele>630.3333333333334</ele><time>2026-04-16T14:29:34.876Z</time></trkpt><trkpt lat="44.40751" lon="9.1842133"><ele>628.5</ele><time>2026-04-16T14:29:35.881Z</time></trkpt><trkpt lat="44.4074267" lon="9.1842533"><ele>626.6666666666666</ele><time>2026-04-16T14:29:36.876Z</time></trkpt><trkpt lat="44.40736" lon="9.1842783"><ele>624.8333333333333</ele><time>2026-04-16T14:29:37.876Z</time></trkpt><trkpt lat="44.40729" lon="9.1842833"><ele>623.0</ele><time>2026-04-16T14:29:38.876Z</time></trkpt><trkpt lat="44.407225" lon="9.184275"><ele>620.8333333333333</ele><time>2026-04-16T14:29:39.876Z</time></trkpt><trkpt lat="44.4071033" lon="9.18429"><ele>618.6666666666666</ele><time>2026-04-16T14:29:41.875Z</time></trkpt><trkpt lat="44.4070317" lon="9.184325"><ele>616.5</ele><time>2026-04-16T14:29:42.876Z</time></trkpt><trkpt lat="44.40697" lon="9.1843633"><ele>614.3333333333334</ele><time>2026-04-16T14:29:43.876Z</time></trkpt><trkpt lat="44.40689" lon="9.18438"><ele>612.1666666666667</ele><time>2026-04-16T14:29:45.875Z</time></trkpt><trkpt lat="44.4068283" lon="9.18435"><ele>610.0</ele><time>2026-04-16T14:29:47.876Z</time></trkpt><trkpt lat="44.406755" lon="9.1843667"><ele>610.0</ele><time>2026-04-16T14:29:49.877Z</time></trkpt><trkpt lat="44.4066883" lon="9.1843867"><ele>610.0</ele><time>2026-04-16T14:29:51.876Z</time></trkpt><trkpt lat="44.4065967" lon="9.184365"><ele>610.0</ele><time>2026-04-16T14:29:53.875Z</time></trkpt><trkpt lat="44.406505" lon="9.1843333"><ele>610.0</ele><time>2026-04-16T14:29:55.875Z</time></trkpt><trkpt lat="44.4064583" lon="9.1842633"><ele>610.0</ele><time>2026-04-16T14:29:58.875Z</time></trkpt><trkpt lat="44.4064517" lon="9.1841417"><ele>610.0</ele><time>2026-04-16T14:30:02.877Z</time></trkpt><trkpt lat="44.4063967" lon="9.1840767"><ele>606.5</ele><time>2026-04-16T14:30:05.877Z</time></trkpt><trkpt lat="44.406305" lon="9.1840467"><ele>603.0</ele><time>2026-04-16T14:30:08.875Z</time></trkpt><trkpt lat="44.4062017" lon="9.18403"><ele>599.5</ele><time>2026-04-16T14:30:10.876Z</time></trkpt><trkpt lat="44.4061317" lon="9.18404"><ele>596.0</ele><time>2026-04-16T14:30:11.876Z</time></trkpt><trkpt lat="44.4060583" lon="9.1840517"><ele>592.5</ele><time>2026-04-16T14:30:12.876Z</time></trkpt><trkpt lat="44.4059817" lon="9.18405"><ele>589.0</ele><time>2026-04-16T14:30:13.875Z</time></trkpt><trkpt lat="44.4059067" lon="9.1840417"><ele>589.0</ele><time>2026-04-16T14:30:14.878Z</time></trkpt><trkpt lat="44.4058317" lon="9.1840367"><ele>589.0</ele><time>2026-04-16T14:30:15.876Z</time></trkpt><trkpt lat="44.4057683" lon="9.184035"><ele>589.0</ele><time>2026-04-16T14:30:16.874Z</time></trkpt><trkpt lat="44.405675" lon="9.18403"><ele>589.0</ele><time>2026-04-16T14:30:18.874Z</time></trkpt><trkpt lat="44.4056033" lon="9.1840033"><ele>589.0</ele><time>2026-04-16T14:30:20.877Z</time></trkpt><trkpt lat="44.4055533" lon="9.1839217"><ele>589.0</ele><time>2026-04-16T14:30:22.875Z</time></trkpt><trkpt lat="44.4054767" lon="9.183875"><ele>583.0</ele><time>2026-04-16T14:30:24.876Z</time></trkpt><trkpt lat="44.405395" lon="9.183895"><ele>577.0</ele><time>2026-04-16T14:30:26.877Z</time></trkpt><trkpt lat="44.4053183" lon="9.1838783"><ele>571.0</ele><time>2026-04-16T14:30:28.875Z</time></trkpt><trkpt lat="44.40523" lon="9.1838317"><ele>565.0</ele><time>2026-04-16T14:30:30.878Z</time></trkpt><trkpt lat="44.405125" lon="9.1837983"><ele>559.0</ele><time>2026-04-16T14:30:32.876Z</time></trkpt><trkpt lat="44.405015" lon="9.1837617"><ele>559.0</ele><time>2026-04-16T14:30:34.872Z</time></trkpt><trkpt lat="44.4049117" lon="9.1836833"><ele>559.0</ele><time>2026-04-16T14:30:36.877Z</time></trkpt><trkpt lat="44.404805" lon="9.18359"><ele>559.0</ele><time>2026-04-16T14:30:38.876Z</time></trkpt><trkpt lat="44.404755" lon="9.1835267"><ele>559.0</ele><time>2026-04-16T14:30:39.874Z</time></trkpt><trkpt lat="44.4047167" lon="9.1834533"><ele>559.0</ele><time>2026-04-16T14:30:40.876Z</time></trkpt><trkpt lat="44.404675" lon="9.1833733"><ele>559.0</ele><time>2026-04-16T14:30:41.876Z</time></trkpt><trkpt lat="44.4046283" lon="9.1833033"><ele>556.0</ele><time>2026-04-16T14:30:42.875Z</time></trkpt><trkpt lat="44.4045533" lon="9.183255"><ele>553.0</ele><time>2026-04-16T14:30:44.877Z</time></trkpt><trkpt lat="44.40447" lon="9.1831883"><ele>550.0</ele><time>2026-04-16T14:30:46.877Z</time></trkpt><trkpt lat="44.4044217" lon="9.1831317"><ele>547.0</ele><time>2026-04-16T14:30:48.875Z</time></trkpt><trkpt lat="44.4044283" lon="9.18304"><ele>544.0</ele><time>2026-04-16T14:30:50.877Z</time></trkpt><trkpt lat="44.404485" lon="9.1829733"><ele>541.0</ele><time>2026-04-16T14:30:52.876Z</time></trkpt><trkpt lat="44.4044317" lon="9.18288"><ele>540.6</ele><time>2026-04-16T14:30:57.877Z</time></trkpt><trkpt lat="44.4043367" lon="9.1828"><ele>540.2</ele><time>2026-04-16T14:30:59.876Z</time></trkpt><trkpt lat="44.4042283" lon="9.182745"><ele>539.8</ele><time>2026-04-16T14:31:01.874Z</time></trkpt><trkpt lat="44.404135" lon="9.182755"><ele>539.4</ele><time>2026-04-16T14:31:03.874Z</time></trkpt><trkpt lat="44.404115" lon="9.1828683"><ele>539.0</ele><time>2026-04-16T14:31:05.876Z</time></trkpt><trkpt lat="44.4041283" lon="9.1829583"><ele>539.0</ele><time>2026-04-16T14:31:06.875Z</time></trkpt><trkpt lat="44.404155" lon="9.1830833"><ele>539.0</ele><time>2026-04-16T14:31:08.878Z</time></trkpt><trkpt lat="44.404075" lon="9.182945"><ele>539.0</ele><time>2026-04-16T14:31:13.875Z</time></trkpt><trkpt lat="44.4040517" lon="9.1828517"><ele>539.0</ele><time>2026-04-16T14:31:14.878Z</time></trkpt><trkpt lat="44.4040367" lon="9.1826983"><ele>539.0</ele><time>2026-04-16T14:31:16.873Z</time></trkpt><trkpt lat="44.4040933" lon="9.182585"><ele>539.0</ele><time>2026-04-16T14:31:18.875Z</time></trkpt><trkpt lat="44.4042017" lon="9.18254"><ele>539.0</ele><time>2026-04-16T14:31:20.876Z</time></trkpt><trkpt lat="44.4042683" lon="9.182535"><ele>539.0</ele><time>2026-04-16T14:31:21.874Z</time></trkpt><trkpt lat="44.4043317" lon="9.1825233"><ele>539.0</ele><time>2026-04-16T14:31:22.875Z</time></trkpt><trkpt lat="44.404405" lon="9.1825"><ele>539.0</ele><time>2026-04-16T14:31:23.875Z</time></trkpt><trkpt lat="44.4044783" lon="9.18246"><ele>539.0</ele><time>2026-04-16T14:31:24.875Z</time></trkpt><trkpt lat="44.4045367" lon="9.1823933"><ele>536.8333333333333</ele><time>2026-04-16T14:31:25.876Z</time></trkpt><trkpt lat="44.40458" lon="9.1823283"><ele>534.6666666666666</ele><time>2026-04-16T14:31:26.877Z</time></trkpt><trkpt lat="44.40466" lon="9.18227"><ele>532.5</ele><time>2026-04-16T14:31:28.875Z</time></trkpt><trkpt lat="44.404735" lon="9.18237"><ele>530.3333333333334</ele><time>2026-04-16T14:31:30.874Z</time></trkpt><trkpt lat="44.4047683" lon="9.1824533"><ele>528.1666666666667</ele><time>2026-04-16T14:31:31.873Z</time></trkpt><trkpt lat="44.40481" lon="9.182535"><ele>526.0</ele><time>2026-04-16T14:31:32.876Z</time></trkpt><trkpt lat="44.40486" lon="9.1826017"><ele>526.0</ele><time>2026-04-16T14:31:33.873Z</time></trkpt><trkpt lat="44.4049167" lon="9.1826533"><ele>526.0</ele><time>2026-04-16T14:31:34.874Z</time></trkpt><trkpt lat="44.4049817" lon="9.18269"><ele>526.0</ele><time>2026-04-16T14:31:35.889Z</time></trkpt><trkpt lat="44.4050467" lon="9.1826867"><ele>526.0</ele><time>2026-04-16T14:31:36.874Z</time></trkpt><trkpt lat="44.4051267" lon="9.182655"><ele>526.0</ele><time>2026-04-16T14:31:37.874Z</time></trkpt><trkpt lat="44.4052067" lon="9.1825717"><ele>526.0</ele><time>2026-04-16T14:31:38.875Z</time></trkpt><trkpt lat="44.4052883" lon="9.1824767"><ele>526.0</ele><time>2026-04-16T14:31:39.876Z</time></trkpt><trkpt lat="44.40537" lon="9.1824083"><ele>526.0</ele><time>2026-04-16T14:31:40.874Z</time></trkpt><trkpt lat="44.4054383" lon="9.1823217"><ele>526.0</ele><time>2026-04-16T14:31:41.875Z</time></trkpt><trkpt lat="44.4054983" lon="9.1822467"><ele>526.0</ele><time>2026-04-16T14:31:42.875Z</time></trkpt><trkpt lat="44.4055167" lon="9.1820883"><ele>526.0</ele><time>2026-04-16T14:31:44.875Z</time></trkpt><trkpt lat="44.405545" lon="9.18192"><ele>525.0</ele><time>2026-04-16T14:31:46.873Z</time></trkpt><trkpt lat="44.4055967" lon="9.1818367"><ele>524.0</ele><time>2026-04-16T14:31:47.875Z</time></trkpt><trkpt lat="44.4056433" lon="9.1817417"><ele>523.0</ele><time>2026-04-16T14:31:48.874Z</time></trkpt><trkpt lat="44.40567" lon="9.1816283"><ele>522.0</ele><time>2026-04-16T14:31:49.875Z</time></trkpt><trkpt lat="44.40566" lon="9.1815033"><ele>521.0</ele><time>2026-04-16T14:31:50.874Z</time></trkpt><trkpt lat="44.405635" lon="9.1813767"><ele>520.0</ele><time>2026-04-16T14:31:51.874Z</time></trkpt><trkpt lat="44.4056133" lon="9.1812483"><ele>517.1666666666667</ele><time>2026-04-16T14:31:52.873Z</time></trkpt><trkpt lat="44.405615" lon="9.1811233"><ele>514.3333333333334</ele><time>2026-04-16T14:31:53.874Z</time></trkpt><trkpt lat="44.4056367" lon="9.181"><ele>511.5</ele><time>2026-04-16T14:31:54.874Z</time></trkpt><trkpt lat="44.4056767" lon="9.180885"><ele>508.66666666666663</ele><time>2026-04-16T14:31:55.876Z</time></trkpt><trkpt lat="44.4057317" lon="9.180795"><ele>505.8333333333333</ele><time>2026-04-16T14:31:56.875Z</time></trkpt><trkpt lat="44.4057883" lon="9.180705"><ele>503.0</ele><time>2026-04-16T14:31:57.874Z</time></trkpt><trkpt lat="44.4058433" lon="9.1806133"><ele>500.0</ele><time>2026-04-16T14:31:58.874Z</time></trkpt><trkpt lat="44.4058867" lon="9.1805317"><ele>496.99999999999994</ele><time>2026-04-16T14:31:59.874Z</time></trkpt><trkpt lat="44.4059583" lon="9.1804233"><ele>493.99999999999994</ele><time>2026-04-16T14:32:01.873Z</time></trkpt><trkpt lat="44.405845" lon="9.1804333"><ele>491.0</ele><time>2026-04-16T14:32:16.875Z</time></trkpt><trkpt lat="44.40576" lon="9.180485"><ele>488.0</ele><time>2026-04-16T14:32:17.875Z</time></trkpt><trkpt lat="44.4056833" lon="9.1805417"><ele>487.99999999999994</ele><time>2026-04-16T14:32:18.874Z</time></trkpt><trkpt lat="44.4056133" lon="9.1806"><ele>488.0</ele><time>2026-04-16T14:32:19.873Z</time></trkpt><trkpt lat="44.405555" lon="9.1806633"><ele>487.99999999999994</ele><time>2026-04-16T14:32:20.877Z</time></trkpt><trkpt lat="44.4054933" lon="9.18072"><ele>487.99999999999994</ele><time>2026-04-16T14:32:21.875Z</time></trkpt><trkpt lat="44.405435" lon="9.1807767"><ele>488.0</ele><time>2026-04-16T14:32:22.874Z</time></trkpt><trkpt lat="44.4053817" lon="9.18084"><ele>487.99999999999994</ele><time>2026-04-16T14:32:23.875Z</time></trkpt><trkpt lat="44.4053467" lon="9.1809183"><ele>487.99999999999994</ele><time>2026-04-16T14:32:24.875Z</time></trkpt><trkpt lat="44.40532" lon="9.1810317"><ele>485.79999999999995</ele><time>2026-04-16T14:32:25.874Z</time></trkpt><trkpt lat="44.4052883" lon="9.181175"><ele>483.59999999999997</ele><time>2026-04-16T14:32:26.875Z</time></trkpt><trkpt lat="44.4052617" lon="9.1813033"><ele>481.40000000000003</ele><time>2026-04-16T14:32:27.874Z</time></trkpt><trkpt lat="44.40523" lon="9.1814117"><ele>479.20000000000005</ele><time>2026-04-16T14:32:28.875Z</time></trkpt><trkpt lat="44.4051917" lon="9.1815017"><ele>477.0</ele><time>2026-04-16T14:32:29.875Z</time></trkpt><trkpt lat="44.4050983" lon="9.1815733"><ele>477.0</ele><time>2026-04-16T14:32:31.875Z</time></trkpt><trkpt lat="44.4050283" lon="9.1815717"><ele>477.0</ele><time>2026-04-16T14:32:34.875Z</time></trkpt><trkpt lat="44.4050067" lon="9.181465"><ele>477.0</ele><time>2026-04-16T14:32:36.878Z</time></trkpt><trkpt lat="44.4049567" lon="9.1812917"><ele>477.0</ele><time>2026-04-16T14:32:38.875Z</time></trkpt><trkpt lat="44.40493" lon="9.1811983"><ele>477.0</ele><time>2026-04-16T14:32:39.875Z</time></trkpt><trkpt lat="44.4048967" lon="9.1811133"><ele>477.0</ele><time>2026-04-16T14:32:40.873Z</time></trkpt><trkpt lat="44.4048217" lon="9.1810167"><ele>477.0</ele><time>2026-04-16T14:32:42.876Z</time></trkpt><trkpt lat="44.4047183" lon="9.1809983"><ele>477.00000000000006</ele><time>2026-04-16T14:32:44.874Z</time></trkpt><trkpt lat="44.4046517" lon="9.18093"><ele>477.00000000000006</ele><time>2026-04-16T14:32:46.875Z</time></trkpt><trkpt lat="44.4046533" lon="9.1808133"><ele>477.0</ele><time>2026-04-16T14:32:48.875Z</time></trkpt><trkpt lat="44.4046167" lon="9.1807017"><ele>477.0</ele><time>2026-04-16T14:32:50.876Z</time></trkpt><trkpt lat="44.4045633" lon="9.1805617"><ele>478.6</ele><time>2026-04-16T14:32:52.874Z</time></trkpt><trkpt lat="44.40457" lon="9.1804567"><ele>480.20000000000005</ele><time>2026-04-16T14:32:53.875Z</time></trkpt><trkpt lat="44.4045817" lon="9.1803583"><ele>481.8</ele><time>2026-04-16T14:32:54.873Z</time></trkpt><trkpt lat="44.4045717" lon="9.1801967"><ele>483.4</ele><time>2026-04-16T14:32:56.876Z</time></trkpt><trkpt lat="44.40448" lon="9.1800833"><ele>485.0</ele><time>2026-04-16T14:32:58.873Z</time></trkpt><trkpt lat="44.4043883" lon="9.17998"><ele>481.2</ele><time>2026-04-16T14:33:00.872Z</time></trkpt><trkpt lat="44.4043467" lon="9.1798483"><ele>477.4</ele><time>2026-04-16T14:33:02.875Z</time></trkpt><trkpt lat="44.40426" lon="9.1797383"><ele>473.6</ele><time>2026-04-16T14:33:04.875Z</time></trkpt><trkpt lat="44.4042167" lon="9.1796283"><ele>469.8</ele><time>2026-04-16T14:33:06.877Z</time></trkpt><trkpt lat="44.4042467" lon="9.1794733"><ele>466.0</ele><time>2026-04-16T14:33:08.875Z</time></trkpt><trkpt lat="44.404275" lon="9.1793283"><ele>466.0</ele><time>2026-04-16T14:33:10.874Z</time></trkpt><trkpt lat="44.4042533" lon="9.1791783"><ele>466.0</ele><time>2026-04-16T14:33:12.874Z</time></trkpt><trkpt lat="44.4042067" lon="9.1790767"><ele>466.0</ele><time>2026-04-16T14:33:14.875Z</time></trkpt><trkpt lat="44.404135" lon="9.17904"><ele>466.0</ele><time>2026-04-16T14:33:16.875Z</time></trkpt><trkpt lat="44.4040133" lon="9.179095"><ele>466.0</ele><time>2026-04-16T14:33:18.875Z</time></trkpt><trkpt lat="44.4039" lon="9.17911"><ele>466.0</ele><time>2026-04-16T14:33:20.876Z</time></trkpt><trkpt lat="44.4037967" lon="9.1789833"><ele>466.0</ele><time>2026-04-16T14:33:22.87Z</time></trkpt><trkpt lat="44.403725" lon="9.1788567"><ele>466.0</ele><time>2026-04-16T14:33:24.873Z</time></trkpt><trkpt lat="44.4036383" lon="9.17874"><ele>466.0</ele><time>2026-04-16T14:33:26.876Z</time></trkpt><trkpt lat="44.403585" lon="9.1786583"><ele>466.00000000000006</ele><time>2026-04-16T14:33:27.87Z</time></trkpt><trkpt lat="44.40354" lon="9.1785767"><ele>466.0</ele><time>2026-04-16T14:33:28.873Z</time></trkpt><trkpt lat="44.403495" lon="9.1784917"><ele>466.0</ele><time>2026-04-16T14:33:29.873Z</time></trkpt><trkpt lat="44.40345" lon="9.1784067"><ele>466.0</ele><time>2026-04-16T14:33:30.875Z</time></trkpt><trkpt lat="44.4034167" lon="9.1783067"><ele>466.00000000000006</ele><time>2026-04-16T14:33:31.876Z</time></trkpt><trkpt lat="44.40338" lon="9.1782033"><ele>466.0</ele><time>2026-04-16T14:33:32.875Z</time></trkpt><trkpt lat="44.4033467" lon="9.17811"><ele>463.50000000000006</ele><time>2026-04-16T14:33:33.874Z</time></trkpt><trkpt lat="44.4033017" lon="9.1780267"><ele>461.0</ele><time>2026-04-16T14:33:34.874Z</time></trkpt><trkpt lat="44.4032467" lon="9.17796"><ele>458.5</ele><time>2026-04-16T14:33:35.877Z</time></trkpt><trkpt lat="44.4031933" lon="9.1778983"><ele>456.0</ele><time>2026-04-16T14:33:36.875Z</time></trkpt><trkpt lat="44.4031333" lon="9.1777683"><ele>453.50000000000006</ele><time>2026-04-16T14:33:38.877Z</time></trkpt><trkpt lat="44.403075" lon="9.1776217"><ele>451.0</ele><time>2026-04-16T14:33:40.875Z</time></trkpt><trkpt lat="44.4030433" lon="9.177445"><ele>451.42857142857144</ele><time>2026-04-16T14:33:42.875Z</time></trkpt><trkpt lat="44.4030333" lon="9.177335"><ele>451.8571428571429</ele><time>2026-04-16T14:33:43.873Z</time></trkpt><trkpt lat="44.403025" lon="9.1772217"><ele>452.28571428571433</ele><time>2026-04-16T14:33:44.875Z</time></trkpt><trkpt lat="44.4030167" lon="9.1771183"><ele>452.7142857142857</ele><time>2026-04-16T14:33:45.873Z</time></trkpt><trkpt lat="44.403005" lon="9.17703"><ele>453.1428571428572</ele><time>2026-04-16T14:33:46.874Z</time></trkpt><trkpt lat="44.4029917" lon="9.1769433"><ele>453.5714285714286</ele><time>2026-04-16T14:33:47.874Z</time></trkpt><trkpt lat="44.40298" lon="9.1768483"><ele>454.0</ele><time>2026-04-16T14:33:48.877Z</time></trkpt><trkpt lat="44.4029683" lon="9.1767583"><ele>454.00000000000006</ele><time>2026-04-16T14:33:49.874Z</time></trkpt><trkpt lat="44.4029333" lon="9.1766117"><ele>454.0</ele><time>2026-04-16T14:33:51.875Z</time></trkpt><trkpt lat="44.402895" lon="9.1765383"><ele>454.0</ele><time>2026-04-16T14:33:52.874Z</time></trkpt><trkpt lat="44.4028533" lon="9.1764633"><ele>454.0</ele><time>2026-04-16T14:33:53.875Z</time></trkpt><trkpt lat="44.40281" lon="9.1763733"><ele>454.00000000000006</ele><time>2026-04-16T14:33:54.873Z</time></trkpt><trkpt lat="44.4027717" lon="9.1762983"><ele>454.0</ele><time>2026-04-16T14:33:55.874Z</time></trkpt><trkpt lat="44.4027417" lon="9.176145"><ele>453.00000000000006</ele><time>2026-04-16T14:33:57.873Z</time></trkpt><trkpt lat="44.402715" lon="9.175985"><ele>452.0</ele><time>2026-04-16T14:33:59.874Z</time></trkpt><trkpt lat="44.402655" lon="9.1758683"><ele>451.0</ele><time>2026-04-16T14:34:01.874Z</time></trkpt><trkpt lat="44.402575" lon="9.1758433"><ele>450.0</ele><time>2026-04-16T14:34:03.876Z</time></trkpt><trkpt lat="44.4025717" lon="9.1759383"><ele>449.00000000000006</ele><time>2026-04-16T14:34:09.873Z</time></trkpt><trkpt lat="44.4025867" lon="9.176025"><ele>448.0</ele><time>2026-04-16T14:36:12.878Z</time></trkpt><trkpt lat="44.4025617" lon="9.1761233"><ele>448.0</ele><time>2026-04-16T14:36:15.876Z</time></trkpt><trkpt lat="44.4025367" lon="9.1762083"><ele>448.0</ele><time>2026-04-16T14:36:18.88Z</time></trkpt><trkpt lat="44.4025167" lon="9.1762933"><ele>448.0</ele><time>2026-04-16T14:36:25.877Z</time></trkpt><trkpt lat="44.4025117" lon="9.176405"><ele>448.0</ele><time>2026-04-16T14:37:21.876Z</time></trkpt><trkpt lat="44.40251" lon="9.1764967"><ele>448.0</ele><time>2026-04-16T14:37:22.875Z</time></trkpt><trkpt lat="44.4025117" lon="9.1765917"><ele>448.0</ele><time>2026-04-16T14:37:23.876Z</time></trkpt><trkpt lat="44.402525" lon="9.176725"><ele>448.0</ele><time>2026-04-16T14:37:25.877Z</time></trkpt><trkpt lat="44.402575" lon="9.1768817"><ele>449.00000000000006</ele><time>2026-04-16T14:37:27.876Z</time></trkpt><trkpt lat="44.4026083" lon="9.1769833"><ele>450.0</ele><time>2026-04-16T14:37:28.875Z</time></trkpt><trkpt lat="44.4026383" lon="9.1770967"><ele>451.0</ele><time>2026-04-16T14:37:29.875Z</time></trkpt><trkpt lat="44.4026667" lon="9.1772117"><ele>452.0</ele><time>2026-04-16T14:37:30.876Z</time></trkpt><trkpt lat="44.4026983" lon="9.17731"><ele>453.00000000000006</ele><time>2026-04-16T14:37:31.876Z</time></trkpt><trkpt lat="44.4027367" lon="9.1774017"><ele>454.0</ele><time>2026-04-16T14:37:32.878Z</time></trkpt><trkpt lat="44.4027717" lon="9.1774967"><ele>454.0</ele><time>2026-04-16T14:37:33.875Z</time></trkpt><trkpt lat="44.4027967" lon="9.1776"><ele>454.0</ele><time>2026-04-16T14:37:34.873Z</time></trkpt><trkpt lat="44.4028233" lon="9.17769"><ele>454.0</ele><time>2026-04-16T14:37:35.875Z</time></trkpt><trkpt lat="44.40285" lon="9.1778517"><ele>454.0</ele><time>2026-04-16T14:37:37.874Z</time></trkpt><trkpt lat="44.4028617" lon="9.1779983"><ele>454.0</ele><time>2026-04-16T14:37:39.875Z</time></trkpt><trkpt lat="44.4028833" lon="9.1781567"><ele>454.1666666666667</ele><time>2026-04-16T14:37:41.877Z</time></trkpt><trkpt lat="44.4029067" lon="9.1782933"><ele>454.33333333333337</ele><time>2026-04-16T14:37:43.877Z</time></trkpt><trkpt lat="44.40295" lon="9.17839"><ele>454.5</ele><time>2026-04-16T14:37:45.874Z</time></trkpt><trkpt lat="44.40296" lon="9.17849"><ele>454.66666666666663</ele><time>2026-04-16T14:37:47.874Z</time></trkpt><trkpt lat="44.4029633" lon="9.1786267"><ele>454.8333333333333</ele><time>2026-04-16T14:37:49.876Z</time></trkpt><trkpt lat="44.4029667" lon="9.1787167"><ele>455.0</ele><time>2026-04-16T14:37:50.877Z</time></trkpt><trkpt lat="44.4029733" lon="9.1788133"><ele>455.0</ele><time>2026-04-16T14:37:51.874Z</time></trkpt><trkpt lat="44.40299" lon="9.1789483"><ele>455.0</ele><time>2026-04-16T14:37:53.875Z</time></trkpt><trkpt lat="44.4030567" lon="9.1790533"><ele>455.0</ele><time>2026-04-16T14:37:55.875Z</time></trkpt><trkpt lat="44.403125" lon="9.1791117"><ele>455.0</ele><time>2026-04-16T14:37:57.887Z</time></trkpt><trkpt lat="44.4031833" lon="9.1792133"><ele>455.0</ele><time>2026-04-16T14:37:59.875Z</time></trkpt><trkpt lat="44.4032683" lon="9.17935"><ele>462.0</ele><time>2026-04-16T14:38:01.875Z</time></trkpt><trkpt lat="44.4033583" lon="9.1794733"><ele>469.0</ele><time>2026-04-16T14:38:03.875Z</time></trkpt><trkpt lat="44.4034083" lon="9.1795417"><ele>476.0</ele><time>2026-04-16T14:38:04.874Z</time></trkpt><trkpt lat="44.4034567" lon="9.1796033"><ele>483.0</ele><time>2026-04-16T14:38:05.874Z</time></trkpt><trkpt lat="44.4035333" lon="9.17972"><ele>490.0</ele><time>2026-04-16T14:38:07.875Z</time></trkpt><trkpt lat="44.40358" lon="9.1798517"><ele>489.2857142857143</ele><time>2026-04-16T14:38:09.875Z</time></trkpt><trkpt lat="44.4036133" lon="9.1799767"><ele>488.57142857142856</ele><time>2026-04-16T14:38:11.877Z</time></trkpt><trkpt lat="44.40364" lon="9.1800633"><ele>487.8571428571429</ele><time>2026-04-16T14:38:13.875Z</time></trkpt><trkpt lat="44.4036833" lon="9.1801433"><ele>487.14285714285717</ele><time>2026-04-16T14:38:15.875Z</time></trkpt><trkpt lat="44.4037283" lon="9.1802133"><ele>486.42857142857144</ele><time>2026-04-16T14:38:17.878Z</time></trkpt><trkpt lat="44.4037783" lon="9.1802683"><ele>485.7142857142858</ele><time>2026-04-16T14:38:19.877Z</time></trkpt><trkpt lat="44.40382" lon="9.180335"><ele>485.00000000000006</ele><time>2026-04-16T14:38:21.876Z</time></trkpt><trkpt lat="44.4038567" lon="9.1804217"><ele>485.0</ele><time>2026-04-16T14:38:23.876Z</time></trkpt><trkpt lat="44.4039017" lon="9.1805333"><ele>485.0</ele><time>2026-04-16T14:38:25.876Z</time></trkpt><trkpt lat="44.403925" lon="9.1806717"><ele>485.0</ele><time>2026-04-16T14:38:27.876Z</time></trkpt><trkpt lat="44.4039233" lon="9.1807867"><ele>485.0</ele><time>2026-04-16T14:38:28.874Z</time></trkpt><trkpt lat="44.4039233" lon="9.1809133"><ele>485.0</ele><time>2026-04-16T14:38:29.877Z</time></trkpt><trkpt lat="44.4039317" lon="9.18103"><ele>489.4</ele><time>2026-04-16T14:38:30.876Z</time></trkpt><trkpt lat="44.40394" lon="9.1811317"><ele>493.8</ele><time>2026-04-16T14:38:31.874Z</time></trkpt><trkpt lat="44.40395" lon="9.1812933"><ele>498.20000000000005</ele><time>2026-04-16T14:38:33.874Z</time></trkpt><trkpt lat="44.4039417" lon="9.1814467"><ele>502.6</ele><time>2026-04-16T14:38:35.874Z</time></trkpt><trkpt lat="44.4038983" lon="9.181585"><ele>507.0</ele><time>2026-04-16T14:38:37.877Z</time></trkpt><trkpt lat="44.4038967" lon="9.18173"><ele>509.5</ele><time>2026-04-16T14:38:39.874Z</time></trkpt><trkpt lat="44.4039183" lon="9.181835"><ele>512.0</ele><time>2026-04-16T14:38:41.875Z</time></trkpt><trkpt lat="44.40391" lon="9.18197"><ele>514.5</ele><time>2026-04-16T14:38:44.878Z</time></trkpt><trkpt lat="44.4039417" lon="9.1820533"><ele>517.0</ele><time>2026-04-16T14:38:47.875Z</time></trkpt><trkpt lat="44.4039933" lon="9.1821467"><ele>519.5</ele><time>2026-04-16T14:38:49.876Z</time></trkpt><trkpt lat="44.4040233" lon="9.1822683"><ele>522.0</ele><time>2026-04-16T14:38:51.874Z</time></trkpt><trkpt lat="44.404045" lon="9.1823983"><ele>525.4</ele><time>2026-04-16T14:38:53.874Z</time></trkpt><trkpt lat="44.40403" lon="9.1825533"><ele>528.8000000000001</ele><time>2026-04-16T14:38:55.875Z</time></trkpt><trkpt lat="44.4039933" lon="9.1827267"><ele>532.2</ele><time>2026-04-16T14:38:57.874Z</time></trkpt><trkpt lat="44.4040083" lon="9.1828233"><ele>535.6</ele><time>2026-04-16T14:38:58.875Z</time></trkpt><trkpt lat="44.4040417" lon="9.1829183"><ele>539.0</ele><time>2026-04-16T14:38:59.875Z</time></trkpt><trkpt lat="44.4040833" lon="9.18302"><ele>539.0</ele><time>2026-04-16T14:39:00.876Z</time></trkpt><trkpt lat="44.4041267" lon="9.1831217"><ele>539.0</ele><time>2026-04-16T14:39:01.875Z</time></trkpt><trkpt lat="44.4041717" lon="9.1832217"><ele>539.0</ele><time>2026-04-16T14:39:02.875Z</time></trkpt><trkpt lat="44.4042117" lon="9.1833217"><ele>539.0</ele><time>2026-04-16T14:39:03.874Z</time></trkpt><trkpt lat="44.4042433" lon="9.1834183"><ele>539.0</ele><time>2026-04-16T14:39:04.873Z</time></trkpt><trkpt lat="44.4042633" lon="9.18351"><ele>539.0</ele><time>2026-04-16T14:39:05.876Z</time></trkpt><trkpt lat="44.404285" lon="9.183595"><ele>539.3333333333333</ele><time>2026-04-16T14:39:06.875Z</time></trkpt><trkpt lat="44.4043017" lon="9.18368"><ele>539.6666666666666</ele><time>2026-04-16T14:39:07.876Z</time></trkpt><trkpt lat="44.40432" lon="9.183765"><ele>540.0</ele><time>2026-04-16T14:39:08.876Z</time></trkpt><trkpt lat="44.4043367" lon="9.1839283"><ele>540.3333333333334</ele><time>2026-04-16T14:39:10.874Z</time></trkpt><trkpt lat="44.4043683" lon="9.18409"><ele>540.6666666666667</ele><time>2026-04-16T14:39:12.875Z</time></trkpt><trkpt lat="44.4044117" lon="9.1841567"><ele>541.0</ele><time>2026-04-16T14:39:13.874Z</time></trkpt><trkpt lat="44.4044617" lon="9.1842183"><ele>537.8333333333334</ele><time>2026-04-16T14:39:14.876Z</time></trkpt><trkpt lat="44.404525" lon="9.184265"><ele>534.6666666666667</ele><time>2026-04-16T14:39:15.874Z</time></trkpt><trkpt lat="44.40459" lon="9.1843133"><ele>531.5</ele><time>2026-04-16T14:39:16.874Z</time></trkpt><trkpt lat="44.4046567" lon="9.1843683"><ele>528.3333333333334</ele><time>2026-04-16T14:39:17.874Z</time></trkpt><trkpt lat="44.4047217" lon="9.18443"><ele>525.1666666666666</ele><time>2026-04-16T14:39:18.875Z</time></trkpt><trkpt lat="44.4047867" lon="9.1844967"><ele>522.0</ele><time>2026-04-16T14:39:19.874Z</time></trkpt><trkpt lat="44.4048433" lon="9.1845717"><ele>522.8571428571429</ele><time>2026-04-16T14:39:20.878Z</time></trkpt><trkpt lat="44.4048883" lon="9.184645"><ele>523.7142857142857</ele><time>2026-04-16T14:39:21.874Z</time></trkpt><trkpt lat="44.4049283" lon="9.184725"><ele>524.5714285714286</ele><time>2026-04-16T14:39:22.875Z</time></trkpt><trkpt lat="44.404975" lon="9.1848033"><ele>525.4285714285714</ele><time>2026-04-16T14:39:23.874Z</time></trkpt><trkpt lat="44.4050233" lon="9.1848783"><ele>526.2857142857143</ele><time>2026-04-16T14:39:24.874Z</time></trkpt><trkpt lat="44.40507" lon="9.1849567"><ele>527.1428571428571</ele><time>2026-04-16T14:39:25.875Z</time></trkpt><trkpt lat="44.4051067" lon="9.18505"><ele>528.0</ele><time>2026-04-16T14:39:26.875Z</time></trkpt><trkpt lat="44.4051267" lon="9.1851483"><ele>528.0</ele><time>2026-04-16T14:39:27.874Z</time></trkpt><trkpt lat="44.4051383" lon="9.1852633"><ele>528.0</ele><time>2026-04-16T14:39:28.874Z</time></trkpt><trkpt lat="44.4051533" lon="9.1853783"><ele>528.0</ele><time>2026-04-16T14:39:29.876Z</time></trkpt><trkpt lat="44.4051867" lon="9.1854883"><ele>528.0</ele><time>2026-04-16T14:39:30.873Z</time></trkpt><trkpt lat="44.405235" lon="9.18559"><ele>528.0</ele><time>2026-04-16T14:39:31.875Z</time></trkpt><trkpt lat="44.4052833" lon="9.1856883"><ele>528.0</ele><time>2026-04-16T14:39:32.874Z</time></trkpt><trkpt lat="44.40532" lon="9.1857917"><ele>524.6666666666666</ele><time>2026-04-16T14:39:33.875Z</time></trkpt><trkpt lat="44.405335" lon="9.1859067"><ele>521.3333333333334</ele><time>2026-04-16T14:39:34.874Z</time></trkpt><trkpt lat="44.4053317" lon="9.1860283"><ele>518.0</ele><time>2026-04-16T14:39:35.875Z</time></trkpt><trkpt lat="44.4053283" lon="9.1861517"><ele>514.6666666666667</ele><time>2026-04-16T14:39:36.876Z</time></trkpt><trkpt lat="44.405335" lon="9.186275"><ele>511.33333333333337</ele><time>2026-04-16T14:39:37.876Z</time></trkpt><trkpt lat="44.4053583" lon="9.1864017"><ele>508.0</ele><time>2026-04-16T14:39:38.875Z</time></trkpt><trkpt lat="44.40539" lon="9.186525"><ele>505.79999999999995</ele><time>2026-04-16T14:39:39.875Z</time></trkpt><trkpt lat="44.40542" lon="9.1866417"><ele>503.59999999999997</ele><time>2026-04-16T14:39:40.875Z</time></trkpt><trkpt lat="44.4054467" lon="9.18676"><ele>501.40000000000003</ele><time>2026-04-16T14:39:41.875Z</time></trkpt><trkpt lat="44.4054817" lon="9.1868767"><ele>499.20000000000005</ele><time>2026-04-16T14:39:42.874Z</time></trkpt><trkpt lat="44.4055283" lon="9.186995"><ele>497.0</ele><time>2026-04-16T14:39:43.874Z</time></trkpt><trkpt lat="44.4055767" lon="9.1871133"><ele>501.40000000000003</ele><time>2026-04-16T14:39:44.875Z</time></trkpt><trkpt lat="44.4056183" lon="9.187235"><ele>505.80000000000007</ele><time>2026-04-16T14:39:45.875Z</time></trkpt><trkpt lat="44.4056533" lon="9.1873617"><ele>510.2</ele><time>2026-04-16T14:39:46.873Z</time></trkpt><trkpt lat="44.40569" lon="9.1874817"><ele>514.6</ele><time>2026-04-16T14:39:47.875Z</time></trkpt><trkpt lat="44.4057183" lon="9.18759"><ele>519.0</ele><time>2026-04-16T14:39:48.875Z</time></trkpt><trkpt lat="44.405745" lon="9.1877033"><ele>519.0</ele><time>2026-04-16T14:39:49.875Z</time></trkpt><trkpt lat="44.4057533" lon="9.1877983"><ele>519.0</ele><time>2026-04-16T14:39:50.874Z</time></trkpt><trkpt lat="44.4057483" lon="9.1878867"><ele>519.0</ele><time>2026-04-16T14:39:51.876Z</time></trkpt><trkpt lat="44.4057783" lon="9.188035"><ele>519.0</ele><time>2026-04-16T14:39:53.877Z</time></trkpt><trkpt lat="44.405845" lon="9.1881683"><ele>519.0</ele><time>2026-04-16T14:39:55.874Z</time></trkpt><trkpt lat="44.4059067" lon="9.1883067"><ele>516.1666666666666</ele><time>2026-04-16T14:39:57.875Z</time></trkpt><trkpt lat="44.4059667" lon="9.18841"><ele>513.3333333333334</ele><time>2026-04-16T14:39:59.876Z</time></trkpt><trkpt lat="44.4060133" lon="9.188475"><ele>510.5</ele><time>2026-04-16T14:40:01.875Z</time></trkpt><trkpt lat="44.4061033" lon="9.1884867"><ele>507.6666666666667</ele><time>2026-04-16T14:40:03.875Z</time></trkpt><trkpt lat="44.4061883" lon="9.18843"><ele>504.83333333333337</ele><time>2026-04-16T14:40:05.873Z</time></trkpt><trkpt lat="44.406245" lon="9.1883533"><ele>502.0</ele><time>2026-04-16T14:40:07.875Z</time></trkpt><trkpt lat="44.4063067" lon="9.1882833"><ele>502.20000000000005</ele><time>2026-04-16T14:40:09.876Z</time></trkpt><trkpt lat="44.4063833" lon="9.1881883"><ele>502.40000000000003</ele><time>2026-04-16T14:40:11.875Z</time></trkpt><trkpt lat="44.40643" lon="9.188045"><ele>502.59999999999997</ele><time>2026-04-16T14:40:13.875Z</time></trkpt><trkpt lat="44.4064867" lon="9.1879433"><ele>502.79999999999995</ele><time>2026-04-16T14:40:15.875Z</time></trkpt><trkpt lat="44.406575" lon="9.18788"><ele>503.0</ele><time>2026-04-16T14:40:17.876Z</time></trkpt><trkpt lat="44.406665" lon="9.187805"><ele>505.79999999999995</ele><time>2026-04-16T14:40:19.875Z</time></trkpt><trkpt lat="44.4067783" lon="9.18773"><ele>508.59999999999997</ele><time>2026-04-16T14:40:21.874Z</time></trkpt><trkpt lat="44.40688" lon="9.1876433"><ele>511.40000000000003</ele><time>2026-04-16T14:40:23.875Z</time></trkpt><trkpt lat="44.4069383" lon="9.187505"><ele>514.2</ele><time>2026-04-16T14:40:25.874Z</time></trkpt><trkpt lat="44.4069483" lon="9.187415"><ele>517.0</ele><time>2026-04-16T14:40:26.877Z</time></trkpt><trkpt lat="44.406965" lon="9.1872517"><ele>518.1666666666667</ele><time>2026-04-16T14:40:28.875Z</time></trkpt><trkpt lat="44.4069967" lon="9.1871117"><ele>519.3333333333334</ele><time>2026-04-16T14:40:30.874Z</time></trkpt><trkpt lat="44.4070417" lon="9.1870417"><ele>520.5</ele><time>2026-04-16T14:40:32.876Z</time></trkpt><trkpt lat="44.40712" lon="9.18701"><ele>521.6666666666666</ele><time>2026-04-16T14:40:34.876Z</time></trkpt><trkpt lat="44.40723" lon="9.186965"><ele>522.8333333333333</ele><time>2026-04-16T14:40:36.874Z</time></trkpt><trkpt lat="44.4072867" lon="9.1869183"><ele>524.0</ele><time>2026-04-16T14:40:37.876Z</time></trkpt><trkpt lat="44.4073417" lon="9.1868733"><ele>524.0</ele><time>2026-04-16T14:40:38.876Z</time></trkpt><trkpt lat="44.4074233" lon="9.1867517"><ele>524.0</ele><time>2026-04-16T14:40:40.874Z</time></trkpt><trkpt lat="44.4074683" lon="9.1865967"><ele>524.0</ele><time>2026-04-16T14:40:42.875Z</time></trkpt><trkpt lat="44.4074983" lon="9.1864833"><ele>524.0</ele><time>2026-04-16T14:40:44.875Z</time></trkpt><trkpt lat="44.4075683" lon="9.186435"><ele>524.0</ele><time>2026-04-16T14:40:46.875Z</time></trkpt><trkpt lat="44.4076733" lon="9.1864567"><ele>524.0</ele><time>2026-04-16T14:40:48.875Z</time></trkpt><trkpt lat="44.4077717" lon="9.18644"><ele>524.0</ele><time>2026-04-16T14:40:50.875Z</time></trkpt><trkpt lat="44.4078583" lon="9.1864633"><ele>524.0</ele><time>2026-04-16T14:40:52.876Z</time></trkpt><trkpt lat="44.4079617" lon="9.1865217"><ele>524.0</ele><time>2026-04-16T14:40:54.874Z</time></trkpt><trkpt lat="44.4080233" lon="9.186565"><ele>524.0</ele><time>2026-04-16T14:40:55.875Z</time></trkpt><trkpt lat="44.408105" lon="9.186695"><ele>522.5</ele><time>2026-04-16T14:40:57.874Z</time></trkpt><trkpt lat="44.4081383" lon="9.18677"><ele>521.0</ele><time>2026-04-16T14:40:58.875Z</time></trkpt><trkpt lat="44.4081767" lon="9.186915"><ele>519.5</ele><time>2026-04-16T14:41:00.876Z</time></trkpt><trkpt lat="44.4082083" lon="9.1870317"><ele>518.0</ele><time>2026-04-16T14:41:02.879Z</time></trkpt><trkpt lat="44.4082717" lon="9.1871083"><ele>516.5</ele><time>2026-04-16T14:41:04.876Z</time></trkpt><trkpt lat="44.4083333" lon="9.1871383"><ele>515.0</ele><time>2026-04-16T14:41:06.875Z</time></trkpt><trkpt lat="44.4084033" lon="9.187165"><ele>515.0</ele><time>2026-04-16T14:41:09.876Z</time></trkpt><trkpt lat="44.4084983" lon="9.18713"><ele>515.0</ele><time>2026-04-16T14:41:12.875Z</time></trkpt><trkpt lat="44.4085767" lon="9.1870867"><ele>515.0</ele><time>2026-04-16T14:41:14.878Z</time></trkpt><trkpt lat="44.40867" lon="9.18708"><ele>515.0</ele><time>2026-04-16T14:41:16.874Z</time></trkpt><trkpt lat="44.4087783" lon="9.1870733"><ele>515.0</ele><time>2026-04-16T14:41:18.875Z</time></trkpt><trkpt lat="44.4088417" lon="9.1870917"><ele>515.0</ele><time>2026-04-16T14:41:19.885Z</time></trkpt><trkpt lat="44.40893" lon="9.1871167"><ele>513.0</ele><time>2026-04-16T14:41:21.874Z</time></trkpt><trkpt lat="44.408995" lon="9.1871283"><ele>511.0</ele><time>2026-04-16T14:41:23.877Z</time></trkpt><trkpt lat="44.409065" lon="9.187105"><ele>509.0</ele><time>2026-04-16T14:41:25.875Z</time></trkpt><trkpt lat="44.409165" lon="9.1870083"><ele>507.0</ele><time>2026-04-16T14:41:27.875Z</time></trkpt><trkpt lat="44.4092667" lon="9.1869067"><ele>505.0</ele><time>2026-04-16T14:41:29.875Z</time></trkpt><trkpt lat="44.40932" lon="9.1868483"><ele>505.00000000000006</ele><time>2026-04-16T14:41:30.874Z</time></trkpt><trkpt lat="44.40937" lon="9.186785"><ele>505.0</ele><time>2026-04-16T14:41:31.874Z</time></trkpt><trkpt lat="44.4094183" lon="9.1867183"><ele>505.0</ele><time>2026-04-16T14:41:32.876Z</time></trkpt><trkpt lat="44.409465" lon="9.1866517"><ele>505.0</ele><time>2026-04-16T14:41:33.874Z</time></trkpt><trkpt lat="44.4095233" lon="9.18653"><ele>505.00000000000006</ele><time>2026-04-16T14:41:35.875Z</time></trkpt><trkpt lat="44.409615" lon="9.1864483"><ele>505.0</ele><time>2026-04-16T14:41:37.874Z</time></trkpt><trkpt lat="44.4096733" lon="9.1863967"><ele>506.00000000000006</ele><time>2026-04-16T14:41:38.873Z</time></trkpt><trkpt lat="44.40973" lon="9.186325"><ele>507.0</ele><time>2026-04-16T14:41:39.873Z</time></trkpt><trkpt lat="44.40978" lon="9.1862533"><ele>508.0</ele><time>2026-04-16T14:41:40.874Z</time></trkpt><trkpt lat="44.4098333" lon="9.186185"><ele>509.0</ele><time>2026-04-16T14:41:41.875Z</time></trkpt><trkpt lat="44.4099217" lon="9.1861417"><ele>510.00000000000006</ele><time>2026-04-16T14:41:43.873Z</time></trkpt><trkpt lat="44.410015" lon="9.1862133"><ele>511.0</ele><time>2026-04-16T14:41:45.873Z</time></trkpt><trkpt lat="44.4101" lon="9.1862483"><ele>511.00000000000006</ele><time>2026-04-16T14:41:47.874Z</time></trkpt><trkpt lat="44.4101683" lon="9.186205"><ele>511.0</ele><time>2026-04-16T14:41:49.874Z</time></trkpt><trkpt lat="44.4102267" lon="9.186255"><ele>511.0</ele><time>2026-04-16T14:41:51.873Z</time></trkpt><trkpt lat="44.4102733" lon="9.1863383"><ele>511.0</ele><time>2026-04-16T14:41:53.873Z</time></trkpt><trkpt lat="44.4103033" lon="9.1864733"><ele>511.00000000000006</ele><time>2026-04-16T14:41:55.874Z</time></trkpt><trkpt lat="44.410355" lon="9.1866117"><ele>511.0</ele><time>2026-04-16T14:41:57.873Z</time></trkpt><trkpt lat="44.4104467" lon="9.186685"><ele>508.6</ele><time>2026-04-16T14:41:59.874Z</time></trkpt><trkpt lat="44.410535" lon="9.1867117"><ele>506.20000000000005</ele><time>2026-04-16T14:42:01.875Z</time></trkpt><trkpt lat="44.4105867" lon="9.1868217"><ele>503.79999999999995</ele><time>2026-04-16T14:42:04.874Z</time></trkpt><trkpt lat="44.4105983" lon="9.1869583"><ele>501.4</ele><time>2026-04-16T14:42:06.876Z</time></trkpt><trkpt lat="44.4106233" lon="9.1870983"><ele>499.0</ele><time>2026-04-16T14:42:08.875Z</time></trkpt><trkpt lat="44.410655" lon="9.187185"><ele>499.00000000000006</ele><time>2026-04-16T14:42:10.872Z</time></trkpt><trkpt lat="44.4106683" lon="9.18729"><ele>499.0</ele><time>2026-04-16T14:42:12.874Z</time></trkpt><trkpt lat="44.4106883" lon="9.1873867"><ele>499.00000000000006</ele><time>2026-04-16T14:42:14.877Z</time></trkpt><trkpt lat="44.41075" lon="9.18747"><ele>499.00000000000006</ele><time>2026-04-16T14:42:16.876Z</time></trkpt><trkpt lat="44.4108067" lon="9.1875383"><ele>499.0</ele><time>2026-04-16T14:42:18.875Z</time></trkpt><trkpt lat="44.410845" lon="9.18763"><ele>499.00000000000006</ele><time>2026-04-16T14:42:20.877Z</time></trkpt><trkpt lat="44.4108617" lon="9.187715"><ele>499.00000000000006</ele><time>2026-04-16T14:42:22.875Z</time></trkpt><trkpt lat="44.4108533" lon="9.1878367"><ele>495.0</ele><time>2026-04-16T14:42:24.874Z</time></trkpt><trkpt lat="44.41085" lon="9.1879667"><ele>491.0</ele><time>2026-04-16T14:42:26.876Z</time></trkpt><trkpt lat="44.4108683" lon="9.1880733"><ele>487.0</ele><time>2026-04-16T14:42:28.875Z</time></trkpt><trkpt lat="44.410875" lon="9.1882217"><ele>483.0</ele><time>2026-04-16T14:42:30.876Z</time></trkpt><trkpt lat="44.4108583" lon="9.18838"><ele>479.0</ele><time>2026-04-16T14:42:32.876Z</time></trkpt><trkpt lat="44.410835" lon="9.1884633"><ele>476.79999999999995</ele><time>2026-04-16T14:42:33.874Z</time></trkpt><trkpt lat="44.4108183" lon="9.1885983"><ele>474.59999999999997</ele><time>2026-04-16T14:42:35.878Z</time></trkpt><trkpt lat="44.4108317" lon="9.1887267"><ele>472.4</ele><time>2026-04-16T14:42:37.877Z</time></trkpt><trkpt lat="44.410895" lon="9.188855"><ele>470.2</ele><time>2026-04-16T14:42:39.874Z</time></trkpt><trkpt lat="44.4109367" lon="9.1889833"><ele>468.0</ele><time>2026-04-16T14:42:41.873Z</time></trkpt><trkpt lat="44.410975" lon="9.1891233"><ele>465.6666666666667</ele><time>2026-04-16T14:42:43.875Z</time></trkpt><trkpt lat="44.41099" lon="9.1892117"><ele>463.33333333333337</ele><time>2026-04-16T14:42:44.876Z</time></trkpt><trkpt lat="44.4109817" lon="9.1893583"><ele>461.0</ele><time>2026-04-16T14:42:46.874Z</time></trkpt><trkpt lat="44.410935" lon="9.1895067"><ele>458.6666666666667</ele><time>2026-04-16T14:42:48.874Z</time></trkpt><trkpt lat="44.4109217" lon="9.1896017"><ele>456.33333333333337</ele><time>2026-04-16T14:42:49.874Z</time></trkpt><trkpt lat="44.4109083" lon="9.189705"><ele>454.0</ele><time>2026-04-16T14:42:50.874Z</time></trkpt><trkpt lat="44.4109017" lon="9.1898717"><ele>451.6</ele><time>2026-04-16T14:42:52.872Z</time></trkpt><trkpt lat="44.410915" lon="9.1900317"><ele>449.2</ele><time>2026-04-16T14:42:54.874Z</time></trkpt><trkpt lat="44.4109367" lon="9.1901817"><ele>446.80000000000007</ele><time>2026-04-16T14:42:56.876Z</time></trkpt><trkpt lat="44.4109833" lon="9.19033"><ele>444.40000000000003</ele><time>2026-04-16T14:42:58.874Z</time></trkpt><trkpt lat="44.41102" lon="9.1904033"><ele>442.0</ele><time>2026-04-16T14:42:59.874Z</time></trkpt><trkpt lat="44.4111017" lon="9.1905167"><ele>442.00000000000006</ele><time>2026-04-16T14:43:01.872Z</time></trkpt><trkpt lat="44.4112217" lon="9.190585"><ele>442.0</ele><time>2026-04-16T14:43:03.875Z</time></trkpt><trkpt lat="44.4112933" lon="9.19063"><ele>442.0</ele><time>2026-04-16T14:43:04.874Z</time></trkpt><trkpt lat="44.4113533" lon="9.1906833"><ele>442.0</ele><time>2026-04-16T14:43:05.873Z</time></trkpt><trkpt lat="44.41141" lon="9.1907333"><ele>442.00000000000006</ele><time>2026-04-16T14:43:06.874Z</time></trkpt><trkpt lat="44.4114683" lon="9.1907767"><ele>442.0</ele><time>2026-04-16T14:43:07.876Z</time></trkpt><trkpt lat="44.411565" lon="9.1908783"><ele>445.33333333333337</ele><time>2026-04-16T14:43:09.878Z</time></trkpt><trkpt lat="44.4116217" lon="9.1909883"><ele>448.6666666666667</ele><time>2026-04-16T14:43:11.875Z</time></trkpt><trkpt lat="44.411625" lon="9.1911033"><ele>452.0</ele><time>2026-04-16T14:43:13.875Z</time></trkpt><trkpt lat="44.411595" lon="9.191245"><ele>455.33333333333337</ele><time>2026-04-16T14:43:15.876Z</time></trkpt><trkpt lat="44.4115733" lon="9.1913317"><ele>458.6666666666667</ele><time>2026-04-16T14:43:16.874Z</time></trkpt><trkpt lat="44.4115467" lon="9.1914167"><ele>462.0</ele><time>2026-04-16T14:43:17.875Z</time></trkpt><trkpt lat="44.4115183" lon="9.1915017"><ele>459.6</ele><time>2026-04-16T14:43:18.876Z</time></trkpt><trkpt lat="44.4115" lon="9.19159"><ele>457.20000000000005</ele><time>2026-04-16T14:43:19.875Z</time></trkpt><trkpt lat="44.41146" lon="9.1917383"><ele>454.8</ele><time>2026-04-16T14:43:21.875Z</time></trkpt><trkpt lat="44.4114383" lon="9.1918967"><ele>452.4</ele><time>2026-04-16T14:43:23.874Z</time></trkpt><trkpt lat="44.411465" lon="9.1920167"><ele>450.0</ele><time>2026-04-16T14:43:25.874Z</time></trkpt><trkpt lat="44.4114933" lon="9.1921333"><ele>450.0</ele><time>2026-04-16T14:43:27.874Z</time></trkpt><trkpt lat="44.411455" lon="9.1922917"><ele>450.0</ele><time>2026-04-16T14:43:29.875Z</time></trkpt><trkpt lat="44.4114267" lon="9.19238"><ele>450.0</ele><time>2026-04-16T14:43:30.874Z</time></trkpt><trkpt lat="44.4114133" lon="9.1924717"><ele>450.0</ele><time>2026-04-16T14:43:31.874Z</time></trkpt><trkpt lat="44.4113967" lon="9.1925767"><ele>450.0</ele><time>2026-04-16T14:43:32.874Z</time></trkpt><trkpt lat="44.41138" lon="9.1926633"><ele>450.0</ele><time>2026-04-16T14:43:33.873Z</time></trkpt><trkpt lat="44.41136" lon="9.1927517"><ele>449.0</ele><time>2026-04-16T14:43:34.874Z</time></trkpt><trkpt lat="44.4113467" lon="9.1928567"><ele>448.0</ele><time>2026-04-16T14:43:35.873Z</time></trkpt><trkpt lat="44.41134" lon="9.1929517"><ele>447.0</ele><time>2026-04-16T14:43:36.876Z</time></trkpt><trkpt lat="44.411335" lon="9.193045"><ele>446.0</ele><time>2026-04-16T14:43:37.873Z</time></trkpt><trkpt lat="44.4113233" lon="9.1931483"><ele>445.0</ele><time>2026-04-16T14:43:38.874Z</time></trkpt><trkpt lat="44.4113033" lon="9.1932433"><ele>444.0</ele><time>2026-04-16T14:43:39.872Z</time></trkpt><trkpt lat="44.4112783" lon="9.1934017"><ele>443.6</ele><time>2026-04-16T14:43:41.874Z</time></trkpt><trkpt lat="44.4112783" lon="9.19356"><ele>443.2</ele><time>2026-04-16T14:43:43.874Z</time></trkpt><trkpt lat="44.411305" lon="9.1936933"><ele>442.80000000000007</ele><time>2026-04-16T14:43:45.874Z</time></trkpt><trkpt lat="44.411355" lon="9.1938317"><ele>442.40000000000003</ele><time>2026-04-16T14:43:47.876Z</time></trkpt><trkpt lat="44.4114167" lon="9.1939783"><ele>442.0</ele><time>2026-04-16T14:43:49.874Z</time></trkpt><trkpt lat="44.41148" lon="9.1941017"><ele>438.0</ele><time>2026-04-16T14:43:51.874Z</time></trkpt><trkpt lat="44.411535" lon="9.19419"><ele>434.00000000000006</ele><time>2026-04-16T14:43:53.874Z</time></trkpt><trkpt lat="44.4115867" lon="9.194265"><ele>430.0</ele><time>2026-04-16T14:43:55.874Z</time></trkpt><trkpt lat="44.4116717" lon="9.1942883"><ele>426.0</ele><time>2026-04-16T14:43:57.874Z</time></trkpt><trkpt lat="44.4117783" lon="9.1943167"><ele>422.0</ele><time>2026-04-16T14:43:59.875Z</time></trkpt><trkpt lat="44.4118717" lon="9.1943667"><ele>421.99999999999994</ele><time>2026-04-16T14:44:01.876Z</time></trkpt><trkpt lat="44.411945" lon="9.1944117"><ele>422.0</ele><time>2026-04-16T14:44:03.876Z</time></trkpt><trkpt lat="44.4120467" lon="9.19435"><ele>422.0</ele><time>2026-04-16T14:44:05.875Z</time></trkpt><trkpt lat="44.4121233" lon="9.1942983"><ele>422.0</ele><time>2026-04-16T14:44:06.875Z</time></trkpt><trkpt lat="44.4122017" lon="9.194245"><ele>421.99999999999994</ele><time>2026-04-16T14:44:07.873Z</time></trkpt><trkpt lat="44.41228" lon="9.194195"><ele>422.0</ele><time>2026-04-16T14:44:08.876Z</time></trkpt><trkpt lat="44.412355" lon="9.1941533"><ele>423.6</ele><time>2026-04-16T14:44:09.876Z</time></trkpt><trkpt lat="44.412415" lon="9.1941233"><ele>425.20000000000005</ele><time>2026-04-16T14:44:10.875Z</time></trkpt><trkpt lat="44.4124767" lon="9.1940667"><ele>426.8</ele><time>2026-04-16T14:44:12.873Z</time></trkpt><trkpt lat="44.412525" lon="9.1939267"><ele>428.4</ele><time>2026-04-16T14:44:14.876Z</time></trkpt><trkpt lat="44.412615" lon="9.19386"><ele>430.0</ele><time>2026-04-16T14:44:16.874Z</time></trkpt><trkpt lat="44.4127267" lon="9.193815"><ele>430.00000000000006</ele><time>2026-04-16T14:44:18.875Z</time></trkpt><trkpt lat="44.4127983" lon="9.193765"><ele>430.0</ele><time>2026-04-16T14:44:19.873Z</time></trkpt><trkpt lat="44.41287" lon="9.1936833"><ele>430.0</ele><time>2026-04-16T14:44:20.875Z</time></trkpt><trkpt lat="44.4129517" lon="9.193575"><ele>430.0</ele><time>2026-04-16T14:44:21.874Z</time></trkpt><trkpt lat="44.4130167" lon="9.1934883"><ele>430.00000000000006</ele><time>2026-04-16T14:44:22.872Z</time></trkpt><trkpt lat="44.4130717" lon="9.19343"><ele>430.0</ele><time>2026-04-16T14:44:23.873Z</time></trkpt><trkpt lat="44.413175" lon="9.1934383"><ele>425.00000000000006</ele><time>2026-04-16T14:44:25.874Z</time></trkpt><trkpt lat="44.4132417" lon="9.19347"><ele>420.0</ele><time>2026-04-16T14:44:26.873Z</time></trkpt><trkpt lat="44.4133083" lon="9.1934783"><ele>415.0</ele><time>2026-04-16T14:44:27.873Z</time></trkpt><trkpt lat="44.41338" lon="9.1934467"><ele>410.0</ele><time>2026-04-16T14:44:28.873Z</time></trkpt><trkpt lat="44.4134533" lon="9.1934033"><ele>405.00000000000006</ele><time>2026-04-16T14:44:29.875Z</time></trkpt><trkpt lat="44.4135417" lon="9.1933767"><ele>400.0</ele><time>2026-04-16T14:44:30.873Z</time></trkpt><trkpt lat="44.4136467" lon="9.1933567"><ele>400.0</ele><time>2026-04-16T14:44:31.874Z</time></trkpt><trkpt lat="44.413755" lon="9.1933267"><ele>400.0</ele><time>2026-04-16T14:44:32.874Z</time></trkpt><trkpt lat="44.413855" lon="9.1932667"><ele>400.0</ele><time>2026-04-16T14:44:33.874Z</time></trkpt><trkpt lat="44.4139517" lon="9.1931867"><ele>400.0</ele><time>2026-04-16T14:44:34.872Z</time></trkpt><trkpt lat="44.414055" lon="9.193115"><ele>400.0</ele><time>2026-04-16T14:44:35.874Z</time></trkpt><trkpt lat="44.4141467" lon="9.19306"><ele>400.83333333333337</ele><time>2026-04-16T14:44:36.874Z</time></trkpt><trkpt lat="44.4142333" lon="9.1929983"><ele>401.6666666666667</ele><time>2026-04-16T14:44:37.874Z</time></trkpt><trkpt lat="44.4143117" lon="9.19294"><ele>402.5</ele><time>2026-04-16T14:44:38.875Z</time></trkpt><trkpt lat="44.41438" lon="9.19288"><ele>403.33333333333337</ele><time>2026-04-16T14:44:39.872Z</time></trkpt><trkpt lat="44.41444" lon="9.1928267"><ele>404.1666666666667</ele><time>2026-04-16T14:44:40.874Z</time></trkpt><trkpt lat="44.414515" lon="9.19275"><ele>405.0</ele><time>2026-04-16T14:44:42.875Z</time></trkpt><trkpt lat="44.4145283" lon="9.1926483"><ele>405.0</ele><time>2026-04-16T14:44:44.875Z</time></trkpt><trkpt lat="44.41451" lon="9.19251"><ele>405.0</ele><time>2026-04-16T14:44:46.873Z</time></trkpt><trkpt lat="44.4145" lon="9.192415"><ele>405.0</ele><time>2026-04-16T14:44:47.886Z</time></trkpt><trkpt lat="44.4144983" lon="9.1923183"><ele>405.0</ele><time>2026-04-16T14:44:48.875Z</time></trkpt><trkpt lat="44.4145267" lon="9.1921817"><ele>405.0</ele><time>2026-04-16T14:44:50.876Z</time></trkpt><trkpt lat="44.414545" lon="9.1920767"><ele>405.0</ele><time>2026-04-16T14:44:52.874Z</time></trkpt><trkpt lat="44.4145483" lon="9.1919533"><ele>408.3333333333333</ele><time>2026-04-16T14:44:54.875Z</time></trkpt><trkpt lat="44.4145517" lon="9.19178"><ele>411.66666666666663</ele><time>2026-04-16T14:44:56.875Z</time></trkpt><trkpt lat="44.414545" lon="9.1916833"><ele>415.0</ele><time>2026-04-16T14:44:57.875Z</time></trkpt><trkpt lat="44.4145433" lon="9.19158"><ele>418.3333333333333</ele><time>2026-04-16T14:44:58.876Z</time></trkpt><trkpt lat="44.4145283" lon="9.1914717"><ele>421.66666666666663</ele><time>2026-04-16T14:44:59.874Z</time></trkpt><trkpt lat="44.4145233" lon="9.191365"><ele>425.0</ele><time>2026-04-16T14:45:00.874Z</time></trkpt><trkpt lat="44.414515" lon="9.19126"><ele>425.49999999999994</ele><time>2026-04-16T14:45:01.872Z</time></trkpt><trkpt lat="44.414505" lon="9.1911567"><ele>426.0</ele><time>2026-04-16T14:45:02.875Z</time></trkpt><trkpt lat="44.414495" lon="9.1910433"><ele>426.5</ele><time>2026-04-16T14:45:03.874Z</time></trkpt><trkpt lat="44.4145017" lon="9.1909267"><ele>427.0</ele><time>2026-04-16T14:45:04.877Z</time></trkpt><trkpt lat="44.4145" lon="9.1907933"><ele>427.49999999999994</ele><time>2026-04-16T14:45:05.874Z</time></trkpt><trkpt lat="44.414485" lon="9.1906383"><ele>428.0</ele><time>2026-04-16T14:45:06.874Z</time></trkpt><trkpt lat="44.4144633" lon="9.1904833"><ele>428.0</ele><time>2026-04-16T14:45:07.874Z</time></trkpt><trkpt lat="44.4144417" lon="9.19032"><ele>427.99999999999994</ele><time>2026-04-16T14:45:08.874Z</time></trkpt><trkpt lat="44.41443" lon="9.1901633"><ele>427.99999999999994</ele><time>2026-04-16T14:45:09.873Z</time></trkpt><trkpt lat="44.414425" lon="9.1900167"><ele>428.0</ele><time>2026-04-16T14:45:10.873Z</time></trkpt><trkpt lat="44.4144283" lon="9.1899033"><ele>428.0</ele><time>2026-04-16T14:45:11.873Z</time></trkpt><trkpt lat="44.4144167" lon="9.1898"><ele>429.16666666666663</ele><time>2026-04-16T14:45:12.874Z</time></trkpt><trkpt lat="44.4143967" lon="9.1896933"><ele>430.3333333333333</ele><time>2026-04-16T14:45:13.873Z</time></trkpt><trkpt lat="44.4143567" lon="9.1896017"><ele>431.5</ele><time>2026-04-16T14:45:14.874Z</time></trkpt><trkpt lat="44.4143017" lon="9.1895083"><ele>432.66666666666663</ele><time>2026-04-16T14:45:15.872Z</time></trkpt><trkpt lat="44.4142683" lon="9.1894333"><ele>433.8333333333333</ele><time>2026-04-16T14:45:16.872Z</time></trkpt><trkpt lat="44.4142633" lon="9.1893133"><ele>435.0</ele><time>2026-04-16T14:45:18.874Z</time></trkpt><trkpt lat="44.414365" lon="9.1892767"><ele>435.0</ele><time>2026-04-16T14:45:20.874Z</time></trkpt><trkpt lat="44.4144517" lon="9.1893083"><ele>435.0</ele><time>2026-04-16T14:45:21.874Z</time></trkpt><trkpt lat="44.4145383" lon="9.189325"><ele>435.0</ele><time>2026-04-16T14:45:22.871Z</time></trkpt><trkpt lat="44.41462" lon="9.1893"><ele>435.0</ele><time>2026-04-16T14:45:23.872Z</time></trkpt><trkpt lat="44.414685" lon="9.1892467"><ele>435.0</ele><time>2026-04-16T14:45:24.873Z</time></trkpt><trkpt lat="44.4147283" lon="9.1891467"><ele>435.0</ele><time>2026-04-16T14:45:25.874Z</time></trkpt><trkpt lat="44.414745" lon="9.1890217"><ele>436.8</ele><time>2026-04-16T14:45:26.869Z</time></trkpt><trkpt lat="44.41474" lon="9.1888733"><ele>438.6</ele><time>2026-04-16T14:45:27.873Z</time></trkpt><trkpt lat="44.4147117" lon="9.1887267"><ele>440.4</ele><time>2026-04-16T14:45:28.872Z</time></trkpt><trkpt lat="44.4146817" lon="9.1885933"><ele>442.2</ele><time>2026-04-16T14:45:29.873Z</time></trkpt><trkpt lat="44.4146617" lon="9.1884417"><ele>444.0</ele><time>2026-04-16T14:45:30.873Z</time></trkpt><trkpt lat="44.414645" lon="9.188265"><ele>445.79999999999995</ele><time>2026-04-16T14:45:31.873Z</time></trkpt><trkpt lat="44.41464" lon="9.1881067"><ele>447.59999999999997</ele><time>2026-04-16T14:45:32.876Z</time></trkpt><trkpt lat="44.4146167" lon="9.1879583"><ele>449.4</ele><time>2026-04-16T14:45:33.873Z</time></trkpt><trkpt lat="44.4145833" lon="9.187815"><ele>451.2</ele><time>2026-04-16T14:45:34.875Z</time></trkpt><trkpt lat="44.4145533" lon="9.1876783"><ele>453.0</ele><time>2026-04-16T14:45:35.876Z</time></trkpt><trkpt lat="44.4145183" lon="9.1875617"><ele>453.0</ele><time>2026-04-16T14:45:36.874Z</time></trkpt><trkpt lat="44.4144833" lon="9.1874517"><ele>453.0</ele><time>2026-04-16T14:45:37.875Z</time></trkpt><trkpt lat="44.4144467" lon="9.1873517"><ele>453.0</ele><time>2026-04-16T14:45:38.876Z</time></trkpt><trkpt lat="44.4143983" lon="9.1872817"><ele>453.0</ele><time>2026-04-16T14:45:39.875Z</time></trkpt><trkpt lat="44.414325" lon="9.1871933"><ele>453.0</ele><time>2026-04-16T14:45:41.872Z</time></trkpt><trkpt lat="44.414315" lon="9.1870783"><ele>453.0</ele><time>2026-04-16T14:45:43.875Z</time></trkpt><trkpt lat="44.4143433" lon="9.18693"><ele>452.0</ele><time>2026-04-16T14:45:45.873Z</time></trkpt><trkpt lat="44.4143233" lon="9.186785"><ele>450.99999999999994</ele><time>2026-04-16T14:45:47.874Z</time></trkpt><trkpt lat="44.414215" lon="9.1866617"><ele>449.99999999999994</ele><time>2026-04-16T14:45:49.874Z</time></trkpt><trkpt lat="44.4141583" lon="9.186585"><ele>449.0</ele><time>2026-04-16T14:45:50.876Z</time></trkpt><trkpt lat="44.4140983" lon="9.1864417"><ele>448.0</ele><time>2026-04-16T14:45:52.874Z</time></trkpt><trkpt lat="44.41413" lon="9.1862933"><ele>445.4</ele><time>2026-04-16T14:45:54.872Z</time></trkpt><trkpt lat="44.4141417" lon="9.1861967"><ele>442.79999999999995</ele><time>2026-04-16T14:45:55.872Z</time></trkpt><trkpt lat="44.414115" lon="9.1860967"><ele>440.2</ele><time>2026-04-16T14:45:56.875Z</time></trkpt><trkpt lat="44.4140667" lon="9.1859833"><ele>437.6</ele><time>2026-04-16T14:45:57.873Z</time></trkpt><trkpt lat="44.4139983" lon="9.1858617"><ele>435.0</ele><time>2026-04-16T14:45:58.873Z</time></trkpt><trkpt lat="44.4139217" lon="9.1857633"><ele>435.3333333333333</ele><time>2026-04-16T14:45:59.875Z</time></trkpt><trkpt lat="44.41386" lon="9.185675"><ele>435.66666666666663</ele><time>2026-04-16T14:46:00.873Z</time></trkpt><trkpt lat="44.413815" lon="9.18559"><ele>436.0</ele><time>2026-04-16T14:46:01.879Z</time></trkpt><trkpt lat="44.4138017" lon="9.185495"><ele>436.3333333333333</ele><time>2026-04-16T14:46:02.875Z</time></trkpt><trkpt lat="44.4138033" lon="9.1853983"><ele>436.66666666666663</ele><time>2026-04-16T14:46:03.874Z</time></trkpt><trkpt lat="44.4138333" lon="9.1852883"><ele>437.0</ele><time>2026-04-16T14:46:04.87Z</time></trkpt><trkpt lat="44.4138667" lon="9.1851617"><ele>437.0</ele><time>2026-04-16T14:46:05.874Z</time></trkpt><trkpt lat="44.413895" lon="9.1850317"><ele>437.00000000000006</ele><time>2026-04-16T14:46:06.875Z</time></trkpt><trkpt lat="44.41392" lon="9.1848817"><ele>437.00000000000006</ele><time>2026-04-16T14:46:07.875Z</time></trkpt><trkpt lat="44.4139383" lon="9.1847383"><ele>437.0</ele><time>2026-04-16T14:46:08.876Z</time></trkpt><trkpt lat="44.4139433" lon="9.1846067"><ele>437.0</ele><time>2026-04-16T14:46:09.872Z</time></trkpt><trkpt lat="44.4139367" lon="9.1844767"><ele>436.16666666666663</ele><time>2026-04-16T14:46:10.886Z</time></trkpt><trkpt lat="44.413915" lon="9.184345"><ele>435.3333333333333</ele><time>2026-04-16T14:46:11.875Z</time></trkpt><trkpt lat="44.4138817" lon="9.18422"><ele>434.5</ele><time>2026-04-16T14:46:12.875Z</time></trkpt><trkpt lat="44.413835" lon="9.18411"><ele>433.66666666666663</ele><time>2026-04-16T14:46:13.872Z</time></trkpt><trkpt lat="44.4137767" lon="9.1840267"><ele>432.8333333333333</ele><time>2026-04-16T14:46:14.875Z</time></trkpt><trkpt lat="44.4137067" lon="9.183965"><ele>432.0</ele><time>2026-04-16T14:46:15.873Z</time></trkpt><trkpt lat="44.4136233" lon="9.18389"><ele>436.8</ele><time>2026-04-16T14:46:16.874Z</time></trkpt><trkpt lat="44.4135383" lon="9.183795"><ele>441.6</ele><time>2026-04-16T14:46:17.872Z</time></trkpt><trkpt lat="44.4134867" lon="9.1836733"><ele>446.40000000000003</ele><time>2026-04-16T14:46:18.873Z</time></trkpt><trkpt lat="44.4134517" lon="9.183555"><ele>451.20000000000005</ele><time>2026-04-16T14:46:19.874Z</time></trkpt><trkpt lat="44.41342" lon="9.18346"><ele>456.0</ele><time>2026-04-16T14:46:20.875Z</time></trkpt><trkpt lat="44.413375" lon="9.1833767"><ele>456.0</ele><time>2026-04-16T14:46:21.874Z</time></trkpt><trkpt lat="44.4133217" lon="9.1833117"><ele>455.99999999999994</ele><time>2026-04-16T14:46:22.873Z</time></trkpt><trkpt lat="44.4132667" lon="9.18326"><ele>456.0</ele><time>2026-04-16T14:46:23.872Z</time></trkpt><trkpt lat="44.41321" lon="9.1832117"><ele>456.0</ele><time>2026-04-16T14:46:24.874Z</time></trkpt><trkpt lat="44.4131517" lon="9.183175"><ele>455.99999999999994</ele><time>2026-04-16T14:46:25.869Z</time></trkpt><trkpt lat="44.4130567" lon="9.1831317"><ele>456.0</ele><time>2026-04-16T14:46:27.872Z</time></trkpt><trkpt lat="44.412985" lon="9.18311"><ele>456.0</ele><time>2026-04-16T14:46:29.872Z</time></trkpt><trkpt lat="44.41301" lon="9.1829833"><ele>455.3333333333333</ele><time>2026-04-16T14:46:33.874Z</time></trkpt><trkpt lat="44.41305" lon="9.1828717"><ele>454.66666666666663</ele><time>2026-04-16T14:46:35.874Z</time></trkpt><trkpt lat="44.413045" lon="9.1827633"><ele>454.0</ele><time>2026-04-16T14:46:37.875Z</time></trkpt><trkpt lat="44.413015" lon="9.182655"><ele>453.3333333333333</ele><time>2026-04-16T14:46:39.876Z</time></trkpt><trkpt lat="44.4129567" lon="9.18255"><ele>452.66666666666663</ele><time>2026-04-16T14:46:41.875Z</time></trkpt><trkpt lat="44.4128983" lon="9.18246"><ele>452.0</ele><time>2026-04-16T14:46:43.876Z</time></trkpt><trkpt lat="44.4128767" lon="9.1823567"><ele>460.40000000000003</ele><time>2026-04-16T14:46:45.874Z</time></trkpt><trkpt lat="44.41296" lon="9.18228"><ele>468.80000000000007</ele><time>2026-04-16T14:46:48.877Z</time></trkpt><trkpt lat="44.4130683" lon="9.182285"><ele>477.2</ele><time>2026-04-16T14:46:50.873Z</time></trkpt><trkpt lat="44.413185" lon="9.182295"><ele>485.6</ele><time>2026-04-16T14:46:52.873Z</time></trkpt><trkpt lat="44.4133" lon="9.1822717"><ele>494.0</ele><time>2026-04-16T14:46:54.875Z</time></trkpt><trkpt lat="44.413365" lon="9.18224"><ele>493.99999999999994</ele><time>2026-04-16T14:46:55.87Z</time></trkpt><trkpt lat="44.4134533" lon="9.1821383"><ele>494.0</ele><time>2026-04-16T14:46:57.873Z</time></trkpt><trkpt lat="44.4135017" lon="9.1820783"><ele>494.0</ele><time>2026-04-16T14:46:58.874Z</time></trkpt><trkpt lat="44.413555" lon="9.1820167"><ele>494.0</ele><time>2026-04-16T14:46:59.874Z</time></trkpt><trkpt lat="44.41361" lon="9.1819617"><ele>493.99999999999994</ele><time>2026-04-16T14:47:00.875Z</time></trkpt><trkpt lat="44.4136717" lon="9.18191"><ele>494.0</ele><time>2026-04-16T14:47:01.871Z</time></trkpt><trkpt lat="44.4137283" lon="9.1818567"><ele>494.0</ele><time>2026-04-16T14:47:02.875Z</time></trkpt><trkpt lat="44.413795" lon="9.1817133"><ele>494.0</ele><time>2026-04-16T14:47:04.874Z</time></trkpt><trkpt lat="44.413805" lon="9.18156"><ele>494.0</ele><time>2026-04-16T14:47:06.874Z</time></trkpt><trkpt lat="44.413785" lon="9.1814433"><ele>494.0</ele><time>2026-04-16T14:47:08.876Z</time></trkpt><trkpt lat="44.4138167" lon="9.1813017"><ele>494.0</ele><time>2026-04-16T14:47:10.872Z</time></trkpt><trkpt lat="44.4138417" lon="9.1812183"><ele>492.8333333333333</ele><time>2026-04-16T14:47:11.874Z</time></trkpt><trkpt lat="44.413865" lon="9.1811167"><ele>491.66666666666663</ele><time>2026-04-16T14:47:12.872Z</time></trkpt><trkpt lat="44.413895" lon="9.180985"><ele>490.5</ele><time>2026-04-16T14:47:14.874Z</time></trkpt><trkpt lat="44.4139533" lon="9.1810517"><ele>489.33333333333337</ele><time>2026-04-16T14:47:55.875Z</time></trkpt><trkpt lat="44.413925" lon="9.18097"><ele>488.1666666666667</ele><time>2026-04-16T14:48:13.873Z</time></trkpt><trkpt lat="44.414" lon="9.1810367"><ele>487.0</ele><time>2026-04-16T14:54:02.876Z</time></trkpt><trkpt lat="44.4139217" lon="9.18095"><ele>487.00000000000006</ele><time>2026-04-16T14:54:32.877Z</time></trkpt><trkpt lat="44.4139417" lon="9.1808467"><ele>487.0</ele><time>2026-04-16T14:54:34.875Z</time></trkpt><trkpt lat="44.4140217" lon="9.1808117"><ele>487.0</ele><time>2026-04-16T14:54:37.876Z</time></trkpt><trkpt lat="44.414095" lon="9.18079"><ele>487.0</ele><time>2026-04-16T14:54:40.875Z</time></trkpt><trkpt lat="44.4141483" lon="9.1808683"><ele>487.00000000000006</ele><time>2026-04-16T14:54:42.875Z</time></trkpt><trkpt lat="44.4142167" lon="9.180935"><ele>487.0</ele><time>2026-04-16T14:54:44.871Z</time></trkpt><trkpt lat="44.4142833" lon="9.180925"><ele>487.00000000000006</ele><time>2026-04-16T14:54:45.877Z</time></trkpt><trkpt lat="44.4143633" lon="9.1809283"><ele>487.0</ele><time>2026-04-16T14:54:46.875Z</time></trkpt><trkpt lat="44.41444" lon="9.1809433"><ele>487.0</ele><time>2026-04-16T14:54:47.876Z</time></trkpt><trkpt lat="44.4145217" lon="9.180955"><ele>487.0</ele><time>2026-04-16T14:54:48.875Z</time></trkpt><trkpt lat="44.4145967" lon="9.180955"><ele>487.00000000000006</ele><time>2026-04-16T14:54:49.875Z</time></trkpt><trkpt lat="44.4146617" lon="9.1809417"><ele>487.0</ele><time>2026-04-16T14:54:50.875Z</time></trkpt><trkpt lat="44.41475" lon="9.1808783"><ele>488.42857142857144</ele><time>2026-04-16T14:54:52.875Z</time></trkpt><trkpt lat="44.41478" lon="9.1808"><ele>489.85714285714283</ele><time>2026-04-16T14:54:53.875Z</time></trkpt><trkpt lat="44.4148017" lon="9.1807083"><ele>491.2857142857143</ele><time>2026-04-16T14:54:54.875Z</time></trkpt><trkpt lat="44.41483" lon="9.180615"><ele>492.7142857142857</ele><time>2026-04-16T14:54:55.874Z</time></trkpt><trkpt lat="44.4148717" lon="9.18053"><ele>494.1428571428571</ele><time>2026-04-16T14:54:56.875Z</time></trkpt><trkpt lat="44.4149133" lon="9.1804517"><ele>495.57142857142856</ele><time>2026-04-16T14:54:57.874Z</time></trkpt><trkpt lat="44.4149517" lon="9.180365"><ele>497.0</ele><time>2026-04-16T14:54:58.873Z</time></trkpt><trkpt lat="44.4149817" lon="9.18027"><ele>497.0</ele><time>2026-04-16T14:54:59.875Z</time></trkpt><trkpt lat="44.41501" lon="9.1801867"><ele>497.00000000000006</ele><time>2026-04-16T14:55:00.876Z</time></trkpt><trkpt lat="44.4151067" lon="9.18007"><ele>497.00000000000006</ele><time>2026-04-16T14:55:02.875Z</time></trkpt><trkpt lat="44.4151583" lon="9.1800067"><ele>497.0</ele><time>2026-04-16T14:55:03.873Z</time></trkpt><trkpt lat="44.4152117" lon="9.1799433"><ele>497.0</ele><time>2026-04-16T14:55:04.876Z</time></trkpt><trkpt lat="44.4152983" lon="9.179825"><ele>500.99999999999994</ele><time>2026-04-16T14:55:06.874Z</time></trkpt><trkpt lat="44.415335" lon="9.1797367"><ele>505.0</ele><time>2026-04-16T14:55:07.869Z</time></trkpt><trkpt lat="44.4153717" lon="9.1796417"><ele>509.0</ele><time>2026-04-16T14:55:08.875Z</time></trkpt><trkpt lat="44.41541" lon="9.1795533"><ele>513.0</ele><time>2026-04-16T14:55:09.875Z</time></trkpt><trkpt lat="44.4154583" lon="9.1794867"><ele>517.0</ele><time>2026-04-16T14:55:10.873Z</time></trkpt><trkpt lat="44.41553" lon="9.1793467"><ele>521.0</ele><time>2026-04-16T14:55:12.875Z</time></trkpt><trkpt lat="44.415545" lon="9.17926"><ele>516.1666666666666</ele><time>2026-04-16T14:55:13.872Z</time></trkpt><trkpt lat="44.4155583" lon="9.1791617"><ele>511.3333333333333</ele><time>2026-04-16T14:55:14.877Z</time></trkpt><trkpt lat="44.4155567" lon="9.1790583"><ele>506.5</ele><time>2026-04-16T14:55:15.873Z</time></trkpt><trkpt lat="44.415545" lon="9.178965"><ele>501.66666666666663</ele><time>2026-04-16T14:55:16.873Z</time></trkpt><trkpt lat="44.41553" lon="9.1788717"><ele>496.8333333333333</ele><time>2026-04-16T14:55:17.873Z</time></trkpt><trkpt lat="44.4155467" lon="9.178735"><ele>492.0</ele><time>2026-04-16T14:55:19.875Z</time></trkpt><trkpt lat="44.4156133" lon="9.17863"><ele>492.0</ele><time>2026-04-16T14:55:21.873Z</time></trkpt><trkpt lat="44.415655" lon="9.1784983"><ele>492.0</ele><time>2026-04-16T14:55:23.874Z</time></trkpt><trkpt lat="44.4156817" lon="9.1784167"><ele>492.0</ele><time>2026-04-16T14:55:24.877Z</time></trkpt><trkpt lat="44.4157033" lon="9.1783267"><ele>492.0</ele><time>2026-04-16T14:55:25.875Z</time></trkpt><trkpt lat="44.4157283" lon="9.1782383"><ele>492.0</ele><time>2026-04-16T14:55:26.877Z</time></trkpt><trkpt lat="44.4157617" lon="9.1780833"><ele>492.0</ele><time>2026-04-16T14:55:28.874Z</time></trkpt><trkpt lat="44.415795" lon="9.1779617"><ele>492.8</ele><time>2026-04-16T14:55:30.877Z</time></trkpt><trkpt lat="44.415835" lon="9.1778233"><ele>493.6</ele><time>2026-04-16T14:55:32.875Z</time></trkpt><trkpt lat="44.4158583" lon="9.1776667"><ele>494.40000000000003</ele><time>2026-04-16T14:55:34.874Z</time></trkpt><trkpt lat="44.4157933" lon="9.1775017"><ele>495.20000000000005</ele><time>2026-04-16T14:55:36.875Z</time></trkpt><trkpt lat="44.4157317" lon="9.1774133"><ele>496.0</ele><time>2026-04-16T14:55:37.877Z</time></trkpt><trkpt lat="44.4156633" lon="9.17731"><ele>493.20000000000005</ele><time>2026-04-16T14:55:38.875Z</time></trkpt><trkpt lat="44.4155983" lon="9.1771917"><ele>490.40000000000003</ele><time>2026-04-16T14:55:39.875Z</time></trkpt><trkpt lat="44.4155333" lon="9.177065"><ele>487.6</ele><time>2026-04-16T14:55:40.874Z</time></trkpt><trkpt lat="44.4154867" lon="9.1769267"><ele>484.8</ele><time>2026-04-16T14:55:41.876Z</time></trkpt><trkpt lat="44.415445" lon="9.1767783"><ele>482.0</ele><time>2026-04-16T14:55:42.875Z</time></trkpt><trkpt lat="44.4154217" lon="9.1766217"><ele>489.99999999999994</ele><time>2026-04-16T14:55:43.875Z</time></trkpt><trkpt lat="44.4154083" lon="9.1764767"><ele>498.0</ele><time>2026-04-16T14:55:44.875Z</time></trkpt><trkpt lat="44.4154067" lon="9.1763583"><ele>506.0</ele><time>2026-04-16T14:55:45.874Z</time></trkpt><trkpt lat="44.4154067" lon="9.1762583"><ele>514.0</ele><time>2026-04-16T14:55:46.872Z</time></trkpt><trkpt lat="44.4153983" lon="9.1761617"><ele>522.0</ele><time>2026-04-16T14:55:47.875Z</time></trkpt><trkpt lat="44.4153833" lon="9.1760483"><ele>530.0</ele><time>2026-04-16T14:55:48.876Z</time></trkpt><trkpt lat="44.415375" lon="9.1759133"><ele>530.0</ele><time>2026-04-16T14:55:49.875Z</time></trkpt><trkpt lat="44.41538" lon="9.1757633"><ele>530.0</ele><time>2026-04-16T14:55:50.876Z</time></trkpt><trkpt lat="44.4153867" lon="9.1756033"><ele>530.0</ele><time>2026-04-16T14:55:51.874Z</time></trkpt><trkpt lat="44.4154033" lon="9.1754433"><ele>530.0</ele><time>2026-04-16T14:55:52.874Z</time></trkpt><trkpt lat="44.4154283" lon="9.17529"><ele>532.2</ele><time>2026-04-16T14:55:53.876Z</time></trkpt><trkpt lat="44.41547" lon="9.1751483"><ele>534.4</ele><time>2026-04-16T14:55:54.874Z</time></trkpt><trkpt lat="44.4155117" lon="9.1750233"><ele>536.6</ele><time>2026-04-16T14:55:55.874Z</time></trkpt><trkpt lat="44.4155533" lon="9.17491"><ele>538.8</ele><time>2026-04-16T14:55:56.875Z</time></trkpt><trkpt lat="44.4155933" lon="9.174815"><ele>541.0</ele><time>2026-04-16T14:55:57.873Z</time></trkpt><trkpt lat="44.4156433" lon="9.1747283"><ele>536.3333333333334</ele><time>2026-04-16T14:55:58.874Z</time></trkpt><trkpt lat="44.4156867" lon="9.174655"><ele>531.6666666666667</ele><time>2026-04-16T14:55:59.875Z</time></trkpt><trkpt lat="44.41575" lon="9.174525"><ele>527.0</ele><time>2026-04-16T14:56:01.872Z</time></trkpt><trkpt lat="44.4157917" lon="9.174415"><ele>522.3333333333334</ele><time>2026-04-16T14:56:03.875Z</time></trkpt><trkpt lat="44.4157633" lon="9.1742667"><ele>517.6666666666666</ele><time>2026-04-16T14:56:05.875Z</time></trkpt><trkpt lat="44.4157367" lon="9.1741767"><ele>513.0</ele><time>2026-04-16T14:56:06.875Z</time></trkpt><trkpt lat="44.41571" lon="9.174085"><ele>511.3333333333333</ele><time>2026-04-16T14:56:07.873Z</time></trkpt><trkpt lat="44.4156833" lon="9.173995"><ele>509.66666666666663</ele><time>2026-04-16T14:56:08.874Z</time></trkpt><trkpt lat="44.4156483" lon="9.1739033"><ele>508.0</ele><time>2026-04-16T14:56:09.874Z</time></trkpt><trkpt lat="44.4156067" lon="9.1738133"><ele>506.3333333333333</ele><time>2026-04-16T14:56:10.874Z</time></trkpt><trkpt lat="44.415555" lon="9.1737283"><ele>504.66666666666663</ele><time>2026-04-16T14:56:11.874Z</time></trkpt><trkpt lat="44.4154983" lon="9.1736483"><ele>503.0</ele><time>2026-04-16T14:56:12.876Z</time></trkpt><trkpt lat="44.4154333" lon="9.173575"><ele>506.99999999999994</ele><time>2026-04-16T14:56:13.885Z</time></trkpt><trkpt lat="44.4153733" lon="9.1735083"><ele>511.0</ele><time>2026-04-16T14:56:14.875Z</time></trkpt><trkpt lat="44.41531" lon="9.1734383"><ele>515.0</ele><time>2026-04-16T14:56:15.874Z</time></trkpt><trkpt lat="44.415245" lon="9.1733717"><ele>519.0</ele><time>2026-04-16T14:56:16.874Z</time></trkpt><trkpt lat="44.4151867" lon="9.1733"><ele>523.0</ele><time>2026-04-16T14:56:17.874Z</time></trkpt><trkpt lat="44.41513" lon="9.173225"><ele>527.0</ele><time>2026-04-16T14:56:18.876Z</time></trkpt><trkpt lat="44.4150817" lon="9.173165"><ele>527.0</ele><time>2026-04-16T14:56:19.875Z</time></trkpt><trkpt lat="44.4150517" lon="9.1730833"><ele>527.0</ele><time>2026-04-16T14:56:21.875Z</time></trkpt><trkpt lat="44.415055" lon="9.1729883"><ele>527.0</ele><time>2026-04-16T14:56:28.874Z</time></trkpt><trkpt lat="44.41507" lon="9.1728633"><ele>527.0</ele><time>2026-04-16T14:56:46.877Z</time></trkpt><trkpt lat="44.4150467" lon="9.1727717"><ele>527.0</ele><time>2026-04-16T14:56:48.877Z</time></trkpt><trkpt lat="44.41501" lon="9.172585"><ele>527.0</ele><time>2026-04-16T14:56:50.876Z</time></trkpt><trkpt lat="44.4149867" lon="9.1724783"><ele>527.0</ele><time>2026-04-16T14:56:51.875Z</time></trkpt><trkpt lat="44.4149583" lon="9.1723767"><ele>527.0</ele><time>2026-04-16T14:56:52.872Z</time></trkpt><trkpt lat="44.414925" lon="9.1722883"><ele>527.0</ele><time>2026-04-16T14:56:53.875Z</time></trkpt><trkpt lat="44.414885" lon="9.1721733"><ele>527.0</ele><time>2026-04-16T14:56:55.876Z</time></trkpt><trkpt lat="44.4149583" lon="9.1721533"><ele>527.0</ele><time>2026-04-16T14:56:58.875Z</time></trkpt><trkpt lat="44.4150333" lon="9.172135"><ele>527.0</ele><time>2026-04-16T14:57:00.875Z</time></trkpt><trkpt lat="44.4151" lon="9.1720633"><ele>527.1666666666666</ele><time>2026-04-16T14:57:02.878Z</time></trkpt><trkpt lat="44.415155" lon="9.1719517"><ele>527.3333333333333</ele><time>2026-04-16T14:57:04.873Z</time></trkpt><trkpt lat="44.415215" lon="9.1718317"><ele>527.5</ele><time>2026-04-16T14:57:06.876Z</time></trkpt><trkpt lat="44.415265" lon="9.17173"><ele>527.6666666666666</ele><time>2026-04-16T14:57:08.876Z</time></trkpt><trkpt lat="44.415305" lon="9.1716467"><ele>527.8333333333334</ele><time>2026-04-16T14:57:10.874Z</time></trkpt><trkpt lat="44.41535" lon="9.1715467"><ele>528.0</ele><time>2026-04-16T14:57:12.88Z</time></trkpt><trkpt lat="44.4153917" lon="9.1714317"><ele>528.0</ele><time>2026-04-16T14:57:14.878Z</time></trkpt><trkpt lat="44.41542" lon="9.1713183"><ele>528.0</ele><time>2026-04-16T14:57:16.877Z</time></trkpt><trkpt lat="44.41544" lon="9.171175"><ele>528.0</ele><time>2026-04-16T14:57:18.876Z</time></trkpt><trkpt lat="44.41545" lon="9.1710867"><ele>528.0</ele><time>2026-04-16T14:57:19.872Z</time></trkpt><trkpt lat="44.4154867" lon="9.1709183"><ele>528.0</ele><time>2026-04-16T14:57:21.869Z</time></trkpt><trkpt lat="44.41554" lon="9.1708033"><ele>528.8333333333334</ele><time>2026-04-16T14:57:23.869Z</time></trkpt><trkpt lat="44.41558" lon="9.1706733"><ele>529.6666666666666</ele><time>2026-04-16T14:57:25.874Z</time></trkpt><trkpt lat="44.4155883" lon="9.17058"><ele>530.5</ele><time>2026-04-16T14:57:26.875Z</time></trkpt><trkpt lat="44.415595" lon="9.1704883"><ele>531.3333333333333</ele><time>2026-04-16T14:57:27.871Z</time></trkpt><trkpt lat="44.41559" lon="9.1703867"><ele>532.1666666666666</ele><time>2026-04-16T14:57:28.875Z</time></trkpt><trkpt lat="44.41558" lon="9.1702917"><ele>533.0</ele><time>2026-04-16T14:57:29.873Z</time></trkpt><trkpt lat="44.4155683" lon="9.1701883"><ele>533.0</ele><time>2026-04-16T14:57:30.874Z</time></trkpt><trkpt lat="44.4155533" lon="9.1700967"><ele>533.0</ele><time>2026-04-16T14:57:31.874Z</time></trkpt><trkpt lat="44.4155267" lon="9.1699467"><ele>533.0</ele><time>2026-04-16T14:57:33.873Z</time></trkpt><trkpt lat="44.4155283" lon="9.169835"><ele>533.0</ele><time>2026-04-16T14:57:35.875Z</time></trkpt><trkpt lat="44.4155883" lon="9.16972"><ele>533.0</ele><time>2026-04-16T14:57:37.875Z</time></trkpt><trkpt lat="44.4156667" lon="9.1696117"><ele>535.75</ele><time>2026-04-16T14:57:39.873Z</time></trkpt><trkpt lat="44.4157383" lon="9.1694867"><ele>538.5</ele><time>2026-04-16T14:57:41.874Z</time></trkpt><trkpt lat="44.4158033" lon="9.1693383"><ele>541.25</ele><time>2026-04-16T14:57:43.874Z</time></trkpt><trkpt lat="44.41585" lon="9.1691817"><ele>544.0</ele><time>2026-04-16T14:57:45.874Z</time></trkpt><trkpt lat="44.4159033" lon="9.169005"><ele>545.6666666666667</ele><time>2026-04-16T14:57:47.873Z</time></trkpt><trkpt lat="44.4159433" lon="9.1689217"><ele>547.3333333333334</ele><time>2026-04-16T14:57:48.875Z</time></trkpt><trkpt lat="44.4159917" lon="9.1688417"><ele>549.0</ele><time>2026-04-16T14:57:49.877Z</time></trkpt><trkpt lat="44.4160433" lon="9.1687817"><ele>550.6666666666666</ele><time>2026-04-16T14:57:50.875Z</time></trkpt><trkpt lat="44.4161017" lon="9.1687417"><ele>552.3333333333333</ele><time>2026-04-16T14:57:51.873Z</time></trkpt><trkpt lat="44.4161967" lon="9.1686917"><ele>554.0</ele><time>2026-04-16T14:57:53.873Z</time></trkpt><trkpt lat="44.4162967" lon="9.168655"><ele>551.8</ele><time>2026-04-16T14:57:55.872Z</time></trkpt><trkpt lat="44.4163683" lon="9.1685733"><ele>549.5999999999999</ele><time>2026-04-16T14:57:57.874Z</time></trkpt><trkpt lat="44.41638" lon="9.1684033"><ele>547.4</ele><time>2026-04-16T14:57:59.874Z</time></trkpt><trkpt lat="44.4163767" lon="9.1682533"><ele>545.1999999999999</ele><time>2026-04-16T14:58:01.874Z</time></trkpt><trkpt lat="44.4163417" lon="9.1681"><ele>543.0</ele><time>2026-04-16T14:58:03.878Z</time></trkpt><trkpt lat="44.4163183" lon="9.1680167"><ele>543.0</ele><time>2026-04-16T14:58:04.874Z</time></trkpt><trkpt lat="44.4162667" lon="9.167875"><ele>543.0</ele><time>2026-04-16T14:58:06.875Z</time></trkpt><trkpt lat="44.4162467" lon="9.1677317"><ele>543.0</ele><time>2026-04-16T14:58:08.877Z</time></trkpt><trkpt lat="44.416305" lon="9.1676483"><ele>543.0</ele><time>2026-04-16T14:58:10.874Z</time></trkpt><trkpt lat="44.4163783" lon="9.167605"><ele>543.0</ele><time>2026-04-16T14:58:12.873Z</time></trkpt><trkpt lat="44.41644" lon="9.16754"><ele>541.8333333333334</ele><time>2026-04-16T14:58:14.876Z</time></trkpt><trkpt lat="44.4164817" lon="9.1674283"><ele>540.6666666666666</ele><time>2026-04-16T14:58:16.874Z</time></trkpt><trkpt lat="44.41652" lon="9.167325"><ele>539.5</ele><time>2026-04-16T14:58:18.875Z</time></trkpt><trkpt lat="44.4165633" lon="9.16725"><ele>538.3333333333333</ele><time>2026-04-16T14:58:20.881Z</time></trkpt><trkpt lat="44.4166067" lon="9.1671383"><ele>537.1666666666666</ele><time>2026-04-16T14:58:22.876Z</time></trkpt><trkpt lat="44.41663" lon="9.1670267"><ele>536.0</ele><time>2026-04-16T14:58:24.877Z</time></trkpt><trkpt lat="44.4166583" lon="9.1669417"><ele>536.0</ele><time>2026-04-16T14:58:26.879Z</time></trkpt><trkpt lat="44.4167017" lon="9.1668483"><ele>536.0</ele><time>2026-04-16T14:58:29.875Z</time></trkpt><trkpt lat="44.41679" lon="9.1668183"><ele>536.0</ele><time>2026-04-16T14:58:33.877Z</time></trkpt><trkpt lat="44.4168983" lon="9.16678"><ele>536.0</ele><time>2026-04-16T14:58:35.876Z</time></trkpt><trkpt lat="44.416965" lon="9.1667633"><ele>536.0</ele><time>2026-04-16T14:58:36.874Z</time></trkpt><trkpt lat="44.4170883" lon="9.166695"><ele>536.0</ele><time>2026-04-16T14:58:38.874Z</time></trkpt><trkpt lat="44.417135" lon="9.1666167"><ele>536.0</ele><time>2026-04-16T14:58:39.873Z</time></trkpt><trkpt lat="44.4171683" lon="9.1665217"><ele>536.0</ele><time>2026-04-16T14:58:40.874Z</time></trkpt><trkpt lat="44.4172083" lon="9.16641"><ele>536.0</ele><time>2026-04-16T14:58:41.873Z</time></trkpt><trkpt lat="44.4172517" lon="9.1663017"><ele>536.0</ele><time>2026-04-16T14:58:42.877Z</time></trkpt><trkpt lat="44.4173017" lon="9.16623"><ele>536.0</ele><time>2026-04-16T14:58:44.877Z</time></trkpt><trkpt lat="44.41735" lon="9.1663817"><ele>535.7142857142858</ele><time>2026-04-16T14:58:47.874Z</time></trkpt><trkpt lat="44.41736" lon="9.1664867"><ele>535.4285714285714</ele><time>2026-04-16T14:58:48.874Z</time></trkpt><trkpt lat="44.4173767" lon="9.16659"><ele>535.1428571428571</ele><time>2026-04-16T14:58:49.874Z</time></trkpt><trkpt lat="44.4173883" lon="9.1666883"><ele>534.8571428571429</ele><time>2026-04-16T14:58:50.875Z</time></trkpt><trkpt lat="44.41739" lon="9.1667817"><ele>534.5714285714286</ele><time>2026-04-16T14:58:51.874Z</time></trkpt><trkpt lat="44.4173933" lon="9.1668767"><ele>534.2857142857143</ele><time>2026-04-16T14:58:52.874Z</time></trkpt><trkpt lat="44.4173867" lon="9.166965"><ele>534.0</ele><time>2026-04-16T14:58:53.874Z</time></trkpt><trkpt lat="44.4173217" lon="9.1671033"><ele>533.1666666666666</ele><time>2026-04-16T14:58:55.873Z</time></trkpt><trkpt lat="44.4172717" lon="9.16717"><ele>532.3333333333334</ele><time>2026-04-16T14:58:56.875Z</time></trkpt><trkpt lat="44.4172217" lon="9.1672383"><ele>531.5</ele><time>2026-04-16T14:58:57.872Z</time></trkpt><trkpt lat="44.4171817" lon="9.1673183"><ele>530.6666666666667</ele><time>2026-04-16T14:58:58.874Z</time></trkpt><trkpt lat="44.4171467" lon="9.1674133"><ele>529.8333333333334</ele><time>2026-04-16T14:58:59.874Z</time></trkpt><trkpt lat="44.4171167" lon="9.1675267"><ele>529.0</ele><time>2026-04-16T14:59:00.875Z</time></trkpt><trkpt lat="44.4170983" lon="9.16766"><ele>529.0</ele><time>2026-04-16T14:59:01.873Z</time></trkpt><trkpt lat="44.4170817" lon="9.1678"><ele>529.0</ele><time>2026-04-16T14:59:02.873Z</time></trkpt><trkpt lat="44.4170583" lon="9.1679167"><ele>529.0</ele><time>2026-04-16T14:59:03.874Z</time></trkpt><trkpt lat="44.4170467" lon="9.1680217"><ele>529.0</ele><time>2026-04-16T14:59:04.874Z</time></trkpt><trkpt lat="44.4170967" lon="9.1681183"><ele>529.0</ele><time>2026-04-16T14:59:06.874Z</time></trkpt><trkpt lat="44.4171917" lon="9.168035"><ele>522.1666666666667</ele><time>2026-04-16T14:59:09.874Z</time></trkpt><trkpt lat="44.4172417" lon="9.1679217"><ele>515.3333333333334</ele><time>2026-04-16T14:59:10.872Z</time></trkpt><trkpt lat="44.4173" lon="9.1677967"><ele>508.5</ele><time>2026-04-16T14:59:11.873Z</time></trkpt><trkpt lat="44.417345" lon="9.1676983"><ele>501.66666666666663</ele><time>2026-04-16T14:59:12.873Z</time></trkpt><trkpt lat="44.41739" lon="9.16762"><ele>494.8333333333333</ele><time>2026-04-16T14:59:13.874Z</time></trkpt><trkpt lat="44.41744" lon="9.1675533"><ele>488.0</ele><time>2026-04-16T14:59:14.873Z</time></trkpt><trkpt lat="44.4175067" lon="9.1675067"><ele>487.99999999999994</ele><time>2026-04-16T14:59:15.873Z</time></trkpt><trkpt lat="44.4175867" lon="9.1674767"><ele>488.0</ele><time>2026-04-16T14:59:16.875Z</time></trkpt><trkpt lat="44.4176817" lon="9.1674333"><ele>488.0</ele><time>2026-04-16T14:59:17.876Z</time></trkpt><trkpt lat="44.4177767" lon="9.1674083"><ele>488.0</ele><time>2026-04-16T14:59:18.874Z</time></trkpt><trkpt lat="44.4178583" lon="9.1673867"><ele>487.99999999999994</ele><time>2026-04-16T14:59:19.874Z</time></trkpt><trkpt lat="44.4179233" lon="9.167365"><ele>488.0</ele><time>2026-04-16T14:59:20.875Z</time></trkpt><trkpt lat="44.41798" lon="9.1672433"><ele>483.99999999999994</ele><time>2026-04-16T14:59:22.875Z</time></trkpt><trkpt lat="44.4179867" lon="9.1671517"><ele>480.0</ele><time>2026-04-16T14:59:23.874Z</time></trkpt><trkpt lat="44.417985" lon="9.16704"><ele>476.0</ele><time>2026-04-16T14:59:24.873Z</time></trkpt><trkpt lat="44.4179817" lon="9.16692"><ele>472.0</ele><time>2026-04-16T14:59:25.875Z</time></trkpt><trkpt lat="44.4179867" lon="9.16681"><ele>467.99999999999994</ele><time>2026-04-16T14:59:26.876Z</time></trkpt><trkpt lat="44.41799" lon="9.166715"><ele>464.0</ele><time>2026-04-16T14:59:27.873Z</time></trkpt><trkpt lat="44.4180333" lon="9.166625"><ele>464.0</ele><time>2026-04-16T14:59:29.874Z</time></trkpt><trkpt lat="44.4181283" lon="9.166615"><ele>464.0</ele><time>2026-04-16T14:59:31.875Z</time></trkpt><trkpt lat="44.4182533" lon="9.1665667"><ele>464.0</ele><time>2026-04-16T14:59:33.875Z</time></trkpt><trkpt lat="44.4183283" lon="9.1665367"><ele>464.0</ele><time>2026-04-16T14:59:34.873Z</time></trkpt><trkpt lat="44.4184083" lon="9.1665133"><ele>464.0</ele><time>2026-04-16T14:59:35.872Z</time></trkpt><trkpt lat="44.418475" lon="9.1664867"><ele>466.99999999999994</ele><time>2026-04-16T14:59:36.874Z</time></trkpt><trkpt lat="44.4185283" lon="9.1664383"><ele>470.0</ele><time>2026-04-16T14:59:37.876Z</time></trkpt><trkpt lat="44.4185567" lon="9.1663567"><ele>473.0</ele><time>2026-04-16T14:59:38.873Z</time></trkpt><trkpt lat="44.4185783" lon="9.1662533"><ele>476.0</ele><time>2026-04-16T14:59:39.874Z</time></trkpt><trkpt lat="44.418585" lon="9.16613"><ele>478.99999999999994</ele><time>2026-04-16T14:59:40.873Z</time></trkpt><trkpt lat="44.4185683" lon="9.1659983"><ele>482.0</ele><time>2026-04-16T14:59:41.875Z</time></trkpt><trkpt lat="44.4185517" lon="9.1658783"><ele>481.99999999999994</ele><time>2026-04-16T14:59:42.874Z</time></trkpt><trkpt lat="44.4185317" lon="9.1657717"><ele>482.0</ele><time>2026-04-16T14:59:43.875Z</time></trkpt><trkpt lat="44.4185217" lon="9.1656533"><ele>482.0</ele><time>2026-04-16T14:59:45.874Z</time></trkpt><trkpt lat="44.4186033" lon="9.165595"><ele>482.0</ele><time>2026-04-16T14:59:48.873Z</time></trkpt><trkpt lat="44.4187083" lon="9.16562"><ele>481.99999999999994</ele><time>2026-04-16T14:59:50.877Z</time></trkpt><trkpt lat="44.4187817" lon="9.1656267"><ele>482.0</ele><time>2026-04-16T14:59:52.874Z</time></trkpt><trkpt lat="44.4188617" lon="9.1656217"><ele>478.66666666666663</ele><time>2026-04-16T14:59:54.875Z</time></trkpt><trkpt lat="44.418945" lon="9.165545"><ele>475.3333333333333</ele><time>2026-04-16T14:59:56.875Z</time></trkpt><trkpt lat="44.4189833" lon="9.1654383"><ele>472.0</ele><time>2026-04-16T14:59:57.875Z</time></trkpt><trkpt lat="44.4190133" lon="9.1653367"><ele>468.66666666666663</ele><time>2026-04-16T14:59:58.873Z</time></trkpt><trkpt lat="44.4190283" lon="9.1652233"><ele>465.3333333333333</ele><time>2026-04-16T14:59:59.873Z</time></trkpt><trkpt lat="44.419045" lon="9.16513"><ele>462.0</ele><time>2026-04-16T15:00:00.875Z</time></trkpt><trkpt lat="44.419085" lon="9.1649933"><ele>462.0</ele><time>2026-04-16T15:00:02.874Z</time></trkpt><trkpt lat="44.419145" lon="9.1649417"><ele>462.0</ele><time>2026-04-16T15:00:04.875Z</time></trkpt><trkpt lat="44.41921" lon="9.165035"><ele>462.0</ele><time>2026-04-16T15:00:07.873Z</time></trkpt><trkpt lat="44.4192683" lon="9.1650983"><ele>462.0</ele><time>2026-04-16T15:00:09.878Z</time></trkpt><trkpt lat="44.419365" lon="9.1651733"><ele>462.0</ele><time>2026-04-16T15:00:11.875Z</time></trkpt><trkpt lat="44.4194333" lon="9.1652233"><ele>462.0</ele><time>2026-04-16T15:00:12.876Z</time></trkpt><trkpt lat="44.4195067" lon="9.1652933"><ele>462.0</ele><time>2026-04-16T15:00:13.877Z</time></trkpt><trkpt lat="44.4195733" lon="9.1653767"><ele>462.00000000000006</ele><time>2026-04-16T15:00:14.876Z</time></trkpt><trkpt lat="44.419655" lon="9.16547"><ele>462.00000000000006</ele><time>2026-04-16T15:00:15.874Z</time></trkpt><trkpt lat="44.4197333" lon="9.1655567"><ele>462.0</ele><time>2026-04-16T15:00:16.873Z</time></trkpt><trkpt lat="44.41982" lon="9.16564"><ele>462.0</ele><time>2026-04-16T15:00:17.876Z</time></trkpt><trkpt lat="44.4199067" lon="9.165715"><ele>457.6666666666667</ele><time>2026-04-16T15:00:18.874Z</time></trkpt><trkpt lat="44.4199867" lon="9.16577"><ele>453.33333333333337</ele><time>2026-04-16T15:00:19.876Z</time></trkpt><trkpt lat="44.42006" lon="9.1658217"><ele>449.0</ele><time>2026-04-16T15:00:20.875Z</time></trkpt><trkpt lat="44.42014" lon="9.1658583"><ele>444.6666666666667</ele><time>2026-04-16T15:00:21.874Z</time></trkpt><trkpt lat="44.4202183" lon="9.1658833"><ele>440.33333333333337</ele><time>2026-04-16T15:00:22.876Z</time></trkpt><trkpt lat="44.420285" lon="9.1659"><ele>436.0</ele><time>2026-04-16T15:00:23.876Z</time></trkpt><trkpt lat="44.4204017" lon="9.1659217"><ele>436.00000000000006</ele><time>2026-04-16T15:00:25.874Z</time></trkpt><trkpt lat="44.4204633" lon="9.1659417"><ele>436.0</ele><time>2026-04-16T15:00:26.876Z</time></trkpt><trkpt lat="44.4205233" lon="9.1659833"><ele>436.0</ele><time>2026-04-16T15:00:27.873Z</time></trkpt><trkpt lat="44.4205817" lon="9.166025"><ele>436.0</ele><time>2026-04-16T15:00:28.873Z</time></trkpt><trkpt lat="44.4206483" lon="9.1661067"><ele>436.00000000000006</ele><time>2026-04-16T15:00:30.874Z</time></trkpt><trkpt lat="44.4207133" lon="9.1661733"><ele>436.0</ele><time>2026-04-16T15:00:32.878Z</time></trkpt><trkpt lat="44.4208017" lon="9.1662717"><ele>440.20000000000005</ele><time>2026-04-16T15:00:34.873Z</time></trkpt><trkpt lat="44.4208533" lon="9.1663333"><ele>444.40000000000003</ele><time>2026-04-16T15:00:35.873Z</time></trkpt><trkpt lat="44.4209067" lon="9.1663933"><ele>448.6</ele><time>2026-04-16T15:00:36.873Z</time></trkpt><trkpt lat="44.4209983" lon="9.1664883"><ele>452.8</ele><time>2026-04-16T15:00:38.874Z</time></trkpt><trkpt lat="44.4211267" lon="9.166465"><ele>457.0</ele><time>2026-04-16T15:00:40.874Z</time></trkpt><trkpt lat="44.421225" lon="9.1663967"><ele>457.0</ele><time>2026-04-16T15:00:41.873Z</time></trkpt><trkpt lat="44.421315" lon="9.166345"><ele>457.00000000000006</ele><time>2026-04-16T15:00:42.872Z</time></trkpt><trkpt lat="44.4214117" lon="9.1662633"><ele>457.00000000000006</ele><time>2026-04-16T15:00:43.873Z</time></trkpt><trkpt lat="44.4215033" lon="9.1661883"><ele>457.0</ele><time>2026-04-16T15:00:44.873Z</time></trkpt><trkpt lat="44.4215817" lon="9.1661217"><ele>457.0</ele><time>2026-04-16T15:00:45.871Z</time></trkpt><trkpt lat="44.4216567" lon="9.1660567"><ele>458.40000000000003</ele><time>2026-04-16T15:00:46.873Z</time></trkpt><trkpt lat="44.42173" lon="9.1659983"><ele>459.80000000000007</ele><time>2026-04-16T15:00:47.874Z</time></trkpt><trkpt lat="44.4218017" lon="9.165915"><ele>461.2</ele><time>2026-04-16T15:00:48.875Z</time></trkpt><trkpt lat="44.42187" lon="9.1658483"><ele>462.6</ele><time>2026-04-16T15:00:49.875Z</time></trkpt><trkpt lat="44.4219217" lon="9.1657783"><ele>464.0</ele><time>2026-04-16T15:00:50.875Z</time></trkpt><trkpt lat="44.4220367" lon="9.1656683"><ele>464.0</ele><time>2026-04-16T15:00:52.873Z</time></trkpt><trkpt lat="44.4221217" lon="9.1656117"><ele>464.0</ele><time>2026-04-16T15:00:53.873Z</time></trkpt><trkpt lat="44.42221" lon="9.1655233"><ele>464.0</ele><time>2026-04-16T15:00:54.875Z</time></trkpt><trkpt lat="44.4222833" lon="9.1654217"><ele>464.0</ele><time>2026-04-16T15:00:55.874Z</time></trkpt><trkpt lat="44.4223467" lon="9.165335"><ele>464.0</ele><time>2026-04-16T15:00:56.876Z</time></trkpt><trkpt lat="44.422405" lon="9.165265"><ele>460.4</ele><time>2026-04-16T15:00:57.875Z</time></trkpt><trkpt lat="44.4224783" lon="9.165225"><ele>456.79999999999995</ele><time>2026-04-16T15:00:58.874Z</time></trkpt><trkpt lat="44.422555" lon="9.1652017"><ele>453.20000000000005</ele><time>2026-04-16T15:00:59.875Z</time></trkpt><trkpt lat="44.4226433" lon="9.16519"><ele>449.6</ele><time>2026-04-16T15:01:00.872Z</time></trkpt><trkpt lat="44.42275" lon="9.1652"><ele>446.0</ele><time>2026-04-16T15:01:01.87Z</time></trkpt><trkpt lat="44.4228667" lon="9.1653167"><ele>445.5</ele><time>2026-04-16T15:01:02.874Z</time></trkpt><trkpt lat="44.4229917" lon="9.1654967"><ele>445.0</ele><time>2026-04-16T15:01:03.874Z</time></trkpt><trkpt lat="44.42307" lon="9.165625"><ele>444.5</ele><time>2026-04-16T15:01:04.874Z</time></trkpt><trkpt lat="44.423135" lon="9.1657333"><ele>444.0</ele><time>2026-04-16T15:01:05.874Z</time></trkpt><trkpt lat="44.4231883" lon="9.165795"><ele>444.0</ele><time>2026-04-16T15:01:06.874Z</time></trkpt><trkpt lat="44.4232517" lon="9.1658133"><ele>444.0</ele><time>2026-04-16T15:01:08.878Z</time></trkpt><trkpt lat="44.4232467" lon="9.16571"><ele>444.0</ele><time>2026-04-16T15:01:12.876Z</time></trkpt><trkpt lat="44.4232067" lon="9.1656317"><ele>444.0</ele><time>2026-04-16T15:01:15.874Z</time></trkpt><trkpt lat="44.423185" lon="9.1655267"><ele>444.0</ele><time>2026-04-16T15:01:17.878Z</time></trkpt><trkpt lat="44.42315" lon="9.1654217"><ele>444.0</ele><time>2026-04-16T15:01:19.876Z</time></trkpt><trkpt lat="44.4231083" lon="9.1653017"><ele>444.0</ele><time>2026-04-16T15:01:21.875Z</time></trkpt><trkpt lat="44.4230483" lon="9.1651483"><ele>444.0</ele><time>2026-04-16T15:01:23.875Z</time></trkpt><trkpt lat="44.4230267" lon="9.1650533"><ele>444.0</ele><time>2026-04-16T15:01:24.877Z</time></trkpt><trkpt lat="44.42301" lon="9.1649517"><ele>444.0</ele><time>2026-04-16T15:01:25.873Z</time></trkpt><trkpt lat="44.4229917" lon="9.1648417"><ele>444.0</ele><time>2026-04-16T15:01:26.873Z</time></trkpt><trkpt lat="44.4229683" lon="9.1647383"><ele>444.0</ele><time>2026-04-16T15:01:27.874Z</time></trkpt><trkpt lat="44.4229317" lon="9.1646333"><ele>448.75</ele><time>2026-04-16T15:01:28.872Z</time></trkpt><trkpt lat="44.4228717" lon="9.1645317"><ele>453.5</ele><time>2026-04-16T15:01:29.872Z</time></trkpt><trkpt lat="44.4227833" lon="9.1644267"><ele>458.25</ele><time>2026-04-16T15:01:30.875Z</time></trkpt><trkpt lat="44.4226583" lon="9.164345"><ele>463.0</ele><time>2026-04-16T15:01:31.873Z</time></trkpt><trkpt lat="44.4225" lon="9.1642683"><ele>463.0</ele><time>2026-04-16T15:01:32.874Z</time></trkpt><trkpt lat="44.422345" lon="9.1642067"><ele>463.0</ele><time>2026-04-16T15:01:33.874Z</time></trkpt><trkpt lat="44.42222" lon="9.1641667"><ele>463.0</ele><time>2026-04-16T15:01:34.875Z</time></trkpt><trkpt lat="44.4221117" lon="9.16416"><ele>463.0</ele><time>2026-04-16T15:01:35.876Z</time></trkpt><trkpt lat="44.4220167" lon="9.164185"><ele>467.33333333333337</ele><time>2026-04-16T15:01:36.876Z</time></trkpt><trkpt lat="44.4219283" lon="9.1642333"><ele>471.6666666666667</ele><time>2026-04-16T15:01:37.875Z</time></trkpt><trkpt lat="44.4218483" lon="9.164305"><ele>476.0</ele><time>2026-04-16T15:01:38.875Z</time></trkpt><trkpt lat="44.42178" lon="9.1643417"><ele>480.33333333333337</ele><time>2026-04-16T15:01:39.873Z</time></trkpt><trkpt lat="44.4217133" lon="9.164345"><ele>484.6666666666667</ele><time>2026-04-16T15:01:40.874Z</time></trkpt><trkpt lat="44.42164" lon="9.1643383"><ele>489.0</ele><time>2026-04-16T15:01:41.874Z</time></trkpt><trkpt lat="44.4215667" lon="9.1643233"><ele>489.0</ele><time>2026-04-16T15:01:42.877Z</time></trkpt><trkpt lat="44.4216317" lon="9.1642467"><ele>489.0</ele><time>2026-04-16T15:01:46.873Z</time></trkpt><trkpt lat="44.42174" lon="9.1642333"><ele>489.0</ele><time>2026-04-16T15:01:47.875Z</time></trkpt><trkpt lat="44.4218267" lon="9.1641967"><ele>489.0</ele><time>2026-04-16T15:01:48.873Z</time></trkpt><trkpt lat="44.4218917" lon="9.1641583"><ele>489.0</ele><time>2026-04-16T15:01:49.874Z</time></trkpt><trkpt lat="44.42196" lon="9.1640233"><ele>490.3333333333333</ele><time>2026-04-16T15:01:51.879Z</time></trkpt><trkpt lat="44.4219283" lon="9.1639"><ele>491.66666666666663</ele><time>2026-04-16T15:01:53.876Z</time></trkpt><trkpt lat="44.4218767" lon="9.1638333"><ele>493.0</ele><time>2026-04-16T15:01:54.875Z</time></trkpt><trkpt lat="44.4218133" lon="9.1637583"><ele>494.3333333333333</ele><time>2026-04-16T15:01:55.87Z</time></trkpt><trkpt lat="44.4217683" lon="9.163685"><ele>495.66666666666663</ele><time>2026-04-16T15:01:56.875Z</time></trkpt><trkpt lat="44.4217583" lon="9.163525"><ele>497.0</ele><time>2026-04-16T15:01:58.876Z</time></trkpt><trkpt lat="44.4217833" lon="9.1634433"><ele>497.0</ele><time>2026-04-16T15:01:59.874Z</time></trkpt><trkpt lat="44.4217783" lon="9.1632567"><ele>497.00000000000006</ele><time>2026-04-16T15:02:01.876Z</time></trkpt><trkpt lat="44.4217617" lon="9.1631633"><ele>497.00000000000006</ele><time>2026-04-16T15:02:02.876Z</time></trkpt><trkpt lat="44.421725" lon="9.163085"><ele>497.0</ele><time>2026-04-16T15:02:03.875Z</time></trkpt><trkpt lat="44.4216683" lon="9.1630033"><ele>497.0</ele><time>2026-04-16T15:02:04.872Z</time></trkpt><trkpt lat="44.4215867" lon="9.162895"><ele>494.8333333333333</ele><time>2026-04-16T15:02:05.874Z</time></trkpt><trkpt lat="44.4214967" lon="9.162785"><ele>492.66666666666663</ele><time>2026-04-16T15:02:06.874Z</time></trkpt><trkpt lat="44.42142" lon="9.1627167"><ele>490.5</ele><time>2026-04-16T15:02:07.874Z</time></trkpt><trkpt lat="44.4213433" lon="9.1626833"><ele>488.33333333333337</ele><time>2026-04-16T15:02:08.875Z</time></trkpt><trkpt lat="44.4212667" lon="9.1626717"><ele>486.1666666666667</ele><time>2026-04-16T15:02:09.874Z</time></trkpt><trkpt lat="44.4212017" lon="9.162675"><ele>484.0</ele><time>2026-04-16T15:02:10.872Z</time></trkpt><trkpt lat="44.4211167" lon="9.16262"><ele>491.6666666666667</ele><time>2026-04-16T15:02:12.872Z</time></trkpt><trkpt lat="44.4210717" lon="9.16246"><ele>499.33333333333337</ele><time>2026-04-16T15:02:14.876Z</time></trkpt><trkpt lat="44.4210317" lon="9.1623767"><ele>507.0</ele><time>2026-04-16T15:02:15.873Z</time></trkpt><trkpt lat="44.4209883" lon="9.1623"><ele>514.6666666666666</ele><time>2026-04-16T15:02:16.873Z</time></trkpt><trkpt lat="44.4209467" lon="9.1622133"><ele>522.3333333333333</ele><time>2026-04-16T15:02:17.873Z</time></trkpt><trkpt lat="44.420915" lon="9.1621233"><ele>530.0</ele><time>2026-04-16T15:02:18.876Z</time></trkpt><trkpt lat="44.4209" lon="9.1620267"><ele>530.0</ele><time>2026-04-16T15:02:19.874Z</time></trkpt><trkpt lat="44.4209" lon="9.1619267"><ele>530.0</ele><time>2026-04-16T15:02:20.875Z</time></trkpt><trkpt lat="44.4209167" lon="9.1618133"><ele>530.0</ele><time>2026-04-16T15:02:21.874Z</time></trkpt><trkpt lat="44.4208533" lon="9.1618483"><ele>530.0</ele><time>2026-04-16T15:02:28.873Z</time></trkpt><trkpt lat="44.4207917" lon="9.1619633"><ele>530.0</ele><time>2026-04-16T15:02:30.876Z</time></trkpt><trkpt lat="44.4207283" lon="9.1620933"><ele>530.0</ele><time>2026-04-16T15:02:32.876Z</time></trkpt><trkpt lat="44.4206917" lon="9.1621933"><ele>530.0</ele><time>2026-04-16T15:02:34.874Z</time></trkpt><trkpt lat="44.420685" lon="9.1622917"><ele>530.0</ele><time>2026-04-16T15:02:38.876Z</time></trkpt><trkpt lat="44.4206733" lon="9.1624117"><ele>530.0</ele><time>2026-04-16T15:02:41.874Z</time></trkpt><trkpt lat="44.4206667" lon="9.1625017"><ele>530.0</ele><time>2026-04-16T15:02:43.876Z</time></trkpt><trkpt lat="44.4207167" lon="9.162615"><ele>530.0</ele><time>2026-04-16T15:02:46.877Z</time></trkpt><trkpt lat="44.42079" lon="9.1627167"><ele>530.0</ele><time>2026-04-16T15:02:48.877Z</time></trkpt><trkpt lat="44.4208033" lon="9.162805"><ele>530.0</ele><time>2026-04-16T15:02:50.876Z</time></trkpt><trkpt lat="44.4207583" lon="9.1629183"><ele>530.0</ele><time>2026-04-16T15:02:52.872Z</time></trkpt><trkpt lat="44.4207083" lon="9.16305"><ele>530.0</ele><time>2026-04-16T15:02:54.873Z</time></trkpt><trkpt lat="44.42069" lon="9.1631667"><ele>530.0</ele><time>2026-04-16T15:02:56.876Z</time></trkpt><trkpt lat="44.4206967" lon="9.1633017"><ele>530.0</ele><time>2026-04-16T15:02:58.874Z</time></trkpt><trkpt lat="44.42068" lon="9.1633917"><ele>530.0</ele><time>2026-04-16T15:03:00.875Z</time></trkpt><trkpt lat="44.4206233" lon="9.1633217"><ele>530.0</ele><time>2026-04-16T15:03:06.88Z</time></trkpt><trkpt lat="44.4205683" lon="9.1632283"><ele>530.0</ele><time>2026-04-16T15:03:08.876Z</time></trkpt><trkpt lat="44.4205067" lon="9.1631383"><ele>530.0</ele><time>2026-04-16T15:03:10.874Z</time></trkpt><trkpt lat="44.4204533" lon="9.163065"><ele>530.0</ele><time>2026-04-16T15:03:14.876Z</time></trkpt><trkpt lat="44.4204433" lon="9.1629433"><ele>530.0</ele><time>2026-04-16T15:03:17.875Z</time></trkpt><trkpt lat="44.4204" lon="9.1628417"><ele>530.0</ele><time>2026-04-16T15:03:22.874Z</time></trkpt><trkpt lat="44.4203667" lon="9.1627433"><ele>536.2</ele><time>2026-04-16T15:03:25.874Z</time></trkpt><trkpt lat="44.4203517" lon="9.16262"><ele>542.4</ele><time>2026-04-16T15:03:27.876Z</time></trkpt><trkpt lat="44.4203433" lon="9.1624733"><ele>548.6</ele><time>2026-04-16T15:03:29.874Z</time></trkpt><trkpt lat="44.4203167" lon="9.16235"><ele>554.8</ele><time>2026-04-16T15:03:31.873Z</time></trkpt><trkpt lat="44.4202867" lon="9.1622117"><ele>561.0</ele><time>2026-04-16T15:03:34.874Z</time></trkpt><trkpt lat="44.4202267" lon="9.1621"><ele>564.4</ele><time>2026-04-16T15:03:36.875Z</time></trkpt><trkpt lat="44.420245" lon="9.1620017"><ele>567.8</ele><time>2026-04-16T15:03:38.874Z</time></trkpt><trkpt lat="44.42029" lon="9.1618583"><ele>571.1999999999999</ele><time>2026-04-16T15:03:40.872Z</time></trkpt><trkpt lat="44.4202833" lon="9.1617067"><ele>574.6</ele><time>2026-04-16T15:03:42.874Z</time></trkpt><trkpt lat="44.4202283" lon="9.1615583"><ele>578.0</ele><time>2026-04-16T15:03:44.874Z</time></trkpt><trkpt lat="44.4201967" lon="9.1614617"><ele>578.3333333333333</ele><time>2026-04-16T15:03:46.875Z</time></trkpt><trkpt lat="44.420265" lon="9.1613367"><ele>578.6666666666666</ele><time>2026-04-16T15:03:49.872Z</time></trkpt><trkpt lat="44.4203183" lon="9.161175"><ele>579.0</ele><time>2026-04-16T15:03:51.874Z</time></trkpt><trkpt lat="44.42032" lon="9.1610767"><ele>579.3333333333334</ele><time>2026-04-16T15:03:52.875Z</time></trkpt><trkpt lat="44.4203217" lon="9.160985"><ele>579.6666666666667</ele><time>2026-04-16T15:03:53.875Z</time></trkpt><trkpt lat="44.4203067" lon="9.1608933"><ele>580.0</ele><time>2026-04-16T15:03:54.876Z</time></trkpt><trkpt lat="44.4202933" lon="9.160805"><ele>578.6</ele><time>2026-04-16T15:03:55.875Z</time></trkpt><trkpt lat="44.4202883" lon="9.160635"><ele>577.2</ele><time>2026-04-16T15:03:57.876Z</time></trkpt><trkpt lat="44.4203367" lon="9.16049"><ele>575.8</ele><time>2026-04-16T15:03:59.874Z</time></trkpt><trkpt lat="44.420365" lon="9.1603933"><ele>574.4</ele><time>2026-04-16T15:04:00.873Z</time></trkpt><trkpt lat="44.4203867" lon="9.1603067"><ele>573.0</ele><time>2026-04-16T15:04:01.872Z</time></trkpt><trkpt lat="44.4204" lon="9.16015"><ele>573.0</ele><time>2026-04-16T15:04:03.874Z</time></trkpt><trkpt lat="44.420385" lon="9.1600617"><ele>573.0</ele><time>2026-04-16T15:04:04.875Z</time></trkpt><trkpt lat="44.420365" lon="9.1599667"><ele>573.0</ele><time>2026-04-16T15:04:05.874Z</time></trkpt><trkpt lat="44.420345" lon="9.1598683"><ele>573.0</ele><time>2026-04-16T15:04:06.872Z</time></trkpt><trkpt lat="44.4203267" lon="9.1597783"><ele>573.0</ele><time>2026-04-16T15:04:07.875Z</time></trkpt><trkpt lat="44.4203067" lon="9.15969"><ele>573.0</ele><time>2026-04-16T15:04:08.874Z</time></trkpt><trkpt lat="44.42026" lon="9.1595583"><ele>573.0</ele><time>2026-04-16T15:04:10.874Z</time></trkpt><trkpt lat="44.4202167" lon="9.1594883"><ele>569.8</ele><time>2026-04-16T15:04:11.873Z</time></trkpt><trkpt lat="44.420165" lon="9.1594033"><ele>566.5999999999999</ele><time>2026-04-16T15:04:12.873Z</time></trkpt><trkpt lat="44.4201217" lon="9.1593117"><ele>563.4000000000001</ele><time>2026-04-16T15:04:13.872Z</time></trkpt><trkpt lat="44.4200833" lon="9.1592233"><ele>560.2</ele><time>2026-04-16T15:04:14.872Z</time></trkpt><trkpt lat="44.4200383" lon="9.1590767"><ele>557.0</ele><time>2026-04-16T15:04:16.874Z</time></trkpt><trkpt lat="44.4200267" lon="9.1589267"><ele>554.8000000000001</ele><time>2026-04-16T15:04:18.872Z</time></trkpt><trkpt lat="44.4200517" lon="9.1587917"><ele>552.6</ele><time>2026-04-16T15:04:20.876Z</time></trkpt><trkpt lat="44.420095" lon="9.1586533"><ele>550.4000000000001</ele><time>2026-04-16T15:04:22.874Z</time></trkpt><trkpt lat="44.42013" lon="9.1585617"><ele>548.2</ele><time>2026-04-16T15:04:24.874Z</time></trkpt><trkpt lat="44.4201917" lon="9.158455"><ele>546.0</ele><time>2026-04-16T15:04:27.876Z</time></trkpt><trkpt lat="44.4202283" lon="9.158365"><ele>546.0</ele><time>2026-04-16T15:04:29.876Z</time></trkpt><trkpt lat="44.4201933" lon="9.1582267"><ele>546.0</ele><time>2026-04-16T15:04:31.877Z</time></trkpt><trkpt lat="44.4201267" lon="9.1580967"><ele>546.0</ele><time>2026-04-16T15:04:33.873Z</time></trkpt><trkpt lat="44.4200517" lon="9.157975"><ele>546.0</ele><time>2026-04-16T15:04:35.873Z</time></trkpt><trkpt lat="44.4199967" lon="9.1578767"><ele>546.0</ele><time>2026-04-16T15:04:37.874Z</time></trkpt><trkpt lat="44.4199467" lon="9.1577967"><ele>545.0</ele><time>2026-04-16T15:04:39.876Z</time></trkpt><trkpt lat="44.4199417" lon="9.157675"><ele>544.0</ele><time>2026-04-16T15:04:43.875Z</time></trkpt><trkpt lat="44.4199933" lon="9.1575567"><ele>543.0</ele><time>2026-04-16T15:04:45.877Z</time></trkpt><trkpt lat="44.4200283" lon="9.1574333"><ele>542.0</ele><time>2026-04-16T15:04:47.877Z</time></trkpt><trkpt lat="44.4200633" lon="9.1572783"><ele>541.0</ele><time>2026-04-16T15:04:49.875Z</time></trkpt><trkpt lat="44.4200817" lon="9.1571783"><ele>541.0</ele><time>2026-04-16T15:04:50.875Z</time></trkpt><trkpt lat="44.4200933" lon="9.1570767"><ele>541.0</ele><time>2026-04-16T15:04:51.873Z</time></trkpt><trkpt lat="44.4200967" lon="9.156985"><ele>541.0</ele><time>2026-04-16T15:04:52.875Z</time></trkpt><trkpt lat="44.4201167" lon="9.156815"><ele>541.0</ele><time>2026-04-16T15:04:54.875Z</time></trkpt><trkpt lat="44.4201333" lon="9.15666"><ele>541.0</ele><time>2026-04-16T15:04:56.875Z</time></trkpt><trkpt lat="44.4201817" lon="9.1565183"><ele>542.5</ele><time>2026-04-16T15:04:58.874Z</time></trkpt><trkpt lat="44.4202617" lon="9.1564633"><ele>544.0</ele><time>2026-04-16T15:05:00.875Z</time></trkpt><trkpt lat="44.4203267" lon="9.15644"><ele>545.5</ele><time>2026-04-16T15:05:02.879Z</time></trkpt><trkpt lat="44.420385" lon="9.15633"><ele>547.0</ele><time>2026-04-16T15:05:04.874Z</time></trkpt><trkpt lat="44.420435" lon="9.1562333"><ele>548.5</ele><time>2026-04-16T15:05:06.874Z</time></trkpt><trkpt lat="44.4205" lon="9.156195"><ele>550.0</ele><time>2026-04-16T15:05:08.877Z</time></trkpt><trkpt lat="44.42056" lon="9.1561183"><ele>549.0</ele><time>2026-04-16T15:05:10.875Z</time></trkpt><trkpt lat="44.4205867" lon="9.156035"><ele>548.0</ele><time>2026-04-16T15:05:12.87Z</time></trkpt><trkpt lat="44.4206567" lon="9.1559733"><ele>547.0</ele><time>2026-04-16T15:05:15.875Z</time></trkpt><trkpt lat="44.4207317" lon="9.1559217"><ele>546.0</ele><time>2026-04-16T15:05:17.875Z</time></trkpt><trkpt lat="44.4207867" lon="9.1557933"><ele>545.0</ele><time>2026-04-16T15:05:19.875Z</time></trkpt><trkpt lat="44.4208667" lon="9.1557"><ele>544.0</ele><time>2026-04-16T15:05:21.875Z</time></trkpt><trkpt lat="44.4209383" lon="9.1556817"><ele>544.0</ele><time>2026-04-16T15:05:22.878Z</time></trkpt><trkpt lat="44.4210167" lon="9.1556883"><ele>544.0</ele><time>2026-04-16T15:05:23.875Z</time></trkpt><trkpt lat="44.4211167" lon="9.1556767"><ele>544.0</ele><time>2026-04-16T15:05:25.875Z</time></trkpt><trkpt lat="44.42121" lon="9.155585"><ele>544.0</ele><time>2026-04-16T15:05:27.887Z</time></trkpt><trkpt lat="44.42128" lon="9.1555483"><ele>544.0</ele><time>2026-04-16T15:05:28.874Z</time></trkpt><trkpt lat="44.4213533" lon="9.1555283"><ele>544.0</ele><time>2026-04-16T15:05:29.875Z</time></trkpt><trkpt lat="44.4214233" lon="9.155545"><ele>539.8333333333334</ele><time>2026-04-16T15:05:30.876Z</time></trkpt><trkpt lat="44.42152" lon="9.155585"><ele>535.6666666666667</ele><time>2026-04-16T15:05:32.876Z</time></trkpt><trkpt lat="44.4216" lon="9.15555"><ele>531.5</ele><time>2026-04-16T15:05:34.877Z</time></trkpt><trkpt lat="44.421705" lon="9.1554717"><ele>527.3333333333334</ele><time>2026-04-16T15:05:36.876Z</time></trkpt><trkpt lat="44.4217683" lon="9.1554517"><ele>523.1666666666666</ele><time>2026-04-16T15:05:37.876Z</time></trkpt><trkpt lat="44.4218333" lon="9.15546"><ele>519.0</ele><time>2026-04-16T15:05:38.874Z</time></trkpt><trkpt lat="44.4219017" lon="9.1554817"><ele>519.0</ele><time>2026-04-16T15:05:39.875Z</time></trkpt><trkpt lat="44.4219633" lon="9.155505"><ele>519.0</ele><time>2026-04-16T15:05:40.875Z</time></trkpt><trkpt lat="44.4220283" lon="9.155515"><ele>519.0</ele><time>2026-04-16T15:05:41.875Z</time></trkpt><trkpt lat="44.4220933" lon="9.1555183"><ele>519.0</ele><time>2026-04-16T15:05:42.875Z</time></trkpt><trkpt lat="44.4221567" lon="9.1555117"><ele>519.0</ele><time>2026-04-16T15:05:43.874Z</time></trkpt><trkpt lat="44.422255" lon="9.155455"><ele>519.0</ele><time>2026-04-16T15:05:45.875Z</time></trkpt><trkpt lat="44.4223417" lon="9.1553667"><ele>516.1666666666666</ele><time>2026-04-16T15:05:47.875Z</time></trkpt><trkpt lat="44.422405" lon="9.1553017"><ele>513.3333333333334</ele><time>2026-04-16T15:05:49.875Z</time></trkpt><trkpt lat="44.4224483" lon="9.1552167"><ele>510.5</ele><time>2026-04-16T15:05:51.875Z</time></trkpt><trkpt lat="44.422495" lon="9.1550683"><ele>507.6666666666667</ele><time>2026-04-16T15:05:53.876Z</time></trkpt><trkpt lat="44.4224967" lon="9.1549217"><ele>504.83333333333337</ele><time>2026-04-16T15:05:55.875Z</time></trkpt><trkpt lat="44.422455" lon="9.154855"><ele>502.0</ele><time>2026-04-16T15:05:56.874Z</time></trkpt><trkpt lat="44.4223967" lon="9.1548033"><ele>499.20000000000005</ele><time>2026-04-16T15:05:57.873Z</time></trkpt><trkpt lat="44.4223267" lon="9.1546983"><ele>496.40000000000003</ele><time>2026-04-16T15:05:59.876Z</time></trkpt><trkpt lat="44.422315" lon="9.15456"><ele>493.59999999999997</ele><time>2026-04-16T15:06:01.874Z</time></trkpt><trkpt lat="44.4222917" lon="9.15443"><ele>490.79999999999995</ele><time>2026-04-16T15:06:03.874Z</time></trkpt><trkpt lat="44.42227" lon="9.154335"><ele>488.0</ele><time>2026-04-16T15:06:05.873Z</time></trkpt><trkpt lat="44.4223633" lon="9.1543233"><ele>487.99999999999994</ele><time>2026-04-16T15:06:18.875Z</time></trkpt><trkpt lat="44.4224367" lon="9.154345"><ele>488.0</ele><time>2026-04-16T15:06:19.873Z</time></trkpt><trkpt lat="44.4225133" lon="9.1543717"><ele>488.0</ele><time>2026-04-16T15:06:20.877Z</time></trkpt><trkpt lat="44.4225967" lon="9.1544117"><ele>488.0</ele><time>2026-04-16T15:06:21.874Z</time></trkpt><trkpt lat="44.422685" lon="9.1544433"><ele>487.99999999999994</ele><time>2026-04-16T15:06:22.875Z</time></trkpt><trkpt lat="44.4227667" lon="9.154475"><ele>488.0</ele><time>2026-04-16T15:06:23.877Z</time></trkpt><trkpt lat="44.4228383" lon="9.1544967"><ele>488.0</ele><time>2026-04-16T15:06:24.875Z</time></trkpt><trkpt lat="44.4229067" lon="9.15452"><ele>487.99999999999994</ele><time>2026-04-16T15:06:25.874Z</time></trkpt><trkpt lat="44.423015" lon="9.1545767"><ele>487.99999999999994</ele><time>2026-04-16T15:06:27.876Z</time></trkpt><trkpt lat="44.4230833" lon="9.1546433"><ele>488.0</ele><time>2026-04-16T15:06:29.871Z</time></trkpt><trkpt lat="44.4231783" lon="9.1546467"><ele>488.0</ele><time>2026-04-16T15:06:32.877Z</time></trkpt><trkpt lat="44.4232883" lon="9.1545683"><ele>484.59999999999997</ele><time>2026-04-16T15:06:34.872Z</time></trkpt><trkpt lat="44.42339" lon="9.1545367"><ele>481.19999999999993</ele><time>2026-04-16T15:06:36.875Z</time></trkpt><trkpt lat="44.4234883" lon="9.15457"><ele>477.8</ele><time>2026-04-16T15:06:38.876Z</time></trkpt><trkpt lat="44.4235817" lon="9.1546067"><ele>474.4</ele><time>2026-04-16T15:06:40.874Z</time></trkpt><trkpt lat="44.4236467" lon="9.15456"><ele>471.0</ele><time>2026-04-16T15:06:42.873Z</time></trkpt><trkpt lat="44.4236933" lon="9.1544417"><ele>471.0</ele><time>2026-04-16T15:06:44.876Z</time></trkpt><trkpt lat="44.4237467" lon="9.15437"><ele>471.0</ele><time>2026-04-16T15:06:46.872Z</time></trkpt><trkpt lat="44.42382" lon="9.154425"><ele>471.0</ele><time>2026-04-16T15:06:49.876Z</time></trkpt><trkpt lat="44.42391" lon="9.1544583"><ele>471.0</ele><time>2026-04-16T15:06:52.873Z</time></trkpt><trkpt lat="44.4239717" lon="9.154385"><ele>471.0</ele><time>2026-04-16T15:06:54.874Z</time></trkpt><trkpt lat="44.4240583" lon="9.1543367"><ele>471.0</ele><time>2026-04-16T15:06:56.876Z</time></trkpt><trkpt lat="44.42417" lon="9.154295"><ele>467.0</ele><time>2026-04-16T15:06:58.874Z</time></trkpt><trkpt lat="44.4242933" lon="9.154255"><ele>463.0</ele><time>2026-04-16T15:07:00.875Z</time></trkpt><trkpt lat="44.4244" lon="9.15419"><ele>459.0</ele><time>2026-04-16T15:07:02.875Z</time></trkpt><trkpt lat="44.424465" lon="9.1541833"><ele>455.0</ele><time>2026-04-16T15:07:03.875Z</time></trkpt><trkpt lat="44.42454" lon="9.1542083"><ele>451.0</ele><time>2026-04-16T15:07:04.874Z</time></trkpt><trkpt lat="44.4246133" lon="9.1542567"><ele>449.50000000000006</ele><time>2026-04-16T15:07:05.874Z</time></trkpt><trkpt lat="44.42468" lon="9.154285"><ele>448.0</ele><time>2026-04-16T15:07:06.875Z</time></trkpt><trkpt lat="44.424795" lon="9.1542867"><ele>446.5</ele><time>2026-04-16T15:07:08.876Z</time></trkpt><trkpt lat="44.4249017" lon="9.1542817"><ele>445.0</ele><time>2026-04-16T15:07:10.872Z</time></trkpt><trkpt lat="44.4249583" lon="9.1542083"><ele>443.50000000000006</ele><time>2026-04-16T15:07:12.872Z</time></trkpt><trkpt lat="44.424985" lon="9.1541083"><ele>442.0</ele><time>2026-04-16T15:07:14.876Z</time></trkpt><trkpt lat="44.4250567" lon="9.1540217"><ele>438.40000000000003</ele><time>2026-04-16T15:07:16.874Z</time></trkpt><trkpt lat="44.4251283" lon="9.153965"><ele>434.80000000000007</ele><time>2026-04-16T15:07:17.875Z</time></trkpt><trkpt lat="44.4252083" lon="9.1538867"><ele>431.2</ele><time>2026-04-16T15:07:18.878Z</time></trkpt><trkpt lat="44.4252733" lon="9.1538133"><ele>427.6</ele><time>2026-04-16T15:07:19.875Z</time></trkpt><trkpt lat="44.4253633" lon="9.153735"><ele>424.0</ele><time>2026-04-16T15:07:21.876Z</time></trkpt><trkpt lat="44.42546" lon="9.1537467"><ele>422.1666666666667</ele><time>2026-04-16T15:07:23.876Z</time></trkpt><trkpt lat="44.4255233" lon="9.15376"><ele>420.33333333333337</ele><time>2026-04-16T15:07:24.877Z</time></trkpt><trkpt lat="44.4256367" lon="9.1537717"><ele>418.5</ele><time>2026-04-16T15:07:26.875Z</time></trkpt><trkpt lat="44.4257167" lon="9.1538017"><ele>416.66666666666663</ele><time>2026-04-16T15:07:28.875Z</time></trkpt><trkpt lat="44.425775" lon="9.15385"><ele>414.8333333333333</ele><time>2026-04-16T15:07:30.876Z</time></trkpt><trkpt lat="44.42586" lon="9.153885"><ele>413.0</ele><time>2026-04-16T15:07:34.876Z</time></trkpt><trkpt lat="44.42591" lon="9.1539567"><ele>413.0</ele><time>2026-04-16T15:07:36.876Z</time></trkpt><trkpt lat="44.4259733" lon="9.1540367"><ele>413.0</ele><time>2026-04-16T15:07:38.877Z</time></trkpt><trkpt lat="44.42601" lon="9.1541117"><ele>413.0</ele><time>2026-04-16T15:07:40.876Z</time></trkpt><trkpt lat="44.4260517" lon="9.1541833"><ele>413.0</ele><time>2026-04-16T15:07:42.879Z</time></trkpt><trkpt lat="44.4260983" lon="9.1542533"><ele>413.0</ele><time>2026-04-16T15:07:45.875Z</time></trkpt><trkpt lat="44.4261633" lon="9.1542083"><ele>413.0</ele><time>2026-04-16T15:07:48.881Z</time></trkpt><trkpt lat="44.4262383" lon="9.1541817"><ele>413.0</ele><time>2026-04-16T15:07:51.879Z</time></trkpt><trkpt lat="44.4263117" lon="9.154215"><ele>413.4</ele><time>2026-04-16T15:07:53.875Z</time></trkpt><trkpt lat="44.4263967" lon="9.1542133"><ele>413.79999999999995</ele><time>2026-04-16T15:07:55.876Z</time></trkpt><trkpt lat="44.42647" lon="9.1541767"><ele>414.2</ele><time>2026-04-16T15:07:57.876Z</time></trkpt><trkpt lat="44.4265317" lon="9.15406"><ele>414.6</ele><time>2026-04-16T15:08:00.877Z</time></trkpt><trkpt lat="44.4265733" lon="9.1539183"><ele>415.0</ele><time>2026-04-16T15:08:02.875Z</time></trkpt><trkpt lat="44.426575" lon="9.15379"><ele>412.42857142857144</ele><time>2026-04-16T15:08:04.877Z</time></trkpt><trkpt lat="44.4265467" lon="9.1536983"><ele>409.8571428571429</ele><time>2026-04-16T15:08:07.876Z</time></trkpt><trkpt lat="44.4265283" lon="9.15359"><ele>407.2857142857143</ele><time>2026-04-16T15:08:09.877Z</time></trkpt><trkpt lat="44.4265317" lon="9.1534833"><ele>404.7142857142857</ele><time>2026-04-16T15:08:11.88Z</time></trkpt><trkpt lat="44.426565" lon="9.153405"><ele>402.1428571428571</ele><time>2026-04-16T15:08:13.876Z</time></trkpt><trkpt lat="44.42663" lon="9.1533567"><ele>399.57142857142856</ele><time>2026-04-16T15:08:15.877Z</time></trkpt><trkpt lat="44.42668" lon="9.1532967"><ele>397.0</ele><time>2026-04-16T15:08:17.876Z</time></trkpt><trkpt lat="44.42666" lon="9.1532083"><ele>393.00000000000006</ele><time>2026-04-16T15:08:21.878Z</time></trkpt><trkpt lat="44.4265917" lon="9.1531583"><ele>389.0</ele><time>2026-04-16T15:08:23.879Z</time></trkpt><trkpt lat="44.4265167" lon="9.1531333"><ele>385.0</ele><time>2026-04-16T15:08:26.878Z</time></trkpt><trkpt lat="44.426525" lon="9.15302"><ele>381.0</ele><time>2026-04-16T15:08:28.875Z</time></trkpt><trkpt lat="44.4265517" lon="9.15291"><ele>377.0</ele><time>2026-04-16T15:08:30.878Z</time></trkpt><trkpt lat="44.4265717" lon="9.152815"><ele>373.0</ele><time>2026-04-16T15:08:32.88Z</time></trkpt><trkpt lat="44.4265933" lon="9.152675"><ele>373.0</ele><time>2026-04-16T15:08:34.877Z</time></trkpt><trkpt lat="44.42661" lon="9.152585"><ele>373.0</ele><time>2026-04-16T15:08:35.877Z</time></trkpt><trkpt lat="44.4266183" lon="9.1524933"><ele>373.0</ele><time>2026-04-16T15:08:36.875Z</time></trkpt><trkpt lat="44.4266217" lon="9.1523483"><ele>373.0</ele><time>2026-04-16T15:08:38.879Z</time></trkpt><trkpt lat="44.4266333" lon="9.15221"><ele>373.0</ele><time>2026-04-16T15:08:40.873Z</time></trkpt><trkpt lat="44.4266367" lon="9.1520617"><ele>373.0</ele><time>2026-04-16T15:08:42.877Z</time></trkpt><trkpt lat="44.4266617" lon="9.151935"><ele>369.66666666666663</ele><time>2026-04-16T15:08:44.876Z</time></trkpt><trkpt lat="44.4266617" lon="9.1518083"><ele>366.3333333333333</ele><time>2026-04-16T15:08:46.874Z</time></trkpt><trkpt lat="44.4266633" lon="9.1516917"><ele>363.0</ele><time>2026-04-16T15:08:48.874Z</time></trkpt><trkpt lat="44.4266467" lon="9.1515667"><ele>359.6666666666667</ele><time>2026-04-16T15:08:50.876Z</time></trkpt><trkpt lat="44.4266333" lon="9.15146"><ele>356.33333333333337</ele><time>2026-04-16T15:08:52.875Z</time></trkpt><trkpt lat="44.426655" lon="9.1513233"><ele>353.0</ele><time>2026-04-16T15:08:54.876Z</time></trkpt><trkpt lat="44.4266733" lon="9.1512333"><ele>350.0</ele><time>2026-04-16T15:08:55.877Z</time></trkpt><trkpt lat="44.4266967" lon="9.1511367"><ele>347.0</ele><time>2026-04-16T15:08:56.877Z</time></trkpt><trkpt lat="44.426715" lon="9.1510467"><ele>344.0</ele><time>2026-04-16T15:08:57.875Z</time></trkpt><trkpt lat="44.426745" lon="9.1508783"><ele>341.0</ele><time>2026-04-16T15:08:59.877Z</time></trkpt><trkpt lat="44.4268067" lon="9.1507117"><ele>338.0</ele><time>2026-04-16T15:09:01.875Z</time></trkpt><trkpt lat="44.4268717" lon="9.15059"><ele>335.83333333333337</ele><time>2026-04-16T15:09:03.875Z</time></trkpt><trkpt lat="44.4269433" lon="9.150535"><ele>333.6666666666667</ele><time>2026-04-16T15:09:05.877Z</time></trkpt><trkpt lat="44.4270117" lon="9.1505583"><ele>331.5</ele><time>2026-04-16T15:09:08.876Z</time></trkpt><trkpt lat="44.4270717" lon="9.1505217"><ele>329.3333333333333</ele><time>2026-04-16T15:09:10.876Z</time></trkpt><trkpt lat="44.42717" lon="9.15046"><ele>327.16666666666663</ele><time>2026-04-16T15:09:12.878Z</time></trkpt><trkpt lat="44.4272417" lon="9.1504467"><ele>325.0</ele><time>2026-04-16T15:09:13.875Z</time></trkpt><trkpt lat="44.42731" lon="9.150445"><ele>322.5</ele><time>2026-04-16T15:09:14.878Z</time></trkpt><trkpt lat="44.42741" lon="9.1504267"><ele>320.0</ele><time>2026-04-16T15:09:16.874Z</time></trkpt><trkpt lat="44.4274783" lon="9.15034"><ele>317.5</ele><time>2026-04-16T15:09:18.876Z</time></trkpt><trkpt lat="44.427565" lon="9.1503267"><ele>315.0</ele><time>2026-04-16T15:09:20.875Z</time></trkpt><trkpt lat="44.4276233" lon="9.1503933"><ele>312.5</ele><time>2026-04-16T15:09:22.875Z</time></trkpt><trkpt lat="44.4276633" lon="9.1505"><ele>310.0</ele><time>2026-04-16T15:09:24.878Z</time></trkpt><trkpt lat="44.427755" lon="9.1505133"><ele>310.0</ele><time>2026-04-16T15:09:27.875Z</time></trkpt><trkpt lat="44.4278467" lon="9.1504183"><ele>310.0</ele><time>2026-04-16T15:09:29.874Z</time></trkpt><trkpt lat="44.4279117" lon="9.1503883"><ele>310.0</ele><time>2026-04-16T15:09:30.878Z</time></trkpt><trkpt lat="44.4280017" lon="9.150355"><ele>310.0</ele><time>2026-04-16T15:09:31.876Z</time></trkpt><trkpt lat="44.4281017" lon="9.15032"><ele>310.0</ele><time>2026-04-16T15:09:32.878Z</time></trkpt><trkpt lat="44.4281867" lon="9.1502733"><ele>309.16666666666663</ele><time>2026-04-16T15:09:33.878Z</time></trkpt><trkpt lat="44.4282683" lon="9.150225"><ele>308.3333333333333</ele><time>2026-04-16T15:09:34.874Z</time></trkpt><trkpt lat="44.4283467" lon="9.1501683"><ele>307.5</ele><time>2026-04-16T15:09:35.879Z</time></trkpt><trkpt lat="44.4284183" lon="9.1501433"><ele>306.6666666666667</ele><time>2026-04-16T15:09:36.875Z</time></trkpt><trkpt lat="44.4284883" lon="9.1501433"><ele>305.83333333333337</ele><time>2026-04-16T15:09:37.874Z</time></trkpt><trkpt lat="44.4285617" lon="9.1501317"><ele>305.0</ele><time>2026-04-16T15:09:38.877Z</time></trkpt><trkpt lat="44.4286367" lon="9.1501033"><ele>305.0</ele><time>2026-04-16T15:09:39.876Z</time></trkpt><trkpt lat="44.428705" lon="9.1500417"><ele>305.0</ele><time>2026-04-16T15:09:40.873Z</time></trkpt><trkpt lat="44.4287817" lon="9.1499583"><ele>305.0</ele><time>2026-04-16T15:09:41.876Z</time></trkpt><trkpt lat="44.42885" lon="9.14987"><ele>305.0</ele><time>2026-04-16T15:09:42.875Z</time></trkpt><trkpt lat="44.42892" lon="9.1498017"><ele>305.0</ele><time>2026-04-16T15:09:43.874Z</time></trkpt><trkpt lat="44.4289933" lon="9.1497383"><ele>305.0</ele><time>2026-04-16T15:09:44.876Z</time></trkpt><trkpt lat="44.4290717" lon="9.14969"><ele>304.0</ele><time>2026-04-16T15:09:45.875Z</time></trkpt><trkpt lat="44.429145" lon="9.1496617"><ele>303.0</ele><time>2026-04-16T15:09:46.876Z</time></trkpt><trkpt lat="44.4292633" lon="9.14966"><ele>302.0</ele><time>2026-04-16T15:09:48.874Z</time></trkpt><trkpt lat="44.4293467" lon="9.149615"><ele>301.0</ele><time>2026-04-16T15:09:50.875Z</time></trkpt><trkpt lat="44.4293833" lon="9.14953"><ele>300.0</ele><time>2026-04-16T15:09:52.874Z</time></trkpt><trkpt lat="44.42942" lon="9.1494333"><ele>299.0</ele><time>2026-04-16T15:09:55.874Z</time></trkpt><trkpt lat="44.42942" lon="9.1493367"><ele>299.0</ele><time>2026-04-16T15:09:57.875Z</time></trkpt><trkpt lat="44.4294417" lon="9.1492017"><ele>299.0</ele><time>2026-04-16T15:09:59.877Z</time></trkpt><trkpt lat="44.429475" lon="9.1490483"><ele>299.0</ele><time>2026-04-16T15:10:01.876Z</time></trkpt><trkpt lat="44.429535" lon="9.14893"><ele>299.0</ele><time>2026-04-16T15:10:03.874Z</time></trkpt><trkpt lat="44.4295783" lon="9.1488067"><ele>299.0</ele><time>2026-04-16T15:10:05.875Z</time></trkpt><trkpt lat="44.42962" lon="9.1487317"><ele>293.0</ele><time>2026-04-16T15:10:07.876Z</time></trkpt><trkpt lat="44.4297017" lon="9.1486817"><ele>287.0</ele><time>2026-04-16T15:10:10.874Z</time></trkpt><trkpt lat="44.42977" lon="9.1485967"><ele>281.0</ele><time>2026-04-16T15:10:12.876Z</time></trkpt><trkpt lat="44.4298283" lon="9.1484967"><ele>275.0</ele><time>2026-04-16T15:10:14.878Z</time></trkpt><trkpt lat="44.4298817" lon="9.1484117"><ele>269.0</ele><time>2026-04-16T15:10:16.879Z</time></trkpt><trkpt lat="44.4299083" lon="9.14832"><ele>263.0</ele><time>2026-04-16T15:10:18.878Z</time></trkpt><trkpt lat="44.42995" lon="9.1482217"><ele>260.33333333333337</ele><time>2026-04-16T15:10:21.875Z</time></trkpt><trkpt lat="44.4299933" lon="9.1481367"><ele>257.6666666666667</ele><time>2026-04-16T15:10:23.875Z</time></trkpt><trkpt lat="44.4300067" lon="9.1480367"><ele>255.0</ele><time>2026-04-16T15:10:25.876Z</time></trkpt><trkpt lat="44.430005" lon="9.1478883"><ele>252.33333333333331</ele><time>2026-04-16T15:10:27.874Z</time></trkpt><trkpt lat="44.4300217" lon="9.1477817"><ele>249.66666666666666</ele><time>2026-04-16T15:10:30.876Z</time></trkpt><trkpt lat="44.4300733" lon="9.1476883"><ele>247.0</ele><time>2026-04-16T15:10:36.876Z</time></trkpt><trkpt lat="44.430125" lon="9.147625"><ele>246.99999999999997</ele><time>2026-04-16T15:10:38.878Z</time></trkpt><trkpt lat="44.43017" lon="9.1475167"><ele>247.0</ele><time>2026-04-16T15:10:40.875Z</time></trkpt><trkpt lat="44.4302067" lon="9.147405"><ele>247.0</ele><time>2026-04-16T15:10:42.875Z</time></trkpt><trkpt lat="44.4302283" lon="9.1473117"><ele>247.0</ele><time>2026-04-16T15:10:44.877Z</time></trkpt><trkpt lat="44.430265" lon="9.14724"><ele>246.99999999999997</ele><time>2026-04-16T15:10:47.876Z</time></trkpt><trkpt lat="44.430335" lon="9.1472167"><ele>247.0</ele><time>2026-04-16T15:10:49.875Z</time></trkpt><trkpt lat="44.4304283" lon="9.1471717"><ele>244.66666666666666</ele><time>2026-04-16T15:10:51.875Z</time></trkpt><trkpt lat="44.4305433" lon="9.1470983"><ele>242.33333333333331</ele><time>2026-04-16T15:10:53.875Z</time></trkpt><trkpt lat="44.4306017" lon="9.1470567"><ele>240.0</ele><time>2026-04-16T15:10:54.875Z</time></trkpt><trkpt lat="44.4306583" lon="9.14701"><ele>237.66666666666669</ele><time>2026-04-16T15:10:55.874Z</time></trkpt><trkpt lat="44.43071" lon="9.1469517"><ele>235.33333333333334</ele><time>2026-04-16T15:10:56.876Z</time></trkpt><trkpt lat="44.430765" lon="9.1468017"><ele>233.0</ele><time>2026-04-16T15:10:58.874Z</time></trkpt><trkpt lat="44.4307633" lon="9.1467"><ele>233.00000000000003</ele><time>2026-04-16T15:10:59.875Z</time></trkpt><trkpt lat="44.4307483" lon="9.1465867"><ele>233.0</ele><time>2026-04-16T15:11:00.878Z</time></trkpt><trkpt lat="44.4307317" lon="9.1464767"><ele>233.0</ele><time>2026-04-16T15:11:01.874Z</time></trkpt><trkpt lat="44.4307233" lon="9.1463733"><ele>233.0</ele><time>2026-04-16T15:11:02.875Z</time></trkpt><trkpt lat="44.4307083" lon="9.1462733"><ele>233.00000000000003</ele><time>2026-04-16T15:11:03.874Z</time></trkpt><trkpt lat="44.4307" lon="9.146175"><ele>233.0</ele><time>2026-04-16T15:11:04.873Z</time></trkpt><trkpt lat="44.4307167" lon="9.146075"><ele>235.5</ele><time>2026-04-16T15:11:06.876Z</time></trkpt><trkpt lat="44.4308017" lon="9.1460433"><ele>238.0</ele><time>2026-04-16T15:11:09.876Z</time></trkpt><trkpt lat="44.4309517" lon="9.1459933"><ele>240.5</ele><time>2026-04-16T15:11:11.874Z</time></trkpt><trkpt lat="44.4310483" lon="9.145955"><ele>243.0</ele><time>2026-04-16T15:11:12.875Z</time></trkpt><trkpt lat="44.4312067" lon="9.1458667"><ele>246.8</ele><time>2026-04-16T15:11:13.874Z</time></trkpt><trkpt lat="44.4313333" lon="9.1457933"><ele>250.60000000000002</ele><time>2026-04-16T15:11:14.874Z</time></trkpt><trkpt lat="44.4314183" lon="9.1457283"><ele>254.39999999999998</ele><time>2026-04-16T15:11:15.872Z</time></trkpt><trkpt lat="44.4314917" lon="9.145665"><ele>258.2</ele><time>2026-04-16T15:11:16.872Z</time></trkpt><trkpt lat="44.4315433" lon="9.1455867"><ele>262.0</ele><time>2026-04-16T15:11:17.874Z</time></trkpt><trkpt lat="44.4315967" lon="9.1455283"><ele>262.2</ele><time>2026-04-16T15:11:18.873Z</time></trkpt><trkpt lat="44.43169" lon="9.14546"><ele>262.4</ele><time>2026-04-16T15:11:20.875Z</time></trkpt><trkpt lat="44.4317817" lon="9.1454417"><ele>262.6</ele><time>2026-04-16T15:11:22.875Z</time></trkpt><trkpt lat="44.431905" lon="9.1454683"><ele>262.8</ele><time>2026-04-16T15:11:24.877Z</time></trkpt><trkpt lat="44.4319683" lon="9.14548"><ele>263.0</ele><time>2026-04-16T15:11:25.873Z</time></trkpt><trkpt lat="44.432065" lon="9.145445"><ele>265.5</ele><time>2026-04-16T15:11:27.875Z</time></trkpt><trkpt lat="44.4321667" lon="9.1453383"><ele>268.0</ele><time>2026-04-16T15:11:29.874Z</time></trkpt><trkpt lat="44.432225" lon="9.145275"><ele>270.5</ele><time>2026-04-16T15:11:30.875Z</time></trkpt><trkpt lat="44.432285" lon="9.1452133"><ele>273.0</ele><time>2026-04-16T15:11:31.874Z</time></trkpt><trkpt lat="44.43235" lon="9.14515"><ele>275.5</ele><time>2026-04-16T15:11:32.876Z</time></trkpt><trkpt lat="44.4324067" lon="9.1450883"><ele>278.0</ele><time>2026-04-16T15:11:33.877Z</time></trkpt><trkpt lat="44.432465" lon="9.1450283"><ele>278.0</ele><time>2026-04-16T15:11:34.875Z</time></trkpt><trkpt lat="44.4325233" lon="9.1449667"><ele>278.0</ele><time>2026-04-16T15:11:35.875Z</time></trkpt><trkpt lat="44.4325867" lon="9.1448967"><ele>278.0</ele><time>2026-04-16T15:11:36.874Z</time></trkpt><trkpt lat="44.4326517" lon="9.1448217"><ele>278.0</ele><time>2026-04-16T15:11:37.874Z</time></trkpt><trkpt lat="44.4327167" lon="9.14474"><ele>278.0</ele><time>2026-04-16T15:11:38.875Z</time></trkpt><trkpt lat="44.4327833" lon="9.14465"><ele>278.0</ele><time>2026-04-16T15:11:39.876Z</time></trkpt><trkpt lat="44.43285" lon="9.1445567"><ele>278.83333333333337</ele><time>2026-04-16T15:11:40.873Z</time></trkpt><trkpt lat="44.4329117" lon="9.1444583"><ele>279.6666666666667</ele><time>2026-04-16T15:11:41.873Z</time></trkpt><trkpt lat="44.4329733" lon="9.1443583"><ele>280.5</ele><time>2026-04-16T15:11:42.873Z</time></trkpt><trkpt lat="44.4330317" lon="9.1442583"><ele>281.3333333333333</ele><time>2026-04-16T15:11:43.874Z</time></trkpt><trkpt lat="44.4330867" lon="9.1441667"><ele>282.16666666666663</ele><time>2026-04-16T15:11:44.876Z</time></trkpt><trkpt lat="44.43314" lon="9.1440967"><ele>283.0</ele><time>2026-04-16T15:11:45.876Z</time></trkpt><trkpt lat="44.4332067" lon="9.14407"><ele>284.8333333333333</ele><time>2026-04-16T15:11:46.875Z</time></trkpt><trkpt lat="44.4332833" lon="9.1440717"><ele>286.66666666666663</ele><time>2026-04-16T15:11:47.874Z</time></trkpt><trkpt lat="44.4333667" lon="9.1440883"><ele>288.5</ele><time>2026-04-16T15:11:48.875Z</time></trkpt><trkpt lat="44.4334517" lon="9.1441067"><ele>290.3333333333333</ele><time>2026-04-16T15:11:49.874Z</time></trkpt><trkpt lat="44.43354" lon="9.1441283"><ele>292.1666666666667</ele><time>2026-04-16T15:11:50.875Z</time></trkpt><trkpt lat="44.43363" lon="9.1441583"><ele>294.0</ele><time>2026-04-16T15:11:51.875Z</time></trkpt><trkpt lat="44.433715" lon="9.144215"><ele>294.0</ele><time>2026-04-16T15:11:52.874Z</time></trkpt><trkpt lat="44.4337817" lon="9.1443117"><ele>294.0</ele><time>2026-04-16T15:11:53.874Z</time></trkpt><trkpt lat="44.433835" lon="9.1444217"><ele>294.0</ele><time>2026-04-16T15:11:54.875Z</time></trkpt><trkpt lat="44.4338717" lon="9.1445433"><ele>294.0</ele><time>2026-04-16T15:11:55.875Z</time></trkpt><trkpt lat="44.43389" lon="9.1446733"><ele>294.0</ele><time>2026-04-16T15:11:56.876Z</time></trkpt><trkpt lat="44.4338967" lon="9.1448017"><ele>295.8</ele><time>2026-04-16T15:11:57.875Z</time></trkpt><trkpt lat="44.4339017" lon="9.14493"><ele>297.59999999999997</ele><time>2026-04-16T15:11:58.876Z</time></trkpt><trkpt lat="44.4339267" lon="9.14505"><ele>299.4</ele><time>2026-04-16T15:11:59.876Z</time></trkpt><trkpt lat="44.4339617" lon="9.1451683"><ele>301.2</ele><time>2026-04-16T15:12:00.876Z</time></trkpt><trkpt lat="44.4340017" lon="9.1452817"><ele>303.0</ele><time>2026-04-16T15:12:01.875Z</time></trkpt><trkpt lat="44.4340433" lon="9.1453983"><ele>303.0</ele><time>2026-04-16T15:12:02.875Z</time></trkpt><trkpt lat="44.4340833" lon="9.1455183"><ele>303.0</ele><time>2026-04-16T15:12:03.874Z</time></trkpt><trkpt lat="44.4341233" lon="9.145645"><ele>303.0</ele><time>2026-04-16T15:12:04.874Z</time></trkpt><trkpt lat="44.43416" lon="9.145775"><ele>303.0</ele><time>2026-04-16T15:12:05.875Z</time></trkpt><trkpt lat="44.4342033" lon="9.1458967"><ele>303.0</ele><time>2026-04-16T15:12:06.876Z</time></trkpt><trkpt lat="44.43426" lon="9.1459983"><ele>302.0</ele><time>2026-04-16T15:12:07.875Z</time></trkpt><trkpt lat="44.4343383" lon="9.146065"><ele>301.0</ele><time>2026-04-16T15:12:08.875Z</time></trkpt><trkpt lat="44.4344317" lon="9.1461067"><ele>300.0</ele><time>2026-04-16T15:12:09.874Z</time></trkpt><trkpt lat="44.434535" lon="9.14616"><ele>299.0</ele><time>2026-04-16T15:12:10.87Z</time></trkpt><trkpt lat="44.4346283" lon="9.1462167"><ele>298.0</ele><time>2026-04-16T15:12:11.871Z</time></trkpt><trkpt lat="44.4347217" lon="9.146275"><ele>300.2</ele><time>2026-04-16T15:12:12.873Z</time></trkpt><trkpt lat="44.4348167" lon="9.14633"><ele>302.4</ele><time>2026-04-16T15:12:13.876Z</time></trkpt><trkpt lat="44.4349017" lon="9.1463867"><ele>304.59999999999997</ele><time>2026-04-16T15:12:14.875Z</time></trkpt><trkpt lat="44.4349783" lon="9.14646"><ele>306.8</ele><time>2026-04-16T15:12:15.874Z</time></trkpt><trkpt lat="44.4350367" lon="9.1465533"><ele>309.0</ele><time>2026-04-16T15:12:16.874Z</time></trkpt><trkpt lat="44.4350733" lon="9.1466483"><ele>309.0</ele><time>2026-04-16T15:12:17.875Z</time></trkpt><trkpt lat="44.4351" lon="9.1467683"><ele>309.0</ele><time>2026-04-16T15:12:19.874Z</time></trkpt><trkpt lat="44.43518" lon="9.146815"><ele>309.0</ele><time>2026-04-16T15:12:23.877Z</time></trkpt><trkpt lat="44.43521" lon="9.1469333"><ele>309.0</ele><time>2026-04-16T15:12:25.874Z</time></trkpt><trkpt lat="44.43517" lon="9.147135"><ele>309.0</ele><time>2026-04-16T15:12:27.875Z</time></trkpt><trkpt lat="44.4351383" lon="9.14729"><ele>309.0</ele><time>2026-04-16T15:12:28.874Z</time></trkpt><trkpt lat="44.43512" lon="9.14744"><ele>309.0</ele><time>2026-04-16T15:12:29.875Z</time></trkpt><trkpt lat="44.435085" lon="9.1476017"><ele>309.0</ele><time>2026-04-16T15:12:30.875Z</time></trkpt><trkpt lat="44.4350367" lon="9.147745"><ele>309.0</ele><time>2026-04-16T15:12:31.876Z</time></trkpt><trkpt lat="44.4349833" lon="9.1478683"><ele>309.0</ele><time>2026-04-16T15:12:32.875Z</time></trkpt><trkpt lat="44.434935" lon="9.14798"><ele>309.0</ele><time>2026-04-16T15:12:33.876Z</time></trkpt><trkpt lat="44.434895" lon="9.1480833"><ele>309.0</ele><time>2026-04-16T15:12:34.875Z</time></trkpt><trkpt lat="44.4348917" lon="9.14818"><ele>309.0</ele><time>2026-04-16T15:12:35.876Z</time></trkpt><trkpt lat="44.4349333" lon="9.1482717"><ele>309.0</ele><time>2026-04-16T15:12:36.875Z</time></trkpt><trkpt lat="44.434995" lon="9.1483383"><ele>309.0</ele><time>2026-04-16T15:12:37.878Z</time></trkpt><trkpt lat="44.4350633" lon="9.148365"><ele>309.0</ele><time>2026-04-16T15:12:38.877Z</time></trkpt><trkpt lat="44.435155" lon="9.148325"><ele>309.75</ele><time>2026-04-16T15:12:39.875Z</time></trkpt><trkpt lat="44.4352517" lon="9.1483033"><ele>310.5</ele><time>2026-04-16T15:12:40.873Z</time></trkpt><trkpt lat="44.435385" lon="9.14833"><ele>311.25</ele><time>2026-04-16T15:12:41.872Z</time></trkpt><trkpt lat="44.435505" lon="9.148355"><ele>312.0</ele><time>2026-04-16T15:12:42.874Z</time></trkpt><trkpt lat="44.4356083" lon="9.1483783"><ele>314.4</ele><time>2026-04-16T15:12:43.872Z</time></trkpt><trkpt lat="44.43569" lon="9.1484033"><ele>316.79999999999995</ele><time>2026-04-16T15:12:44.874Z</time></trkpt><trkpt lat="44.4357583" lon="9.1484417"><ele>319.2</ele><time>2026-04-16T15:12:45.875Z</time></trkpt><trkpt lat="44.43582" lon="9.1484767"><ele>321.59999999999997</ele><time>2026-04-16T15:12:46.872Z</time></trkpt><trkpt lat="44.4359133" lon="9.1484817"><ele>324.0</ele><time>2026-04-16T15:12:48.874Z</time></trkpt><trkpt lat="44.4359617" lon="9.1483067"><ele>326.0</ele><time>2026-04-16T15:12:50.874Z</time></trkpt><trkpt lat="44.4359633" lon="9.1481783"><ele>328.0</ele><time>2026-04-16T15:12:51.874Z</time></trkpt><trkpt lat="44.4359517" lon="9.1480267"><ele>330.0</ele><time>2026-04-16T15:12:52.873Z</time></trkpt><trkpt lat="44.4359267" lon="9.1478733"><ele>332.0</ele><time>2026-04-16T15:12:53.875Z</time></trkpt><trkpt lat="44.4359167" lon="9.1477267"><ele>334.0</ele><time>2026-04-16T15:12:54.875Z</time></trkpt><trkpt lat="44.435915" lon="9.1475717"><ele>334.0</ele><time>2026-04-16T15:12:55.874Z</time></trkpt><trkpt lat="44.4359233" lon="9.1474183"><ele>334.0</ele><time>2026-04-16T15:12:56.877Z</time></trkpt><trkpt lat="44.4359233" lon="9.147265"><ele>334.0</ele><time>2026-04-16T15:12:57.873Z</time></trkpt><trkpt lat="44.4359133" lon="9.14711"><ele>334.0</ele><time>2026-04-16T15:12:58.875Z</time></trkpt><trkpt lat="44.4358867" lon="9.1469433"><ele>334.4</ele><time>2026-04-16T15:12:59.874Z</time></trkpt><trkpt lat="44.435895" lon="9.1467983"><ele>334.79999999999995</ele><time>2026-04-16T15:13:00.874Z</time></trkpt><trkpt lat="44.4359133" lon="9.1466517"><ele>335.20000000000005</ele><time>2026-04-16T15:13:01.874Z</time></trkpt><trkpt lat="44.435935" lon="9.1465"><ele>335.6</ele><time>2026-04-16T15:13:02.876Z</time></trkpt><trkpt lat="44.435955" lon="9.1463433"><ele>336.0</ele><time>2026-04-16T15:13:03.874Z</time></trkpt><trkpt lat="44.43597" lon="9.1461783"><ele>339.5</ele><time>2026-04-16T15:13:04.874Z</time></trkpt><trkpt lat="44.435975" lon="9.1460117"><ele>343.0</ele><time>2026-04-16T15:13:05.875Z</time></trkpt><trkpt lat="44.43598" lon="9.1458533"><ele>346.5</ele><time>2026-04-16T15:13:06.87Z</time></trkpt><trkpt lat="44.4359967" lon="9.1456883"><ele>350.0</ele><time>2026-04-16T15:13:07.875Z</time></trkpt><trkpt lat="44.4360317" lon="9.1455367"><ele>352.4</ele><time>2026-04-16T15:13:08.874Z</time></trkpt><trkpt lat="44.436095" lon="9.1454133"><ele>354.8</ele><time>2026-04-16T15:13:09.873Z</time></trkpt><trkpt lat="44.4361817" lon="9.1453317"><ele>357.20000000000005</ele><time>2026-04-16T15:13:10.873Z</time></trkpt><trkpt lat="44.43629" lon="9.1452883"><ele>359.6</ele><time>2026-04-16T15:13:11.874Z</time></trkpt><trkpt lat="44.4364117" lon="9.14527"><ele>362.0</ele><time>2026-04-16T15:13:12.874Z</time></trkpt><trkpt lat="44.4365483" lon="9.1452583"><ele>363.0</ele><time>2026-04-16T15:13:13.875Z</time></trkpt><trkpt lat="44.436685" lon="9.1452533"><ele>364.0</ele><time>2026-04-16T15:13:14.875Z</time></trkpt><trkpt lat="44.4368267" lon="9.1452483"><ele>365.0</ele><time>2026-04-16T15:13:15.874Z</time></trkpt><trkpt lat="44.4369633" lon="9.14526"><ele>366.0</ele><time>2026-04-16T15:13:16.873Z</time></trkpt><trkpt lat="44.437105" lon="9.145245"><ele>363.75</ele><time>2026-04-16T15:13:17.874Z</time></trkpt><trkpt lat="44.4372383" lon="9.1452233"><ele>361.5</ele><time>2026-04-16T15:13:18.873Z</time></trkpt><trkpt lat="44.4373567" lon="9.1451767"><ele>359.25</ele><time>2026-04-16T15:13:19.875Z</time></trkpt><trkpt lat="44.4374583" lon="9.1451267"><ele>357.0</ele><time>2026-04-16T15:13:20.876Z</time></trkpt><trkpt lat="44.4375417" lon="9.1450633"><ele>357.0</ele><time>2026-04-16T15:13:21.875Z</time></trkpt><trkpt lat="44.4376083" lon="9.1449883"><ele>357.0</ele><time>2026-04-16T15:13:22.873Z</time></trkpt><trkpt lat="44.4376517" lon="9.1449133"><ele>357.0</ele><time>2026-04-16T15:13:23.876Z</time></trkpt><trkpt lat="44.437675" lon="9.144795"><ele>357.0</ele><time>2026-04-16T15:13:25.874Z</time></trkpt><trkpt lat="44.4375983" lon="9.1447867"><ele>357.0</ele><time>2026-04-16T15:13:27.874Z</time></trkpt><trkpt lat="44.4375367" lon="9.1448117"><ele>357.0</ele><time>2026-04-16T15:13:28.876Z</time></trkpt><trkpt lat="44.4374667" lon="9.1448333"><ele>357.5</ele><time>2026-04-16T15:13:29.875Z</time></trkpt><trkpt lat="44.43738" lon="9.1448467"><ele>358.0</ele><time>2026-04-16T15:13:30.874Z</time></trkpt><trkpt lat="44.4372883" lon="9.144845"><ele>358.5</ele><time>2026-04-16T15:13:31.875Z</time></trkpt><trkpt lat="44.4371533" lon="9.14484"><ele>359.0</ele><time>2026-04-16T15:13:32.875Z</time></trkpt><trkpt lat="44.437" lon="9.1448017"><ele>368.0</ele><time>2026-04-16T15:13:33.879Z</time></trkpt><trkpt lat="44.4367983" lon="9.144755"><ele>377.0</ele><time>2026-04-16T15:13:34.877Z</time></trkpt><trkpt lat="44.436655" lon="9.14472"><ele>386.0</ele><time>2026-04-16T15:13:35.876Z</time></trkpt><trkpt lat="44.4365317" lon="9.1446883"><ele>385.99999999999994</ele><time>2026-04-16T15:13:36.874Z</time></trkpt><trkpt lat="44.4364367" lon="9.1446633"><ele>386.0</ele><time>2026-04-16T15:13:37.876Z</time></trkpt><trkpt lat="44.4363417" lon="9.144635"><ele>386.0</ele><time>2026-04-16T15:13:38.874Z</time></trkpt><trkpt lat="44.4362583" lon="9.14461"><ele>386.0</ele><time>2026-04-16T15:13:39.873Z</time></trkpt><trkpt lat="44.4361883" lon="9.144555"><ele>385.99999999999994</ele><time>2026-04-16T15:13:41.876Z</time></trkpt><trkpt lat="44.4362683" lon="9.14457"><ele>386.0</ele><time>2026-04-16T15:13:46.875Z</time></trkpt><trkpt lat="44.4363917" lon="9.144615"><ele>385.99999999999994</ele><time>2026-04-16T15:13:48.876Z</time></trkpt><trkpt lat="44.4364683" lon="9.1446167"><ele>386.0</ele><time>2026-04-16T15:13:49.877Z</time></trkpt><trkpt lat="44.4365583" lon="9.1445917"><ele>386.0</ele><time>2026-04-16T15:13:50.877Z</time></trkpt><trkpt lat="44.4366433" lon="9.14455"><ele>386.0</ele><time>2026-04-16T15:13:51.876Z</time></trkpt><trkpt lat="44.436725" lon="9.1445133"><ele>385.99999999999994</ele><time>2026-04-16T15:13:52.874Z</time></trkpt><trkpt lat="44.4367933" lon="9.14447"><ele>386.0</ele><time>2026-04-16T15:13:53.875Z</time></trkpt><trkpt lat="44.4368467" lon="9.1444117"><ele>385.99999999999994</ele><time>2026-04-16T15:13:54.875Z</time></trkpt><trkpt lat="44.436895" lon="9.1443467"><ele>386.0</ele><time>2026-04-16T15:13:55.873Z</time></trkpt><trkpt lat="44.4369317" lon="9.144255"><ele>386.0</ele><time>2026-04-16T15:13:56.876Z</time></trkpt><trkpt lat="44.4369583" lon="9.1441467"><ele>386.0</ele><time>2026-04-16T15:13:57.874Z</time></trkpt><trkpt lat="44.43698" lon="9.1440117"><ele>385.99999999999994</ele><time>2026-04-16T15:13:58.876Z</time></trkpt><trkpt lat="44.43701" lon="9.143885"><ele>386.0</ele><time>2026-04-16T15:13:59.871Z</time></trkpt><trkpt lat="44.4370333" lon="9.1437833"><ele>386.99999999999994</ele><time>2026-04-16T15:14:00.874Z</time></trkpt><trkpt lat="44.437055" lon="9.1436817"><ele>388.0</ele><time>2026-04-16T15:14:01.873Z</time></trkpt><trkpt lat="44.4370733" lon="9.1435717"><ele>389.0</ele><time>2026-04-16T15:14:02.876Z</time></trkpt><trkpt lat="44.4370617" lon="9.1434433"><ele>390.0</ele><time>2026-04-16T15:14:03.875Z</time></trkpt><trkpt lat="44.4370317" lon="9.1433183"><ele>390.99999999999994</ele><time>2026-04-16T15:14:04.873Z</time></trkpt><trkpt lat="44.4370033" lon="9.1432017"><ele>392.0</ele><time>2026-04-16T15:14:05.874Z</time></trkpt><trkpt lat="44.4369683" lon="9.1430883"><ele>393.0</ele><time>2026-04-16T15:14:06.876Z</time></trkpt><trkpt lat="44.4369233" lon="9.1429617"><ele>394.0</ele><time>2026-04-16T15:14:07.874Z</time></trkpt><trkpt lat="44.436895" lon="9.1428183"><ele>395.0</ele><time>2026-04-16T15:14:08.877Z</time></trkpt><trkpt lat="44.43686" lon="9.1426783"><ele>396.0</ele><time>2026-04-16T15:14:09.873Z</time></trkpt><trkpt lat="44.4368267" lon="9.1425467"><ele>397.0</ele><time>2026-04-16T15:14:10.873Z</time></trkpt><trkpt lat="44.4368083" lon="9.142405"><ele>399.0</ele><time>2026-04-16T15:14:11.875Z</time></trkpt><trkpt lat="44.4368" lon="9.142255"><ele>401.0</ele><time>2026-04-16T15:14:12.875Z</time></trkpt><trkpt lat="44.436815" lon="9.1421217"><ele>403.0</ele><time>2026-04-16T15:14:13.876Z</time></trkpt><trkpt lat="44.4368417" lon="9.1420133"><ele>405.0</ele><time>2026-04-16T15:14:14.874Z</time></trkpt><trkpt lat="44.436885" lon="9.1419267"><ele>407.0</ele><time>2026-04-16T15:14:15.874Z</time></trkpt><trkpt lat="44.43694" lon="9.141795"><ele>407.0</ele><time>2026-04-16T15:14:17.875Z</time></trkpt><trkpt lat="44.43706" lon="9.14178"><ele>407.0</ele><time>2026-04-16T15:14:20.876Z</time></trkpt><trkpt lat="44.4371717" lon="9.1417933"><ele>407.0</ele><time>2026-04-16T15:14:22.874Z</time></trkpt><trkpt lat="44.437255" lon="9.1417933"><ele>407.0</ele><time>2026-04-16T15:14:24.876Z</time></trkpt><trkpt lat="44.4373167" lon="9.141665"><ele>407.0</ele><time>2026-04-16T15:14:26.877Z</time></trkpt><trkpt lat="44.4373383" lon="9.1415783"><ele>404.40000000000003</ele><time>2026-04-16T15:14:27.876Z</time></trkpt><trkpt lat="44.4373567" lon="9.141475"><ele>401.8</ele><time>2026-04-16T15:14:28.875Z</time></trkpt><trkpt lat="44.437375" lon="9.1413417"><ele>399.2</ele><time>2026-04-16T15:14:29.876Z</time></trkpt><trkpt lat="44.4373583" lon="9.14119"><ele>396.6</ele><time>2026-04-16T15:14:30.875Z</time></trkpt><trkpt lat="44.4373567" lon="9.1410583"><ele>394.0</ele><time>2026-04-16T15:14:31.872Z</time></trkpt><trkpt lat="44.4373667" lon="9.1409467"><ele>394.0</ele><time>2026-04-16T15:14:32.875Z</time></trkpt><trkpt lat="44.4373967" lon="9.1408617"><ele>394.0</ele><time>2026-04-16T15:14:33.873Z</time></trkpt><trkpt lat="44.4374233" lon="9.1407517"><ele>394.0</ele><time>2026-04-16T15:14:35.875Z</time></trkpt><trkpt lat="44.4375167" lon="9.140735"><ele>394.0</ele><time>2026-04-16T15:14:38.876Z</time></trkpt><trkpt lat="44.4376417" lon="9.1407867"><ele>394.0</ele><time>2026-04-16T15:14:40.874Z</time></trkpt><trkpt lat="44.43772" lon="9.1407917"><ele>394.00000000000006</ele><time>2026-04-16T15:14:41.876Z</time></trkpt><trkpt lat="44.4377917" lon="9.1408017"><ele>394.0</ele><time>2026-04-16T15:14:42.875Z</time></trkpt><trkpt lat="44.4378567" lon="9.1408167"><ele>394.0</ele><time>2026-04-16T15:14:43.874Z</time></trkpt><trkpt lat="44.4379783" lon="9.1407917"><ele>394.0</ele><time>2026-04-16T15:14:45.874Z</time></trkpt><trkpt lat="44.43804" lon="9.1407383"><ele>394.00000000000006</ele><time>2026-04-16T15:14:46.875Z</time></trkpt><trkpt lat="44.4381117" lon="9.1406717"><ele>394.0</ele><time>2026-04-16T15:14:47.874Z</time></trkpt><trkpt lat="44.438175" lon="9.14063"><ele>391.50000000000006</ele><time>2026-04-16T15:14:48.876Z</time></trkpt><trkpt lat="44.438255" lon="9.1405367"><ele>389.0</ele><time>2026-04-16T15:14:50.876Z</time></trkpt><trkpt lat="44.438265" lon="9.1404467"><ele>386.5</ele><time>2026-04-16T15:14:51.875Z</time></trkpt><trkpt lat="44.438275" lon="9.1403333"><ele>384.0</ele><time>2026-04-16T15:14:52.873Z</time></trkpt><trkpt lat="44.4383133" lon="9.1401783"><ele>381.5</ele><time>2026-04-16T15:14:54.873Z</time></trkpt><trkpt lat="44.4383167" lon="9.14009"><ele>379.0</ele><time>2026-04-16T15:14:55.872Z</time></trkpt><trkpt lat="44.4383083" lon="9.13998"><ele>378.0</ele><time>2026-04-16T15:14:56.874Z</time></trkpt><trkpt lat="44.43829" lon="9.1398583"><ele>377.0</ele><time>2026-04-16T15:14:57.874Z</time></trkpt><trkpt lat="44.4382667" lon="9.1397433"><ele>376.0</ele><time>2026-04-16T15:14:58.876Z</time></trkpt><trkpt lat="44.4382367" lon="9.1396567"><ele>375.0</ele><time>2026-04-16T15:14:59.875Z</time></trkpt><trkpt lat="44.438175" lon="9.1395483"><ele>374.0</ele><time>2026-04-16T15:15:01.867Z</time></trkpt><trkpt lat="44.4380867" lon="9.139495"><ele>373.0</ele><time>2026-04-16T15:15:02.876Z</time></trkpt><trkpt lat="44.438005" lon="9.13942"><ele>372.59999999999997</ele><time>2026-04-16T15:15:03.873Z</time></trkpt><trkpt lat="44.43795" lon="9.13933"><ele>372.2</ele><time>2026-04-16T15:15:04.874Z</time></trkpt><trkpt lat="44.4379067" lon="9.139245"><ele>371.8</ele><time>2026-04-16T15:15:05.875Z</time></trkpt><trkpt lat="44.4378583" lon="9.1391383"><ele>371.4</ele><time>2026-04-16T15:15:07.873Z</time></trkpt><trkpt lat="44.4379233" lon="9.1390483"><ele>371.0</ele><time>2026-04-16T15:15:11.875Z</time></trkpt><trkpt lat="44.4379817" lon="9.1389067"><ele>371.0</ele><time>2026-04-16T15:15:13.879Z</time></trkpt><trkpt lat="44.43799" lon="9.1388083"><ele>371.0</ele><time>2026-04-16T15:15:14.878Z</time></trkpt><trkpt lat="44.4380433" lon="9.1386167"><ele>371.0</ele><time>2026-04-16T15:15:16.875Z</time></trkpt><trkpt lat="44.4380917" lon="9.1385333"><ele>371.0</ele><time>2026-04-16T15:15:17.874Z</time></trkpt><trkpt lat="44.43814" lon="9.13846"><ele>371.0</ele><time>2026-04-16T15:15:18.875Z</time></trkpt><trkpt lat="44.4382083" lon="9.1383517"><ele>371.0</ele><time>2026-04-16T15:15:20.877Z</time></trkpt><trkpt lat="44.4381783" lon="9.1382317"><ele>371.0</ele><time>2026-04-16T15:15:22.879Z</time></trkpt><trkpt lat="44.4381333" lon="9.1381533"><ele>371.0</ele><time>2026-04-16T15:15:23.877Z</time></trkpt><trkpt lat="44.438085" lon="9.1380567"><ele>371.0</ele><time>2026-04-16T15:15:24.875Z</time></trkpt><trkpt lat="44.438045" lon="9.1379583"><ele>371.0</ele><time>2026-04-16T15:15:25.875Z</time></trkpt><trkpt lat="44.438015" lon="9.137875"><ele>371.0</ele><time>2026-04-16T15:15:26.876Z</time></trkpt><trkpt lat="44.43794" lon="9.137775"><ele>371.1666666666667</ele><time>2026-04-16T15:15:28.873Z</time></trkpt><trkpt lat="44.4378767" lon="9.1377383"><ele>371.33333333333337</ele><time>2026-04-16T15:15:29.874Z</time></trkpt><trkpt lat="44.4378017" lon="9.137705"><ele>371.5</ele><time>2026-04-16T15:15:30.873Z</time></trkpt><trkpt lat="44.437735" lon="9.13767"><ele>371.6666666666667</ele><time>2026-04-16T15:15:31.875Z</time></trkpt><trkpt lat="44.4376667" lon="9.1376317"><ele>371.8333333333333</ele><time>2026-04-16T15:15:32.875Z</time></trkpt><trkpt lat="44.4375433" lon="9.1375867"><ele>372.0</ele><time>2026-04-16T15:15:34.874Z</time></trkpt><trkpt lat="44.4374733" lon="9.13757"><ele>372.0</ele><time>2026-04-16T15:15:35.874Z</time></trkpt><trkpt lat="44.4373967" lon="9.1375533"><ele>372.0</ele><time>2026-04-16T15:15:36.877Z</time></trkpt><trkpt lat="44.43731" lon="9.137555"><ele>372.0</ele><time>2026-04-16T15:15:37.875Z</time></trkpt><trkpt lat="44.437225" lon="9.1375783"><ele>372.0</ele><time>2026-04-16T15:15:38.877Z</time></trkpt><trkpt lat="44.437145" lon="9.1376083"><ele>372.0</ele><time>2026-04-16T15:15:39.875Z</time></trkpt><trkpt lat="44.4370717" lon="9.13763"><ele>372.0</ele><time>2026-04-16T15:15:40.874Z</time></trkpt><trkpt lat="44.437005" lon="9.1376333"><ele>374.0</ele><time>2026-04-16T15:15:41.875Z</time></trkpt><trkpt lat="44.4369083" lon="9.1376283"><ele>376.0</ele><time>2026-04-16T15:15:43.875Z</time></trkpt><trkpt lat="44.4368633" lon="9.1375633"><ele>378.0</ele><time>2026-04-16T15:15:45.873Z</time></trkpt><trkpt lat="44.4367983" lon="9.137485"><ele>380.0</ele><time>2026-04-16T15:15:47.876Z</time></trkpt><trkpt lat="44.4367567" lon="9.13735"><ele>382.0</ele><time>2026-04-16T15:15:49.875Z</time></trkpt><trkpt lat="44.4367283" lon="9.13719"><ele>382.0</ele><time>2026-04-16T15:15:51.874Z</time></trkpt><trkpt lat="44.4366767" lon="9.1370383"><ele>382.0</ele><time>2026-04-16T15:15:53.876Z</time></trkpt><trkpt lat="44.4365883" lon="9.1369117"><ele>382.0</ele><time>2026-04-16T15:15:55.874Z</time></trkpt><trkpt lat="44.4365333" lon="9.136835"><ele>382.0</ele><time>2026-04-16T15:15:56.876Z</time></trkpt><trkpt lat="44.436475" lon="9.13676"><ele>382.0</ele><time>2026-04-16T15:15:57.873Z</time></trkpt><trkpt lat="44.4364267" lon="9.1366817"><ele>382.0</ele><time>2026-04-16T15:15:58.875Z</time></trkpt><trkpt lat="44.4363633" lon="9.136585"><ele>382.0</ele><time>2026-04-16T15:16:00.873Z</time></trkpt><trkpt lat="44.4363617" lon="9.1364917"><ele>382.0</ele><time>2026-04-16T15:16:08.879Z</time></trkpt><trkpt lat="44.4363133" lon="9.1363817"><ele>382.0</ele><time>2026-04-16T15:16:10.874Z</time></trkpt><trkpt lat="44.436245" lon="9.1363033"><ele>382.0</ele><time>2026-04-16T15:16:13.875Z</time></trkpt><trkpt lat="44.43621" lon="9.136225"><ele>382.0</ele><time>2026-04-16T15:16:15.874Z</time></trkpt><trkpt lat="44.4362017" lon="9.1360817"><ele>382.8</ele><time>2026-04-16T15:16:17.874Z</time></trkpt><trkpt lat="44.4362267" lon="9.136"><ele>383.6</ele><time>2026-04-16T15:16:18.875Z</time></trkpt><trkpt lat="44.4362533" lon="9.1358283"><ele>384.40000000000003</ele><time>2026-04-16T15:16:20.876Z</time></trkpt><trkpt lat="44.43626" lon="9.1357017"><ele>385.20000000000005</ele><time>2026-04-16T15:16:21.875Z</time></trkpt><trkpt lat="44.436235" lon="9.1355833"><ele>386.0</ele><time>2026-04-16T15:16:22.874Z</time></trkpt><trkpt lat="44.4362017" lon="9.135475"><ele>385.99999999999994</ele><time>2026-04-16T15:16:23.877Z</time></trkpt><trkpt lat="44.4361667" lon="9.1353917"><ele>386.0</ele><time>2026-04-16T15:16:24.876Z</time></trkpt><trkpt lat="44.436115" lon="9.1353217"><ele>386.0</ele><time>2026-04-16T15:16:25.876Z</time></trkpt><trkpt lat="44.4360367" lon="9.1352783"><ele>386.0</ele><time>2026-04-16T15:16:26.876Z</time></trkpt><trkpt lat="44.4359383" lon="9.135275"><ele>385.99999999999994</ele><time>2026-04-16T15:16:27.874Z</time></trkpt><trkpt lat="44.4358433" lon="9.1352717"><ele>386.0</ele><time>2026-04-16T15:16:28.875Z</time></trkpt><trkpt lat="44.4357517" lon="9.1352883"><ele>386.0</ele><time>2026-04-16T15:16:29.877Z</time></trkpt><trkpt lat="44.435675" lon="9.1352933"><ele>386.0</ele><time>2026-04-16T15:16:30.876Z</time></trkpt><trkpt lat="44.4355783" lon="9.1353"><ele>386.0</ele><time>2026-04-16T15:16:31.874Z</time></trkpt><trkpt lat="44.4354867" lon="9.1353067"><ele>386.0</ele><time>2026-04-16T15:16:32.877Z</time></trkpt><trkpt lat="44.435405" lon="9.1353183"><ele>386.0</ele><time>2026-04-16T15:16:33.874Z</time></trkpt><trkpt lat="44.4352967" lon="9.1353117"><ele>389.3333333333333</ele><time>2026-04-16T15:16:35.875Z</time></trkpt><trkpt lat="44.4352217" lon="9.1353017"><ele>392.66666666666663</ele><time>2026-04-16T15:16:37.875Z</time></trkpt><trkpt lat="44.43516" lon="9.135345"><ele>396.0</ele><time>2026-04-16T15:16:39.874Z</time></trkpt><trkpt lat="44.4350933" lon="9.1353533"><ele>399.33333333333337</ele><time>2026-04-16T15:16:42.877Z</time></trkpt><trkpt lat="44.4350667" lon="9.135185"><ele>402.6666666666667</ele><time>2026-04-16T15:16:44.877Z</time></trkpt><trkpt lat="44.4350517" lon="9.135075"><ele>406.0</ele><time>2026-04-16T15:16:45.874Z</time></trkpt><trkpt lat="44.43502" lon="9.1349783"><ele>406.8</ele><time>2026-04-16T15:16:46.874Z</time></trkpt><trkpt lat="44.4349433" lon="9.1348767"><ele>407.6</ele><time>2026-04-16T15:16:48.876Z</time></trkpt><trkpt lat="44.43482" lon="9.13485"><ele>408.4</ele><time>2026-04-16T15:16:50.877Z</time></trkpt><trkpt lat="44.4347167" lon="9.1348317"><ele>409.2</ele><time>2026-04-16T15:16:51.875Z</time></trkpt><trkpt lat="44.43461" lon="9.1348433"><ele>410.0</ele><time>2026-04-16T15:16:52.874Z</time></trkpt><trkpt lat="44.4345017" lon="9.1348917"><ele>410.99999999999994</ele><time>2026-04-16T15:16:53.875Z</time></trkpt><trkpt lat="44.4344183" lon="9.1349417"><ele>412.0</ele><time>2026-04-16T15:16:54.874Z</time></trkpt><trkpt lat="44.4343367" lon="9.1349817"><ele>413.0</ele><time>2026-04-16T15:16:55.875Z</time></trkpt><trkpt lat="44.43426" lon="9.1350117"><ele>414.0</ele><time>2026-04-16T15:16:56.876Z</time></trkpt><trkpt lat="44.4341883" lon="9.1350167"><ele>414.99999999999994</ele><time>2026-04-16T15:16:57.874Z</time></trkpt><trkpt lat="44.4341217" lon="9.1350017"><ele>416.0</ele><time>2026-04-16T15:16:58.88Z</time></trkpt><trkpt lat="44.43406" lon="9.1349717"><ele>414.5</ele><time>2026-04-16T15:16:59.875Z</time></trkpt><trkpt lat="44.434025" lon="9.134875"><ele>413.0</ele><time>2026-04-16T15:17:00.873Z</time></trkpt><trkpt lat="44.4339717" lon="9.1347233"><ele>411.5</ele><time>2026-04-16T15:17:01.873Z</time></trkpt><trkpt lat="44.4339283" lon="9.1345217"><ele>410.0</ele><time>2026-04-16T15:17:02.876Z</time></trkpt><trkpt lat="44.43388" lon="9.13433"><ele>410.0</ele><time>2026-04-16T15:17:03.875Z</time></trkpt><trkpt lat="44.4338233" lon="9.1341717"><ele>410.0</ele><time>2026-04-16T15:17:04.875Z</time></trkpt><trkpt lat="44.4337567" lon="9.13404"><ele>410.0</ele><time>2026-04-16T15:17:05.875Z</time></trkpt><trkpt lat="44.4336833" lon="9.1339183"><ele>410.0</ele><time>2026-04-16T15:17:06.876Z</time></trkpt><trkpt lat="44.4336083" lon="9.1338033"><ele>409.99999999999994</ele><time>2026-04-16T15:17:07.874Z</time></trkpt><trkpt lat="44.4335417" lon="9.1337083"><ele>410.0</ele><time>2026-04-16T15:17:08.876Z</time></trkpt><trkpt lat="44.433475" lon="9.133635"><ele>410.0</ele><time>2026-04-16T15:17:09.874Z</time></trkpt><trkpt lat="44.4334233" lon="9.1335817"><ele>410.0</ele><time>2026-04-16T15:17:10.871Z</time></trkpt><trkpt lat="44.4333433" lon="9.1335067"><ele>409.99999999999994</ele><time>2026-04-16T15:17:12.873Z</time></trkpt><trkpt lat="44.43328" lon="9.1334417"><ele>410.0</ele><time>2026-04-16T15:17:14.875Z</time></trkpt><trkpt lat="44.4332367" lon="9.133345"><ele>408.99999999999994</ele><time>2026-04-16T15:17:16.874Z</time></trkpt><trkpt lat="44.4332033" lon="9.133195"><ele>408.0</ele><time>2026-04-16T15:17:18.873Z</time></trkpt><trkpt lat="44.4331867" lon="9.133105"><ele>407.0</ele><time>2026-04-16T15:17:19.875Z</time></trkpt><trkpt lat="44.4331667" lon="9.1330133"><ele>406.0</ele><time>2026-04-16T15:17:20.875Z</time></trkpt><trkpt lat="44.433105" lon="9.1328833"><ele>404.99999999999994</ele><time>2026-04-16T15:17:22.874Z</time></trkpt><trkpt lat="44.4330717" lon="9.1328083"><ele>404.0</ele><time>2026-04-16T15:17:23.874Z</time></trkpt><trkpt lat="44.4330467" lon="9.1327117"><ele>403.99999999999994</ele><time>2026-04-16T15:17:24.874Z</time></trkpt><trkpt lat="44.43302" lon="9.1326167"><ele>404.0</ele><time>2026-04-16T15:17:25.874Z</time></trkpt><trkpt lat="44.4329567" lon="9.1324683"><ele>404.0</ele><time>2026-04-16T15:17:27.873Z</time></trkpt><trkpt lat="44.432905" lon="9.1324133"><ele>404.0</ele><time>2026-04-16T15:17:28.873Z</time></trkpt><trkpt lat="44.432845" lon="9.1323667"><ele>403.99999999999994</ele><time>2026-04-16T15:17:29.875Z</time></trkpt><trkpt lat="44.4327817" lon="9.1323267"><ele>404.0</ele><time>2026-04-16T15:17:30.874Z</time></trkpt><trkpt lat="44.4327167" lon="9.1322967"><ele>404.66666666666663</ele><time>2026-04-16T15:17:31.875Z</time></trkpt><trkpt lat="44.4326517" lon="9.1322733"><ele>405.3333333333333</ele><time>2026-04-16T15:17:32.875Z</time></trkpt><trkpt lat="44.4325767" lon="9.132265"><ele>406.0</ele><time>2026-04-16T15:17:33.875Z</time></trkpt><trkpt lat="44.432495" lon="9.1322567"><ele>406.66666666666663</ele><time>2026-04-16T15:17:34.875Z</time></trkpt><trkpt lat="44.4324233" lon="9.1322517"><ele>407.3333333333333</ele><time>2026-04-16T15:17:35.873Z</time></trkpt><trkpt lat="44.4323433" lon="9.1322667"><ele>408.0</ele><time>2026-04-16T15:17:37.875Z</time></trkpt><trkpt lat="44.4324" lon="9.1324133"><ele>409.8333333333333</ele><time>2026-04-16T15:17:40.872Z</time></trkpt><trkpt lat="44.432435" lon="9.1324933"><ele>411.66666666666663</ele><time>2026-04-16T15:17:41.875Z</time></trkpt><trkpt lat="44.4324667" lon="9.1326233"><ele>413.5</ele><time>2026-04-16T15:17:43.873Z</time></trkpt><trkpt lat="44.4324367" lon="9.1327433"><ele>415.3333333333333</ele><time>2026-04-16T15:17:46.874Z</time></trkpt><trkpt lat="44.432375" lon="9.132805"><ele>417.16666666666663</ele><time>2026-04-16T15:17:49.876Z</time></trkpt><trkpt lat="44.432275" lon="9.1327883"><ele>419.0</ele><time>2026-04-16T15:17:51.877Z</time></trkpt><trkpt lat="44.4321883" lon="9.1327817"><ele>418.0</ele><time>2026-04-16T15:17:52.874Z</time></trkpt><trkpt lat="44.4320917" lon="9.13276"><ele>417.0</ele><time>2026-04-16T15:17:53.877Z</time></trkpt><trkpt lat="44.432" lon="9.1327167"><ele>416.0</ele><time>2026-04-16T15:17:54.876Z</time></trkpt><trkpt lat="44.4319033" lon="9.1326333"><ele>415.0</ele><time>2026-04-16T15:17:55.876Z</time></trkpt><trkpt lat="44.4318033" lon="9.1325417"><ele>414.0</ele><time>2026-04-16T15:17:56.877Z</time></trkpt><trkpt lat="44.4317" lon="9.132455"><ele>415.2</ele><time>2026-04-16T15:17:57.874Z</time></trkpt><trkpt lat="44.4315917" lon="9.13238"><ele>416.4</ele><time>2026-04-16T15:17:58.874Z</time></trkpt><trkpt lat="44.4314867" lon="9.1323333"><ele>417.6</ele><time>2026-04-16T15:17:59.874Z</time></trkpt><trkpt lat="44.4313983" lon="9.13233"><ele>418.8</ele><time>2026-04-16T15:18:00.874Z</time></trkpt><trkpt lat="44.431335" lon="9.1323167"><ele>420.0</ele><time>2026-04-16T15:18:01.874Z</time></trkpt><trkpt lat="44.4312683" lon="9.1322883"><ele>420.0</ele><time>2026-04-16T15:18:02.875Z</time></trkpt><trkpt lat="44.431215" lon="9.132215"><ele>420.0</ele><time>2026-04-16T15:18:03.874Z</time></trkpt><trkpt lat="44.431155" lon="9.1321033"><ele>420.0</ele><time>2026-04-16T15:18:04.875Z</time></trkpt><trkpt lat="44.4310883" lon="9.1319867"><ele>420.0</ele><time>2026-04-16T15:18:05.874Z</time></trkpt><trkpt lat="44.4310083" lon="9.131875"><ele>420.0</ele><time>2026-04-16T15:18:06.876Z</time></trkpt><trkpt lat="44.43093" lon="9.131785"><ele>420.0</ele><time>2026-04-16T15:18:07.874Z</time></trkpt><trkpt lat="44.4308483" lon="9.1317117"><ele>420.0</ele><time>2026-04-16T15:18:08.875Z</time></trkpt><trkpt lat="44.430765" lon="9.13164"><ele>420.0</ele><time>2026-04-16T15:18:09.876Z</time></trkpt><trkpt lat="44.4306767" lon="9.1315717"><ele>420.0</ele><time>2026-04-16T15:18:10.874Z</time></trkpt><trkpt lat="44.430595" lon="9.1315017"><ele>420.0</ele><time>2026-04-16T15:18:11.874Z</time></trkpt><trkpt lat="44.4305217" lon="9.1314233"><ele>420.2</ele><time>2026-04-16T15:18:12.874Z</time></trkpt><trkpt lat="44.4304567" lon="9.131325"><ele>420.4</ele><time>2026-04-16T15:18:13.875Z</time></trkpt><trkpt lat="44.4303983" lon="9.1312283"><ele>420.6</ele><time>2026-04-16T15:18:14.887Z</time></trkpt><trkpt lat="44.4303367" lon="9.1311367"><ele>420.8</ele><time>2026-04-16T15:18:15.879Z</time></trkpt><trkpt lat="44.4302783" lon="9.1310433"><ele>421.0</ele><time>2026-04-16T15:18:16.874Z</time></trkpt><trkpt lat="44.4302333" lon="9.1309417"><ele>421.0</ele><time>2026-04-16T15:18:17.873Z</time></trkpt><trkpt lat="44.4302017" lon="9.1308317"><ele>421.0</ele><time>2026-04-16T15:18:18.874Z</time></trkpt><trkpt lat="44.4301683" lon="9.1307133"><ele>421.0</ele><time>2026-04-16T15:18:19.874Z</time></trkpt><trkpt lat="44.4301167" lon="9.1306067"><ele>421.0</ele><time>2026-04-16T15:18:20.876Z</time></trkpt><trkpt lat="44.4300383" lon="9.1305167"><ele>421.0</ele><time>2026-04-16T15:18:21.875Z</time></trkpt><trkpt lat="44.4299467" lon="9.130465"><ele>421.4</ele><time>2026-04-16T15:18:22.874Z</time></trkpt><trkpt lat="44.429865" lon="9.1304283"><ele>421.8</ele><time>2026-04-16T15:18:23.873Z</time></trkpt><trkpt lat="44.4297817" lon="9.1303817"><ele>422.2</ele><time>2026-04-16T15:18:24.876Z</time></trkpt><trkpt lat="44.429705" lon="9.1302933"><ele>422.59999999999997</ele><time>2026-04-16T15:18:25.875Z</time></trkpt><trkpt lat="44.4296233" lon="9.1301933"><ele>423.0</ele><time>2026-04-16T15:18:26.875Z</time></trkpt><trkpt lat="44.4295567" lon="9.13009"><ele>423.0</ele><time>2026-04-16T15:18:27.873Z</time></trkpt><trkpt lat="44.4295033" lon="9.1299883"><ele>423.0</ele><time>2026-04-16T15:18:28.873Z</time></trkpt><trkpt lat="44.4294667" lon="9.1298767"><ele>423.0</ele><time>2026-04-16T15:18:29.874Z</time></trkpt><trkpt lat="44.4294517" lon="9.1297417"><ele>423.0</ele><time>2026-04-16T15:18:30.875Z</time></trkpt><trkpt lat="44.4294167" lon="9.1296267"><ele>423.0</ele><time>2026-04-16T15:18:31.874Z</time></trkpt><trkpt lat="44.42937" lon="9.1295217"><ele>427.5</ele><time>2026-04-16T15:18:32.875Z</time></trkpt><trkpt lat="44.4293" lon="9.1294267"><ele>432.0</ele><time>2026-04-16T15:18:33.874Z</time></trkpt><trkpt lat="44.4292" lon="9.1294117"><ele>436.5</ele><time>2026-04-16T15:18:34.875Z</time></trkpt><trkpt lat="44.4291017" lon="9.129415"><ele>441.0</ele><time>2026-04-16T15:18:35.875Z</time></trkpt><trkpt lat="44.4290233" lon="9.12942"><ele>445.5</ele><time>2026-04-16T15:18:36.874Z</time></trkpt><trkpt lat="44.4289567" lon="9.12942"><ele>450.0</ele><time>2026-04-16T15:18:37.876Z</time></trkpt><trkpt lat="44.4288783" lon="9.1293017"><ele>450.0</ele><time>2026-04-16T15:18:39.877Z</time></trkpt><trkpt lat="44.4288683" lon="9.1291933"><ele>450.0</ele><time>2026-04-16T15:18:40.875Z</time></trkpt><trkpt lat="44.4288567" lon="9.1290633"><ele>450.0</ele><time>2026-04-16T15:18:41.876Z</time></trkpt><trkpt lat="44.428825" lon="9.1289433"><ele>450.0</ele><time>2026-04-16T15:18:42.876Z</time></trkpt><trkpt lat="44.428775" lon="9.1288417"><ele>450.0</ele><time>2026-04-16T15:18:43.877Z</time></trkpt><trkpt lat="44.4287133" lon="9.12877"><ele>450.0</ele><time>2026-04-16T15:18:44.876Z</time></trkpt><trkpt lat="44.4286517" lon="9.1287167"><ele>449.4285714285715</ele><time>2026-04-16T15:18:45.875Z</time></trkpt><trkpt lat="44.42859" lon="9.1286633"><ele>448.8571428571429</ele><time>2026-04-16T15:18:46.875Z</time></trkpt><trkpt lat="44.428535" lon="9.1286033"><ele>448.28571428571433</ele><time>2026-04-16T15:18:47.876Z</time></trkpt><trkpt lat="44.4284717" lon="9.128555"><ele>447.7142857142858</ele><time>2026-04-16T15:18:48.877Z</time></trkpt><trkpt lat="44.4284183" lon="9.1284867"><ele>447.1428571428571</ele><time>2026-04-16T15:18:49.875Z</time></trkpt><trkpt lat="44.4283767" lon="9.1284083"><ele>446.57142857142856</ele><time>2026-04-16T15:18:50.876Z</time></trkpt><trkpt lat="44.4283417" lon="9.1283183"><ele>446.0</ele><time>2026-04-16T15:18:51.876Z</time></trkpt><trkpt lat="44.4283083" lon="9.1282183"><ele>448.49999999999994</ele><time>2026-04-16T15:18:52.875Z</time></trkpt><trkpt lat="44.428265" lon="9.12812"><ele>451.0</ele><time>2026-04-16T15:18:53.875Z</time></trkpt><trkpt lat="44.4282183" lon="9.1280233"><ele>453.5</ele><time>2026-04-16T15:18:54.886Z</time></trkpt><trkpt lat="44.4281667" lon="9.12793"><ele>456.0</ele><time>2026-04-16T15:18:55.875Z</time></trkpt><trkpt lat="44.4281217" lon="9.12784"><ele>458.49999999999994</ele><time>2026-04-16T15:18:56.879Z</time></trkpt><trkpt lat="44.4280867" lon="9.1277417"><ele>461.0</ele><time>2026-04-16T15:18:57.874Z</time></trkpt><trkpt lat="44.4280717" lon="9.1276317"><ele>460.99999999999994</ele><time>2026-04-16T15:18:58.875Z</time></trkpt><trkpt lat="44.4280683" lon="9.1275083"><ele>461.0</ele><time>2026-04-16T15:18:59.876Z</time></trkpt><trkpt lat="44.428055" lon="9.1273733"><ele>461.0</ele><time>2026-04-16T15:19:00.876Z</time></trkpt><trkpt lat="44.4280317" lon="9.1272617"><ele>461.0</ele><time>2026-04-16T15:19:01.876Z</time></trkpt><trkpt lat="44.4279983" lon="9.12717"><ele>460.99999999999994</ele><time>2026-04-16T15:19:02.875Z</time></trkpt><trkpt lat="44.4279417" lon="9.1271283"><ele>461.0</ele><time>2026-04-16T15:19:03.874Z</time></trkpt><trkpt lat="44.4278433" lon="9.1271383"><ele>461.20000000000005</ele><time>2026-04-16T15:19:05.875Z</time></trkpt><trkpt lat="44.427785" lon="9.127185"><ele>461.40000000000003</ele><time>2026-04-16T15:19:06.875Z</time></trkpt><trkpt lat="44.4276733" lon="9.1272233"><ele>461.6</ele><time>2026-04-16T15:19:07.875Z</time></trkpt><trkpt lat="44.4275583" lon="9.1272717"><ele>461.8</ele><time>2026-04-16T15:19:08.877Z</time></trkpt><trkpt lat="44.42746" lon="9.1273333"><ele>462.0</ele><time>2026-04-16T15:19:09.875Z</time></trkpt><trkpt lat="44.4273883" lon="9.1274217"><ele>462.0</ele><time>2026-04-16T15:19:10.875Z</time></trkpt><trkpt lat="44.427325" lon="9.12753"><ele>462.0</ele><time>2026-04-16T15:19:11.876Z</time></trkpt><trkpt lat="44.4272683" lon="9.1276317"><ele>462.0</ele><time>2026-04-16T15:19:12.876Z</time></trkpt><trkpt lat="44.427255" lon="9.1277183"><ele>462.0</ele><time>2026-04-16T15:19:13.874Z</time></trkpt><trkpt lat="44.427215" lon="9.1278133"><ele>462.0</ele><time>2026-04-16T15:19:14.877Z</time></trkpt><trkpt lat="44.4271517" lon="9.12793"><ele>462.0</ele><time>2026-04-16T15:19:15.876Z</time></trkpt><trkpt lat="44.4270767" lon="9.12806"><ele>467.25</ele><time>2026-04-16T15:19:16.876Z</time></trkpt><trkpt lat="44.4269717" lon="9.1281783"><ele>472.5</ele><time>2026-04-16T15:19:17.876Z</time></trkpt><trkpt lat="44.426875" lon="9.1283033"><ele>477.75</ele><time>2026-04-16T15:19:18.877Z</time></trkpt><trkpt lat="44.4267933" lon="9.1284433"><ele>483.0</ele><time>2026-04-16T15:19:19.875Z</time></trkpt><trkpt lat="44.4267283" lon="9.1285967"><ele>483.0</ele><time>2026-04-16T15:19:20.876Z</time></trkpt><trkpt lat="44.4266733" lon="9.1287683"><ele>483.0</ele><time>2026-04-16T15:19:21.875Z</time></trkpt><trkpt lat="44.4266317" lon="9.1289567"><ele>483.0</ele><time>2026-04-16T15:19:22.876Z</time></trkpt><trkpt lat="44.42664" lon="9.1291567"><ele>483.0</ele><time>2026-04-16T15:19:23.876Z</time></trkpt><trkpt lat="44.4266633" lon="9.1293133"><ele>480.79999999999995</ele><time>2026-04-16T15:19:24.873Z</time></trkpt><trkpt lat="44.4266633" lon="9.129405"><ele>478.59999999999997</ele><time>2026-04-16T15:19:25.877Z</time></trkpt><trkpt lat="44.42666" lon="9.1295067"><ele>476.40000000000003</ele><time>2026-04-16T15:19:26.876Z</time></trkpt><trkpt lat="44.4266717" lon="9.1296517"><ele>474.20000000000005</ele><time>2026-04-16T15:19:27.875Z</time></trkpt><trkpt lat="44.42662" lon="9.1298"><ele>472.0</ele><time>2026-04-16T15:19:28.875Z</time></trkpt><trkpt lat="44.4265417" lon="9.129985"><ele>468.0</ele><time>2026-04-16T15:19:29.874Z</time></trkpt><trkpt lat="44.4264133" lon="9.1302067"><ele>464.0</ele><time>2026-04-16T15:19:30.874Z</time></trkpt><trkpt lat="44.4262567" lon="9.1304367"><ele>460.0</ele><time>2026-04-16T15:19:31.876Z</time></trkpt><trkpt lat="44.4261033" lon="9.1306467"><ele>463.4</ele><time>2026-04-16T15:19:32.878Z</time></trkpt><trkpt lat="44.4259983" lon="9.1308067"><ele>466.8</ele><time>2026-04-16T15:19:33.879Z</time></trkpt><trkpt lat="44.4259583" lon="9.1309333"><ele>470.20000000000005</ele><time>2026-04-16T15:19:34.876Z</time></trkpt><trkpt lat="44.4259417" lon="9.1310517"><ele>473.6</ele><time>2026-04-16T15:19:35.876Z</time></trkpt><trkpt lat="44.42598" lon="9.1311867"><ele>477.0</ele><time>2026-04-16T15:19:36.878Z</time></trkpt><trkpt lat="44.426005" lon="9.131305"><ele>477.0</ele><time>2026-04-16T15:19:37.876Z</time></trkpt><trkpt lat="44.4260267" lon="9.1314067"><ele>477.0</ele><time>2026-04-16T15:19:38.877Z</time></trkpt><trkpt lat="44.4260533" lon="9.131495"><ele>477.0</ele><time>2026-04-16T15:19:39.875Z</time></trkpt><trkpt lat="44.4260933" lon="9.13158"><ele>477.0</ele><time>2026-04-16T15:19:40.875Z</time></trkpt><trkpt lat="44.4261483" lon="9.131675"><ele>477.0</ele><time>2026-04-16T15:19:42.876Z</time></trkpt><trkpt lat="44.4260817" lon="9.131755"><ele>477.0</ele><time>2026-04-16T15:19:47.878Z</time></trkpt><trkpt lat="44.4259533" lon="9.13179"><ele>477.5</ele><time>2026-04-16T15:19:49.881Z</time></trkpt><trkpt lat="44.425875" lon="9.1318017"><ele>478.0</ele><time>2026-04-16T15:19:50.879Z</time></trkpt><trkpt lat="44.4257983" lon="9.1318033"><ele>478.5</ele><time>2026-04-16T15:19:51.872Z</time></trkpt><trkpt lat="44.4257267" lon="9.131785"><ele>479.0</ele><time>2026-04-16T15:19:52.876Z</time></trkpt><trkpt lat="44.425635" lon="9.131755"><ele>479.5</ele><time>2026-04-16T15:19:53.876Z</time></trkpt><trkpt lat="44.425555" lon="9.1317333"><ele>480.0</ele><time>2026-04-16T15:19:54.878Z</time></trkpt><trkpt lat="44.42548" lon="9.1316267"><ele>480.0</ele><time>2026-04-16T15:19:55.876Z</time></trkpt><trkpt lat="44.4253933" lon="9.131555"><ele>480.0</ele><time>2026-04-16T15:19:56.877Z</time></trkpt><trkpt lat="44.42532" lon="9.1315417"><ele>480.0</ele><time>2026-04-16T15:19:57.876Z</time></trkpt><trkpt lat="44.42526" lon="9.131625"><ele>480.0</ele><time>2026-04-16T15:19:59.876Z</time></trkpt><trkpt lat="44.425335" lon="9.1317"><ele>480.0</ele><time>2026-04-16T15:20:01.878Z</time></trkpt><trkpt lat="44.4254317" lon="9.1317183"><ele>480.0</ele><time>2026-04-16T15:20:02.876Z</time></trkpt><trkpt lat="44.4255167" lon="9.131725"><ele>480.0</ele><time>2026-04-16T15:20:03.876Z</time></trkpt><trkpt lat="44.425645" lon="9.13183"><ele>480.0</ele><time>2026-04-16T15:20:05.876Z</time></trkpt><trkpt lat="44.4257333" lon="9.131915"><ele>480.0</ele><time>2026-04-16T15:20:07.877Z</time></trkpt><trkpt lat="44.425805" lon="9.1319383"><ele>480.0</ele><time>2026-04-16T15:20:08.882Z</time></trkpt><trkpt lat="44.4258767" lon="9.1319667"><ele>480.0</ele><time>2026-04-16T15:20:09.878Z</time></trkpt><trkpt lat="44.4259817" lon="9.131985"><ele>480.0</ele><time>2026-04-16T15:20:10.879Z</time></trkpt><trkpt lat="44.42607" lon="9.1320033"><ele>480.0</ele><time>2026-04-16T15:20:11.879Z</time></trkpt><trkpt lat="44.4261533" lon="9.1320283"><ele>480.0</ele><time>2026-04-16T15:20:12.877Z</time></trkpt><trkpt lat="44.4262283" lon="9.132055"><ele>480.0</ele><time>2026-04-16T15:20:13.876Z</time></trkpt><trkpt lat="44.4263367" lon="9.1320617"><ele>480.0</ele><time>2026-04-16T15:20:15.874Z</time></trkpt><trkpt lat="44.426425" lon="9.1320167"><ele>476.8333333333333</ele><time>2026-04-16T15:20:17.875Z</time></trkpt><trkpt lat="44.4264967" lon="9.1319283"><ele>473.66666666666663</ele><time>2026-04-16T15:20:19.875Z</time></trkpt><trkpt lat="44.4265917" lon="9.1318817"><ele>470.5</ele><time>2026-04-16T15:20:21.877Z</time></trkpt><trkpt lat="44.42667" lon="9.131865"><ele>467.3333333333333</ele><time>2026-04-16T15:20:22.877Z</time></trkpt><trkpt lat="44.4267617" lon="9.13183"><ele>464.16666666666663</ele><time>2026-04-16T15:20:24.876Z</time></trkpt><trkpt lat="44.4268017" lon="9.1317567"><ele>461.0</ele><time>2026-04-16T15:20:37.879Z</time></trkpt><trkpt lat="44.426695" lon="9.1317117"><ele>461.0</ele><time>2026-04-16T15:20:41.875Z</time></trkpt><trkpt lat="44.42663" lon="9.1316833"><ele>461.0</ele><time>2026-04-16T15:20:42.876Z</time></trkpt><trkpt lat="44.4265333" lon="9.1316433"><ele>461.0</ele><time>2026-04-16T15:20:43.879Z</time></trkpt><trkpt lat="44.4264417" lon="9.1315917"><ele>461.0</ele><time>2026-04-16T15:20:44.879Z</time></trkpt><trkpt lat="44.4263333" lon="9.1315183"><ele>461.0</ele><time>2026-04-16T15:20:45.874Z</time></trkpt><trkpt lat="44.4262483" lon="9.13142"><ele>463.66666666666663</ele><time>2026-04-16T15:20:46.875Z</time></trkpt><trkpt lat="44.4261767" lon="9.1313267"><ele>466.3333333333333</ele><time>2026-04-16T15:20:47.876Z</time></trkpt><trkpt lat="44.4261183" lon="9.1312533"><ele>469.0</ele><time>2026-04-16T15:20:48.875Z</time></trkpt><trkpt lat="44.4260583" lon="9.1312117"><ele>471.66666666666663</ele><time>2026-04-16T15:20:49.876Z</time></trkpt><trkpt lat="44.425985" lon="9.131185"><ele>474.3333333333333</ele><time>2026-04-16T15:20:50.874Z</time></trkpt><trkpt lat="44.4259067" lon="9.1311583"><ele>477.0</ele><time>2026-04-16T15:20:51.875Z</time></trkpt><trkpt lat="44.4258033" lon="9.13116"><ele>477.0</ele><time>2026-04-16T15:20:53.875Z</time></trkpt><trkpt lat="44.4258217" lon="9.131245"><ele>477.00000000000006</ele><time>2026-04-16T15:20:55.874Z</time></trkpt><trkpt lat="44.4259033" lon="9.131345"><ele>477.00000000000006</ele><time>2026-04-16T15:20:57.875Z</time></trkpt><trkpt lat="44.4259933" lon="9.1314083"><ele>477.0</ele><time>2026-04-16T15:20:58.874Z</time></trkpt><trkpt lat="44.4261033" lon="9.1314933"><ele>477.0</ele><time>2026-04-16T15:20:59.876Z</time></trkpt><trkpt lat="44.4261833" lon="9.13157"><ele>477.6</ele><time>2026-04-16T15:21:00.876Z</time></trkpt><trkpt lat="44.4262067" lon="9.131695"><ele>478.20000000000005</ele><time>2026-04-16T15:21:02.875Z</time></trkpt><trkpt lat="44.4261233" lon="9.1317833"><ele>478.8</ele><time>2026-04-16T15:21:04.875Z</time></trkpt><trkpt lat="44.4260217" lon="9.1317967"><ele>479.4</ele><time>2026-04-16T15:21:05.874Z</time></trkpt><trkpt lat="44.4259417" lon="9.1318233"><ele>480.0</ele><time>2026-04-16T15:21:06.876Z</time></trkpt><trkpt lat="44.42586" lon="9.131815"><ele>480.0</ele><time>2026-04-16T15:21:07.876Z</time></trkpt><trkpt lat="44.425785" lon="9.1317867"><ele>480.0</ele><time>2026-04-16T15:21:08.876Z</time></trkpt><trkpt lat="44.4256717" lon="9.13174"><ele>480.0</ele><time>2026-04-16T15:21:09.875Z</time></trkpt><trkpt lat="44.4255867" lon="9.13168"><ele>480.0</ele><time>2026-04-16T15:21:10.875Z</time></trkpt><trkpt lat="44.425515" lon="9.1316267"><ele>480.0</ele><time>2026-04-16T15:21:11.874Z</time></trkpt><trkpt lat="44.42545" lon="9.131565"><ele>480.0</ele><time>2026-04-16T15:21:12.874Z</time></trkpt><trkpt lat="44.4253583" lon="9.1315233"><ele>480.0</ele><time>2026-04-16T15:21:14.875Z</time></trkpt><trkpt lat="44.4253967" lon="9.1316333"><ele>480.0</ele><time>2026-04-16T15:21:17.879Z</time></trkpt><trkpt lat="44.425475" lon="9.131665"><ele>480.0</ele><time>2026-04-16T15:21:18.878Z</time></trkpt><trkpt lat="44.4255567" lon="9.1316967"><ele>480.0</ele><time>2026-04-16T15:21:19.877Z</time></trkpt><trkpt lat="44.4256367" lon="9.1317467"><ele>480.0</ele><time>2026-04-16T15:21:20.877Z</time></trkpt><trkpt lat="44.4256967" lon="9.1318217"><ele>480.0</ele><time>2026-04-16T15:21:21.875Z</time></trkpt><trkpt lat="44.4257783" lon="9.1319217"><ele>480.0</ele><time>2026-04-16T15:21:23.874Z</time></trkpt><trkpt lat="44.4259017" lon="9.131985"><ele>480.0</ele><time>2026-04-16T15:21:25.876Z</time></trkpt><trkpt lat="44.4259933" lon="9.132005"><ele>480.0</ele><time>2026-04-16T15:21:26.876Z</time></trkpt><trkpt lat="44.42607" lon="9.1320317"><ele>480.0</ele><time>2026-04-16T15:21:27.876Z</time></trkpt><trkpt lat="44.4261483" lon="9.1320667"><ele>480.0</ele><time>2026-04-16T15:21:28.877Z</time></trkpt><trkpt lat="44.4262467" lon="9.1320683"><ele>480.0</ele><time>2026-04-16T15:21:29.875Z</time></trkpt><trkpt lat="44.4263133" lon="9.13209"><ele>480.0</ele><time>2026-04-16T15:21:30.874Z</time></trkpt><trkpt lat="44.4264317" lon="9.1320733"><ele>480.0</ele><time>2026-04-16T15:21:32.878Z</time></trkpt><trkpt lat="44.4265083" lon="9.1319617"><ele>480.0</ele><time>2026-04-16T15:21:34.875Z</time></trkpt><trkpt lat="44.4265917" lon="9.1319033"><ele>476.2</ele><time>2026-04-16T15:21:36.877Z</time></trkpt><trkpt lat="44.4266633" lon="9.1318883"><ele>472.4</ele><time>2026-04-16T15:21:37.879Z</time></trkpt><trkpt lat="44.4267667" lon="9.1318383"><ele>468.6</ele><time>2026-04-16T15:21:39.876Z</time></trkpt><trkpt lat="44.426795" lon="9.13175"><ele>464.8</ele><time>2026-04-16T15:21:41.877Z</time></trkpt><trkpt lat="44.4267083" lon="9.1317133"><ele>461.0</ele><time>2026-04-16T15:21:43.874Z</time></trkpt><trkpt lat="44.42657" lon="9.1316717"><ele>461.0</ele><time>2026-04-16T15:21:44.877Z</time></trkpt><trkpt lat="44.4264317" lon="9.1316217"><ele>461.0</ele><time>2026-04-16T15:21:45.876Z</time></trkpt><trkpt lat="44.4263167" lon="9.131565"><ele>461.0</ele><time>2026-04-16T15:21:46.874Z</time></trkpt><trkpt lat="44.4262033" lon="9.1314983"><ele>461.0</ele><time>2026-04-16T15:21:47.874Z</time></trkpt><trkpt lat="44.4261333" lon="9.1314033"><ele>463.66666666666663</ele><time>2026-04-16T15:21:48.875Z</time></trkpt><trkpt lat="44.4260567" lon="9.1313067"><ele>466.3333333333333</ele><time>2026-04-16T15:21:49.879Z</time></trkpt><trkpt lat="44.4259883" lon="9.1312283"><ele>469.0</ele><time>2026-04-16T15:21:50.876Z</time></trkpt><trkpt lat="44.4258983" lon="9.1311883"><ele>471.66666666666663</ele><time>2026-04-16T15:21:52.876Z</time></trkpt><trkpt lat="44.4258767" lon="9.1312767"><ele>474.3333333333333</ele><time>2026-04-16T15:22:06.876Z</time></trkpt><trkpt lat="44.4259433" lon="9.1313467"><ele>477.0</ele><time>2026-04-16T15:22:08.878Z</time></trkpt><trkpt lat="44.4260133" lon="9.13142"><ele>477.0</ele><time>2026-04-16T15:22:10.873Z</time></trkpt><trkpt lat="44.4260783" lon="9.1315"><ele>477.00000000000006</ele><time>2026-04-16T15:22:12.874Z</time></trkpt><trkpt lat="44.42617" lon="9.13159"><ele>477.00000000000006</ele><time>2026-04-16T15:22:14.876Z</time></trkpt><trkpt lat="44.426205" lon="9.1316767"><ele>477.0</ele><time>2026-04-16T15:22:17.875Z</time></trkpt><trkpt lat="44.4260733" lon="9.1317267"><ele>477.0</ele><time>2026-04-16T15:22:19.874Z</time></trkpt><trkpt lat="44.4259733" lon="9.1317517"><ele>477.6</ele><time>2026-04-16T15:22:20.875Z</time></trkpt><trkpt lat="44.4258633" lon="9.1317517"><ele>478.20000000000005</ele><time>2026-04-16T15:22:21.874Z</time></trkpt><trkpt lat="44.42574" lon="9.131725"><ele>478.8</ele><time>2026-04-16T15:22:22.868Z</time></trkpt><trkpt lat="44.4256367" lon="9.131685"><ele>479.4</ele><time>2026-04-16T15:22:23.874Z</time></trkpt><trkpt lat="44.4255433" lon="9.1316417"><ele>480.0</ele><time>2026-04-16T15:22:24.875Z</time></trkpt><trkpt lat="44.4254667" lon="9.1315717"><ele>480.0</ele><time>2026-04-16T15:22:25.874Z</time></trkpt><trkpt lat="44.4254017" lon="9.1315217"><ele>480.0</ele><time>2026-04-16T15:22:26.877Z</time></trkpt><trkpt lat="44.4253233" lon="9.13159"><ele>480.0</ele><time>2026-04-16T15:22:28.874Z</time></trkpt><trkpt lat="44.4253717" lon="9.1316733"><ele>480.0</ele><time>2026-04-16T15:22:31.877Z</time></trkpt><trkpt lat="44.4255033" lon="9.1317017"><ele>480.0</ele><time>2026-04-16T15:22:33.876Z</time></trkpt><trkpt lat="44.4255783" lon="9.1317383"><ele>480.0</ele><time>2026-04-16T15:22:34.874Z</time></trkpt><trkpt lat="44.4256317" lon="9.1317867"><ele>480.0</ele><time>2026-04-16T15:22:35.876Z</time></trkpt><trkpt lat="44.4256733" lon="9.1318533"><ele>480.0</ele><time>2026-04-16T15:22:36.875Z</time></trkpt><trkpt lat="44.4257833" lon="9.13193"><ele>480.0</ele><time>2026-04-16T15:22:38.874Z</time></trkpt><trkpt lat="44.4258883" lon="9.13194"><ele>480.0</ele><time>2026-04-16T15:22:39.876Z</time></trkpt><trkpt lat="44.426015" lon="9.1319867"><ele>480.0</ele><time>2026-04-16T15:22:40.875Z</time></trkpt><trkpt lat="44.426105" lon="9.1320217"><ele>480.0</ele><time>2026-04-16T15:22:41.876Z</time></trkpt><trkpt lat="44.4261933" lon="9.1320467"><ele>480.0</ele><time>2026-04-16T15:22:42.876Z</time></trkpt><trkpt lat="44.4262783" lon="9.1320617"><ele>480.0</ele><time>2026-04-16T15:22:43.874Z</time></trkpt><trkpt lat="44.4263917" lon="9.132045"><ele>480.0</ele><time>2026-04-16T15:22:45.874Z</time></trkpt><trkpt lat="44.4264917" lon="9.13196"><ele>476.2</ele><time>2026-04-16T15:22:47.875Z</time></trkpt><trkpt lat="44.4265883" lon="9.1318917"><ele>472.4</ele><time>2026-04-16T15:22:49.876Z</time></trkpt><trkpt lat="44.4266567" lon="9.13189"><ele>468.6</ele><time>2026-04-16T15:22:50.878Z</time></trkpt><trkpt lat="44.4267717" lon="9.1318633"><ele>464.8</ele><time>2026-04-16T15:22:52.875Z</time></trkpt><trkpt lat="44.4268133" lon="9.1317833"><ele>461.0</ele><time>2026-04-16T15:22:54.875Z</time></trkpt><trkpt lat="44.4267017" lon="9.1317433"><ele>461.0</ele><time>2026-04-16T15:22:56.877Z</time></trkpt><trkpt lat="44.426595" lon="9.1317417"><ele>461.0</ele><time>2026-04-16T15:22:57.876Z</time></trkpt><trkpt lat="44.4264633" lon="9.1317"><ele>461.0</ele><time>2026-04-16T15:22:58.873Z</time></trkpt><trkpt lat="44.4263583" lon="9.131655"><ele>461.0</ele><time>2026-04-16T15:22:59.876Z</time></trkpt><trkpt lat="44.426285" lon="9.1316217"><ele>461.0</ele><time>2026-04-16T15:23:00.873Z</time></trkpt><trkpt lat="44.4262333" lon="9.131545"><ele>463.66666666666663</ele><time>2026-04-16T15:26:54.873Z</time></trkpt><trkpt lat="44.426165" lon="9.13155"><ele>466.3333333333333</ele><time>2026-04-16T15:26:56.876Z</time></trkpt><trkpt lat="44.4260533" lon="9.1315683"><ele>469.0</ele><time>2026-04-16T15:26:58.875Z</time></trkpt><trkpt lat="44.4259783" lon="9.13158"><ele>471.66666666666663</ele><time>2026-04-16T15:26:59.876Z</time></trkpt><trkpt lat="44.425895" lon="9.1315967"><ele>474.3333333333333</ele><time>2026-04-16T15:27:00.878Z</time></trkpt><trkpt lat="44.4258267" lon="9.131625"><ele>477.0</ele><time>2026-04-16T15:27:01.875Z</time></trkpt><trkpt lat="44.4257667" lon="9.13166"><ele>477.6</ele><time>2026-04-16T15:27:02.877Z</time></trkpt><trkpt lat="44.425665" lon="9.13172"><ele>478.20000000000005</ele><time>2026-04-16T15:27:04.874Z</time></trkpt><trkpt lat="44.4255817" lon="9.1318067"><ele>478.8</ele><time>2026-04-16T15:27:06.877Z</time></trkpt><trkpt lat="44.425505" lon="9.131905"><ele>479.4</ele><time>2026-04-16T15:27:08.875Z</time></trkpt><trkpt lat="44.4254133" lon="9.13201"><ele>480.0</ele><time>2026-04-16T15:27:10.87Z</time></trkpt><trkpt lat="44.4253583" lon="9.13206"><ele>481.8333333333333</ele><time>2026-04-16T15:27:11.875Z</time></trkpt><trkpt lat="44.4253067" lon="9.132125"><ele>483.66666666666663</ele><time>2026-04-16T15:27:12.875Z</time></trkpt><trkpt lat="44.425255" lon="9.13219"><ele>485.5</ele><time>2026-04-16T15:27:13.875Z</time></trkpt><trkpt lat="44.4252117" lon="9.1322633"><ele>487.3333333333333</ele><time>2026-04-16T15:27:14.878Z</time></trkpt><trkpt lat="44.4251917" lon="9.13238"><ele>489.16666666666663</ele><time>2026-04-16T15:27:15.875Z</time></trkpt><trkpt lat="44.42517" lon="9.1324917"><ele>491.0</ele><time>2026-04-16T15:27:16.874Z</time></trkpt><trkpt lat="44.4251467" lon="9.1326133"><ele>491.0</ele><time>2026-04-16T15:27:17.877Z</time></trkpt><trkpt lat="44.4251683" lon="9.13278"><ele>491.0</ele><time>2026-04-16T15:27:18.876Z</time></trkpt><trkpt lat="44.4252217" lon="9.13293"><ele>491.0</ele><time>2026-04-16T15:27:19.875Z</time></trkpt><trkpt lat="44.4252767" lon="9.1330733"><ele>491.0</ele><time>2026-04-16T15:27:20.877Z</time></trkpt><trkpt lat="44.4253417" lon="9.1332017"><ele>492.4</ele><time>2026-04-16T15:27:21.875Z</time></trkpt><trkpt lat="44.4253983" lon="9.1333133"><ele>493.8</ele><time>2026-04-16T15:27:22.877Z</time></trkpt><trkpt lat="44.4254483" lon="9.1334167"><ele>495.19999999999993</ele><time>2026-04-16T15:27:23.875Z</time></trkpt><trkpt lat="44.4254933" lon="9.1335133"><ele>496.59999999999997</ele><time>2026-04-16T15:27:24.876Z</time></trkpt><trkpt lat="44.42553" lon="9.1335933"><ele>498.0</ele><time>2026-04-16T15:27:25.877Z</time></trkpt><trkpt lat="44.42559" lon="9.1337333"><ele>494.8333333333333</ele><time>2026-04-16T15:27:27.875Z</time></trkpt><trkpt lat="44.4255867" lon="9.13387"><ele>491.66666666666663</ele><time>2026-04-16T15:27:29.876Z</time></trkpt><trkpt lat="44.425575" lon="9.1339867"><ele>488.5</ele><time>2026-04-16T15:27:31.874Z</time></trkpt><trkpt lat="44.42558" lon="9.134105"><ele>485.3333333333333</ele><time>2026-04-16T15:27:34.877Z</time></trkpt><trkpt lat="44.4256333" lon="9.1342067"><ele>482.16666666666663</ele><time>2026-04-16T15:27:36.871Z</time></trkpt><trkpt lat="44.4256783" lon="9.1342783"><ele>479.0</ele><time>2026-04-16T15:27:38.877Z</time></trkpt><trkpt lat="44.4257733" lon="9.1343233"><ele>479.0</ele><time>2026-04-16T15:27:40.874Z</time></trkpt><trkpt lat="44.425855" lon="9.1344317"><ele>479.0</ele><time>2026-04-16T15:27:42.875Z</time></trkpt><trkpt lat="44.4259617" lon="9.134495"><ele>479.0</ele><time>2026-04-16T15:27:44.877Z</time></trkpt><trkpt lat="44.4260733" lon="9.13455"><ele>479.0</ele><time>2026-04-16T15:27:46.873Z</time></trkpt><trkpt lat="44.4261617" lon="9.134615"><ele>479.0</ele><time>2026-04-16T15:27:48.876Z</time></trkpt><trkpt lat="44.426235" lon="9.1346833"><ele>478.99999999999994</ele><time>2026-04-16T15:27:50.877Z</time></trkpt><trkpt lat="44.42629" lon="9.1347367"><ele>479.0</ele><time>2026-04-16T15:27:52.875Z</time></trkpt><trkpt lat="44.4263933" lon="9.1347567"><ele>479.0</ele><time>2026-04-16T15:28:02.876Z</time></trkpt><trkpt lat="44.4264633" lon="9.134725"><ele>479.0</ele><time>2026-04-16T15:28:04.876Z</time></trkpt><trkpt lat="44.4265267" lon="9.134715"><ele>478.99999999999994</ele><time>2026-04-16T15:28:06.874Z</time></trkpt><trkpt lat="44.4265917" lon="9.134665"><ele>479.0</ele><time>2026-04-16T15:28:09.874Z</time></trkpt><trkpt lat="44.4266733" lon="9.1346033"><ele>475.42857142857144</ele><time>2026-04-16T15:28:40.875Z</time></trkpt><trkpt lat="44.4267167" lon="9.1345283"><ele>471.8571428571429</ele><time>2026-04-16T15:28:57.874Z</time></trkpt><trkpt lat="44.426665" lon="9.1344567"><ele>468.28571428571433</ele><time>2026-04-16T15:29:04.874Z</time></trkpt><trkpt lat="44.4265867" lon="9.134445"><ele>464.7142857142857</ele><time>2026-04-16T15:29:30.873Z</time></trkpt><trkpt lat="44.42652" lon="9.1344167"><ele>461.1428571428572</ele><time>2026-04-16T15:29:33.875Z</time></trkpt><trkpt lat="44.42647" lon="9.13435"><ele>457.5714285714286</ele><time>2026-04-16T15:29:36.875Z</time></trkpt><trkpt lat="44.4264033" lon="9.134315"><ele>454.0</ele><time>2026-04-16T15:29:47.875Z</time></trkpt><trkpt lat="44.4263533" lon="9.13424"><ele>458.00000000000006</ele><time>2026-04-16T15:29:50.876Z</time></trkpt><trkpt lat="44.4262467" lon="9.1342133"><ele>462.0</ele><time>2026-04-16T15:30:12.877Z</time></trkpt><trkpt lat="44.42619" lon="9.1341517"><ele>466.0</ele><time>2026-04-16T15:30:23.876Z</time></trkpt><trkpt lat="44.4261767" lon="9.1340633"><ele>470.0</ele><time>2026-04-16T15:30:42.875Z</time></trkpt><trkpt lat="44.42619" lon="9.1339133"><ele>474.00000000000006</ele><time>2026-04-16T15:31:10.88Z</time></trkpt><trkpt lat="44.4262083" lon="9.1338033"><ele>478.0</ele><time>2026-04-16T15:31:13.876Z</time></trkpt><trkpt lat="44.4262217" lon="9.1337017"><ele>478.00000000000006</ele><time>2026-04-16T15:31:17.876Z</time></trkpt><trkpt lat="44.4262217" lon="9.1335983"><ele>478.0</ele><time>2026-04-16T15:31:21.877Z</time></trkpt><trkpt lat="44.4262017" lon="9.1335133"><ele>478.00000000000006</ele><time>2026-04-16T15:31:31.874Z</time></trkpt><trkpt lat="44.4261983" lon="9.1334067"><ele>478.00000000000006</ele><time>2026-04-16T15:31:37.876Z</time></trkpt><trkpt lat="44.4261767" lon="9.1333183"><ele>478.0</ele><time>2026-04-16T15:31:42.875Z</time></trkpt><trkpt lat="44.4261633" lon="9.1332283"><ele>478.00000000000006</ele><time>2026-04-16T15:31:47.877Z</time></trkpt><trkpt lat="44.42613" lon="9.1331517"><ele>478.00000000000006</ele><time>2026-04-16T15:31:50.877Z</time></trkpt><trkpt lat="44.4260983" lon="9.1330717"><ele>477.83333333333337</ele><time>2026-04-16T15:31:53.875Z</time></trkpt><trkpt lat="44.42604" lon="9.132985"><ele>477.6666666666667</ele><time>2026-04-16T15:31:56.877Z</time></trkpt><trkpt lat="44.4259867" lon="9.13293"><ele>477.5</ele><time>2026-04-16T15:31:58.876Z</time></trkpt><trkpt lat="44.425935" lon="9.1328567"><ele>477.33333333333337</ele><time>2026-04-16T15:32:01.878Z</time></trkpt><trkpt lat="44.4258683" lon="9.1327933"><ele>477.1666666666667</ele><time>2026-04-16T15:32:14.877Z</time></trkpt><trkpt lat="44.4258167" lon="9.13273"><ele>477.0</ele><time>2026-04-16T15:32:24.875Z</time></trkpt><trkpt lat="44.4257633" lon="9.1326483"><ele>477.0</ele><time>2026-04-16T15:32:28.876Z</time></trkpt><trkpt lat="44.42572" lon="9.13258"><ele>476.99999999999994</ele><time>2026-04-16T15:32:32.874Z</time></trkpt><trkpt lat="44.42578" lon="9.1325433"><ele>477.0</ele><time>2026-04-16T15:32:42.876Z</time></trkpt><trkpt lat="44.42578" lon="9.1324483"><ele>477.0</ele><time>2026-04-16T15:32:46.878Z</time></trkpt><trkpt lat="44.4257967" lon="9.1323533"><ele>476.99999999999994</ele><time>2026-04-16T15:32:52.876Z</time></trkpt><trkpt lat="44.4257567" lon="9.13227"><ele>477.0</ele><time>2026-04-16T15:32:56.879Z</time></trkpt><trkpt lat="44.425705" lon="9.1322067"><ele>477.0</ele><time>2026-04-16T15:33:00.874Z</time></trkpt><trkpt lat="44.4256367" lon="9.132145"><ele>477.6</ele><time>2026-04-16T15:33:04.876Z</time></trkpt><trkpt lat="44.4255733" lon="9.1320617"><ele>478.20000000000005</ele><time>2026-04-16T15:33:07.875Z</time></trkpt><trkpt lat="44.4255133" lon="9.1320333"><ele>478.8</ele><time>2026-04-16T15:33:10.875Z</time></trkpt><trkpt lat="44.4254083" lon="9.1320733"><ele>479.4</ele><time>2026-04-16T15:33:12.879Z</time></trkpt><trkpt lat="44.4253483" lon="9.1321233"><ele>480.0</ele><time>2026-04-16T15:33:13.875Z</time></trkpt><trkpt lat="44.4253" lon="9.132295"><ele>482.2</ele><time>2026-04-16T15:33:15.874Z</time></trkpt><trkpt lat="44.4252733" lon="9.1324133"><ele>484.4</ele><time>2026-04-16T15:33:16.875Z</time></trkpt><trkpt lat="44.4252567" lon="9.1325317"><ele>486.6</ele><time>2026-04-16T15:33:17.877Z</time></trkpt><trkpt lat="44.4252483" lon="9.1326567"><ele>488.8</ele><time>2026-04-16T15:33:18.878Z</time></trkpt><trkpt lat="44.4252867" lon="9.1328783"><ele>491.0</ele><time>2026-04-16T15:33:19.875Z</time></trkpt><trkpt lat="44.425335" lon="9.1330833"><ele>492.75</ele><time>2026-04-16T15:33:20.876Z</time></trkpt><trkpt lat="44.4254217" lon="9.1332817"><ele>494.5</ele><time>2026-04-16T15:33:21.875Z</time></trkpt><trkpt lat="44.4254983" lon="9.1334333"><ele>496.25</ele><time>2026-04-16T15:33:22.874Z</time></trkpt><trkpt lat="44.4255617" lon="9.13359"><ele>498.0</ele><time>2026-04-16T15:33:23.876Z</time></trkpt><trkpt lat="44.4255933" lon="9.13371"><ele>494.8333333333333</ele><time>2026-04-16T15:33:24.876Z</time></trkpt><trkpt lat="44.4256367" lon="9.13384"><ele>491.66666666666663</ele><time>2026-04-16T15:33:25.875Z</time></trkpt><trkpt lat="44.42566" lon="9.1339233"><ele>488.5</ele><time>2026-04-16T15:33:26.878Z</time></trkpt><trkpt lat="44.4256333" lon="9.1340367"><ele>485.3333333333333</ele><time>2026-04-16T15:33:29.875Z</time></trkpt><trkpt lat="44.4256417" lon="9.1341433"><ele>482.16666666666663</ele><time>2026-04-16T15:34:22.876Z</time></trkpt><trkpt lat="44.4256783" lon="9.1342317"><ele>479.0</ele><time>2026-04-16T15:34:25.874Z</time></trkpt><trkpt lat="44.4257283" lon="9.1343117"><ele>478.99999999999994</ele><time>2026-04-16T15:34:28.874Z</time></trkpt><trkpt lat="44.42579" lon="9.1343517"><ele>479.0</ele><time>2026-04-16T15:34:31.877Z</time></trkpt><trkpt lat="44.4258667" lon="9.1344083"><ele>479.0</ele><time>2026-04-16T15:34:35.877Z</time></trkpt><trkpt lat="44.4259333" lon="9.1344533"><ele>479.0</ele><time>2026-04-16T15:34:37.881Z</time></trkpt><trkpt lat="44.4259967" lon="9.1344967"><ele>478.99999999999994</ele><time>2026-04-16T15:34:39.874Z</time></trkpt><trkpt lat="44.426075" lon="9.1345517"><ele>479.0</ele><time>2026-04-16T15:34:41.879Z</time></trkpt><trkpt lat="44.4261433" lon="9.1346133"><ele>479.0</ele><time>2026-04-16T15:34:44.875Z</time></trkpt><trkpt lat="44.4262117" lon="9.13465"><ele>479.0</ele><time>2026-04-16T15:34:47.88Z</time></trkpt><trkpt lat="44.4262817" lon="9.1346467"><ele>479.0</ele><time>2026-04-16T15:34:50.879Z</time></trkpt><trkpt lat="44.42635" lon="9.1346317"><ele>479.0</ele><time>2026-04-16T15:34:52.877Z</time></trkpt><trkpt lat="44.426425" lon="9.134625"><ele>479.0</ele><time>2026-04-16T15:34:55.875Z</time></trkpt><trkpt lat="44.42649" lon="9.1346167"><ele>479.0</ele><time>2026-04-16T15:34:59.874Z</time></trkpt><trkpt lat="44.4265383" lon="9.1345017"><ele>479.0</ele><time>2026-04-16T15:35:02.878Z</time></trkpt><trkpt lat="44.4264933" lon="9.1343283"><ele>478.75</ele><time>2026-04-16T15:35:04.877Z</time></trkpt><trkpt lat="44.4264283" lon="9.1341683"><ele>478.5</ele><time>2026-04-16T15:35:05.876Z</time></trkpt><trkpt lat="44.4263817" lon="9.1339417"><ele>478.25</ele><time>2026-04-16T15:35:06.874Z</time></trkpt><trkpt lat="44.4263367" lon="9.1337683"><ele>478.0</ele><time>2026-04-16T15:35:07.875Z</time></trkpt><trkpt lat="44.4263017" lon="9.13361"><ele>478.0</ele><time>2026-04-16T15:35:08.877Z</time></trkpt><trkpt lat="44.4262583" lon="9.1334633"><ele>477.99999999999994</ele><time>2026-04-16T15:35:09.875Z</time></trkpt><trkpt lat="44.4261917" lon="9.13334"><ele>477.99999999999994</ele><time>2026-04-16T15:35:10.875Z</time></trkpt><trkpt lat="44.426135" lon="9.1332083"><ele>478.0</ele><time>2026-04-16T15:35:11.874Z</time></trkpt><trkpt lat="44.4260817" lon="9.1330867"><ele>478.0</ele><time>2026-04-16T15:35:12.876Z</time></trkpt><trkpt lat="44.4260183" lon="9.13298"><ele>477.83333333333337</ele><time>2026-04-16T15:35:13.875Z</time></trkpt><trkpt lat="44.425965" lon="9.132895"><ele>477.6666666666667</ele><time>2026-04-16T15:35:14.878Z</time></trkpt><trkpt lat="44.4259283" lon="9.1328033"><ele>477.5</ele><time>2026-04-16T15:35:15.874Z</time></trkpt><trkpt lat="44.4259083" lon="9.132705"><ele>477.33333333333337</ele><time>2026-04-16T15:35:16.875Z</time></trkpt><trkpt lat="44.4259217" lon="9.1325867"><ele>477.1666666666667</ele><time>2026-04-16T15:35:17.874Z</time></trkpt><trkpt lat="44.42598" lon="9.1324383"><ele>477.0</ele><time>2026-04-16T15:35:18.879Z</time></trkpt><trkpt lat="44.4260333" lon="9.1322767"><ele>477.75</ele><time>2026-04-16T15:35:19.876Z</time></trkpt><trkpt lat="44.4260717" lon="9.132125"><ele>478.5</ele><time>2026-04-16T15:35:20.878Z</time></trkpt><trkpt lat="44.4261183" lon="9.131975"><ele>479.25</ele><time>2026-04-16T15:35:21.878Z</time></trkpt><trkpt lat="44.42615" lon="9.13182"><ele>480.0</ele><time>2026-04-16T15:35:22.875Z</time></trkpt><trkpt lat="44.4261583" lon="9.1316717"><ele>479.25</ele><time>2026-04-16T15:35:23.873Z</time></trkpt><trkpt lat="44.4261517" lon="9.13151"><ele>478.5</ele><time>2026-04-16T15:35:24.877Z</time></trkpt><trkpt lat="44.4261233" lon="9.131345"><ele>477.75</ele><time>2026-04-16T15:35:25.875Z</time></trkpt><trkpt lat="44.4260667" lon="9.131165"><ele>477.0</ele><time>2026-04-16T15:35:26.878Z</time></trkpt><trkpt lat="44.4260033" lon="9.1310083"><ele>477.0</ele><time>2026-04-16T15:35:27.874Z</time></trkpt><trkpt lat="44.425955" lon="9.1308617"><ele>477.00000000000006</ele><time>2026-04-16T15:35:28.874Z</time></trkpt><trkpt lat="44.4259483" lon="9.1307317"><ele>477.00000000000006</ele><time>2026-04-16T15:35:29.877Z</time></trkpt><trkpt lat="44.42597" lon="9.13061"><ele>477.0</ele><time>2026-04-16T15:35:30.876Z</time></trkpt><trkpt lat="44.426025" lon="9.1304883"><ele>477.0</ele><time>2026-04-16T15:35:31.874Z</time></trkpt><trkpt lat="44.4260933" lon="9.1303633"><ele>475.33333333333337</ele><time>2026-04-16T15:35:32.877Z</time></trkpt><trkpt lat="44.4261817" lon="9.130215"><ele>473.6666666666667</ele><time>2026-04-16T15:35:33.874Z</time></trkpt><trkpt lat="44.4263133" lon="9.13004"><ele>472.0</ele><time>2026-04-16T15:35:34.876Z</time></trkpt><trkpt lat="44.4264333" lon="9.1298883"><ele>472.0</ele><time>2026-04-16T15:35:35.875Z</time></trkpt><trkpt lat="44.4265917" lon="9.1297333"><ele>472.0</ele><time>2026-04-16T15:35:36.876Z</time></trkpt><trkpt lat="44.42678" lon="9.129645"><ele>472.0</ele><time>2026-04-16T15:35:37.876Z</time></trkpt><trkpt lat="44.4268717" lon="9.1295633"><ele>472.0</ele><time>2026-04-16T15:35:38.877Z</time></trkpt><trkpt lat="44.4269083" lon="9.1294633"><ele>472.00000000000006</ele><time>2026-04-16T15:35:39.877Z</time></trkpt><trkpt lat="44.4269267" lon="9.1293517"><ele>472.00000000000006</ele><time>2026-04-16T15:35:40.875Z</time></trkpt><trkpt lat="44.42692" lon="9.1292083"><ele>472.0</ele><time>2026-04-16T15:35:41.876Z</time></trkpt><trkpt lat="44.4269033" lon="9.1290617"><ele>472.0</ele><time>2026-04-16T15:35:42.87Z</time></trkpt><trkpt lat="44.426875" lon="9.128895"><ele>474.20000000000005</ele><time>2026-04-16T15:35:43.877Z</time></trkpt><trkpt lat="44.4268833" lon="9.1287467"><ele>476.40000000000003</ele><time>2026-04-16T15:35:44.877Z</time></trkpt><trkpt lat="44.42689" lon="9.128605"><ele>478.59999999999997</ele><time>2026-04-16T15:35:45.876Z</time></trkpt><trkpt lat="44.4269333" lon="9.1284783"><ele>480.79999999999995</ele><time>2026-04-16T15:35:46.877Z</time></trkpt><trkpt lat="44.4270083" lon="9.128355"><ele>483.0</ele><time>2026-04-16T15:35:47.874Z</time></trkpt><trkpt lat="44.42711" lon="9.1282117"><ele>478.79999999999995</ele><time>2026-04-16T15:35:48.877Z</time></trkpt><trkpt lat="44.4271983" lon="9.1280483"><ele>474.59999999999997</ele><time>2026-04-16T15:35:49.876Z</time></trkpt><trkpt lat="44.42727" lon="9.127925"><ele>470.40000000000003</ele><time>2026-04-16T15:35:50.876Z</time></trkpt><trkpt lat="44.42731" lon="9.1278283"><ele>466.20000000000005</ele><time>2026-04-16T15:35:51.875Z</time></trkpt><trkpt lat="44.4273167" lon="9.127725"><ele>462.0</ele><time>2026-04-16T15:35:52.875Z</time></trkpt><trkpt lat="44.4273133" lon="9.127625"><ele>462.0</ele><time>2026-04-16T15:35:53.876Z</time></trkpt><trkpt lat="44.42732" lon="9.1275167"><ele>462.00000000000006</ele><time>2026-04-16T15:35:54.876Z</time></trkpt><trkpt lat="44.4273567" lon="9.1274283"><ele>462.00000000000006</ele><time>2026-04-16T15:35:55.873Z</time></trkpt><trkpt lat="44.4274133" lon="9.1273617"><ele>462.0</ele><time>2026-04-16T15:35:56.877Z</time></trkpt><trkpt lat="44.4275067" lon="9.1273117"><ele>462.0</ele><time>2026-04-16T15:35:57.876Z</time></trkpt><trkpt lat="44.4276367" lon="9.1273033"><ele>465.0</ele><time>2026-04-16T15:35:58.876Z</time></trkpt><trkpt lat="44.4277467" lon="9.1272667"><ele>468.0</ele><time>2026-04-16T15:35:59.876Z</time></trkpt><trkpt lat="44.42783" lon="9.127215"><ele>471.0</ele><time>2026-04-16T15:36:00.873Z</time></trkpt><trkpt lat="44.42791" lon="9.1271817"><ele>474.0</ele><time>2026-04-16T15:36:01.876Z</time></trkpt><trkpt lat="44.4279783" lon="9.12716"><ele>477.0</ele><time>2026-04-16T15:36:02.876Z</time></trkpt><trkpt lat="44.4280267" lon="9.1272233"><ele>480.0</ele><time>2026-04-16T15:36:03.877Z</time></trkpt><trkpt lat="44.4280633" lon="9.127305"><ele>476.2</ele><time>2026-04-16T15:36:04.872Z</time></trkpt><trkpt lat="44.4281117" lon="9.1275117"><ele>472.4</ele><time>2026-04-16T15:36:06.875Z</time></trkpt><trkpt lat="44.4281067" lon="9.1276533"><ele>468.6</ele><time>2026-04-16T15:36:07.874Z</time></trkpt><trkpt lat="44.4281033" lon="9.127785"><ele>464.8</ele><time>2026-04-16T15:36:08.875Z</time></trkpt><trkpt lat="44.4281233" lon="9.1278917"><ele>461.0</ele><time>2026-04-16T15:36:09.874Z</time></trkpt><trkpt lat="44.42816" lon="9.12799"><ele>460.99999999999994</ele><time>2026-04-16T15:36:10.876Z</time></trkpt><trkpt lat="44.4281917" lon="9.1280867"><ele>461.0</ele><time>2026-04-16T15:36:11.874Z</time></trkpt><trkpt lat="44.4282233" lon="9.128185"><ele>461.0</ele><time>2026-04-16T15:36:12.874Z</time></trkpt><trkpt lat="44.428265" lon="9.1283"><ele>461.0</ele><time>2026-04-16T15:36:13.876Z</time></trkpt><trkpt lat="44.4282933" lon="9.128405"><ele>460.99999999999994</ele><time>2026-04-16T15:36:14.876Z</time></trkpt><trkpt lat="44.4283317" lon="9.1284983"><ele>461.0</ele><time>2026-04-16T15:36:15.876Z</time></trkpt><trkpt lat="44.428385" lon="9.12858"><ele>458.49999999999994</ele><time>2026-04-16T15:36:16.873Z</time></trkpt><trkpt lat="44.4284433" lon="9.1286617"><ele>456.0</ele><time>2026-04-16T15:36:17.875Z</time></trkpt><trkpt lat="44.4285067" lon="9.1287367"><ele>453.5</ele><time>2026-04-16T15:36:18.874Z</time></trkpt><trkpt lat="44.4285767" lon="9.1287933"><ele>451.0</ele><time>2026-04-16T15:36:19.875Z</time></trkpt><trkpt lat="44.4286583" lon="9.1288717"><ele>448.49999999999994</ele><time>2026-04-16T15:36:20.876Z</time></trkpt><trkpt lat="44.4287317" lon="9.1289483"><ele>446.0</ele><time>2026-04-16T15:36:21.875Z</time></trkpt><trkpt lat="44.42877" lon="9.1290517"><ele>446.66666666666663</ele><time>2026-04-16T15:36:22.872Z</time></trkpt><trkpt lat="44.4287783" lon="9.12919"><ele>447.3333333333333</ele><time>2026-04-16T15:36:23.876Z</time></trkpt><trkpt lat="44.4287733" lon="9.1293283"><ele>448.0</ele><time>2026-04-16T15:36:24.877Z</time></trkpt><trkpt lat="44.4287817" lon="9.1294433"><ele>448.66666666666663</ele><time>2026-04-16T15:36:25.875Z</time></trkpt><trkpt lat="44.4288133" lon="9.129545"><ele>449.3333333333333</ele><time>2026-04-16T15:36:26.876Z</time></trkpt><trkpt lat="44.4288917" lon="9.129585"><ele>450.0</ele><time>2026-04-16T15:36:27.874Z</time></trkpt><trkpt lat="44.42897" lon="9.129585"><ele>450.0</ele><time>2026-04-16T15:36:28.874Z</time></trkpt><trkpt lat="44.4290683" lon="9.1295583"><ele>450.0</ele><time>2026-04-16T15:36:29.876Z</time></trkpt><trkpt lat="44.4291683" lon="9.1295683"><ele>450.0</ele><time>2026-04-16T15:36:30.874Z</time></trkpt><trkpt lat="44.4292567" lon="9.129605"><ele>450.0</ele><time>2026-04-16T15:36:31.873Z</time></trkpt><trkpt lat="44.429335" lon="9.1296567"><ele>450.0</ele><time>2026-04-16T15:36:32.876Z</time></trkpt><trkpt lat="44.4294167" lon="9.1297567"><ele>450.0</ele><time>2026-04-16T15:36:34.874Z</time></trkpt><trkpt lat="44.4294317" lon="9.1298917"><ele>450.0</ele><time>2026-04-16T15:36:35.875Z</time></trkpt><trkpt lat="44.4294617" lon="9.130035"><ele>450.0</ele><time>2026-04-16T15:36:36.875Z</time></trkpt><trkpt lat="44.4295083" lon="9.13015"><ele>450.0</ele><time>2026-04-16T15:36:37.872Z</time></trkpt><trkpt lat="44.4295783" lon="9.1302683"><ele>450.0</ele><time>2026-04-16T15:36:38.876Z</time></trkpt><trkpt lat="44.4296633" lon="9.130395"><ele>451.0</ele><time>2026-04-16T15:36:39.874Z</time></trkpt><trkpt lat="44.4297583" lon="9.1305033"><ele>452.0</ele><time>2026-04-16T15:36:40.873Z</time></trkpt><trkpt lat="44.429885" lon="9.1305783"><ele>453.0</ele><time>2026-04-16T15:36:41.877Z</time></trkpt><trkpt lat="44.4300017" lon="9.1306617"><ele>454.0</ele><time>2026-04-16T15:36:42.873Z</time></trkpt><trkpt lat="44.430105" lon="9.13074"><ele>447.4</ele><time>2026-04-16T15:36:43.87Z</time></trkpt><trkpt lat="44.4301533" lon="9.1308333"><ele>440.79999999999995</ele><time>2026-04-16T15:36:44.876Z</time></trkpt><trkpt lat="44.430185" lon="9.1309483"><ele>434.20000000000005</ele><time>2026-04-16T15:36:45.874Z</time></trkpt><trkpt lat="44.4302367" lon="9.1310683"><ele>427.6</ele><time>2026-04-16T15:36:46.874Z</time></trkpt><trkpt lat="44.4303133" lon="9.13117"><ele>421.0</ele><time>2026-04-16T15:36:47.874Z</time></trkpt><trkpt lat="44.430385" lon="9.1312767"><ele>421.0</ele><time>2026-04-16T15:36:48.875Z</time></trkpt><trkpt lat="44.4304567" lon="9.13139"><ele>421.0</ele><time>2026-04-16T15:36:49.874Z</time></trkpt><trkpt lat="44.4305467" lon="9.131495"><ele>421.0</ele><time>2026-04-16T15:36:50.876Z</time></trkpt><trkpt lat="44.4306633" lon="9.1315983"><ele>421.0</ele><time>2026-04-16T15:36:51.875Z</time></trkpt><trkpt lat="44.4307867" lon="9.131715"><ele>420.75</ele><time>2026-04-16T15:36:52.875Z</time></trkpt><trkpt lat="44.4309033" lon="9.1318317"><ele>420.5</ele><time>2026-04-16T15:36:53.874Z</time></trkpt><trkpt lat="44.431" lon="9.1319617"><ele>420.25</ele><time>2026-04-16T15:36:54.874Z</time></trkpt><trkpt lat="44.4310667" lon="9.1320917"><ele>420.0</ele><time>2026-04-16T15:36:55.873Z</time></trkpt><trkpt lat="44.4311133" lon="9.1322083"><ele>420.0</ele><time>2026-04-16T15:36:56.877Z</time></trkpt><trkpt lat="44.431155" lon="9.1323117"><ele>420.0</ele><time>2026-04-16T15:36:57.875Z</time></trkpt><trkpt lat="44.4312033" lon="9.13239"><ele>420.0</ele><time>2026-04-16T15:36:58.874Z</time></trkpt><trkpt lat="44.4312983" lon="9.132465"><ele>420.0</ele><time>2026-04-16T15:36:59.874Z</time></trkpt><trkpt lat="44.4313967" lon="9.1324967"><ele>420.0</ele><time>2026-04-16T15:37:00.875Z</time></trkpt><trkpt lat="44.4315167" lon="9.1325167"><ele>418.8</ele><time>2026-04-16T15:37:01.873Z</time></trkpt><trkpt lat="44.4316233" lon="9.13257"><ele>417.6</ele><time>2026-04-16T15:37:02.876Z</time></trkpt><trkpt lat="44.4317217" lon="9.1326217"><ele>416.4</ele><time>2026-04-16T15:37:03.875Z</time></trkpt><trkpt lat="44.4317867" lon="9.1326717"><ele>415.2</ele><time>2026-04-16T15:37:04.874Z</time></trkpt><trkpt lat="44.4318367" lon="9.1327267"><ele>414.0</ele><time>2026-04-16T15:37:05.873Z</time></trkpt><trkpt lat="44.43194" lon="9.132825"><ele>414.0</ele><time>2026-04-16T15:37:07.874Z</time></trkpt><trkpt lat="44.432015" lon="9.13285"><ele>414.0</ele><time>2026-04-16T15:37:08.878Z</time></trkpt><trkpt lat="44.43211" lon="9.13286"><ele>414.0</ele><time>2026-04-16T15:37:09.874Z</time></trkpt><trkpt lat="44.4322017" lon="9.132865"><ele>414.0</ele><time>2026-04-16T15:37:10.872Z</time></trkpt><trkpt lat="44.43228" lon="9.1328483"><ele>414.0</ele><time>2026-04-16T15:37:11.871Z</time></trkpt><trkpt lat="44.4323467" lon="9.1328267"><ele>414.0</ele><time>2026-04-16T15:37:12.875Z</time></trkpt><trkpt lat="44.432455" lon="9.1327683"><ele>414.8333333333333</ele><time>2026-04-16T15:37:14.876Z</time></trkpt><trkpt lat="44.4324967" lon="9.1326817"><ele>415.66666666666663</ele><time>2026-04-16T15:37:16.875Z</time></trkpt><trkpt lat="44.4324883" lon="9.1325867"><ele>416.5</ele><time>2026-04-16T15:37:18.875Z</time></trkpt><trkpt lat="44.4324517" lon="9.13246"><ele>417.3333333333333</ele><time>2026-04-16T15:37:20.877Z</time></trkpt><trkpt lat="44.4324017" lon="9.1323233"><ele>418.16666666666663</ele><time>2026-04-16T15:37:22.871Z</time></trkpt><trkpt lat="44.43235" lon="9.132265"><ele>419.0</ele><time>2026-04-16T15:37:23.874Z</time></trkpt><trkpt lat="44.4322783" lon="9.1322083"><ele>419.66666666666663</ele><time>2026-04-16T15:37:24.876Z</time></trkpt><trkpt lat="44.432195" lon="9.1321517"><ele>420.3333333333333</ele><time>2026-04-16T15:37:25.874Z</time></trkpt><trkpt lat="44.43211" lon="9.1320917"><ele>421.0</ele><time>2026-04-16T15:37:26.875Z</time></trkpt><trkpt lat="44.432045" lon="9.1320283"><ele>421.66666666666663</ele><time>2026-04-16T15:37:27.873Z</time></trkpt><trkpt lat="44.4319917" lon="9.1319667"><ele>422.3333333333333</ele><time>2026-04-16T15:37:28.873Z</time></trkpt><trkpt lat="44.431945" lon="9.131895"><ele>423.0</ele><time>2026-04-16T15:37:29.873Z</time></trkpt><trkpt lat="44.4318917" lon="9.13182"><ele>423.0</ele><time>2026-04-16T15:37:30.876Z</time></trkpt><trkpt lat="44.431825" lon="9.1317267"><ele>423.0</ele><time>2026-04-16T15:37:31.873Z</time></trkpt><trkpt lat="44.43176" lon="9.13162"><ele>423.0</ele><time>2026-04-16T15:37:32.875Z</time></trkpt><trkpt lat="44.4317083" lon="9.13151"><ele>423.0</ele><time>2026-04-16T15:37:33.874Z</time></trkpt><trkpt lat="44.43167" lon="9.1314067"><ele>423.0</ele><time>2026-04-16T15:37:34.875Z</time></trkpt><trkpt lat="44.4316467" lon="9.1313083"><ele>423.0</ele><time>2026-04-16T15:37:35.875Z</time></trkpt><trkpt lat="44.4316133" lon="9.1311983"><ele>423.3333333333333</ele><time>2026-04-16T15:37:36.876Z</time></trkpt><trkpt lat="44.4315883" lon="9.1310817"><ele>423.66666666666663</ele><time>2026-04-16T15:37:37.876Z</time></trkpt><trkpt lat="44.4315567" lon="9.1309633"><ele>424.0</ele><time>2026-04-16T15:37:38.878Z</time></trkpt><trkpt lat="44.4315317" lon="9.1308533"><ele>424.3333333333333</ele><time>2026-04-16T15:37:39.877Z</time></trkpt><trkpt lat="44.4315167" lon="9.1307533"><ele>424.66666666666663</ele><time>2026-04-16T15:37:40.875Z</time></trkpt><trkpt lat="44.4315033" lon="9.1306533"><ele>425.0</ele><time>2026-04-16T15:37:41.876Z</time></trkpt><trkpt lat="44.43147" lon="9.1305467"><ele>425.0</ele><time>2026-04-16T15:37:42.877Z</time></trkpt><trkpt lat="44.43143" lon="9.1304417"><ele>425.0</ele><time>2026-04-16T15:37:43.875Z</time></trkpt><trkpt lat="44.4313767" lon="9.1303483"><ele>425.0</ele><time>2026-04-16T15:37:44.876Z</time></trkpt><trkpt lat="44.4313317" lon="9.1302783"><ele>425.0</ele><time>2026-04-16T15:37:45.874Z</time></trkpt><trkpt lat="44.4312617" lon="9.1301583"><ele>425.0</ele><time>2026-04-16T15:37:47.873Z</time></trkpt><trkpt lat="44.4311967" lon="9.1300317"><ele>432.0</ele><time>2026-04-16T15:37:49.874Z</time></trkpt><trkpt lat="44.43116" lon="9.12988"><ele>439.0</ele><time>2026-04-16T15:37:51.874Z</time></trkpt><trkpt lat="44.4311417" lon="9.1297933"><ele>446.0</ele><time>2026-04-16T15:37:52.875Z</time></trkpt><trkpt lat="44.4310933" lon="9.129655"><ele>453.0</ele><time>2026-04-16T15:37:54.874Z</time></trkpt><trkpt lat="44.4309967" lon="9.1295167"><ele>460.0</ele><time>2026-04-16T15:37:56.876Z</time></trkpt><trkpt lat="44.430925" lon="9.1294133"><ele>460.00000000000006</ele><time>2026-04-16T15:37:57.874Z</time></trkpt><trkpt lat="44.430865" lon="9.129305"><ele>460.0</ele><time>2026-04-16T15:37:58.874Z</time></trkpt><trkpt lat="44.4308333" lon="9.1292017"><ele>460.0</ele><time>2026-04-16T15:37:59.876Z</time></trkpt><trkpt lat="44.4308333" lon="9.1290883"><ele>460.0</ele><time>2026-04-16T15:38:00.874Z</time></trkpt><trkpt lat="44.4308533" lon="9.128985"><ele>460.00000000000006</ele><time>2026-04-16T15:38:01.874Z</time></trkpt><trkpt lat="44.4308717" lon="9.12888"><ele>460.0</ele><time>2026-04-16T15:38:02.879Z</time></trkpt><trkpt lat="44.43086" lon="9.1287067"><ele>459.50000000000006</ele><time>2026-04-16T15:38:04.874Z</time></trkpt><trkpt lat="44.4308367" lon="9.12861"><ele>459.0</ele><time>2026-04-16T15:38:05.875Z</time></trkpt><trkpt lat="44.4308167" lon="9.128515"><ele>458.5</ele><time>2026-04-16T15:38:06.875Z</time></trkpt><trkpt lat="44.4307917" lon="9.128415"><ele>458.0</ele><time>2026-04-16T15:38:07.874Z</time></trkpt><trkpt lat="44.4307617" lon="9.128295"><ele>457.50000000000006</ele><time>2026-04-16T15:38:08.877Z</time></trkpt><trkpt lat="44.4307217" lon="9.1281683"><ele>457.0</ele><time>2026-04-16T15:38:09.874Z</time></trkpt><trkpt lat="44.43068" lon="9.1280533"><ele>458.1666666666667</ele><time>2026-04-16T15:38:10.875Z</time></trkpt><trkpt lat="44.43064" lon="9.1279333"><ele>459.33333333333337</ele><time>2026-04-16T15:38:11.874Z</time></trkpt><trkpt lat="44.430605" lon="9.1277983"><ele>460.5</ele><time>2026-04-16T15:38:12.874Z</time></trkpt><trkpt lat="44.4305667" lon="9.1276617"><ele>461.66666666666663</ele><time>2026-04-16T15:38:13.874Z</time></trkpt><trkpt lat="44.430505" lon="9.1275867"><ele>462.8333333333333</ele><time>2026-04-16T15:38:14.876Z</time></trkpt><trkpt lat="44.43046" lon="9.1275233"><ele>464.0</ele><time>2026-04-16T15:38:15.874Z</time></trkpt><trkpt lat="44.43041" lon="9.1274667"><ele>467.16666666666663</ele><time>2026-04-16T15:38:16.874Z</time></trkpt><trkpt lat="44.4303567" lon="9.1273983"><ele>470.3333333333333</ele><time>2026-04-16T15:38:17.874Z</time></trkpt><trkpt lat="44.4303033" lon="9.1273233"><ele>473.5</ele><time>2026-04-16T15:38:18.874Z</time></trkpt><trkpt lat="44.430245" lon="9.1272417"><ele>476.66666666666663</ele><time>2026-04-16T15:38:19.875Z</time></trkpt><trkpt lat="44.430195" lon="9.1271567"><ele>479.8333333333333</ele><time>2026-04-16T15:38:20.876Z</time></trkpt><trkpt lat="44.4301333" lon="9.1270617"><ele>483.0</ele><time>2026-04-16T15:38:21.876Z</time></trkpt><trkpt lat="44.4300833" lon="9.126955"><ele>483.0</ele><time>2026-04-16T15:38:22.873Z</time></trkpt><trkpt lat="44.430045" lon="9.1268583"><ele>483.0</ele><time>2026-04-16T15:38:23.874Z</time></trkpt><trkpt lat="44.4300183" lon="9.126775"><ele>483.0</ele><time>2026-04-16T15:38:24.874Z</time></trkpt><trkpt lat="44.4299833" lon="9.1266533"><ele>483.0</ele><time>2026-04-16T15:38:26.876Z</time></trkpt><trkpt lat="44.4299283" lon="9.1265783"><ele>483.0</ele><time>2026-04-16T15:38:28.874Z</time></trkpt><trkpt lat="44.42986" lon="9.1264967"><ele>483.0</ele><time>2026-04-16T15:38:30.878Z</time></trkpt><trkpt lat="44.4297767" lon="9.1264267"><ele>483.1428571428571</ele><time>2026-04-16T15:38:32.879Z</time></trkpt><trkpt lat="44.4297267" lon="9.1263717"><ele>483.2857142857143</ele><time>2026-04-16T15:38:34.874Z</time></trkpt><trkpt lat="44.42969" lon="9.1262917"><ele>483.42857142857144</ele><time>2026-04-16T15:38:37.876Z</time></trkpt><trkpt lat="44.4296467" lon="9.1262117"><ele>483.57142857142856</ele><time>2026-04-16T15:39:18.875Z</time></trkpt><trkpt lat="44.429575" lon="9.1261717"><ele>483.71428571428567</ele><time>2026-04-16T15:39:29.876Z</time></trkpt><trkpt lat="44.4295183" lon="9.1261233"><ele>483.85714285714283</ele><time>2026-04-16T15:39:33.877Z</time></trkpt><trkpt lat="44.4294733" lon="9.1260533"><ele>484.0</ele><time>2026-04-16T15:39:43.875Z</time></trkpt><trkpt lat="44.42946" lon="9.125965"><ele>487.83333333333337</ele><time>2026-04-16T15:39:48.876Z</time></trkpt><trkpt lat="44.4293867" lon="9.125825"><ele>491.6666666666667</ele><time>2026-04-16T15:40:01.876Z</time></trkpt><trkpt lat="44.4293667" lon="9.12574"><ele>495.5</ele><time>2026-04-16T15:40:05.879Z</time></trkpt><trkpt lat="44.4293167" lon="9.1256033"><ele>499.33333333333337</ele><time>2026-04-16T15:40:30.874Z</time></trkpt><trkpt lat="44.4293" lon="9.1255083"><ele>503.1666666666667</ele><time>2026-04-16T15:40:34.875Z</time></trkpt><trkpt lat="44.4292667" lon="9.1254267"><ele>507.0</ele><time>2026-04-16T15:40:38.873Z</time></trkpt><trkpt lat="44.42924" lon="9.125345"><ele>508.6666666666667</ele><time>2026-04-16T15:40:45.875Z</time></trkpt><trkpt lat="44.4293083" lon="9.12527"><ele>510.33333333333337</ele><time>2026-04-16T15:41:05.878Z</time></trkpt><trkpt lat="44.4293433" lon="9.125165"><ele>512.0</ele><time>2026-04-16T15:41:11.876Z</time></trkpt><trkpt lat="44.4293517" lon="9.1250767"><ele>513.6666666666667</ele><time>2026-04-16T15:41:15.875Z</time></trkpt><trkpt lat="44.4293367" lon="9.1249717"><ele>515.3333333333334</ele><time>2026-04-16T15:41:23.876Z</time></trkpt><trkpt lat="44.4293067" lon="9.1248717"><ele>517.0</ele><time>2026-04-16T15:41:30.876Z</time></trkpt><trkpt lat="44.4292617" lon="9.1248067"><ele>519.3333333333334</ele><time>2026-04-16T15:41:33.877Z</time></trkpt><trkpt lat="44.429215" lon="9.1247033"><ele>521.6666666666667</ele><time>2026-04-16T15:41:36.874Z</time></trkpt><trkpt lat="44.4291683" lon="9.1245917"><ele>524.0</ele><time>2026-04-16T15:41:39.875Z</time></trkpt><trkpt lat="44.42914" lon="9.1244867"><ele>526.3333333333334</ele><time>2026-04-16T15:41:42.876Z</time></trkpt><trkpt lat="44.4291217" lon="9.1244017"><ele>528.6666666666666</ele><time>2026-04-16T15:41:44.875Z</time></trkpt><trkpt lat="44.429095" lon="9.1243017"><ele>531.0</ele><time>2026-04-16T15:41:47.877Z</time></trkpt><trkpt lat="44.4290717" lon="9.1241833"><ele>531.0</ele><time>2026-04-16T15:41:50.877Z</time></trkpt><trkpt lat="44.4290033" lon="9.124105"><ele>531.0</ele><time>2026-04-16T15:41:53.878Z</time></trkpt><trkpt lat="44.4289233" lon="9.1240667"><ele>531.0</ele><time>2026-04-16T15:41:56.879Z</time></trkpt><trkpt lat="44.4288483" lon="9.124095"><ele>531.0</ele><time>2026-04-16T15:41:59.877Z</time></trkpt><trkpt lat="44.4287733" lon="9.12413"><ele>531.0</ele><time>2026-04-16T15:42:01.877Z</time></trkpt><trkpt lat="44.428695" lon="9.1241633"><ele>531.0</ele><time>2026-04-16T15:42:03.876Z</time></trkpt><trkpt lat="44.4286267" lon="9.1241767"><ele>534.0</ele><time>2026-04-16T15:42:05.878Z</time></trkpt><trkpt lat="44.4285617" lon="9.1241567"><ele>537.0</ele><time>2026-04-16T15:42:07.877Z</time></trkpt><trkpt lat="44.4284867" lon="9.1241183"><ele>540.0</ele><time>2026-04-16T15:42:09.874Z</time></trkpt><trkpt lat="44.4284133" lon="9.12407"><ele>543.0</ele><time>2026-04-16T15:42:11.876Z</time></trkpt><trkpt lat="44.4284033" lon="9.12398"><ele>546.0</ele><time>2026-04-16T15:42:15.876Z</time></trkpt><trkpt lat="44.42846" lon="9.1238983"><ele>549.0</ele><time>2026-04-16T15:42:17.875Z</time></trkpt><trkpt lat="44.42851" lon="9.123805"><ele>550.2</ele><time>2026-04-16T15:42:19.874Z</time></trkpt><trkpt lat="44.428535" lon="9.1236783"><ele>551.4</ele><time>2026-04-16T15:42:21.875Z</time></trkpt><trkpt lat="44.4285433" lon="9.123555"><ele>552.6</ele><time>2026-04-16T15:42:23.876Z</time></trkpt><trkpt lat="44.4285033" lon="9.123435"><ele>553.8</ele><time>2026-04-16T15:42:25.874Z</time></trkpt><trkpt lat="44.4284517" lon="9.1233283"><ele>555.0</ele><time>2026-04-16T15:42:27.876Z</time></trkpt><trkpt lat="44.42839" lon="9.1232267"><ele>555.0</ele><time>2026-04-16T15:42:29.876Z</time></trkpt><trkpt lat="44.42832" lon="9.123145"><ele>555.0</ele><time>2026-04-16T15:42:31.875Z</time></trkpt><trkpt lat="44.4282133" lon="9.123035"><ele>555.0</ele><time>2026-04-16T15:42:33.875Z</time></trkpt><trkpt lat="44.4281483" lon="9.1229733"><ele>555.0</ele><time>2026-04-16T15:42:34.876Z</time></trkpt><trkpt lat="44.4280817" lon="9.1229233"><ele>555.0</ele><time>2026-04-16T15:42:35.875Z</time></trkpt><trkpt lat="44.4280033" lon="9.1228867"><ele>559.75</ele><time>2026-04-16T15:42:36.878Z</time></trkpt><trkpt lat="44.4278833" lon="9.1228467"><ele>564.5</ele><time>2026-04-16T15:42:37.877Z</time></trkpt><trkpt lat="44.4277233" lon="9.1227767"><ele>569.25</ele><time>2026-04-16T15:42:38.879Z</time></trkpt><trkpt lat="44.4276183" lon="9.1227367"><ele>574.0</ele><time>2026-04-16T15:42:39.876Z</time></trkpt><trkpt lat="44.42752" lon="9.1226767"><ele>574.0</ele><time>2026-04-16T15:42:40.876Z</time></trkpt><trkpt lat="44.4274333" lon="9.122605"><ele>574.0</ele><time>2026-04-16T15:42:41.874Z</time></trkpt><trkpt lat="44.4273467" lon="9.1225233"><ele>574.0</ele><time>2026-04-16T15:42:42.877Z</time></trkpt><trkpt lat="44.427255" lon="9.122425"><ele>574.0</ele><time>2026-04-16T15:42:43.875Z</time></trkpt><trkpt lat="44.427155" lon="9.12232"><ele>574.0</ele><time>2026-04-16T15:42:44.879Z</time></trkpt><trkpt lat="44.4270433" lon="9.1222017"><ele>575.0</ele><time>2026-04-16T15:42:45.876Z</time></trkpt><trkpt lat="44.4269117" lon="9.122065"><ele>576.0</ele><time>2026-04-16T15:42:46.875Z</time></trkpt><trkpt lat="44.4268117" lon="9.1219283"><ele>577.0</ele><time>2026-04-16T15:42:47.874Z</time></trkpt><trkpt lat="44.4267133" lon="9.1217917"><ele>578.0</ele><time>2026-04-16T15:42:48.875Z</time></trkpt><trkpt lat="44.4266233" lon="9.1216517"><ele>577.75</ele><time>2026-04-16T15:42:49.877Z</time></trkpt><trkpt lat="44.4265233" lon="9.1215267"><ele>577.5</ele><time>2026-04-16T15:42:50.876Z</time></trkpt><trkpt lat="44.4264233" lon="9.12141"><ele>577.25</ele><time>2026-04-16T15:42:51.876Z</time></trkpt><trkpt lat="44.426325" lon="9.12129"><ele>577.0</ele><time>2026-04-16T15:42:52.875Z</time></trkpt><trkpt lat="44.4262317" lon="9.1211767"><ele>577.4</ele><time>2026-04-16T15:42:53.875Z</time></trkpt><trkpt lat="44.4261433" lon="9.1210617"><ele>577.8000000000001</ele><time>2026-04-16T15:42:54.877Z</time></trkpt><trkpt lat="44.42607" lon="9.1209483"><ele>578.2</ele><time>2026-04-16T15:42:55.876Z</time></trkpt><trkpt lat="44.4260217" lon="9.1208333"><ele>578.6</ele><time>2026-04-16T15:42:56.877Z</time></trkpt><trkpt lat="44.42599" lon="9.1207317"><ele>579.0</ele><time>2026-04-16T15:42:57.874Z</time></trkpt><trkpt lat="44.425935" lon="9.1205917"><ele>579.0</ele><time>2026-04-16T15:42:59.876Z</time></trkpt><trkpt lat="44.4258167" lon="9.1205833"><ele>579.0</ele><time>2026-04-16T15:43:01.879Z</time></trkpt><trkpt lat="44.4257467" lon="9.1206167"><ele>579.0</ele><time>2026-04-16T15:43:02.876Z</time></trkpt><trkpt lat="44.4256617" lon="9.12067"><ele>579.0</ele><time>2026-04-16T15:43:03.876Z</time></trkpt><trkpt lat="44.4255933" lon="9.1207433"><ele>579.0</ele><time>2026-04-16T15:43:04.875Z</time></trkpt><trkpt lat="44.4255267" lon="9.12082"><ele>579.1428571428571</ele><time>2026-04-16T15:43:05.876Z</time></trkpt><trkpt lat="44.42547" lon="9.1208933"><ele>579.2857142857142</ele><time>2026-04-16T15:43:06.877Z</time></trkpt><trkpt lat="44.4254233" lon="9.1209767"><ele>579.4285714285714</ele><time>2026-04-16T15:43:07.876Z</time></trkpt><trkpt lat="44.4253917" lon="9.1210683"><ele>579.5714285714286</ele><time>2026-04-16T15:43:08.875Z</time></trkpt><trkpt lat="44.4253783" lon="9.121165"><ele>579.7142857142858</ele><time>2026-04-16T15:43:09.874Z</time></trkpt><trkpt lat="44.4253967" lon="9.121265"><ele>579.8571428571429</ele><time>2026-04-16T15:43:10.874Z</time></trkpt><trkpt lat="44.4254317" lon="9.12136"><ele>580.0</ele><time>2026-04-16T15:43:11.878Z</time></trkpt><trkpt lat="44.4254967" lon="9.1214283"><ele>580.0</ele><time>2026-04-16T15:43:12.874Z</time></trkpt><trkpt lat="44.425565" lon="9.1214883"><ele>580.0</ele><time>2026-04-16T15:43:13.875Z</time></trkpt><trkpt lat="44.4256267" lon="9.1215683"><ele>580.0</ele><time>2026-04-16T15:43:14.877Z</time></trkpt><trkpt lat="44.42568" lon="9.1216633"><ele>580.0</ele><time>2026-04-16T15:43:15.876Z</time></trkpt><trkpt lat="44.42572" lon="9.1217783"><ele>580.0</ele><time>2026-04-16T15:43:16.875Z</time></trkpt><trkpt lat="44.4257433" lon="9.121905"><ele>580.0</ele><time>2026-04-16T15:43:17.877Z</time></trkpt><trkpt lat="44.4257517" lon="9.1220367"><ele>577.6</ele><time>2026-04-16T15:43:18.876Z</time></trkpt><trkpt lat="44.425755" lon="9.12215"><ele>575.2</ele><time>2026-04-16T15:43:19.875Z</time></trkpt><trkpt lat="44.4257467" lon="9.1222817"><ele>572.8</ele><time>2026-04-16T15:43:21.876Z</time></trkpt><trkpt lat="44.425705" lon="9.122095"><ele>570.4</ele><time>2026-04-16T15:43:25.875Z</time></trkpt><trkpt lat="44.4256633" lon="9.121975"><ele>568.0</ele><time>2026-04-16T15:43:26.876Z</time></trkpt><trkpt lat="44.42561" lon="9.1218783"><ele>568.0</ele><time>2026-04-16T15:43:27.874Z</time></trkpt><trkpt lat="44.4255317" lon="9.1218133"><ele>568.0</ele><time>2026-04-16T15:43:28.874Z</time></trkpt><trkpt lat="44.42542" lon="9.1217683"><ele>568.0</ele><time>2026-04-16T15:43:29.874Z</time></trkpt><trkpt lat="44.4253067" lon="9.1217517"><ele>568.0</ele><time>2026-04-16T15:43:30.875Z</time></trkpt><trkpt lat="44.4252017" lon="9.121735"><ele>568.0</ele><time>2026-04-16T15:43:31.874Z</time></trkpt><trkpt lat="44.4250983" lon="9.1217117"><ele>565.8</ele><time>2026-04-16T15:43:32.876Z</time></trkpt><trkpt lat="44.4250017" lon="9.1216667"><ele>563.5999999999999</ele><time>2026-04-16T15:43:33.875Z</time></trkpt><trkpt lat="44.4249167" lon="9.1215917"><ele>561.4000000000001</ele><time>2026-04-16T15:43:34.875Z</time></trkpt><trkpt lat="44.4248483" lon="9.1214817"><ele>559.2</ele><time>2026-04-16T15:43:35.874Z</time></trkpt><trkpt lat="44.4248067" lon="9.1213517"><ele>557.0</ele><time>2026-04-16T15:43:36.873Z</time></trkpt><trkpt lat="44.4247683" lon="9.1212"><ele>557.0</ele><time>2026-04-16T15:43:37.875Z</time></trkpt><trkpt lat="44.4247133" lon="9.1210483"><ele>557.0</ele><time>2026-04-16T15:43:38.875Z</time></trkpt><trkpt lat="44.4246517" lon="9.1209017"><ele>557.0</ele><time>2026-04-16T15:43:39.875Z</time></trkpt><trkpt lat="44.42459" lon="9.12076"><ele>557.0</ele><time>2026-04-16T15:43:40.873Z</time></trkpt><trkpt lat="44.4245333" lon="9.1206167"><ele>555.0</ele><time>2026-04-16T15:43:41.873Z</time></trkpt><trkpt lat="44.4244767" lon="9.12048"><ele>553.0</ele><time>2026-04-16T15:43:42.873Z</time></trkpt><trkpt lat="44.4244267" lon="9.1203533"><ele>551.0</ele><time>2026-04-16T15:43:43.874Z</time></trkpt><trkpt lat="44.4243783" lon="9.1202283"><ele>549.0</ele><time>2026-04-16T15:43:44.876Z</time></trkpt><trkpt lat="44.4243367" lon="9.1201067"><ele>547.0</ele><time>2026-04-16T15:43:45.873Z</time></trkpt><trkpt lat="44.424295" lon="9.119995"><ele>550.8000000000001</ele><time>2026-04-16T15:43:46.874Z</time></trkpt><trkpt lat="44.424245" lon="9.1198917"><ele>554.6</ele><time>2026-04-16T15:43:47.874Z</time></trkpt><trkpt lat="44.424185" lon="9.1198067"><ele>558.4000000000001</ele><time>2026-04-16T15:43:48.874Z</time></trkpt><trkpt lat="44.4241017" lon="9.1197817"><ele>562.2</ele><time>2026-04-16T15:43:49.874Z</time></trkpt><trkpt lat="44.4240083" lon="9.1197733"><ele>566.0</ele><time>2026-04-16T15:43:50.876Z</time></trkpt><trkpt lat="44.4239067" lon="9.11978"><ele>564.6</ele><time>2026-04-16T15:43:51.885Z</time></trkpt><trkpt lat="44.4237983" lon="9.1197983"><ele>563.2</ele><time>2026-04-16T15:43:52.875Z</time></trkpt><trkpt lat="44.423695" lon="9.1198333"><ele>561.8</ele><time>2026-04-16T15:43:53.876Z</time></trkpt><trkpt lat="44.4235883" lon="9.1198783"><ele>560.4</ele><time>2026-04-16T15:43:54.876Z</time></trkpt><trkpt lat="44.423475" lon="9.1199367"><ele>559.0</ele><time>2026-04-16T15:43:55.878Z</time></trkpt><trkpt lat="44.423375" lon="9.1200017"><ele>556.0</ele><time>2026-04-16T15:43:56.878Z</time></trkpt><trkpt lat="44.4232733" lon="9.12008"><ele>553.0</ele><time>2026-04-16T15:43:57.876Z</time></trkpt><trkpt lat="44.4231767" lon="9.1201583"><ele>550.0</ele><time>2026-04-16T15:43:58.874Z</time></trkpt><trkpt lat="44.423085" lon="9.12024"><ele>547.0</ele><time>2026-04-16T15:43:59.877Z</time></trkpt><trkpt lat="44.422995" lon="9.1203117"><ele>544.0</ele><time>2026-04-16T15:44:00.876Z</time></trkpt><trkpt lat="44.4229133" lon="9.1203567"><ele>543.2</ele><time>2026-04-16T15:44:01.878Z</time></trkpt><trkpt lat="44.4228267" lon="9.1203867"><ele>542.4</ele><time>2026-04-16T15:44:02.876Z</time></trkpt><trkpt lat="44.42274" lon="9.1204033"><ele>541.6</ele><time>2026-04-16T15:44:03.876Z</time></trkpt><trkpt lat="44.42265" lon="9.1204017"><ele>540.8</ele><time>2026-04-16T15:44:04.875Z</time></trkpt><trkpt lat="44.4225583" lon="9.120375"><ele>540.0</ele><time>2026-04-16T15:44:05.876Z</time></trkpt><trkpt lat="44.4224717" lon="9.1203367"><ele>540.0</ele><time>2026-04-16T15:44:06.877Z</time></trkpt><trkpt lat="44.422375" lon="9.1203067"><ele>540.0</ele><time>2026-04-16T15:44:07.877Z</time></trkpt><trkpt lat="44.4222783" lon="9.120305"><ele>540.0</ele><time>2026-04-16T15:44:08.876Z</time></trkpt><trkpt lat="44.422175" lon="9.1203217"><ele>540.0</ele><time>2026-04-16T15:44:09.876Z</time></trkpt><trkpt lat="44.4220767" lon="9.1203483"><ele>540.0</ele><time>2026-04-16T15:44:10.875Z</time></trkpt><trkpt lat="44.4219733" lon="9.1203917"><ele>539.0</ele><time>2026-04-16T15:44:11.876Z</time></trkpt><trkpt lat="44.4218667" lon="9.120405"><ele>538.0</ele><time>2026-04-16T15:44:12.877Z</time></trkpt><trkpt lat="44.421765" lon="9.1203817"><ele>537.0</ele><time>2026-04-16T15:44:13.875Z</time></trkpt><trkpt lat="44.421665" lon="9.1203383"><ele>536.0</ele><time>2026-04-16T15:44:14.876Z</time></trkpt><trkpt lat="44.4215667" lon="9.120295"><ele>535.0</ele><time>2026-04-16T15:44:15.877Z</time></trkpt><trkpt lat="44.4214683" lon="9.1202517"><ele>535.0</ele><time>2026-04-16T15:44:16.874Z</time></trkpt><trkpt lat="44.4213733" lon="9.1202183"><ele>535.0</ele><time>2026-04-16T15:44:17.876Z</time></trkpt><trkpt lat="44.4212767" lon="9.12019"><ele>535.0</ele><time>2026-04-16T15:44:18.876Z</time></trkpt><trkpt lat="44.42118" lon="9.1201717"><ele>535.0</ele><time>2026-04-16T15:44:19.875Z</time></trkpt><trkpt lat="44.42109" lon="9.1201433"><ele>535.0</ele><time>2026-04-16T15:44:20.876Z</time></trkpt><trkpt lat="44.4210017" lon="9.1201033"><ele>532.8</ele><time>2026-04-16T15:44:21.874Z</time></trkpt><trkpt lat="44.420915" lon="9.1200333"><ele>530.6</ele><time>2026-04-16T15:44:22.876Z</time></trkpt><trkpt lat="44.4208367" lon="9.119935"><ele>528.4</ele><time>2026-04-16T15:44:23.875Z</time></trkpt><trkpt lat="44.4207733" lon="9.1198167"><ele>526.2</ele><time>2026-04-16T15:44:24.876Z</time></trkpt><trkpt lat="44.42071" lon="9.1196967"><ele>524.0</ele><time>2026-04-16T15:44:25.875Z</time></trkpt><trkpt lat="44.4206433" lon="9.1195817"><ele>523.5</ele><time>2026-04-16T15:44:26.875Z</time></trkpt><trkpt lat="44.4205683" lon="9.11948"><ele>523.0</ele><time>2026-04-16T15:44:27.875Z</time></trkpt><trkpt lat="44.4204867" lon="9.1193983"><ele>522.5</ele><time>2026-04-16T15:44:28.875Z</time></trkpt><trkpt lat="44.420415" lon="9.11933"><ele>522.0</ele><time>2026-04-16T15:44:29.875Z</time></trkpt><trkpt lat="44.4203517" lon="9.1192733"><ele>521.5</ele><time>2026-04-16T15:44:30.877Z</time></trkpt><trkpt lat="44.4203" lon="9.11922"><ele>521.0</ele><time>2026-04-16T15:44:31.876Z</time></trkpt><trkpt lat="44.42025" lon="9.119155"><ele>521.0</ele><time>2026-04-16T15:44:32.877Z</time></trkpt><trkpt lat="44.4202017" lon="9.1190767"><ele>521.0</ele><time>2026-04-16T15:44:33.874Z</time></trkpt><trkpt lat="44.4201517" lon="9.1189833"><ele>521.0</ele><time>2026-04-16T15:44:34.873Z</time></trkpt><trkpt lat="44.4200983" lon="9.1188883"><ele>521.0</ele><time>2026-04-16T15:44:35.876Z</time></trkpt><trkpt lat="44.420035" lon="9.1188083"><ele>521.0</ele><time>2026-04-16T15:44:36.876Z</time></trkpt><trkpt lat="44.419955" lon="9.11875"><ele>521.0</ele><time>2026-04-16T15:44:37.874Z</time></trkpt><trkpt lat="44.4198667" lon="9.1187317"><ele>523.2</ele><time>2026-04-16T15:44:38.878Z</time></trkpt><trkpt lat="44.419775" lon="9.1187317"><ele>525.4000000000001</ele><time>2026-04-16T15:44:39.875Z</time></trkpt><trkpt lat="44.4196817" lon="9.1187533"><ele>527.6</ele><time>2026-04-16T15:44:40.875Z</time></trkpt><trkpt lat="44.419595" lon="9.1187967"><ele>529.8000000000001</ele><time>2026-04-16T15:44:41.875Z</time></trkpt><trkpt lat="44.41951" lon="9.11884"><ele>532.0</ele><time>2026-04-16T15:44:42.872Z</time></trkpt><trkpt lat="44.4194267" lon="9.1188833"><ele>532.0</ele><time>2026-04-16T15:44:43.875Z</time></trkpt><trkpt lat="44.41935" lon="9.1189217"><ele>532.0</ele><time>2026-04-16T15:44:44.878Z</time></trkpt><trkpt lat="44.4192683" lon="9.1189617"><ele>532.0</ele><time>2026-04-16T15:44:45.875Z</time></trkpt><trkpt lat="44.4191933" lon="9.118985"><ele>532.0</ele><time>2026-04-16T15:44:46.873Z</time></trkpt><trkpt lat="44.4191083" lon="9.1189917"><ele>532.0</ele><time>2026-04-16T15:44:47.874Z</time></trkpt><trkpt lat="44.41902" lon="9.1189833"><ele>532.0</ele><time>2026-04-16T15:44:48.877Z</time></trkpt><trkpt lat="44.418925" lon="9.1189767"><ele>532.0</ele><time>2026-04-16T15:44:49.875Z</time></trkpt><trkpt lat="44.418835" lon="9.118955"><ele>532.0</ele><time>2026-04-16T15:44:50.876Z</time></trkpt><trkpt lat="44.418755" lon="9.1189183"><ele>532.0</ele><time>2026-04-16T15:44:51.873Z</time></trkpt><trkpt lat="44.4186733" lon="9.118865"><ele>532.0</ele><time>2026-04-16T15:44:52.874Z</time></trkpt><trkpt lat="44.4185867" lon="9.1187933"><ele>532.0</ele><time>2026-04-16T15:44:53.873Z</time></trkpt><trkpt lat="44.4185017" lon="9.1187283"><ele>528.6</ele><time>2026-04-16T15:44:54.875Z</time></trkpt><trkpt lat="44.41842" lon="9.1186667"><ele>525.2</ele><time>2026-04-16T15:44:55.874Z</time></trkpt><trkpt lat="44.418345" lon="9.118605"><ele>521.8</ele><time>2026-04-16T15:44:56.876Z</time></trkpt><trkpt lat="44.41826" lon="9.118545"><ele>518.4</ele><time>2026-04-16T15:44:57.872Z</time></trkpt><trkpt lat="44.41817" lon="9.118485"><ele>515.0</ele><time>2026-04-16T15:44:58.875Z</time></trkpt><trkpt lat="44.4180833" lon="9.1184283"><ele>515.0</ele><time>2026-04-16T15:44:59.874Z</time></trkpt><trkpt lat="44.4179967" lon="9.1183633"><ele>515.0</ele><time>2026-04-16T15:45:00.875Z</time></trkpt><trkpt lat="44.41792" lon="9.1182767"><ele>515.0</ele><time>2026-04-16T15:45:01.877Z</time></trkpt><trkpt lat="44.4178467" lon="9.1181683"><ele>515.0</ele><time>2026-04-16T15:45:02.875Z</time></trkpt><trkpt lat="44.4177733" lon="9.1180483"><ele>515.0</ele><time>2026-04-16T15:45:03.875Z</time></trkpt><trkpt lat="44.4177" lon="9.1179333"><ele>515.0</ele><time>2026-04-16T15:45:04.874Z</time></trkpt><trkpt lat="44.4176217" lon="9.11784"><ele>515.0</ele><time>2026-04-16T15:45:05.875Z</time></trkpt><trkpt lat="44.4175433" lon="9.117765"><ele>515.0</ele><time>2026-04-16T15:45:06.874Z</time></trkpt><trkpt lat="44.417465" lon="9.117695"><ele>515.0</ele><time>2026-04-16T15:45:07.877Z</time></trkpt><trkpt lat="44.4173967" lon="9.1176217"><ele>515.0</ele><time>2026-04-16T15:45:08.874Z</time></trkpt><trkpt lat="44.41733" lon="9.1175617"><ele>515.0</ele><time>2026-04-16T15:45:09.874Z</time></trkpt><trkpt lat="44.4172633" lon="9.117525"><ele>515.0</ele><time>2026-04-16T15:45:10.874Z</time></trkpt><trkpt lat="44.4171833" lon="9.1175067"><ele>515.0</ele><time>2026-04-16T15:45:11.875Z</time></trkpt><trkpt lat="44.4170933" lon="9.1175"><ele>515.0</ele><time>2026-04-16T15:45:12.875Z</time></trkpt><trkpt lat="44.4169983" lon="9.1174917"><ele>515.0</ele><time>2026-04-16T15:45:13.875Z</time></trkpt><trkpt lat="44.4168967" lon="9.1174833"><ele>515.0</ele><time>2026-04-16T15:45:14.875Z</time></trkpt><trkpt lat="44.4167967" lon="9.1174767"><ele>515.0</ele><time>2026-04-16T15:45:15.874Z</time></trkpt><trkpt lat="44.4167017" lon="9.1174683"><ele>515.0</ele><time>2026-04-16T15:45:16.874Z</time></trkpt><trkpt lat="44.4166117" lon="9.11746"><ele>515.0</ele><time>2026-04-16T15:45:17.875Z</time></trkpt><trkpt lat="44.4165267" lon="9.1174483"><ele>515.0</ele><time>2026-04-16T15:45:18.876Z</time></trkpt><trkpt lat="44.41645" lon="9.117425"><ele>515.0</ele><time>2026-04-16T15:45:19.876Z</time></trkpt><trkpt lat="44.4163767" lon="9.1173883"><ele>515.0</ele><time>2026-04-16T15:45:20.875Z</time></trkpt><trkpt lat="44.41631" lon="9.1173467"><ele>520.3333333333333</ele><time>2026-04-16T15:45:21.874Z</time></trkpt><trkpt lat="44.4162467" lon="9.117315"><ele>525.6666666666666</ele><time>2026-04-16T15:45:22.873Z</time></trkpt><trkpt lat="44.4161333" lon="9.1173"><ele>531.0</ele><time>2026-04-16T15:45:24.875Z</time></trkpt><trkpt lat="44.41607" lon="9.1173367"><ele>536.3333333333334</ele><time>2026-04-16T15:45:26.87Z</time></trkpt><trkpt lat="44.4160217" lon="9.1174183"><ele>541.6666666666667</ele><time>2026-04-16T15:45:29.875Z</time></trkpt><trkpt lat="44.4159883" lon="9.1175267"><ele>547.0</ele><time>2026-04-16T15:45:32.878Z</time></trkpt><trkpt lat="44.4159167" lon="9.11758"><ele>547.0</ele><time>2026-04-16T15:45:37.876Z</time></trkpt><trkpt lat="44.41584" lon="9.1175483"><ele>547.0</ele><time>2026-04-16T15:45:40.876Z</time></trkpt><trkpt lat="44.4157667" lon="9.117545"><ele>547.0</ele><time>2026-04-16T15:45:42.876Z</time></trkpt><trkpt lat="44.415705" lon="9.1175683"><ele>547.0</ele><time>2026-04-16T15:45:44.878Z</time></trkpt><trkpt lat="44.4156483" lon="9.11761"><ele>547.0</ele><time>2026-04-16T15:45:46.876Z</time></trkpt><trkpt lat="44.4156" lon="9.1176817"><ele>547.0</ele><time>2026-04-16T15:45:50.878Z</time></trkpt><trkpt lat="44.4155317" lon="9.117785"><ele>550.4</ele><time>2026-04-16T15:45:53.876Z</time></trkpt><trkpt lat="44.41547" lon="9.1178633"><ele>553.8000000000001</ele><time>2026-04-16T15:45:55.877Z</time></trkpt><trkpt lat="44.4154083" lon="9.1179517"><ele>557.2</ele><time>2026-04-16T15:45:58.876Z</time></trkpt><trkpt lat="44.4153717" lon="9.1180867"><ele>560.6</ele><time>2026-04-16T15:46:01.873Z</time></trkpt><trkpt lat="44.415325" lon="9.11818"><ele>564.0</ele><time>2026-04-16T15:46:03.879Z</time></trkpt><trkpt lat="44.4152467" lon="9.11827"><ele>564.0</ele><time>2026-04-16T15:46:05.876Z</time></trkpt><trkpt lat="44.4151717" lon="9.1183383"><ele>564.0</ele><time>2026-04-16T15:46:06.879Z</time></trkpt><trkpt lat="44.4151083" lon="9.1184017"><ele>564.0</ele><time>2026-04-16T15:46:07.875Z</time></trkpt><trkpt lat="44.4150383" lon="9.11846"><ele>564.0</ele><time>2026-04-16T15:46:08.876Z</time></trkpt><trkpt lat="44.41497" lon="9.1185183"><ele>564.0</ele><time>2026-04-16T15:46:09.873Z</time></trkpt><trkpt lat="44.4148933" lon="9.1185733"><ele>564.0</ele><time>2026-04-16T15:46:10.874Z</time></trkpt><trkpt lat="44.414805" lon="9.1186417"><ele>564.0</ele><time>2026-04-16T15:46:11.873Z</time></trkpt><trkpt lat="44.41473" lon="9.1187183"><ele>564.0</ele><time>2026-04-16T15:46:12.874Z</time></trkpt><trkpt lat="44.414665" lon="9.1188083"><ele>564.0</ele><time>2026-04-16T15:46:13.876Z</time></trkpt><trkpt lat="44.414605" lon="9.1188967"><ele>564.0</ele><time>2026-04-16T15:46:14.876Z</time></trkpt><trkpt lat="44.4145483" lon="9.118975"><ele>564.0</ele><time>2026-04-16T15:46:15.873Z</time></trkpt><trkpt lat="44.4144983" lon="9.1190367"><ele>564.0</ele><time>2026-04-16T15:46:16.874Z</time></trkpt><trkpt lat="44.41445" lon="9.1191"><ele>571.6</ele><time>2026-04-16T15:46:17.874Z</time></trkpt><trkpt lat="44.4143733" lon="9.1192233"><ele>579.2</ele><time>2026-04-16T15:46:19.874Z</time></trkpt><trkpt lat="44.4143033" lon="9.1193583"><ele>586.8000000000001</ele><time>2026-04-16T15:46:21.874Z</time></trkpt><trkpt lat="44.4142033" lon="9.11944"><ele>594.4</ele><time>2026-04-16T15:46:23.875Z</time></trkpt><trkpt lat="44.414155" lon="9.1195083"><ele>602.0</ele><time>2026-04-16T15:46:25.875Z</time></trkpt><trkpt lat="44.4140967" lon="9.11962"><ele>602.0</ele><time>2026-04-16T15:46:27.875Z</time></trkpt><trkpt lat="44.41402" lon="9.1197467"><ele>602.0</ele><time>2026-04-16T15:46:29.877Z</time></trkpt><trkpt lat="44.41398" lon="9.1198233"><ele>602.0</ele><time>2026-04-16T15:46:30.877Z</time></trkpt><trkpt lat="44.413955" lon="9.119905"><ele>602.0</ele><time>2026-04-16T15:46:31.877Z</time></trkpt><trkpt lat="44.4139133" lon="9.12"><ele>602.0</ele><time>2026-04-16T15:46:32.877Z</time></trkpt><trkpt lat="44.4138717" lon="9.1200933"><ele>602.0</ele><time>2026-04-16T15:46:33.875Z</time></trkpt><trkpt lat="44.413825" lon="9.1202"><ele>607.0</ele><time>2026-04-16T15:46:34.874Z</time></trkpt><trkpt lat="44.4137733" lon="9.1202983"><ele>612.0</ele><time>2026-04-16T15:46:35.874Z</time></trkpt><trkpt lat="44.4137167" lon="9.1204033"><ele>617.0</ele><time>2026-04-16T15:46:36.874Z</time></trkpt><trkpt lat="44.4136533" lon="9.1205033"><ele>622.0</ele><time>2026-04-16T15:46:37.872Z</time></trkpt><trkpt lat="44.4135867" lon="9.1205833"><ele>627.0</ele><time>2026-04-16T15:46:38.875Z</time></trkpt><trkpt lat="44.413525" lon="9.1206467"><ele>632.0</ele><time>2026-04-16T15:46:39.874Z</time></trkpt><trkpt lat="44.41344" lon="9.1207133"><ele>626.1666666666666</ele><time>2026-04-16T15:46:40.874Z</time></trkpt><trkpt lat="44.41339" lon="9.1207683"><ele>620.3333333333333</ele><time>2026-04-16T15:46:41.872Z</time></trkpt><trkpt lat="44.4133217" lon="9.1208167"><ele>614.5</ele><time>2026-04-16T15:46:42.871Z</time></trkpt><trkpt lat="44.4132367" lon="9.1208967"><ele>608.6666666666666</ele><time>2026-04-16T15:46:43.875Z</time></trkpt><trkpt lat="44.4131667" lon="9.1209917"><ele>602.8333333333334</ele><time>2026-04-16T15:46:44.875Z</time></trkpt><trkpt lat="44.4131033" lon="9.1210767"><ele>597.0</ele><time>2026-04-16T15:46:45.874Z</time></trkpt><trkpt lat="44.4130383" lon="9.12116"><ele>603.0</ele><time>2026-04-16T15:46:46.876Z</time></trkpt><trkpt lat="44.412975" lon="9.121245"><ele>609.0</ele><time>2026-04-16T15:46:47.876Z</time></trkpt><trkpt lat="44.4129083" lon="9.1213383"><ele>615.0</ele><time>2026-04-16T15:46:48.875Z</time></trkpt><trkpt lat="44.412835" lon="9.121415"><ele>621.0</ele><time>2026-04-16T15:46:49.874Z</time></trkpt><trkpt lat="44.4127617" lon="9.1214883"><ele>627.0</ele><time>2026-04-16T15:46:50.877Z</time></trkpt><trkpt lat="44.4126833" lon="9.12155"><ele>623.2</ele><time>2026-04-16T15:46:51.876Z</time></trkpt><trkpt lat="44.4125933" lon="9.1216083"><ele>619.4000000000001</ele><time>2026-04-16T15:46:52.874Z</time></trkpt><trkpt lat="44.4125017" lon="9.1216617"><ele>615.5999999999999</ele><time>2026-04-16T15:46:53.874Z</time></trkpt><trkpt lat="44.4124217" lon="9.121715"><ele>611.8</ele><time>2026-04-16T15:46:54.875Z</time></trkpt><trkpt lat="44.4123533" lon="9.1217567"><ele>608.0</ele><time>2026-04-16T15:46:55.874Z</time></trkpt><trkpt lat="44.412195" lon="9.12184"><ele>608.5</ele><time>2026-04-16T15:46:58.873Z</time></trkpt><trkpt lat="44.41211" lon="9.1219117"><ele>609.0</ele><time>2026-04-16T15:47:00.875Z</time></trkpt><trkpt lat="44.4120467" lon="9.1219883"><ele>609.5</ele><time>2026-04-16T15:47:02.875Z</time></trkpt><trkpt lat="44.4119683" lon="9.12199"><ele>610.0</ele><time>2026-04-16T15:47:06.875Z</time></trkpt><trkpt lat="44.4118983" lon="9.121935"><ele>610.5</ele><time>2026-04-16T15:47:09.874Z</time></trkpt><trkpt lat="44.41183" lon="9.1219"><ele>611.0</ele><time>2026-04-16T15:47:12.875Z</time></trkpt><trkpt lat="44.4117667" lon="9.121945"><ele>611.0</ele><time>2026-04-16T15:47:17.876Z</time></trkpt><trkpt lat="44.4117117" lon="9.1220267"><ele>611.0</ele><time>2026-04-16T15:48:46.874Z</time></trkpt><trkpt lat="44.41162" lon="9.1221483"><ele>611.0</ele><time>2026-04-16T15:48:47.877Z</time></trkpt><trkpt lat="44.4115233" lon="9.122305"><ele>611.0</ele><time>2026-04-16T15:48:48.875Z</time></trkpt><trkpt lat="44.41143" lon="9.1224883"><ele>612.3333333333333</ele><time>2026-04-16T15:48:49.879Z</time></trkpt><trkpt lat="44.411345" lon="9.1226917"><ele>613.6666666666666</ele><time>2026-04-16T15:48:50.875Z</time></trkpt><trkpt lat="44.4112717" lon="9.1229083"><ele>615.0</ele><time>2026-04-16T15:48:51.876Z</time></trkpt><trkpt lat="44.4111983" lon="9.1231367"><ele>609.0</ele><time>2026-04-16T15:48:52.876Z</time></trkpt><trkpt lat="44.411135" lon="9.1233733"><ele>603.0</ele><time>2026-04-16T15:48:53.875Z</time></trkpt><trkpt lat="44.4110783" lon="9.12361"><ele>597.0</ele><time>2026-04-16T15:48:54.87Z</time></trkpt><trkpt lat="44.411025" lon="9.123845"><ele>600.0</ele><time>2026-04-16T15:48:55.872Z</time></trkpt><trkpt lat="44.410975" lon="9.124075"><ele>603.0</ele><time>2026-04-16T15:48:56.875Z</time></trkpt><trkpt lat="44.410925" lon="9.1243083"><ele>606.0</ele><time>2026-04-16T15:48:57.877Z</time></trkpt><trkpt lat="44.4108733" lon="9.1245367"><ele>606.0</ele><time>2026-04-16T15:48:58.873Z</time></trkpt><trkpt lat="44.4108167" lon="9.12476"><ele>606.0</ele><time>2026-04-16T15:48:59.874Z</time></trkpt><trkpt lat="44.4107517" lon="9.1249767"><ele>606.0</ele><time>2026-04-16T15:49:00.875Z</time></trkpt><trkpt lat="44.4106767" lon="9.1251817"><ele>606.6666666666666</ele><time>2026-04-16T15:49:01.873Z</time></trkpt><trkpt lat="44.4105917" lon="9.1253767"><ele>607.3333333333333</ele><time>2026-04-16T15:49:02.876Z</time></trkpt><trkpt lat="44.4105017" lon="9.1255683"><ele>608.0</ele><time>2026-04-16T15:49:03.875Z</time></trkpt><trkpt lat="44.4104083" lon="9.1257567"><ele>605.3333333333333</ele><time>2026-04-16T15:49:04.874Z</time></trkpt><trkpt lat="44.4103133" lon="9.1259417"><ele>602.6666666666666</ele><time>2026-04-16T15:49:05.873Z</time></trkpt><trkpt lat="44.4102233" lon="9.1261267"><ele>600.0</ele><time>2026-04-16T15:49:06.876Z</time></trkpt><trkpt lat="44.4101383" lon="9.126315"><ele>600.0</ele><time>2026-04-16T15:49:07.875Z</time></trkpt><trkpt lat="44.41006" lon="9.1265"><ele>600.0</ele><time>2026-04-16T15:49:08.878Z</time></trkpt><trkpt lat="44.4099883" lon="9.126675"><ele>600.0</ele><time>2026-04-16T15:49:09.876Z</time></trkpt><trkpt lat="44.4099317" lon="9.1268567"><ele>600.0</ele><time>2026-04-16T15:49:10.872Z</time></trkpt><trkpt lat="44.4098817" lon="9.1270283"><ele>602.75</ele><time>2026-04-16T15:49:11.874Z</time></trkpt><trkpt lat="44.40984" lon="9.1271867"><ele>605.5</ele><time>2026-04-16T15:49:12.873Z</time></trkpt><trkpt lat="44.4097983" lon="9.1273433"><ele>608.25</ele><time>2026-04-16T15:49:13.874Z</time></trkpt><trkpt lat="44.4097633" lon="9.1274933"><ele>611.0</ele><time>2026-04-16T15:49:14.876Z</time></trkpt><trkpt lat="44.4097233" lon="9.127635"><ele>611.0</ele><time>2026-04-16T15:49:15.872Z</time></trkpt><trkpt lat="44.4096833" lon="9.1277733"><ele>611.0</ele><time>2026-04-16T15:49:16.873Z</time></trkpt><trkpt lat="44.4096417" lon="9.127915"><ele>611.0</ele><time>2026-04-16T15:49:17.875Z</time></trkpt><trkpt lat="44.4096033" lon="9.1280383"><ele>611.0</ele><time>2026-04-16T15:49:18.876Z</time></trkpt><trkpt lat="44.409565" lon="9.1281367"><ele>611.0</ele><time>2026-04-16T15:49:19.873Z</time></trkpt><trkpt lat="44.4095217" lon="9.1282067"><ele>608.1666666666666</ele><time>2026-04-16T15:49:20.873Z</time></trkpt><trkpt lat="44.40946" lon="9.1282783"><ele>605.3333333333333</ele><time>2026-04-16T15:49:22.875Z</time></trkpt><trkpt lat="44.4094183" lon="9.1283617"><ele>602.5</ele><time>2026-04-16T15:49:24.874Z</time></trkpt><trkpt lat="44.4093967" lon="9.1284933"><ele>599.6666666666666</ele><time>2026-04-16T15:49:26.876Z</time></trkpt><trkpt lat="44.4093467" lon="9.1286233"><ele>596.8333333333334</ele><time>2026-04-16T15:49:28.874Z</time></trkpt><trkpt lat="44.4093" lon="9.128695"><ele>594.0</ele><time>2026-04-16T15:49:29.874Z</time></trkpt><trkpt lat="44.4092583" lon="9.1287717"><ele>594.0</ele><time>2026-04-16T15:49:30.875Z</time></trkpt><trkpt lat="44.4091833" lon="9.1288983"><ele>594.0</ele><time>2026-04-16T15:49:32.873Z</time></trkpt><trkpt lat="44.4090967" lon="9.1290017"><ele>594.0</ele><time>2026-04-16T15:49:34.873Z</time></trkpt><trkpt lat="44.40905" lon="9.1291433"><ele>594.0</ele><time>2026-04-16T15:49:36.876Z</time></trkpt><trkpt lat="44.4090417" lon="9.1292383"><ele>594.0</ele><time>2026-04-16T15:49:37.875Z</time></trkpt><trkpt lat="44.4090333" lon="9.129345"><ele>595.8333333333334</ele><time>2026-04-16T15:49:38.876Z</time></trkpt><trkpt lat="44.4090217" lon="9.129455"><ele>597.6666666666666</ele><time>2026-04-16T15:49:39.875Z</time></trkpt><trkpt lat="44.4090117" lon="9.1295583"><ele>599.5</ele><time>2026-04-16T15:49:40.873Z</time></trkpt><trkpt lat="44.40901" lon="9.1296517"><ele>601.3333333333333</ele><time>2026-04-16T15:49:41.873Z</time></trkpt><trkpt lat="44.409015" lon="9.1298067"><ele>603.1666666666666</ele><time>2026-04-16T15:49:43.875Z</time></trkpt><trkpt lat="44.4089667" lon="9.129935"><ele>605.0</ele><time>2026-04-16T15:49:45.873Z</time></trkpt><trkpt lat="44.4089283" lon="9.130025"><ele>605.0</ele><time>2026-04-16T15:49:46.875Z</time></trkpt><trkpt lat="44.40888" lon="9.130135"><ele>605.0</ele><time>2026-04-16T15:49:47.874Z</time></trkpt><trkpt lat="44.408825" lon="9.1302633"><ele>605.0</ele><time>2026-04-16T15:49:48.874Z</time></trkpt><trkpt lat="44.4087667" lon="9.1303983"><ele>605.0</ele><time>2026-04-16T15:49:49.874Z</time></trkpt><trkpt lat="44.4087" lon="9.13054"><ele>605.0</ele><time>2026-04-16T15:49:50.876Z</time></trkpt><trkpt lat="44.4086367" lon="9.130685"><ele>608.3333333333333</ele><time>2026-04-16T15:49:51.873Z</time></trkpt><trkpt lat="44.4085817" lon="9.1308083"><ele>611.6666666666666</ele><time>2026-04-16T15:49:52.872Z</time></trkpt><trkpt lat="44.408535" lon="9.1308967"><ele>615.0</ele><time>2026-04-16T15:49:53.873Z</time></trkpt><trkpt lat="44.4084983" lon="9.1309717"><ele>618.3333333333334</ele><time>2026-04-16T15:49:54.874Z</time></trkpt><trkpt lat="44.4084467" lon="9.1310717"><ele>621.6666666666667</ele><time>2026-04-16T15:49:56.875Z</time></trkpt><trkpt lat="44.4083817" lon="9.1311217"><ele>625.0</ele><time>2026-04-16T15:49:58.875Z</time></trkpt><trkpt lat="44.408305" lon="9.1311017"><ele>625.0</ele><time>2026-04-16T15:50:01.876Z</time></trkpt><trkpt lat="44.408225" lon="9.13115"><ele>625.0</ele><time>2026-04-16T15:50:03.875Z</time></trkpt><trkpt lat="44.4081983" lon="9.131255"><ele>625.0</ele><time>2026-04-16T15:50:05.874Z</time></trkpt><trkpt lat="44.40817" lon="9.1314133"><ele>625.0</ele><time>2026-04-16T15:50:07.875Z</time></trkpt><trkpt lat="44.4081383" lon="9.1315"><ele>625.0</ele><time>2026-04-16T15:50:08.874Z</time></trkpt><trkpt lat="44.4081" lon="9.1315833"><ele>625.0</ele><time>2026-04-16T15:50:09.875Z</time></trkpt><trkpt lat="44.4080533" lon="9.131645"><ele>627.4</ele><time>2026-04-16T15:50:10.874Z</time></trkpt><trkpt lat="44.4079817" lon="9.1316967"><ele>629.8</ele><time>2026-04-16T15:50:12.872Z</time></trkpt><trkpt lat="44.407935" lon="9.131815"><ele>632.2</ele><time>2026-04-16T15:50:14.877Z</time></trkpt><trkpt lat="44.4079083" lon="9.1319333"><ele>634.6</ele><time>2026-04-16T15:50:16.876Z</time></trkpt><trkpt lat="44.40785" lon="9.1320617"><ele>637.0</ele><time>2026-04-16T15:50:18.873Z</time></trkpt><trkpt lat="44.4077833" lon="9.132175"><ele>637.0</ele><time>2026-04-16T15:50:20.877Z</time></trkpt><trkpt lat="44.4077117" lon="9.1322717"><ele>637.0</ele><time>2026-04-16T15:50:22.873Z</time></trkpt><trkpt lat="44.4076583" lon="9.13233"><ele>637.0</ele><time>2026-04-16T15:50:23.873Z</time></trkpt><trkpt lat="44.4076033" lon="9.1323833"><ele>637.0</ele><time>2026-04-16T15:50:24.873Z</time></trkpt><trkpt lat="44.4075517" lon="9.1324417"><ele>637.0</ele><time>2026-04-16T15:50:25.876Z</time></trkpt><trkpt lat="44.4075017" lon="9.1324967"><ele>637.0</ele><time>2026-04-16T15:50:26.878Z</time></trkpt><trkpt lat="44.4074217" lon="9.1325967"><ele>640.8333333333334</ele><time>2026-04-16T15:50:28.874Z</time></trkpt><trkpt lat="44.4073517" lon="9.1326867"><ele>644.6666666666667</ele><time>2026-04-16T15:50:30.875Z</time></trkpt><trkpt lat="44.40728" lon="9.1328017"><ele>648.5</ele><time>2026-04-16T15:50:58.878Z</time></trkpt><trkpt lat="44.4072617" lon="9.1328933"><ele>652.3333333333334</ele><time>2026-04-16T15:54:49.873Z</time></trkpt><trkpt lat="44.407315" lon="9.1330017"><ele>656.1666666666666</ele><time>2026-04-16T15:55:08.877Z</time></trkpt><trkpt lat="44.4073183" lon="9.1331133"><ele>660.0</ele><time>2026-04-16T15:55:09.883Z</time></trkpt><trkpt lat="44.40732" lon="9.1332783"><ele>660.25</ele><time>2026-04-16T15:55:10.875Z</time></trkpt><trkpt lat="44.4073217" lon="9.1334683"><ele>660.5</ele><time>2026-04-16T15:55:11.878Z</time></trkpt><trkpt lat="44.4073233" lon="9.1336417"><ele>660.75</ele><time>2026-04-16T15:55:12.877Z</time></trkpt><trkpt lat="44.4073283" lon="9.1337633"><ele>661.0</ele><time>2026-04-16T15:55:13.876Z</time></trkpt><trkpt lat="44.4073433" lon="9.133915"><ele>661.0</ele><time>2026-04-16T15:55:15.876Z</time></trkpt><trkpt lat="44.4073933" lon="9.1340483"><ele>661.0</ele><time>2026-04-16T15:55:17.878Z</time></trkpt><trkpt lat="44.4074617" lon="9.13419"><ele>661.0</ele><time>2026-04-16T15:55:19.874Z</time></trkpt><trkpt lat="44.407505" lon="9.134265"><ele>661.0</ele><time>2026-04-16T15:55:20.877Z</time></trkpt><trkpt lat="44.407555" lon="9.1343517"><ele>661.0</ele><time>2026-04-16T15:55:21.871Z</time></trkpt><trkpt lat="44.4076033" lon="9.134445"><ele>661.1999999999999</ele><time>2026-04-16T15:55:22.875Z</time></trkpt><trkpt lat="44.4076433" lon="9.13456"><ele>661.4</ele><time>2026-04-16T15:55:23.879Z</time></trkpt><trkpt lat="44.4076767" lon="9.1346983"><ele>661.6</ele><time>2026-04-16T15:55:24.874Z</time></trkpt><trkpt lat="44.40771" lon="9.1348317"><ele>661.8</ele><time>2026-04-16T15:55:25.875Z</time></trkpt><trkpt lat="44.407745" lon="9.134955"><ele>662.0</ele><time>2026-04-16T15:55:26.876Z</time></trkpt><trkpt lat="44.4077783" lon="9.1350733"><ele>659.8333333333333</ele><time>2026-04-16T15:55:27.881Z</time></trkpt><trkpt lat="44.40781" lon="9.1351933"><ele>657.6666666666666</ele><time>2026-04-16T15:55:28.876Z</time></trkpt><trkpt lat="44.4078367" lon="9.135305"><ele>655.5</ele><time>2026-04-16T15:55:29.87Z</time></trkpt><trkpt lat="44.4078517" lon="9.1353917"><ele>653.3333333333334</ele><time>2026-04-16T15:55:30.879Z</time></trkpt><trkpt lat="44.4078333" lon="9.13548"><ele>651.1666666666667</ele><time>2026-04-16T15:55:52.876Z</time></trkpt><trkpt lat="44.4078367" lon="9.1355783"><ele>649.0</ele><time>2026-04-16T15:55:55.876Z</time></trkpt><trkpt lat="44.407845" lon="9.1356833"><ele>647.0</ele><time>2026-04-16T15:55:57.875Z</time></trkpt><trkpt lat="44.4078667" lon="9.1358283"><ele>645.0</ele><time>2026-04-16T15:55:59.875Z</time></trkpt><trkpt lat="44.40791" lon="9.135995"><ele>643.0</ele><time>2026-04-16T15:56:01.876Z</time></trkpt><trkpt lat="44.40793" lon="9.1360867"><ele>641.0</ele><time>2026-04-16T15:56:02.879Z</time></trkpt><trkpt lat="44.4079383" lon="9.1361833"><ele>639.0</ele><time>2026-04-16T15:56:03.875Z</time></trkpt><trkpt lat="44.4079417" lon="9.1362983"><ele>639.0</ele><time>2026-04-16T15:56:04.872Z</time></trkpt><trkpt lat="44.40795" lon="9.136415"><ele>639.0</ele><time>2026-04-16T15:56:05.884Z</time></trkpt><trkpt lat="44.407955" lon="9.136525"><ele>639.0</ele><time>2026-04-16T15:56:06.874Z</time></trkpt><trkpt lat="44.4079583" lon="9.1366217"><ele>639.0</ele><time>2026-04-16T15:56:07.874Z</time></trkpt><trkpt lat="44.4079733" lon="9.1367533"><ele>639.0</ele><time>2026-04-16T15:56:09.875Z</time></trkpt><trkpt lat="44.408005" lon="9.13692"><ele>637.25</ele><time>2026-04-16T15:56:11.876Z</time></trkpt><trkpt lat="44.4080367" lon="9.13705"><ele>635.5</ele><time>2026-04-16T15:56:12.875Z</time></trkpt><trkpt lat="44.40807" lon="9.1372067"><ele>633.75</ele><time>2026-04-16T15:56:13.874Z</time></trkpt><trkpt lat="44.4080817" lon="9.1373783"><ele>632.0</ele><time>2026-04-16T15:56:14.874Z</time></trkpt><trkpt lat="44.4080783" lon="9.1375533"><ele>631.5</ele><time>2026-04-16T15:56:15.874Z</time></trkpt><trkpt lat="44.408075" lon="9.1377183"><ele>631.0</ele><time>2026-04-16T15:56:16.873Z</time></trkpt><trkpt lat="44.4080717" lon="9.1378767"><ele>630.5</ele><time>2026-04-16T15:56:17.879Z</time></trkpt><trkpt lat="44.4080667" lon="9.13804"><ele>630.0</ele><time>2026-04-16T15:56:18.875Z</time></trkpt><trkpt lat="44.4080633" lon="9.138205"><ele>631.0</ele><time>2026-04-16T15:56:19.875Z</time></trkpt><trkpt lat="44.4080667" lon="9.13837"><ele>632.0</ele><time>2026-04-16T15:56:20.875Z</time></trkpt><trkpt lat="44.4080683" lon="9.13854"><ele>633.0</ele><time>2026-04-16T15:56:21.872Z</time></trkpt><trkpt lat="44.4080667" lon="9.13872"><ele>634.0</ele><time>2026-04-16T15:56:22.873Z</time></trkpt><trkpt lat="44.4080717" lon="9.138905"><ele>635.3333333333334</ele><time>2026-04-16T15:56:23.874Z</time></trkpt><trkpt lat="44.4080833" lon="9.139075"><ele>636.6666666666667</ele><time>2026-04-16T15:56:24.875Z</time></trkpt><trkpt lat="44.4080933" lon="9.1392133"><ele>638.0</ele><time>2026-04-16T15:56:25.876Z</time></trkpt><trkpt lat="44.4081083" lon="9.13933"><ele>639.3333333333334</ele><time>2026-04-16T15:56:26.881Z</time></trkpt><trkpt lat="44.4081317" lon="9.1394333"><ele>640.6666666666666</ele><time>2026-04-16T15:56:27.873Z</time></trkpt><trkpt lat="44.4081517" lon="9.13952"><ele>642.0</ele><time>2026-04-16T15:56:28.871Z</time></trkpt><trkpt lat="44.4081317" lon="9.1396417"><ele>642.0</ele><time>2026-04-16T15:56:43.877Z</time></trkpt><trkpt lat="44.4080667" lon="9.1397183"><ele>642.0</ele><time>2026-04-16T15:56:45.875Z</time></trkpt><trkpt lat="44.4079883" lon="9.1398267"><ele>642.0</ele><time>2026-04-16T15:56:47.873Z</time></trkpt><trkpt lat="44.40794" lon="9.139895"><ele>642.0</ele><time>2026-04-16T15:56:48.875Z</time></trkpt><trkpt lat="44.407885" lon="9.1399667"><ele>642.0</ele><time>2026-04-16T15:56:49.877Z</time></trkpt><trkpt lat="44.4078317" lon="9.140045"><ele>642.0</ele><time>2026-04-16T15:56:50.887Z</time></trkpt><trkpt lat="44.4077883" lon="9.1401133"><ele>639.8333333333334</ele><time>2026-04-16T15:56:51.878Z</time></trkpt><trkpt lat="44.407745" lon="9.1402283"><ele>637.6666666666666</ele><time>2026-04-16T15:56:53.875Z</time></trkpt><trkpt lat="44.4077283" lon="9.14037"><ele>635.5</ele><time>2026-04-16T15:56:55.87Z</time></trkpt><trkpt lat="44.40772" lon="9.1405383"><ele>633.3333333333333</ele><time>2026-04-16T15:56:57.874Z</time></trkpt><trkpt lat="44.4077067" lon="9.14063"><ele>631.1666666666666</ele><time>2026-04-16T15:56:58.875Z</time></trkpt><trkpt lat="44.40769" lon="9.14072"><ele>629.0</ele><time>2026-04-16T15:56:59.875Z</time></trkpt><trkpt lat="44.407675" lon="9.140875"><ele>627.5</ele><time>2026-04-16T15:57:01.873Z</time></trkpt><trkpt lat="44.4076433" lon="9.140985"><ele>626.0</ele><time>2026-04-16T15:57:03.875Z</time></trkpt><trkpt lat="44.4076183" lon="9.14108"><ele>624.5</ele><time>2026-04-16T15:57:07.876Z</time></trkpt><trkpt lat="44.40761" lon="9.1411917"><ele>623.0</ele><time>2026-04-16T15:57:10.873Z</time></trkpt><trkpt lat="44.4075533" lon="9.14134"><ele>621.5</ele><time>2026-04-16T15:57:12.873Z</time></trkpt><trkpt lat="44.4075283" lon="9.1414383"><ele>620.0</ele><time>2026-04-16T15:57:13.875Z</time></trkpt><trkpt lat="44.4074933" lon="9.1415383"><ele>618.3333333333333</ele><time>2026-04-16T15:57:14.877Z</time></trkpt><trkpt lat="44.4074517" lon="9.1416283"><ele>616.6666666666666</ele><time>2026-04-16T15:57:15.877Z</time></trkpt><trkpt lat="44.4073967" lon="9.141705"><ele>615.0</ele><time>2026-04-16T15:57:16.876Z</time></trkpt><trkpt lat="44.4073383" lon="9.141785"><ele>613.3333333333334</ele><time>2026-04-16T15:57:17.868Z</time></trkpt><trkpt lat="44.40728" lon="9.1418667"><ele>611.6666666666667</ele><time>2026-04-16T15:57:18.878Z</time></trkpt><trkpt lat="44.40723" lon="9.1419467"><ele>610.0</ele><time>2026-04-16T15:57:19.877Z</time></trkpt><trkpt lat="44.4071883" lon="9.142025"><ele>607.4</ele><time>2026-04-16T15:57:20.877Z</time></trkpt><trkpt lat="44.407125" lon="9.1421367"><ele>604.8</ele><time>2026-04-16T15:57:22.875Z</time></trkpt><trkpt lat="44.407065" lon="9.1422333"><ele>602.2</ele><time>2026-04-16T15:57:24.883Z</time></trkpt><trkpt lat="44.4069967" lon="9.14238"><ele>599.6</ele><time>2026-04-16T15:57:26.876Z</time></trkpt><trkpt lat="44.4069483" lon="9.1424967"><ele>597.0</ele><time>2026-04-16T15:57:28.874Z</time></trkpt><trkpt lat="44.4068733" lon="9.142595"><ele>597.0</ele><time>2026-04-16T15:57:30.875Z</time></trkpt><trkpt lat="44.406825" lon="9.142665"><ele>597.0</ele><time>2026-04-16T15:57:31.876Z</time></trkpt><trkpt lat="44.4067667" lon="9.1427367"><ele>597.0</ele><time>2026-04-16T15:57:32.877Z</time></trkpt><trkpt lat="44.4067083" lon="9.142815"><ele>597.0</ele><time>2026-04-16T15:57:33.875Z</time></trkpt><trkpt lat="44.4066617" lon="9.14292"><ele>597.0</ele><time>2026-04-16T15:57:34.876Z</time></trkpt><trkpt lat="44.406615" lon="9.1430567"><ele>597.0</ele><time>2026-04-16T15:57:35.876Z</time></trkpt><trkpt lat="44.4065783" lon="9.14318"><ele>597.1666666666666</ele><time>2026-04-16T15:57:36.878Z</time></trkpt><trkpt lat="44.4065517" lon="9.143265"><ele>597.3333333333334</ele><time>2026-04-16T15:57:37.876Z</time></trkpt><trkpt lat="44.406515" lon="9.1433783"><ele>597.5</ele><time>2026-04-16T15:57:39.876Z</time></trkpt><trkpt lat="44.4064617" lon="9.1434583"><ele>597.6666666666667</ele><time>2026-04-16T15:57:41.876Z</time></trkpt><trkpt lat="44.4064083" lon="9.1435567"><ele>597.8333333333334</ele><time>2026-04-16T15:57:43.874Z</time></trkpt><trkpt lat="44.406365" lon="9.143655"><ele>598.0</ele><time>2026-04-16T15:57:46.877Z</time></trkpt><trkpt lat="44.4063217" lon="9.1437367"><ele>596.5</ele><time>2026-04-16T15:57:48.877Z</time></trkpt><trkpt lat="44.4062567" lon="9.143785"><ele>595.0</ele><time>2026-04-16T15:57:50.884Z</time></trkpt><trkpt lat="44.4061767" lon="9.1438183"><ele>593.5</ele><time>2026-04-16T15:57:53.875Z</time></trkpt><trkpt lat="44.4060983" lon="9.1439067"><ele>592.0</ele><time>2026-04-16T15:57:55.872Z</time></trkpt><trkpt lat="44.4060417" lon="9.143955"><ele>590.5</ele><time>2026-04-16T15:57:56.878Z</time></trkpt><trkpt lat="44.4059517" lon="9.14405"><ele>589.0</ele><time>2026-04-16T15:57:58.873Z</time></trkpt><trkpt lat="44.4059033" lon="9.14412"><ele>589.0</ele><time>2026-04-16T15:58:00.875Z</time></trkpt><trkpt lat="44.40584" lon="9.1441817"><ele>589.0</ele><time>2026-04-16T15:58:03.874Z</time></trkpt><trkpt lat="44.4058" lon="9.144275"><ele>589.0</ele><time>2026-04-16T15:58:06.872Z</time></trkpt><trkpt lat="44.405765" lon="9.1443583"><ele>589.0</ele><time>2026-04-16T15:58:08.878Z</time></trkpt><trkpt lat="44.405725" lon="9.144455"><ele>589.0</ele><time>2026-04-16T15:58:10.876Z</time></trkpt><trkpt lat="44.4056517" lon="9.1444783"><ele>589.0</ele><time>2026-04-16T15:58:15.875Z</time></trkpt><trkpt lat="44.40557" lon="9.1445267"><ele>589.0</ele><time>2026-04-16T15:58:20.876Z</time></trkpt><trkpt lat="44.4055017" lon="9.14454"><ele>589.0</ele><time>2026-04-16T15:58:23.877Z</time></trkpt><trkpt lat="44.4054333" lon="9.1445267"><ele>589.0</ele><time>2026-04-16T15:58:27.876Z</time></trkpt><trkpt lat="44.405365" lon="9.1445717"><ele>589.0</ele><time>2026-04-16T15:58:31.876Z</time></trkpt><trkpt lat="44.405285" lon="9.1445717"><ele>589.0</ele><time>2026-04-16T15:58:35.877Z</time></trkpt><trkpt lat="44.4051983" lon="9.1445767"><ele>589.0</ele><time>2026-04-16T15:58:39.875Z</time></trkpt><trkpt lat="44.40512" lon="9.144635"><ele>583.4</ele><time>2026-04-16T15:58:42.875Z</time></trkpt><trkpt lat="44.4050383" lon="9.1447067"><ele>577.8</ele><time>2026-04-16T15:58:44.879Z</time></trkpt><trkpt lat="44.404945" lon="9.1447967"><ele>572.2</ele><time>2026-04-16T15:58:46.874Z</time></trkpt><trkpt lat="44.4048433" lon="9.1448683"><ele>566.6</ele><time>2026-04-16T15:58:48.87Z</time></trkpt><trkpt lat="44.4047533" lon="9.1449633"><ele>561.0</ele><time>2026-04-16T15:58:50.871Z</time></trkpt><trkpt lat="44.4046633" lon="9.14505"><ele>560.8333333333334</ele><time>2026-04-16T15:58:52.878Z</time></trkpt><trkpt lat="44.4045767" lon="9.14512"><ele>560.6666666666666</ele><time>2026-04-16T15:58:54.874Z</time></trkpt><trkpt lat="44.404515" lon="9.145165"><ele>560.5</ele><time>2026-04-16T15:58:56.877Z</time></trkpt><trkpt lat="44.4046" lon="9.145165"><ele>560.3333333333333</ele><time>2026-04-16T15:59:02.877Z</time></trkpt><trkpt lat="44.4046967" lon="9.1451283"><ele>560.1666666666666</ele><time>2026-04-16T15:59:04.872Z</time></trkpt><trkpt lat="44.4047883" lon="9.1451217"><ele>560.0</ele><time>2026-04-16T15:59:06.874Z</time></trkpt><trkpt lat="44.4048983" lon="9.1451183"><ele>560.0</ele><time>2026-04-16T15:59:08.877Z</time></trkpt><trkpt lat="44.4050167" lon="9.145155"><ele>560.0</ele><time>2026-04-16T15:59:10.875Z</time></trkpt><trkpt lat="44.40508" lon="9.1451733"><ele>560.0</ele><time>2026-04-16T15:59:11.878Z</time></trkpt><trkpt lat="44.4051967" lon="9.14521"><ele>560.0</ele><time>2026-04-16T15:59:13.874Z</time></trkpt><trkpt lat="44.405275" lon="9.145305"><ele>560.0</ele><time>2026-04-16T15:59:15.873Z</time></trkpt><trkpt lat="44.405375" lon="9.145335"><ele>560.0</ele><time>2026-04-16T15:59:17.875Z</time></trkpt><trkpt lat="44.4054417" lon="9.14536"><ele>560.0</ele><time>2026-04-16T15:59:18.874Z</time></trkpt><trkpt lat="44.405505" lon="9.1453967"><ele>560.0</ele><time>2026-04-16T15:59:19.877Z</time></trkpt><trkpt lat="44.4055733" lon="9.14545"><ele>560.0</ele><time>2026-04-16T15:59:20.891Z</time></trkpt><trkpt lat="44.4056333" lon="9.1455267"><ele>560.0</ele><time>2026-04-16T15:59:21.877Z</time></trkpt><trkpt lat="44.4056817" lon="9.1456267"><ele>560.0</ele><time>2026-04-16T15:59:22.876Z</time></trkpt><trkpt lat="44.4057233" lon="9.14572"><ele>556.0</ele><time>2026-04-16T15:59:23.874Z</time></trkpt><trkpt lat="44.4057617" lon="9.145865"><ele>552.0</ele><time>2026-04-16T15:59:25.876Z</time></trkpt><trkpt lat="44.40583" lon="9.1459667"><ele>548.0</ele><time>2026-04-16T15:59:27.874Z</time></trkpt><trkpt lat="44.4058883" lon="9.1460167"><ele>544.0</ele><time>2026-04-16T15:59:28.872Z</time></trkpt><trkpt lat="44.4059467" lon="9.14607"><ele>540.0</ele><time>2026-04-16T15:59:29.877Z</time></trkpt><trkpt lat="44.406" lon="9.1461233"><ele>536.0</ele><time>2026-04-16T15:59:30.873Z</time></trkpt><trkpt lat="44.4061" lon="9.1462317"><ele>536.0</ele><time>2026-04-16T15:59:32.877Z</time></trkpt><trkpt lat="44.40618" lon="9.1463033"><ele>536.0</ele><time>2026-04-16T15:59:34.873Z</time></trkpt><trkpt lat="44.406255" lon="9.1463617"><ele>536.0</ele><time>2026-04-16T15:59:36.876Z</time></trkpt><trkpt lat="44.4063217" lon="9.14646"><ele>536.0</ele><time>2026-04-16T15:59:38.878Z</time></trkpt><trkpt lat="44.4063583" lon="9.1465333"><ele>536.0</ele><time>2026-04-16T15:59:40.876Z</time></trkpt><trkpt lat="44.4064417" lon="9.146435"><ele>532.1666666666666</ele><time>2026-04-16T15:59:43.876Z</time></trkpt><trkpt lat="44.4064717" lon="9.14634"><ele>528.3333333333333</ele><time>2026-04-16T15:59:44.88Z</time></trkpt><trkpt lat="44.406505" lon="9.1462367"><ele>524.5</ele><time>2026-04-16T15:59:45.873Z</time></trkpt><trkpt lat="44.4065333" lon="9.14613"><ele>520.6666666666666</ele><time>2026-04-16T15:59:46.874Z</time></trkpt><trkpt lat="44.4065533" lon="9.1460383"><ele>516.8333333333334</ele><time>2026-04-16T15:59:47.875Z</time></trkpt><trkpt lat="44.40657" lon="9.14595"><ele>513.0</ele><time>2026-04-16T15:59:48.876Z</time></trkpt><trkpt lat="44.40663" lon="9.1457867"><ele>518.1999999999999</ele><time>2026-04-16T15:59:50.878Z</time></trkpt><trkpt lat="44.4066783" lon="9.145705"><ele>523.4</ele><time>2026-04-16T15:59:51.875Z</time></trkpt><trkpt lat="44.4067283" lon="9.1456283"><ele>528.5999999999999</ele><time>2026-04-16T15:59:52.875Z</time></trkpt><trkpt lat="44.4067983" lon="9.1455083"><ele>533.8</ele><time>2026-04-16T15:59:54.875Z</time></trkpt><trkpt lat="44.406855" lon="9.14539"><ele>539.0</ele><time>2026-04-16T15:59:56.877Z</time></trkpt><trkpt lat="44.4069283" lon="9.1453167"><ele>539.0</ele><time>2026-04-16T15:59:58.875Z</time></trkpt><trkpt lat="44.4070283" lon="9.145325"><ele>539.0</ele><time>2026-04-16T16:00:00.873Z</time></trkpt><trkpt lat="44.407095" lon="9.1453333"><ele>539.0</ele><time>2026-04-16T16:00:01.875Z</time></trkpt><trkpt lat="44.4071567" lon="9.1453517"><ele>539.0</ele><time>2026-04-16T16:00:02.873Z</time></trkpt><trkpt lat="44.407275" lon="9.1453783"><ele>539.0</ele><time>2026-04-16T16:00:04.875Z</time></trkpt><trkpt lat="44.4073333" lon="9.145415"><ele>539.0</ele><time>2026-04-16T16:00:05.879Z</time></trkpt><trkpt lat="44.407395" lon="9.1454417"><ele>532.6666666666666</ele><time>2026-04-16T16:00:06.874Z</time></trkpt><trkpt lat="44.407455" lon="9.14547"><ele>526.3333333333333</ele><time>2026-04-16T16:00:07.875Z</time></trkpt><trkpt lat="44.407555" lon="9.1455133"><ele>520.0</ele><time>2026-04-16T16:00:09.876Z</time></trkpt><trkpt lat="44.4076283" lon="9.145535"><ele>513.6666666666666</ele><time>2026-04-16T16:00:11.878Z</time></trkpt><trkpt lat="44.40769" lon="9.1454517"><ele>507.3333333333333</ele><time>2026-04-16T16:00:13.875Z</time></trkpt><trkpt lat="44.40772" lon="9.14537"><ele>501.0</ele><time>2026-04-16T16:00:14.875Z</time></trkpt><trkpt lat="44.4077533" lon="9.1452883"><ele>501.0</ele><time>2026-04-16T16:00:15.872Z</time></trkpt><trkpt lat="44.4077967" lon="9.145215"><ele>501.0</ele><time>2026-04-16T16:00:16.873Z</time></trkpt><trkpt lat="44.4078483" lon="9.1451317"><ele>501.0</ele><time>2026-04-16T16:00:17.875Z</time></trkpt><trkpt lat="44.4079083" lon="9.145045"><ele>501.0</ele><time>2026-04-16T16:00:18.878Z</time></trkpt><trkpt lat="44.4079683" lon="9.14496"><ele>501.0</ele><time>2026-04-16T16:00:19.876Z</time></trkpt><trkpt lat="44.4080117" lon="9.1448783"><ele>501.0</ele><time>2026-04-16T16:00:20.878Z</time></trkpt><trkpt lat="44.4080567" lon="9.1447317"><ele>497.6</ele><time>2026-04-16T16:00:22.873Z</time></trkpt><trkpt lat="44.4080583" lon="9.144575"><ele>494.20000000000005</ele><time>2026-04-16T16:00:24.873Z</time></trkpt><trkpt lat="44.408035" lon="9.1444383"><ele>490.79999999999995</ele><time>2026-04-16T16:00:26.875Z</time></trkpt><trkpt lat="44.4080867" lon="9.1443283"><ele>487.4</ele><time>2026-04-16T16:00:28.874Z</time></trkpt><trkpt lat="44.40819" lon="9.1442583"><ele>484.0</ele><time>2026-04-16T16:00:30.875Z</time></trkpt><trkpt lat="44.40827" lon="9.1441367"><ele>491.2</ele><time>2026-04-16T16:00:32.879Z</time></trkpt><trkpt lat="44.4083117" lon="9.1439867"><ele>498.4</ele><time>2026-04-16T16:00:34.876Z</time></trkpt><trkpt lat="44.4083567" lon="9.1438567"><ele>505.6</ele><time>2026-04-16T16:00:36.877Z</time></trkpt><trkpt lat="44.4084583" lon="9.1437417"><ele>512.8</ele><time>2026-04-16T16:00:38.876Z</time></trkpt><trkpt lat="44.4085267" lon="9.14365"><ele>520.0</ele><time>2026-04-16T16:00:39.873Z</time></trkpt><trkpt lat="44.4085967" lon="9.143545"><ele>520.0</ele><time>2026-04-16T16:00:40.877Z</time></trkpt><trkpt lat="44.408655" lon="9.1434417"><ele>520.0</ele><time>2026-04-16T16:00:41.875Z</time></trkpt><trkpt lat="44.4087083" lon="9.143335"><ele>520.0</ele><time>2026-04-16T16:00:42.875Z</time></trkpt><trkpt lat="44.4087667" lon="9.1432417"><ele>520.0</ele><time>2026-04-16T16:00:43.876Z</time></trkpt><trkpt lat="44.4088267" lon="9.1431583"><ele>520.0</ele><time>2026-04-16T16:00:44.877Z</time></trkpt><trkpt lat="44.4088883" lon="9.1430983"><ele>520.0</ele><time>2026-04-16T16:00:45.874Z</time></trkpt><trkpt lat="44.4089817" lon="9.1430283"><ele>522.1666666666667</ele><time>2026-04-16T16:00:47.873Z</time></trkpt><trkpt lat="44.40905" lon="9.1430617"><ele>524.3333333333334</ele><time>2026-04-16T16:00:50.875Z</time></trkpt><trkpt lat="44.4090817" lon="9.143195"><ele>526.5</ele><time>2026-04-16T16:00:52.874Z</time></trkpt><trkpt lat="44.4091133" lon="9.1432883"><ele>528.6666666666666</ele><time>2026-04-16T16:00:53.876Z</time></trkpt><trkpt lat="44.4091517" lon="9.14337"><ele>530.8333333333333</ele><time>2026-04-16T16:00:54.876Z</time></trkpt><trkpt lat="44.4092017" lon="9.1434567"><ele>533.0</ele><time>2026-04-16T16:00:55.875Z</time></trkpt><trkpt lat="44.4092533" lon="9.1435283"><ele>526.0</ele><time>2026-04-16T16:00:56.876Z</time></trkpt><trkpt lat="44.4092983" lon="9.143595"><ele>519.0</ele><time>2026-04-16T16:00:57.873Z</time></trkpt><trkpt lat="44.4093467" lon="9.1436617"><ele>511.99999999999994</ele><time>2026-04-16T16:00:58.874Z</time></trkpt><trkpt lat="44.4094567" lon="9.1436833"><ele>505.0</ele><time>2026-04-16T16:01:00.876Z</time></trkpt><trkpt lat="44.40958" lon="9.14362"><ele>498.0</ele><time>2026-04-16T16:01:02.875Z</time></trkpt><trkpt lat="44.4096567" lon="9.1435767"><ele>497.79999999999995</ele><time>2026-04-16T16:01:03.878Z</time></trkpt><trkpt lat="44.4097383" lon="9.1435433"><ele>497.59999999999997</ele><time>2026-04-16T16:01:04.879Z</time></trkpt><trkpt lat="44.409825" lon="9.1435083"><ele>497.40000000000003</ele><time>2026-04-16T16:01:05.874Z</time></trkpt><trkpt lat="44.4099217" lon="9.1434683"><ele>497.20000000000005</ele><time>2026-04-16T16:01:06.875Z</time></trkpt><trkpt lat="44.410015" lon="9.14343"><ele>497.0</ele><time>2026-04-16T16:01:07.875Z</time></trkpt><trkpt lat="44.41009" lon="9.14339"><ele>496.99999999999994</ele><time>2026-04-16T16:01:08.876Z</time></trkpt><trkpt lat="44.4101467" lon="9.143345"><ele>497.0</ele><time>2026-04-16T16:01:09.877Z</time></trkpt><trkpt lat="44.4101933" lon="9.1432733"><ele>497.0</ele><time>2026-04-16T16:01:10.873Z</time></trkpt><trkpt lat="44.41024" lon="9.14314"><ele>497.0</ele><time>2026-04-16T16:01:12.876Z</time></trkpt><trkpt lat="44.4102983" lon="9.14309"><ele>496.99999999999994</ele><time>2026-04-16T16:01:14.88Z</time></trkpt><trkpt lat="44.4103667" lon="9.14312"><ele>497.0</ele><time>2026-04-16T16:01:16.873Z</time></trkpt><trkpt lat="44.410435" lon="9.143195"><ele>495.49999999999994</ele><time>2026-04-16T16:01:18.879Z</time></trkpt><trkpt lat="44.4105267" lon="9.14322"><ele>494.0</ele><time>2026-04-16T16:01:20.878Z</time></trkpt><trkpt lat="44.4106" lon="9.1432133"><ele>492.5</ele><time>2026-04-16T16:01:21.876Z</time></trkpt><trkpt lat="44.41068" lon="9.1432"><ele>491.0</ele><time>2026-04-16T16:01:22.874Z</time></trkpt><trkpt lat="44.41075" lon="9.14319"><ele>489.49999999999994</ele><time>2026-04-16T16:01:23.874Z</time></trkpt><trkpt lat="44.41086" lon="9.1431917"><ele>488.0</ele><time>2026-04-16T16:01:25.876Z</time></trkpt><trkpt lat="44.4109633" lon="9.143225"><ele>488.0</ele><time>2026-04-16T16:01:27.875Z</time></trkpt><trkpt lat="44.4110633" lon="9.1432733"><ele>487.99999999999994</ele><time>2026-04-16T16:01:29.873Z</time></trkpt><trkpt lat="44.41118" lon="9.143325"><ele>487.99999999999994</ele><time>2026-04-16T16:01:31.876Z</time></trkpt><trkpt lat="44.4112467" lon="9.1433517"><ele>488.0</ele><time>2026-04-16T16:01:32.877Z</time></trkpt><trkpt lat="44.4113117" lon="9.1433767"><ele>488.0</ele><time>2026-04-16T16:01:33.875Z</time></trkpt><trkpt lat="44.4114367" lon="9.14341"><ele>488.66666666666663</ele><time>2026-04-16T16:01:35.875Z</time></trkpt><trkpt lat="44.41152" lon="9.1434283"><ele>489.3333333333333</ele><time>2026-04-16T16:01:37.88Z</time></trkpt><trkpt lat="44.4115917" lon="9.1434233"><ele>490.0</ele><time>2026-04-16T16:01:39.878Z</time></trkpt><trkpt lat="44.4116533" lon="9.1433933"><ele>490.66666666666663</ele><time>2026-04-16T16:01:41.874Z</time></trkpt><trkpt lat="44.4117167" lon="9.1433283"><ele>491.3333333333333</ele><time>2026-04-16T16:01:43.876Z</time></trkpt><trkpt lat="44.4117883" lon="9.143255"><ele>492.0</ele><time>2026-04-16T16:01:46.876Z</time></trkpt><trkpt lat="44.4118317" lon="9.143185"><ele>492.0</ele><time>2026-04-16T16:01:48.879Z</time></trkpt><trkpt lat="44.41187" lon="9.1431117"><ele>492.0</ele><time>2026-04-16T16:01:50.877Z</time></trkpt><trkpt lat="44.4119333" lon="9.143045"><ele>492.0</ele><time>2026-04-16T16:01:53.878Z</time></trkpt><trkpt lat="44.4119983" lon="9.143015"><ele>492.0</ele><time>2026-04-16T16:01:56.876Z</time></trkpt><trkpt lat="44.4120783" lon="9.1430083"><ele>492.0</ele><time>2026-04-16T16:01:58.876Z</time></trkpt><trkpt lat="44.4121583" lon="9.1430133"><ele>492.0</ele><time>2026-04-16T16:02:00.876Z</time></trkpt><trkpt lat="44.4122283" lon="9.1430583"><ele>488.0</ele><time>2026-04-16T16:02:02.876Z</time></trkpt><trkpt lat="44.4122633" lon="9.1431883"><ele>484.00000000000006</ele><time>2026-04-16T16:02:04.875Z</time></trkpt><trkpt lat="44.412345" lon="9.1433267"><ele>480.00000000000006</ele><time>2026-04-16T16:02:06.875Z</time></trkpt><trkpt lat="44.4123933" lon="9.1434067"><ele>476.0</ele><time>2026-04-16T16:02:07.875Z</time></trkpt><trkpt lat="44.4124267" lon="9.1435167"><ele>472.0</ele><time>2026-04-16T16:02:08.876Z</time></trkpt><trkpt lat="44.41246" lon="9.14362"><ele>471.0</ele><time>2026-04-16T16:02:09.878Z</time></trkpt><trkpt lat="44.4125" lon="9.1437083"><ele>470.00000000000006</ele><time>2026-04-16T16:02:10.872Z</time></trkpt><trkpt lat="44.4125517" lon="9.143765"><ele>469.00000000000006</ele><time>2026-04-16T16:02:11.871Z</time></trkpt><trkpt lat="44.412695" lon="9.1437767"><ele>468.0</ele><time>2026-04-16T16:02:13.875Z</time></trkpt><trkpt lat="44.4127817" lon="9.143765"><ele>467.0</ele><time>2026-04-16T16:02:14.876Z</time></trkpt><trkpt lat="44.4128717" lon="9.1437633"><ele>466.99999999999994</ele><time>2026-04-16T16:02:15.875Z</time></trkpt><trkpt lat="44.4129567" lon="9.1437733"><ele>467.0</ele><time>2026-04-16T16:02:16.876Z</time></trkpt><trkpt lat="44.4130333" lon="9.1437867"><ele>467.0</ele><time>2026-04-16T16:02:17.876Z</time></trkpt><trkpt lat="44.4130983" lon="9.1438"><ele>467.0</ele><time>2026-04-16T16:02:18.875Z</time></trkpt><trkpt lat="44.4131983" lon="9.1438217"><ele>466.99999999999994</ele><time>2026-04-16T16:02:20.878Z</time></trkpt><trkpt lat="44.41326" lon="9.1438033"><ele>467.0</ele><time>2026-04-16T16:02:22.872Z</time></trkpt><trkpt lat="44.4132533" lon="9.1436783"><ele>467.40000000000003</ele><time>2026-04-16T16:02:28.875Z</time></trkpt><trkpt lat="44.4132117" lon="9.1435633"><ele>467.80000000000007</ele><time>2026-04-16T16:02:30.874Z</time></trkpt><trkpt lat="44.413145" lon="9.1434467"><ele>468.2</ele><time>2026-04-16T16:05:00.878Z</time></trkpt><trkpt lat="44.41307" lon="9.1433283"><ele>468.6</ele><time>2026-04-16T16:05:02.876Z</time></trkpt><trkpt lat="44.413025" lon="9.1432583"><ele>469.0</ele><time>2026-04-16T16:05:03.874Z</time></trkpt><trkpt lat="44.412965" lon="9.1431917"><ele>469.50000000000006</ele><time>2026-04-16T16:05:04.875Z</time></trkpt><trkpt lat="44.4129033" lon="9.1430717"><ele>470.0</ele><time>2026-04-16T16:05:06.875Z</time></trkpt><trkpt lat="44.4128867" lon="9.142965"><ele>470.5</ele><time>2026-04-16T16:05:08.878Z</time></trkpt><trkpt lat="44.4129383" lon="9.1428517"><ele>471.0</ele><time>2026-04-16T16:05:10.876Z</time></trkpt><trkpt lat="44.4130067" lon="9.142805"><ele>471.50000000000006</ele><time>2026-04-16T16:05:11.876Z</time></trkpt><trkpt lat="44.413085" lon="9.1427583"><ele>472.0</ele><time>2026-04-16T16:05:12.875Z</time></trkpt><trkpt lat="44.413165" lon="9.1427317"><ele>470.00000000000006</ele><time>2026-04-16T16:05:13.872Z</time></trkpt><trkpt lat="44.4132367" lon="9.1427167"><ele>468.0</ele><time>2026-04-16T16:05:14.875Z</time></trkpt><trkpt lat="44.41331" lon="9.1427017"><ele>466.0</ele><time>2026-04-16T16:05:15.875Z</time></trkpt><trkpt lat="44.4133867" lon="9.1427017"><ele>464.0</ele><time>2026-04-16T16:05:16.873Z</time></trkpt><trkpt lat="44.41347" lon="9.1427"><ele>462.00000000000006</ele><time>2026-04-16T16:05:17.876Z</time></trkpt><trkpt lat="44.4135583" lon="9.142695"><ele>460.0</ele><time>2026-04-16T16:05:18.876Z</time></trkpt><trkpt lat="44.4136517" lon="9.1426917"><ele>460.0</ele><time>2026-04-16T16:05:19.876Z</time></trkpt><trkpt lat="44.41374" lon="9.1427"><ele>460.0</ele><time>2026-04-16T16:05:20.875Z</time></trkpt><trkpt lat="44.41384" lon="9.1426983"><ele>460.0</ele><time>2026-04-16T16:05:21.876Z</time></trkpt><trkpt lat="44.4139567" lon="9.1426767"><ele>460.0</ele><time>2026-04-16T16:05:22.876Z</time></trkpt><trkpt lat="44.414075" lon="9.142645"><ele>460.0</ele><time>2026-04-16T16:05:23.876Z</time></trkpt><trkpt lat="44.41419" lon="9.1426217"><ele>459.6</ele><time>2026-04-16T16:05:24.874Z</time></trkpt><trkpt lat="44.41429" lon="9.1426067"><ele>459.2</ele><time>2026-04-16T16:05:25.875Z</time></trkpt><trkpt lat="44.4143783" lon="9.1425867"><ele>458.79999999999995</ele><time>2026-04-16T16:05:26.875Z</time></trkpt><trkpt lat="44.4144567" lon="9.14256"><ele>458.4</ele><time>2026-04-16T16:05:27.874Z</time></trkpt><trkpt lat="44.41456" lon="9.142495"><ele>458.0</ele><time>2026-04-16T16:05:29.875Z</time></trkpt><trkpt lat="44.4146483" lon="9.1424917"><ele>455.7142857142857</ele><time>2026-04-16T16:05:31.874Z</time></trkpt><trkpt lat="44.414755" lon="9.142535"><ele>453.42857142857144</ele><time>2026-04-16T16:05:33.874Z</time></trkpt><trkpt lat="44.4148217" lon="9.14255"><ele>451.14285714285717</ele><time>2026-04-16T16:05:34.874Z</time></trkpt><trkpt lat="44.4148883" lon="9.1425617"><ele>448.8571428571429</ele><time>2026-04-16T16:05:35.874Z</time></trkpt><trkpt lat="44.414955" lon="9.1425733"><ele>446.57142857142856</ele><time>2026-04-16T16:05:36.876Z</time></trkpt><trkpt lat="44.4150233" lon="9.142585"><ele>444.28571428571433</ele><time>2026-04-16T16:05:37.873Z</time></trkpt><trkpt lat="44.4150883" lon="9.14261"><ele>442.0</ele><time>2026-04-16T16:05:38.875Z</time></trkpt><trkpt lat="44.4151917" lon="9.142675"><ele>442.00000000000006</ele><time>2026-04-16T16:05:40.874Z</time></trkpt><trkpt lat="44.415275" lon="9.1428067"><ele>442.0</ele><time>2026-04-16T16:05:42.875Z</time></trkpt><trkpt lat="44.41534" lon="9.142885"><ele>442.0</ele><time>2026-04-16T16:05:44.876Z</time></trkpt><trkpt lat="44.4153917" lon="9.1429567"><ele>442.0</ele><time>2026-04-16T16:05:46.874Z</time></trkpt><trkpt lat="44.415445" lon="9.143055"><ele>442.00000000000006</ele><time>2026-04-16T16:05:48.876Z</time></trkpt><trkpt lat="44.4155133" lon="9.1430883"><ele>442.0</ele><time>2026-04-16T16:05:50.877Z</time></trkpt><trkpt lat="44.4155817" lon="9.1431717"><ele>436.40000000000003</ele><time>2026-04-16T16:05:53.876Z</time></trkpt><trkpt lat="44.4155967" lon="9.1433217"><ele>430.80000000000007</ele><time>2026-04-16T16:05:55.877Z</time></trkpt><trkpt lat="44.415605" lon="9.1434367"><ele>425.2</ele><time>2026-04-16T16:05:56.876Z</time></trkpt><trkpt lat="44.41561" lon="9.14355"><ele>419.6</ele><time>2026-04-16T16:05:57.874Z</time></trkpt><trkpt lat="44.4156183" lon="9.1436483"><ele>414.0</ele><time>2026-04-16T16:05:58.873Z</time></trkpt><trkpt lat="44.4156417" lon="9.14381"><ele>414.0</ele><time>2026-04-16T16:06:00.873Z</time></trkpt><trkpt lat="44.41568" lon="9.1439433"><ele>414.0</ele><time>2026-04-16T16:06:02.875Z</time></trkpt><trkpt lat="44.4156917" lon="9.14403"><ele>414.0</ele><time>2026-04-16T16:06:03.877Z</time></trkpt><trkpt lat="44.4157167" lon="9.1441983"><ele>414.0</ele><time>2026-04-16T16:06:05.874Z</time></trkpt><trkpt lat="44.415735" lon="9.1442833"><ele>414.0</ele><time>2026-04-16T16:06:06.873Z</time></trkpt><trkpt lat="44.41576" lon="9.1443833"><ele>414.0</ele><time>2026-04-16T16:06:07.873Z</time></trkpt><trkpt lat="44.415805" lon="9.14446"><ele>415.5</ele><time>2026-04-16T16:06:08.874Z</time></trkpt><trkpt lat="44.4158567" lon="9.1445367"><ele>417.0</ele><time>2026-04-16T16:06:09.875Z</time></trkpt><trkpt lat="44.4159167" lon="9.1445983"><ele>418.5</ele><time>2026-04-16T16:06:10.874Z</time></trkpt><trkpt lat="44.4159917" lon="9.1446467"><ele>420.0</ele><time>2026-04-16T16:06:11.873Z</time></trkpt><trkpt lat="44.4160617" lon="9.1446783"><ele>421.5</ele><time>2026-04-16T16:06:12.873Z</time></trkpt><trkpt lat="44.4161733" lon="9.1447883"><ele>423.0</ele><time>2026-04-16T16:06:14.875Z</time></trkpt><trkpt lat="44.4162133" lon="9.1448583"><ele>423.7142857142857</ele><time>2026-04-16T16:06:15.874Z</time></trkpt><trkpt lat="44.4162433" lon="9.14495"><ele>424.42857142857144</ele><time>2026-04-16T16:06:16.875Z</time></trkpt><trkpt lat="44.41628" lon="9.145035"><ele>425.14285714285717</ele><time>2026-04-16T16:06:17.873Z</time></trkpt><trkpt lat="44.41632" lon="9.1451083"><ele>425.8571428571429</ele><time>2026-04-16T16:06:18.875Z</time></trkpt><trkpt lat="44.416385" lon="9.1451633"><ele>426.57142857142856</ele><time>2026-04-16T16:06:19.874Z</time></trkpt><trkpt lat="44.4164467" lon="9.145215"><ele>427.28571428571433</ele><time>2026-04-16T16:06:20.875Z</time></trkpt><trkpt lat="44.4165133" lon="9.1452683"><ele>428.0</ele><time>2026-04-16T16:06:21.876Z</time></trkpt><trkpt lat="44.4165767" lon="9.14531"><ele>427.99999999999994</ele><time>2026-04-16T16:06:22.874Z</time></trkpt><trkpt lat="44.4166433" lon="9.14535"><ele>428.0</ele><time>2026-04-16T16:06:23.876Z</time></trkpt><trkpt lat="44.4167" lon="9.145395"><ele>428.0</ele><time>2026-04-16T16:06:24.875Z</time></trkpt><trkpt lat="44.4167567" lon="9.14544"><ele>428.0</ele><time>2026-04-16T16:06:25.875Z</time></trkpt><trkpt lat="44.4168483" lon="9.1455283"><ele>427.99999999999994</ele><time>2026-04-16T16:06:27.876Z</time></trkpt><trkpt lat="44.4169067" lon="9.1456333"><ele>428.0</ele><time>2026-04-16T16:06:29.873Z</time></trkpt><trkpt lat="44.4169033" lon="9.14578"><ele>429.0</ele><time>2026-04-16T16:06:31.875Z</time></trkpt><trkpt lat="44.4169617" lon="9.1459483"><ele>429.99999999999994</ele><time>2026-04-16T16:06:33.873Z</time></trkpt><trkpt lat="44.4170083" lon="9.1460967"><ele>430.99999999999994</ele><time>2026-04-16T16:06:35.876Z</time></trkpt><trkpt lat="44.4170467" lon="9.1462217"><ele>432.0</ele><time>2026-04-16T16:06:37.875Z</time></trkpt><trkpt lat="44.4171117" lon="9.146285"><ele>433.0</ele><time>2026-04-16T16:06:39.874Z</time></trkpt><trkpt lat="44.4171783" lon="9.14631"><ele>433.00000000000006</ele><time>2026-04-16T16:06:41.875Z</time></trkpt><trkpt lat="44.4172317" lon="9.1463833"><ele>433.0</ele><time>2026-04-16T16:06:43.877Z</time></trkpt><trkpt lat="44.41727" lon="9.14648"><ele>433.0</ele><time>2026-04-16T16:06:45.876Z</time></trkpt><trkpt lat="44.417285" lon="9.14658"><ele>433.0</ele><time>2026-04-16T16:06:47.876Z</time></trkpt><trkpt lat="44.41738" lon="9.1465033"><ele>433.00000000000006</ele><time>2026-04-16T16:06:55.874Z</time></trkpt><trkpt lat="44.417435" lon="9.1464367"><ele>433.0</ele><time>2026-04-16T16:06:56.876Z</time></trkpt><trkpt lat="44.4175167" lon="9.14636"><ele>433.00000000000006</ele><time>2026-04-16T16:06:57.873Z</time></trkpt><trkpt lat="44.4176033" lon="9.1462817"><ele>433.0</ele><time>2026-04-16T16:06:58.875Z</time></trkpt><trkpt lat="44.4176817" lon="9.1462167"><ele>433.0</ele><time>2026-04-16T16:06:59.874Z</time></trkpt><trkpt lat="44.41775" lon="9.1461517"><ele>433.0</ele><time>2026-04-16T16:07:00.875Z</time></trkpt><trkpt lat="44.4178117" lon="9.1460767"><ele>433.00000000000006</ele><time>2026-04-16T16:07:01.876Z</time></trkpt><trkpt lat="44.41787" lon="9.14599"><ele>433.0</ele><time>2026-04-16T16:07:02.878Z</time></trkpt><trkpt lat="44.4179317" lon="9.1458833"><ele>430.1666666666667</ele><time>2026-04-16T16:07:03.875Z</time></trkpt><trkpt lat="44.417995" lon="9.14577"><ele>427.33333333333337</ele><time>2026-04-16T16:07:04.872Z</time></trkpt><trkpt lat="44.4180433" lon="9.1456667"><ele>424.5</ele><time>2026-04-16T16:07:05.876Z</time></trkpt><trkpt lat="44.4180783" lon="9.1455917"><ele>421.66666666666663</ele><time>2026-04-16T16:07:06.875Z</time></trkpt><trkpt lat="44.41814" lon="9.1455133"><ele>418.8333333333333</ele><time>2026-04-16T16:07:08.876Z</time></trkpt><trkpt lat="44.4182033" lon="9.1454417"><ele>416.0</ele><time>2026-04-16T16:07:10.872Z</time></trkpt><trkpt lat="44.4182417" lon="9.14537"><ele>415.16666666666663</ele><time>2026-04-16T16:07:12.876Z</time></trkpt><trkpt lat="44.4182617" lon="9.1452417"><ele>414.3333333333333</ele><time>2026-04-16T16:07:15.877Z</time></trkpt><trkpt lat="44.418335" lon="9.1451867"><ele>413.5</ele><time>2026-04-16T16:07:17.883Z</time></trkpt><trkpt lat="44.418375" lon="9.14511"><ele>412.66666666666663</ele><time>2026-04-16T16:07:20.877Z</time></trkpt><trkpt lat="44.4184483" lon="9.1450583"><ele>411.8333333333333</ele><time>2026-04-16T16:07:25.876Z</time></trkpt><trkpt lat="44.41853" lon="9.1450983"><ele>411.0</ele><time>2026-04-16T16:07:27.876Z</time></trkpt><trkpt lat="44.4185983" lon="9.1451133"><ele>411.0</ele><time>2026-04-16T16:07:30.876Z</time></trkpt><trkpt lat="44.41864" lon="9.14504"><ele>411.0</ele><time>2026-04-16T16:07:33.874Z</time></trkpt><trkpt lat="44.4186917" lon="9.1449417"><ele>411.0</ele><time>2026-04-16T16:07:35.876Z</time></trkpt><trkpt lat="44.4187567" lon="9.1448333"><ele>411.0</ele><time>2026-04-16T16:07:37.875Z</time></trkpt><trkpt lat="44.418815" lon="9.1447733"><ele>411.0</ele><time>2026-04-16T16:07:39.88Z</time></trkpt><trkpt lat="44.4188983" lon="9.1447583"><ele>411.0</ele><time>2026-04-16T16:07:42.876Z</time></trkpt><trkpt lat="44.4189483" lon="9.1446883"><ele>406.3333333333333</ele><time>2026-04-16T16:07:44.877Z</time></trkpt><trkpt lat="44.4190117" lon="9.1446183"><ele>401.6666666666667</ele><time>2026-04-16T16:07:46.875Z</time></trkpt><trkpt lat="44.4190683" lon="9.1445333"><ele>397.0</ele><time>2026-04-16T16:07:48.874Z</time></trkpt><trkpt lat="44.419135" lon="9.1444917"><ele>392.33333333333337</ele><time>2026-04-16T16:07:50.878Z</time></trkpt><trkpt lat="44.419235" lon="9.1444733"><ele>387.6666666666667</ele><time>2026-04-16T16:07:52.876Z</time></trkpt><trkpt lat="44.4193149" lon="9.1444303"><ele>383.0</ele><time>2026-04-16T16:07:54.876Z</time></trkpt><trkpt lat="44.419387" lon="9.1444373"><ele>383.0</ele><time>2026-04-16T16:07:57.878Z</time></trkpt><trkpt lat="44.4194704" lon="9.1443804"><ele>383.0</ele><time>2026-04-16T16:08:00.878Z</time></trkpt><trkpt lat="44.4195288" lon="9.1442992"><ele>383.0</ele><time>2026-04-16T16:08:02.88Z</time></trkpt><trkpt lat="44.4196255" lon="9.1442166"><ele>383.0</ele><time>2026-04-16T16:08:04.878Z</time></trkpt><trkpt lat="44.4196872" lon="9.1441677"><ele>383.0</ele><time>2026-04-16T16:08:05.879Z</time></trkpt><trkpt lat="44.4197532" lon="9.1441249"><ele>383.0</ele><time>2026-04-16T16:08:06.879Z</time></trkpt><trkpt lat="44.4198184" lon="9.1441084"><ele>380.0</ele><time>2026-04-16T16:08:07.88Z</time></trkpt><trkpt lat="44.4199126" lon="9.1440976"><ele>377.0</ele><time>2026-04-16T16:08:09.879Z</time></trkpt><trkpt lat="44.4199783" lon="9.1440517"><ele>374.0</ele><time>2026-04-16T16:08:11.879Z</time></trkpt><trkpt lat="44.420045" lon="9.1440233"><ele>371.0</ele><time>2026-04-16T16:08:13.879Z</time></trkpt><trkpt lat="44.420125" lon="9.14405"><ele>368.0</ele><time>2026-04-16T16:08:15.877Z</time></trkpt><trkpt lat="44.4202117" lon="9.144045"><ele>365.0</ele><time>2026-04-16T16:08:17.878Z</time></trkpt><trkpt lat="44.4203" lon="9.1440333"><ele>362.33333333333337</ele><time>2026-04-16T16:08:19.879Z</time></trkpt><trkpt lat="44.4204017" lon="9.143985"><ele>359.6666666666667</ele><time>2026-04-16T16:08:21.876Z</time></trkpt><trkpt lat="44.420465" lon="9.143975"><ele>357.0</ele><time>2026-04-16T16:08:22.877Z</time></trkpt><trkpt lat="44.42053" lon="9.1439683"><ele>354.3333333333333</ele><time>2026-04-16T16:08:23.878Z</time></trkpt><trkpt lat="44.4206017" lon="9.143955"><ele>351.66666666666663</ele><time>2026-04-16T16:08:24.878Z</time></trkpt><trkpt lat="44.42068" lon="9.143935"><ele>349.0</ele><time>2026-04-16T16:08:25.875Z</time></trkpt><trkpt lat="44.4207667" lon="9.1439217"><ele>347.3333333333333</ele><time>2026-04-16T16:08:26.877Z</time></trkpt><trkpt lat="44.4208417" lon="9.1439367"><ele>345.66666666666663</ele><time>2026-04-16T16:08:27.875Z</time></trkpt><trkpt lat="44.4209283" lon="9.1439317"><ele>344.0</ele><time>2026-04-16T16:08:28.876Z</time></trkpt><trkpt lat="44.4210083" lon="9.1439233"><ele>342.3333333333333</ele><time>2026-04-16T16:08:29.878Z</time></trkpt><trkpt lat="44.4210867" lon="9.1439033"><ele>340.6666666666667</ele><time>2026-04-16T16:08:30.875Z</time></trkpt><trkpt lat="44.4211817" lon="9.14387"><ele>339.0</ele><time>2026-04-16T16:08:31.876Z</time></trkpt><trkpt lat="44.4212867" lon="9.1438483"><ele>336.5</ele><time>2026-04-16T16:08:32.873Z</time></trkpt><trkpt lat="44.4213867" lon="9.1438317"><ele>334.0</ele><time>2026-04-16T16:08:33.876Z</time></trkpt><trkpt lat="44.421465" lon="9.14382"><ele>331.5</ele><time>2026-04-16T16:08:34.875Z</time></trkpt><trkpt lat="44.42153" lon="9.14381"><ele>329.0</ele><time>2026-04-16T16:08:35.875Z</time></trkpt><trkpt lat="44.421615" lon="9.1438067"><ele>326.5</ele><time>2026-04-16T16:08:37.877Z</time></trkpt><trkpt lat="44.42169" lon="9.1438167"><ele>324.0</ele><time>2026-04-16T16:08:39.877Z</time></trkpt><trkpt lat="44.4216933" lon="9.1439367"><ele>324.0</ele><time>2026-04-16T16:08:43.88Z</time></trkpt><trkpt lat="44.4217983" lon="9.1439317"><ele>324.0</ele><time>2026-04-16T16:08:46.879Z</time></trkpt><trkpt lat="44.4218817" lon="9.1439383"><ele>324.0</ele><time>2026-04-16T16:08:48.877Z</time></trkpt><trkpt lat="44.4219833" lon="9.14396"><ele>324.0</ele><time>2026-04-16T16:08:50.871Z</time></trkpt><trkpt lat="44.42205" lon="9.1439817"><ele>324.0</ele><time>2026-04-16T16:08:51.877Z</time></trkpt><trkpt lat="44.422165" lon="9.144"><ele>320.5</ele><time>2026-04-16T16:08:53.877Z</time></trkpt><trkpt lat="44.4222283" lon="9.14398"><ele>317.0</ele><time>2026-04-16T16:08:54.876Z</time></trkpt><trkpt lat="44.422295" lon="9.14393"><ele>313.5</ele><time>2026-04-16T16:08:55.878Z</time></trkpt><trkpt lat="44.422385" lon="9.14388"><ele>310.0</ele><time>2026-04-16T16:08:56.879Z</time></trkpt><trkpt lat="44.4224683" lon="9.1438333"><ele>306.5</ele><time>2026-04-16T16:08:57.878Z</time></trkpt><trkpt lat="44.4225433" lon="9.143805"><ele>303.0</ele><time>2026-04-16T16:08:58.878Z</time></trkpt><trkpt lat="44.422635" lon="9.1437883"><ele>303.0</ele><time>2026-04-16T16:09:00.879Z</time></trkpt><trkpt lat="44.4227217" lon="9.1438"><ele>303.0</ele><time>2026-04-16T16:09:02.88Z</time></trkpt><trkpt lat="44.4228267" lon="9.1437917"><ele>303.0</ele><time>2026-04-16T16:09:04.876Z</time></trkpt><trkpt lat="44.4228967" lon="9.1437867"><ele>303.0</ele><time>2026-04-16T16:09:06.88Z</time></trkpt><trkpt lat="44.422975" lon="9.14379"><ele>303.0</ele><time>2026-04-16T16:09:08.88Z</time></trkpt><trkpt lat="44.423045" lon="9.143765"><ele>303.0</ele><time>2026-04-16T16:09:10.878Z</time></trkpt><trkpt lat="44.4231617" lon="9.1437517"><ele>298.0</ele><time>2026-04-16T16:09:12.888Z</time></trkpt><trkpt lat="44.423225" lon="9.1437383"><ele>293.0</ele><time>2026-04-16T16:09:13.875Z</time></trkpt><trkpt lat="44.4233083" lon="9.14372"><ele>288.0</ele><time>2026-04-16T16:09:15.876Z</time></trkpt><trkpt lat="44.423375" lon="9.1436283"><ele>283.0</ele><time>2026-04-16T16:09:18.881Z</time></trkpt><trkpt lat="44.4234433" lon="9.143485"><ele>278.0</ele><time>2026-04-16T16:09:20.88Z</time></trkpt><trkpt lat="44.4234833" lon="9.1433983"><ele>273.0</ele><time>2026-04-16T16:09:21.877Z</time></trkpt><trkpt lat="44.4235233" lon="9.14332"><ele>271.0</ele><time>2026-04-16T16:09:22.878Z</time></trkpt><trkpt lat="44.4236" lon="9.14318"><ele>269.0</ele><time>2026-04-16T16:09:24.877Z</time></trkpt><trkpt lat="44.4236567" lon="9.1430683"><ele>267.0</ele><time>2026-04-16T16:09:26.876Z</time></trkpt><trkpt lat="44.4236" lon="9.1430067"><ele>265.0</ele><time>2026-04-16T16:09:31.878Z</time></trkpt><trkpt lat="44.42352" lon="9.143025"><ele>263.0</ele><time>2026-04-16T16:09:33.879Z</time></trkpt><trkpt lat="44.423445" lon="9.1429833"><ele>263.0</ele><time>2026-04-16T16:09:35.879Z</time></trkpt><trkpt lat="44.4234117" lon="9.1428533"><ele>263.0</ele><time>2026-04-16T16:09:37.878Z</time></trkpt><trkpt lat="44.4234367" lon="9.1427133"><ele>263.0</ele><time>2026-04-16T16:09:39.879Z</time></trkpt><trkpt lat="44.4235117" lon="9.1426733"><ele>263.0</ele><time>2026-04-16T16:09:40.875Z</time></trkpt><trkpt lat="44.4236033" lon="9.1426417"><ele>263.0</ele><time>2026-04-16T16:09:41.879Z</time></trkpt><trkpt lat="44.4237" lon="9.142615"><ele>263.0</ele><time>2026-04-16T16:09:42.876Z</time></trkpt><trkpt lat="44.4237917" lon="9.1426233"><ele>263.0</ele><time>2026-04-16T16:09:43.873Z</time></trkpt><trkpt lat="44.4238717" lon="9.1426567"><ele>263.0</ele><time>2026-04-16T16:09:44.884Z</time></trkpt><trkpt lat="44.42397" lon="9.14267"><ele>263.0</ele><time>2026-04-16T16:09:46.877Z</time></trkpt><trkpt lat="44.4240533" lon="9.14258"><ele>263.0</ele><time>2026-04-16T16:09:48.877Z</time></trkpt><trkpt lat="44.4241383" lon="9.1425283"><ele>261.8</ele><time>2026-04-16T16:09:50.878Z</time></trkpt><trkpt lat="44.424205" lon="9.1425517"><ele>260.6</ele><time>2026-04-16T16:09:51.878Z</time></trkpt><trkpt lat="44.4242967" lon="9.1426167"><ele>259.4</ele><time>2026-04-16T16:09:52.876Z</time></trkpt><trkpt lat="44.4243783" lon="9.1426867"><ele>258.2</ele><time>2026-04-16T16:09:53.876Z</time></trkpt><trkpt lat="44.42444" lon="9.1427933"><ele>257.0</ele><time>2026-04-16T16:09:54.869Z</time></trkpt><trkpt lat="44.4244833" lon="9.1429733"><ele>257.0</ele><time>2026-04-16T16:09:55.875Z</time></trkpt><trkpt lat="44.4244933" lon="9.143205"><ele>257.0</ele><time>2026-04-16T16:09:56.878Z</time></trkpt><trkpt lat="44.4245183" lon="9.14337"><ele>257.0</ele><time>2026-04-16T16:09:57.876Z</time></trkpt><trkpt lat="44.4245567" lon="9.1434967"><ele>257.0</ele><time>2026-04-16T16:09:58.874Z</time></trkpt><trkpt lat="44.4245983" lon="9.143595"><ele>259.0</ele><time>2026-04-16T16:09:59.871Z</time></trkpt><trkpt lat="44.4246867" lon="9.1435767"><ele>261.0</ele><time>2026-04-16T16:10:00.875Z</time></trkpt><trkpt lat="44.42481" lon="9.1435683"><ele>263.0</ele><time>2026-04-16T16:10:01.876Z</time></trkpt><trkpt lat="44.4249467" lon="9.1435567"><ele>265.0</ele><time>2026-04-16T16:10:02.876Z</time></trkpt><trkpt lat="44.4250633" lon="9.1435417"><ele>265.0</ele><time>2026-04-16T16:10:03.876Z</time></trkpt><trkpt lat="44.4251483" lon="9.143515"><ele>265.0</ele><time>2026-04-16T16:10:04.876Z</time></trkpt><trkpt lat="44.4252083" lon="9.1434717"><ele>265.0</ele><time>2026-04-16T16:10:05.876Z</time></trkpt><trkpt lat="44.4252467" lon="9.143325"><ele>265.0</ele><time>2026-04-16T16:10:06.875Z</time></trkpt><trkpt lat="44.4252917" lon="9.1431867"><ele>265.0</ele><time>2026-04-16T16:10:07.875Z</time></trkpt><trkpt lat="44.4253383" lon="9.143055"><ele>264.4</ele><time>2026-04-16T16:10:08.878Z</time></trkpt><trkpt lat="44.4253833" lon="9.1429617"><ele>263.8</ele><time>2026-04-16T16:10:09.877Z</time></trkpt><trkpt lat="44.4254917" lon="9.1429783"><ele>263.2</ele><time>2026-04-16T16:10:11.877Z</time></trkpt><trkpt lat="44.4256033" lon="9.1430483"><ele>262.6</ele><time>2026-04-16T16:10:13.876Z</time></trkpt><trkpt lat="44.4256933" lon="9.14316"><ele>262.0</ele><time>2026-04-16T16:10:15.876Z</time></trkpt><trkpt lat="44.425725" lon="9.1432383"><ele>262.0</ele><time>2026-04-16T16:10:16.877Z</time></trkpt><trkpt lat="44.4257817" lon="9.1433533"><ele>262.0</ele><time>2026-04-16T16:10:18.876Z</time></trkpt><trkpt lat="44.42584" lon="9.1434033"><ele>262.0</ele><time>2026-04-16T16:10:20.878Z</time></trkpt><trkpt lat="44.4257517" lon="9.1435167"><ele>262.0</ele><time>2026-04-16T16:10:23.877Z</time></trkpt><trkpt lat="44.4256967" lon="9.143565"><ele>262.0</ele><time>2026-04-16T16:10:24.877Z</time></trkpt><trkpt lat="44.42562" lon="9.1436683"><ele>262.0</ele><time>2026-04-16T16:10:26.877Z</time></trkpt><trkpt lat="44.4255683" lon="9.1437733"><ele>262.0</ele><time>2026-04-16T16:10:28.876Z</time></trkpt><trkpt lat="44.4256017" lon="9.143855"><ele>262.0</ele><time>2026-04-16T16:10:30.877Z</time></trkpt><trkpt lat="44.4256283" lon="9.14394"><ele>262.0</ele><time>2026-04-16T16:10:32.878Z</time></trkpt><trkpt lat="44.4256167" lon="9.1440383"><ele>262.0</ele><time>2026-04-16T16:10:34.877Z</time></trkpt><trkpt lat="44.4256233" lon="9.1441667"><ele>262.0</ele><time>2026-04-16T16:10:36.877Z</time></trkpt><trkpt lat="44.4255867" lon="9.1443333"><ele>260.0</ele><time>2026-04-16T16:10:38.879Z</time></trkpt><trkpt lat="44.425515" lon="9.1444117"><ele>258.0</ele><time>2026-04-16T16:10:40.875Z</time></trkpt><trkpt lat="44.4254183" lon="9.144435"><ele>256.0</ele><time>2026-04-16T16:10:42.876Z</time></trkpt><trkpt lat="44.4253483" lon="9.1444483"><ele>254.0</ele><time>2026-04-16T16:10:44.878Z</time></trkpt><trkpt lat="44.4252683" lon="9.1445067"><ele>251.99999999999997</ele><time>2026-04-16T16:10:46.875Z</time></trkpt><trkpt lat="44.42518" lon="9.1445633"><ele>250.0</ele><time>2026-04-16T16:10:48.878Z</time></trkpt><trkpt lat="44.4250633" lon="9.1446017"><ele>249.8</ele><time>2026-04-16T16:10:50.877Z</time></trkpt><trkpt lat="44.4249817" lon="9.144635"><ele>249.6</ele><time>2026-04-16T16:10:52.877Z</time></trkpt><trkpt lat="44.4249017" lon="9.1446867"><ele>249.39999999999998</ele><time>2026-04-16T16:10:55.876Z</time></trkpt><trkpt lat="44.4248633" lon="9.144825"><ele>249.2</ele><time>2026-04-16T16:10:58.878Z</time></trkpt><trkpt lat="44.4248367" lon="9.1449867"><ele>249.0</ele><time>2026-04-16T16:11:00.877Z</time></trkpt><trkpt lat="44.4248417" lon="9.1451367"><ele>250.6</ele><time>2026-04-16T16:11:02.876Z</time></trkpt><trkpt lat="44.4248517" lon="9.1452517"><ele>252.2</ele><time>2026-04-16T16:11:03.877Z</time></trkpt><trkpt lat="44.4248533" lon="9.1453783"><ele>253.79999999999998</ele><time>2026-04-16T16:11:05.876Z</time></trkpt><trkpt lat="44.42489" lon="9.1454867"><ele>255.39999999999998</ele><time>2026-04-16T16:11:07.877Z</time></trkpt><trkpt lat="44.424915" lon="9.14568"><ele>257.0</ele><time>2026-04-16T16:11:09.877Z</time></trkpt><trkpt lat="44.4249367" lon="9.1457933"><ele>259.42857142857144</ele><time>2026-04-16T16:11:10.877Z</time></trkpt><trkpt lat="44.4249467" lon="9.1458833"><ele>261.8571428571429</ele><time>2026-04-16T16:11:11.876Z</time></trkpt><trkpt lat="44.42495" lon="9.1459833"><ele>264.28571428571433</ele><time>2026-04-16T16:11:12.876Z</time></trkpt><trkpt lat="44.424915" lon="9.1460767"><ele>266.7142857142857</ele><time>2026-04-16T16:11:14.877Z</time></trkpt><trkpt lat="44.42484" lon="9.1461133"><ele>269.14285714285717</ele><time>2026-04-16T16:11:16.873Z</time></trkpt><trkpt lat="44.424775" lon="9.14611"><ele>271.5714285714286</ele><time>2026-04-16T16:11:17.875Z</time></trkpt><trkpt lat="44.424705" lon="9.14609"><ele>274.0</ele><time>2026-04-16T16:11:18.875Z</time></trkpt><trkpt lat="44.42463" lon="9.1460633"><ele>275.3333333333333</ele><time>2026-04-16T16:11:19.875Z</time></trkpt><trkpt lat="44.4245533" lon="9.1460433"><ele>276.66666666666663</ele><time>2026-04-16T16:11:20.877Z</time></trkpt><trkpt lat="44.4244733" lon="9.1460333"><ele>278.0</ele><time>2026-04-16T16:11:21.871Z</time></trkpt><trkpt lat="44.42437" lon="9.1460883"><ele>279.3333333333333</ele><time>2026-04-16T16:11:23.876Z</time></trkpt><trkpt lat="44.4243417" lon="9.1461683"><ele>280.6666666666667</ele><time>2026-04-16T16:11:24.877Z</time></trkpt><trkpt lat="44.424335" lon="9.1463267"><ele>282.0</ele><time>2026-04-16T16:11:26.876Z</time></trkpt><trkpt lat="44.42438" lon="9.14647"><ele>283.2</ele><time>2026-04-16T16:11:27.877Z</time></trkpt><trkpt lat="44.42444" lon="9.14663"><ele>284.4</ele><time>2026-04-16T16:11:28.875Z</time></trkpt><trkpt lat="44.42449" lon="9.1467617"><ele>285.6</ele><time>2026-04-16T16:11:29.878Z</time></trkpt><trkpt lat="44.4245383" lon="9.14685"><ele>286.8</ele><time>2026-04-16T16:11:30.88Z</time></trkpt><trkpt lat="44.4246233" lon="9.14693"><ele>288.0</ele><time>2026-04-16T16:11:31.878Z</time></trkpt><trkpt lat="44.4247161" lon="9.1469973"><ele>288.0</ele><time>2026-04-16T16:11:32.878Z</time></trkpt><trkpt lat="44.4248293" lon="9.1470545"><ele>288.0</ele><time>2026-04-16T16:11:33.875Z</time></trkpt><trkpt lat="44.4249401" lon="9.1470875"><ele>288.0</ele><time>2026-04-16T16:11:34.875Z</time></trkpt><trkpt lat="44.4250352" lon="9.1471001"><ele>288.0</ele><time>2026-04-16T16:11:35.875Z</time></trkpt><trkpt lat="44.425124" lon="9.1470859"><ele>288.0</ele><time>2026-04-16T16:11:36.878Z</time></trkpt><trkpt lat="44.425204" lon="9.1470651"><ele>288.0</ele><time>2026-04-16T16:11:37.877Z</time></trkpt><trkpt lat="44.4252648" lon="9.1470298"><ele>288.0</ele><time>2026-04-16T16:11:38.878Z</time></trkpt><trkpt lat="44.4253393" lon="9.1470027"><ele>288.0</ele><time>2026-04-16T16:11:40.875Z</time></trkpt><trkpt lat="44.4254109" lon="9.1470677"><ele>288.0</ele><time>2026-04-16T16:11:43.877Z</time></trkpt><trkpt lat="44.4254296" lon="9.1471867"><ele>288.0</ele><time>2026-04-16T16:11:45.876Z</time></trkpt><trkpt lat="44.4254338" lon="9.1472836"><ele>288.0</ele><time>2026-04-16T16:11:46.876Z</time></trkpt><trkpt lat="44.425442" lon="9.1474161"><ele>290.6</ele><time>2026-04-16T16:11:47.878Z</time></trkpt><trkpt lat="44.425452" lon="9.147575"><ele>293.20000000000005</ele><time>2026-04-16T16:11:48.878Z</time></trkpt><trkpt lat="44.4254728" lon="9.1477277"><ele>295.8</ele><time>2026-04-16T16:11:49.877Z</time></trkpt><trkpt lat="44.4254963" lon="9.1478638"><ele>298.40000000000003</ele><time>2026-04-16T16:11:50.876Z</time></trkpt><trkpt lat="44.425515" lon="9.147989"><ele>301.0</ele><time>2026-04-16T16:11:51.875Z</time></trkpt><trkpt lat="44.4255167" lon="9.1480958"><ele>301.0</ele><time>2026-04-16T16:11:52.874Z</time></trkpt><trkpt lat="44.4254909" lon="9.1481931"><ele>301.0</ele><time>2026-04-16T16:11:53.876Z</time></trkpt><trkpt lat="44.4254702" lon="9.1482899"><ele>301.0</ele><time>2026-04-16T16:11:54.877Z</time></trkpt><trkpt lat="44.4254523" lon="9.1483781"><ele>301.0</ele><time>2026-04-16T16:11:55.875Z</time></trkpt><trkpt lat="44.425444" lon="9.1484739"><ele>301.0</ele><time>2026-04-16T16:11:56.877Z</time></trkpt><trkpt lat="44.4254353" lon="9.1485863"><ele>301.0</ele><time>2026-04-16T16:11:57.876Z</time></trkpt><trkpt lat="44.4254292" lon="9.1486986"><ele>301.0</ele><time>2026-04-16T16:11:58.875Z</time></trkpt><trkpt lat="44.4254254" lon="9.1487999"><ele>305.0</ele><time>2026-04-16T16:11:59.876Z</time></trkpt><trkpt lat="44.4254043" lon="9.1489561"><ele>309.0</ele><time>2026-04-16T16:12:01.875Z</time></trkpt><trkpt lat="44.4253227" lon="9.1490391"><ele>313.0</ele><time>2026-04-16T16:12:03.874Z</time></trkpt><trkpt lat="44.425254" lon="9.149042"><ele>317.0</ele><time>2026-04-16T16:12:04.876Z</time></trkpt><trkpt lat="44.4251874" lon="9.1490437"><ele>321.0</ele><time>2026-04-16T16:12:05.876Z</time></trkpt><trkpt lat="44.4250851" lon="9.149068"><ele>323.20000000000005</ele><time>2026-04-16T16:12:07.876Z</time></trkpt><trkpt lat="44.4249967" lon="9.1491583"><ele>325.40000000000003</ele><time>2026-04-16T16:12:09.876Z</time></trkpt><trkpt lat="44.4249533" lon="9.1492467"><ele>327.6</ele><time>2026-04-16T16:12:11.875Z</time></trkpt><trkpt lat="44.4248967" lon="9.1493567"><ele>329.8</ele><time>2026-04-16T16:12:13.876Z</time></trkpt><trkpt lat="44.4248467" lon="9.1494717"><ele>332.0</ele><time>2026-04-16T16:12:15.876Z</time></trkpt><trkpt lat="44.4247883" lon="9.149555"><ele>332.0</ele><time>2026-04-16T16:12:17.876Z</time></trkpt><trkpt lat="44.4247133" lon="9.1495683"><ele>332.0</ele><time>2026-04-16T16:12:20.878Z</time></trkpt><trkpt lat="44.4246367" lon="9.1496083"><ele>332.0</ele><time>2026-04-16T16:12:23.878Z</time></trkpt><trkpt lat="44.424545" lon="9.1497033"><ele>332.0</ele><time>2026-04-16T16:12:25.878Z</time></trkpt><trkpt lat="44.4244917" lon="9.1497833"><ele>332.0</ele><time>2026-04-16T16:12:26.879Z</time></trkpt><trkpt lat="44.42441" lon="9.1499133"><ele>337.40000000000003</ele><time>2026-04-16T16:12:28.876Z</time></trkpt><trkpt lat="44.4243533" lon="9.149985"><ele>342.8</ele><time>2026-04-16T16:12:30.877Z</time></trkpt><trkpt lat="44.4242817" lon="9.15008"><ele>348.2</ele><time>2026-04-16T16:12:32.879Z</time></trkpt><trkpt lat="44.4242" lon="9.150165"><ele>353.6</ele><time>2026-04-16T16:12:34.875Z</time></trkpt><trkpt lat="44.4241317" lon="9.150245"><ele>359.0</ele><time>2026-04-16T16:12:36.878Z</time></trkpt><trkpt lat="44.4240333" lon="9.150345"><ele>359.0</ele><time>2026-04-16T16:12:38.879Z</time></trkpt><trkpt lat="44.4239717" lon="9.1503917"><ele>359.0</ele><time>2026-04-16T16:12:39.876Z</time></trkpt><trkpt lat="44.4239133" lon="9.150495"><ele>359.0</ele><time>2026-04-16T16:12:41.875Z</time></trkpt><trkpt lat="44.42389" lon="9.1506067"><ele>359.0</ele><time>2026-04-16T16:12:43.878Z</time></trkpt><trkpt lat="44.423855" lon="9.150745"><ele>359.0</ele><time>2026-04-16T16:12:45.877Z</time></trkpt><trkpt lat="44.4237867" lon="9.150815"><ele>359.0</ele><time>2026-04-16T16:12:48.878Z</time></trkpt><trkpt lat="44.423675" lon="9.1508117"><ele>363.6666666666667</ele><time>2026-04-16T16:12:50.875Z</time></trkpt><trkpt lat="44.4235783" lon="9.1507783"><ele>368.33333333333337</ele><time>2026-04-16T16:12:52.878Z</time></trkpt><trkpt lat="44.4234933" lon="9.1507283"><ele>373.0</ele><time>2026-04-16T16:12:54.875Z</time></trkpt><trkpt lat="44.42341" lon="9.1507683"><ele>377.6666666666667</ele><time>2026-04-16T16:13:02.876Z</time></trkpt><trkpt lat="44.4233667" lon="9.15085"><ele>382.3333333333333</ele><time>2026-04-16T16:13:04.876Z</time></trkpt><trkpt lat="44.42333" lon="9.1509233"><ele>387.0</ele><time>2026-04-16T16:13:06.876Z</time></trkpt><trkpt lat="44.423255" lon="9.1509867"><ele>387.0</ele><time>2026-04-16T16:13:09.876Z</time></trkpt><trkpt lat="44.42316" lon="9.1510217"><ele>387.0</ele><time>2026-04-16T16:13:53.874Z</time></trkpt><trkpt lat="44.4230967" lon="9.15099"><ele>387.0</ele><time>2026-04-16T16:14:24.875Z</time></trkpt><trkpt lat="44.4230483" lon="9.150915"><ele>387.0</ele><time>2026-04-16T16:14:27.876Z</time></trkpt><trkpt lat="44.4229633" lon="9.1509567"><ele>387.0</ele><time>2026-04-16T16:14:32.876Z</time></trkpt><trkpt lat="44.4229" lon="9.1510233"><ele>387.0</ele><time>2026-04-16T16:14:34.875Z</time></trkpt><trkpt lat="44.4228517" lon="9.15109"><ele>389.6666666666667</ele><time>2026-04-16T16:14:36.874Z</time></trkpt><trkpt lat="44.4227917" lon="9.15116"><ele>392.33333333333337</ele><time>2026-04-16T16:14:39.876Z</time></trkpt><trkpt lat="44.4227117" lon="9.1512267"><ele>395.0</ele><time>2026-04-16T16:14:42.875Z</time></trkpt><trkpt lat="44.4226367" lon="9.15128"><ele>397.6666666666667</ele><time>2026-04-16T16:14:45.876Z</time></trkpt><trkpt lat="44.4225717" lon="9.1513183"><ele>400.33333333333337</ele><time>2026-04-16T16:14:48.873Z</time></trkpt><trkpt lat="44.4225067" lon="9.1513767"><ele>403.0</ele><time>2026-04-16T16:14:52.874Z</time></trkpt><trkpt lat="44.422545" lon="9.1515033"><ele>408.4</ele><time>2026-04-16T16:14:57.876Z</time></trkpt><trkpt lat="44.4225983" lon="9.15161"><ele>413.79999999999995</ele><time>2026-04-16T16:14:58.876Z</time></trkpt><trkpt lat="44.4226933" lon="9.1516717"><ele>419.2</ele><time>2026-04-16T16:15:00.875Z</time></trkpt><trkpt lat="44.422735" lon="9.1517917"><ele>424.6</ele><time>2026-04-16T16:15:02.874Z</time></trkpt><trkpt lat="44.422745" lon="9.1519117"><ele>430.0</ele><time>2026-04-16T16:15:04.876Z</time></trkpt><trkpt lat="44.4227267" lon="9.1520317"><ele>430.0</ele><time>2026-04-16T16:15:07.876Z</time></trkpt><trkpt lat="44.4227583" lon="9.1521783"><ele>430.0</ele><time>2026-04-16T16:15:09.874Z</time></trkpt><trkpt lat="44.4227917" lon="9.1523333"><ele>430.0</ele><time>2026-04-16T16:15:11.875Z</time></trkpt><trkpt lat="44.4228117" lon="9.1524933"><ele>430.0</ele><time>2026-04-16T16:15:13.874Z</time></trkpt><trkpt lat="44.4227983" lon="9.1526367"><ele>430.0</ele><time>2026-04-16T16:15:15.875Z</time></trkpt><trkpt lat="44.4227717" lon="9.15278"><ele>433.83333333333337</ele><time>2026-04-16T16:15:17.875Z</time></trkpt><trkpt lat="44.4227467" lon="9.1528767"><ele>437.6666666666667</ele><time>2026-04-16T16:15:19.876Z</time></trkpt><trkpt lat="44.42273" lon="9.1530033"><ele>441.5</ele><time>2026-04-16T16:15:22.877Z</time></trkpt><trkpt lat="44.422715" lon="9.1531183"><ele>445.33333333333337</ele><time>2026-04-16T16:15:25.872Z</time></trkpt><trkpt lat="44.4227167" lon="9.1532067"><ele>449.1666666666667</ele><time>2026-04-16T16:15:27.873Z</time></trkpt><trkpt lat="44.4227517" lon="9.1533067"><ele>453.0</ele><time>2026-04-16T16:15:29.874Z</time></trkpt><trkpt lat="44.42282" lon="9.1533567"><ele>452.42857142857133</ele><time>2026-04-16T16:15:31.875Z</time></trkpt><trkpt lat="44.42289" lon="9.1533667"><ele>451.85714285714283</ele><time>2026-04-16T16:15:33.874Z</time></trkpt><trkpt lat="44.42299" lon="9.153385"><ele>451.2857142857142</ele><time>2026-04-16T16:15:35.875Z</time></trkpt><trkpt lat="44.42305" lon="9.153415"><ele>450.71428571428567</ele><time>2026-04-16T16:15:36.874Z</time></trkpt><trkpt lat="44.4231117" lon="9.1534483"><ele>450.1428571428571</ele><time>2026-04-16T16:15:37.874Z</time></trkpt><trkpt lat="44.42317" lon="9.153485"><ele>449.57142857142856</ele><time>2026-04-16T16:15:38.877Z</time></trkpt><trkpt lat="44.4232167" lon="9.1535517"><ele>449.0</ele><time>2026-04-16T16:15:39.874Z</time></trkpt><trkpt lat="44.4232767" lon="9.15363"><ele>449.0</ele><time>2026-04-16T16:15:40.878Z</time></trkpt><trkpt lat="44.4233467" lon="9.1537"><ele>448.99999999999994</ele><time>2026-04-16T16:15:41.874Z</time></trkpt><trkpt lat="44.4234017" lon="9.15376"><ele>449.0</ele><time>2026-04-16T16:15:42.875Z</time></trkpt><trkpt lat="44.4234667" lon="9.1538167"><ele>449.0</ele><time>2026-04-16T16:15:43.872Z</time></trkpt><trkpt lat="44.423535" lon="9.15386"><ele>448.99999999999994</ele><time>2026-04-16T16:15:44.876Z</time></trkpt><trkpt lat="44.423605" lon="9.15389"><ele>449.0</ele><time>2026-04-16T16:15:45.874Z</time></trkpt><trkpt lat="44.42367" lon="9.15391"><ele>449.0</ele><time>2026-04-16T16:15:46.874Z</time></trkpt><trkpt lat="44.42378" lon="9.1539467"><ele>449.4</ele><time>2026-04-16T16:15:48.875Z</time></trkpt><trkpt lat="44.4238833" lon="9.153975"><ele>449.79999999999995</ele><time>2026-04-16T16:15:50.874Z</time></trkpt><trkpt lat="44.4239683" lon="9.15404"><ele>450.20000000000005</ele><time>2026-04-16T16:15:52.875Z</time></trkpt><trkpt lat="44.4240383" lon="9.154095"><ele>450.6</ele><time>2026-04-16T16:15:54.876Z</time></trkpt><trkpt lat="44.4240967" lon="9.1542367"><ele>451.0</ele><time>2026-04-16T16:15:57.875Z</time></trkpt><trkpt lat="44.42409" lon="9.1543333"><ele>451.00000000000006</ele><time>2026-04-16T16:15:59.875Z</time></trkpt><trkpt lat="44.4240317" lon="9.1543683"><ele>451.0</ele><time>2026-04-16T16:16:01.873Z</time></trkpt><trkpt lat="44.4239583" lon="9.1544317"><ele>451.0</ele><time>2026-04-16T16:16:03.874Z</time></trkpt><trkpt lat="44.4238833" lon="9.1544567"><ele>451.0</ele><time>2026-04-16T16:16:05.874Z</time></trkpt><trkpt lat="44.42382" lon="9.15444"><ele>451.00000000000006</ele><time>2026-04-16T16:16:07.876Z</time></trkpt><trkpt lat="44.4237467" lon="9.1543967"><ele>451.0</ele><time>2026-04-16T16:16:10.874Z</time></trkpt><trkpt lat="44.42368" lon="9.1544983"><ele>455.0</ele><time>2026-04-16T16:16:13.875Z</time></trkpt><trkpt lat="44.42362" lon="9.1545467"><ele>459.0</ele><time>2026-04-16T16:16:15.876Z</time></trkpt><trkpt lat="44.423535" lon="9.1545283"><ele>463.0</ele><time>2026-04-16T16:16:17.875Z</time></trkpt><trkpt lat="44.4234548" lon="9.1544891"><ele>467.0</ele><time>2026-04-16T16:16:19.825Z</time></trkpt><trkpt lat="44.4233588" lon="9.1544864"><ele>471.0</ele><time>2026-04-16T16:16:21.978Z</time></trkpt><trkpt lat="44.4232329" lon="9.154584"><ele>471.0</ele><time>2026-04-16T16:16:23.877Z</time></trkpt><trkpt lat="44.4231497" lon="9.1546449"><ele>471.0</ele><time>2026-04-16T16:16:26.877Z</time></trkpt><trkpt lat="44.4231275" lon="9.1547662"><ele>471.0</ele><time>2026-04-16T16:16:29.874Z</time></trkpt><trkpt lat="44.4231401" lon="9.1549254"><ele>471.0</ele><time>2026-04-16T16:16:31.872Z</time></trkpt><trkpt lat="44.4231617" lon="9.1550758"><ele>471.0</ele><time>2026-04-16T16:16:33.873Z</time></trkpt><trkpt lat="44.4231546" lon="9.1551659"><ele>472.57142857142867</ele><time>2026-04-16T16:16:37.952Z</time></trkpt><trkpt lat="44.4230722" lon="9.1552243"><ele>474.14285714285717</ele><time>2026-04-16T16:17:10.87Z</time></trkpt><trkpt lat="44.4230045" lon="9.1552484"><ele>475.7142857142858</ele><time>2026-04-16T16:17:14.878Z</time></trkpt><trkpt lat="44.4229334" lon="9.1552395"><ele>477.28571428571433</ele><time>2026-04-16T16:17:20.877Z</time></trkpt><trkpt lat="44.4228635" lon="9.1552422"><ele>478.8571428571429</ele><time>2026-04-16T16:17:32.878Z</time></trkpt><trkpt lat="44.4228031" lon="9.1552783"><ele>480.42857142857144</ele><time>2026-04-16T16:17:36.875Z</time></trkpt><trkpt lat="44.4227269" lon="9.1552888"><ele>482.0</ele><time>2026-04-16T16:17:43.873Z</time></trkpt><trkpt lat="44.4226641" lon="9.1552742"><ele>485.3333333333333</ele><time>2026-04-16T16:17:46.877Z</time></trkpt><trkpt lat="44.4225922" lon="9.1552731"><ele>488.66666666666663</ele><time>2026-04-16T16:17:50.877Z</time></trkpt><trkpt lat="44.4225262" lon="9.1552973"><ele>492.0</ele><time>2026-04-16T16:17:54.879Z</time></trkpt><trkpt lat="44.4224702" lon="9.1553477"><ele>495.33333333333337</ele><time>2026-04-16T16:17:56.877Z</time></trkpt><trkpt lat="44.422395" lon="9.1554183"><ele>498.6666666666667</ele><time>2026-04-16T16:17:58.877Z</time></trkpt><trkpt lat="44.4223317" lon="9.1554883"><ele>502.0</ele><time>2026-04-16T16:18:00.879Z</time></trkpt><trkpt lat="44.422255" lon="9.1555267"><ele>502.0</ele><time>2026-04-16T16:18:02.88Z</time></trkpt><trkpt lat="44.4221567" lon="9.1555383"><ele>502.00000000000006</ele><time>2026-04-16T16:18:04.878Z</time></trkpt><trkpt lat="44.4220467" lon="9.1555133"><ele>502.00000000000006</ele><time>2026-04-16T16:18:06.874Z</time></trkpt><trkpt lat="44.4219333" lon="9.1555033"><ele>502.0</ele><time>2026-04-16T16:18:08.88Z</time></trkpt><trkpt lat="44.42183" lon="9.1555267"><ele>502.0</ele><time>2026-04-16T16:18:10.875Z</time></trkpt><trkpt lat="44.42172" lon="9.1555417"><ele>504.83333333333337</ele><time>2026-04-16T16:18:12.876Z</time></trkpt><trkpt lat="44.42164" lon="9.1555283"><ele>507.6666666666667</ele><time>2026-04-16T16:18:13.875Z</time></trkpt><trkpt lat="44.421575" lon="9.15552"><ele>510.5</ele><time>2026-04-16T16:18:14.876Z</time></trkpt><trkpt lat="44.4215083" lon="9.1555267"><ele>513.3333333333334</ele><time>2026-04-16T16:18:15.874Z</time></trkpt><trkpt lat="44.4214417" lon="9.1555417"><ele>516.1666666666666</ele><time>2026-04-16T16:18:16.875Z</time></trkpt><trkpt lat="44.421355" lon="9.1556083"><ele>519.0</ele><time>2026-04-16T16:18:18.875Z</time></trkpt><trkpt lat="44.421275" lon="9.1556667"><ele>520.1666666666666</ele><time>2026-04-16T16:18:20.875Z</time></trkpt><trkpt lat="44.4211833" lon="9.1556867"><ele>521.3333333333334</ele><time>2026-04-16T16:18:21.874Z</time></trkpt><trkpt lat="44.42106" lon="9.1557067"><ele>522.5</ele><time>2026-04-16T16:18:23.88Z</time></trkpt><trkpt lat="44.4209683" lon="9.15574"><ele>523.6666666666667</ele><time>2026-04-16T16:18:25.875Z</time></trkpt><trkpt lat="44.42093" lon="9.1558183"><ele>524.8333333333334</ele><time>2026-04-16T16:18:27.876Z</time></trkpt><trkpt lat="44.4208833" lon="9.1558833"><ele>526.0</ele><time>2026-04-16T16:18:29.876Z</time></trkpt><trkpt lat="44.4208183" lon="9.15592"><ele>526.0</ele><time>2026-04-16T16:18:31.874Z</time></trkpt><trkpt lat="44.4207683" lon="9.155975"><ele>526.0</ele><time>2026-04-16T16:18:34.875Z</time></trkpt><trkpt lat="44.4207467" lon="9.1560683"><ele>526.0</ele><time>2026-04-16T16:18:37.876Z</time></trkpt><trkpt lat="44.42068" lon="9.1561233"><ele>526.0</ele><time>2026-04-16T16:18:39.875Z</time></trkpt><trkpt lat="44.420605" lon="9.1561783"><ele>526.0</ele><time>2026-04-16T16:18:42.874Z</time></trkpt><trkpt lat="44.4205417" lon="9.1562683"><ele>526.0</ele><time>2026-04-16T16:18:45.877Z</time></trkpt><trkpt lat="44.4205083" lon="9.15636"><ele>529.0</ele><time>2026-04-16T16:18:47.875Z</time></trkpt><trkpt lat="44.4204467" lon="9.156445"><ele>532.0</ele><time>2026-04-16T16:18:50.877Z</time></trkpt><trkpt lat="44.4203517" lon="9.15649"><ele>535.0</ele><time>2026-04-16T16:18:53.875Z</time></trkpt><trkpt lat="44.4202833" lon="9.1565617"><ele>538.0</ele><time>2026-04-16T16:18:55.876Z</time></trkpt><trkpt lat="44.42025" lon="9.1566917"><ele>541.0</ele><time>2026-04-16T16:18:57.876Z</time></trkpt><trkpt lat="44.4202333" lon="9.15681"><ele>541.0</ele><time>2026-04-16T16:18:59.868Z</time></trkpt><trkpt lat="44.4202117" lon="9.1569533"><ele>541.0</ele><time>2026-04-16T16:19:01.867Z</time></trkpt><trkpt lat="44.4202033" lon="9.15705"><ele>541.0</ele><time>2026-04-16T16:19:02.87Z</time></trkpt><trkpt lat="44.4201967" lon="9.1571467"><ele>541.0</ele><time>2026-04-16T16:19:03.878Z</time></trkpt><trkpt lat="44.4201833" lon="9.1572367"><ele>541.0</ele><time>2026-04-16T16:19:04.875Z</time></trkpt><trkpt lat="44.42015" lon="9.1573783"><ele>541.0</ele><time>2026-04-16T16:19:06.878Z</time></trkpt><trkpt lat="44.420125" lon="9.1574867"><ele>540.6</ele><time>2026-04-16T16:19:08.878Z</time></trkpt><trkpt lat="44.4200817" lon="9.1576067"><ele>540.2</ele><time>2026-04-16T16:19:10.868Z</time></trkpt><trkpt lat="44.4200117" lon="9.1576767"><ele>539.8</ele><time>2026-04-16T16:19:12.876Z</time></trkpt><trkpt lat="44.4199417" lon="9.15774"><ele>539.4</ele><time>2026-04-16T16:19:14.876Z</time></trkpt><trkpt lat="44.4198783" lon="9.157825"><ele>539.0</ele><time>2026-04-16T16:19:16.873Z</time></trkpt><trkpt lat="44.4198033" lon="9.1579317"><ele>539.0</ele><time>2026-04-16T16:19:18.875Z</time></trkpt><trkpt lat="44.41973" lon="9.158065"><ele>539.0</ele><time>2026-04-16T16:19:20.875Z</time></trkpt><trkpt lat="44.41965" lon="9.1581733"><ele>539.0</ele><time>2026-04-16T16:19:22.87Z</time></trkpt><trkpt lat="44.4195633" lon="9.1582383"><ele>539.0</ele><time>2026-04-16T16:19:24.876Z</time></trkpt><trkpt lat="44.41946" lon="9.1582517"><ele>539.0</ele><time>2026-04-16T16:19:26.878Z</time></trkpt><trkpt lat="44.41936" lon="9.158225"><ele>536.8333333333333</ele><time>2026-04-16T16:19:28.874Z</time></trkpt><trkpt lat="44.41928" lon="9.15822"><ele>534.6666666666666</ele><time>2026-04-16T16:19:30.879Z</time></trkpt><trkpt lat="44.4192083" lon="9.1583133"><ele>532.5</ele><time>2026-04-16T16:19:32.879Z</time></trkpt><trkpt lat="44.4191683" lon="9.1583817"><ele>530.3333333333334</ele><time>2026-04-16T16:19:33.875Z</time></trkpt><trkpt lat="44.4190833" lon="9.1585017"><ele>528.1666666666667</ele><time>2026-04-16T16:19:35.877Z</time></trkpt><trkpt lat="44.4190183" lon="9.15854"><ele>526.0</ele><time>2026-04-16T16:19:36.873Z</time></trkpt><trkpt lat="44.418945" lon="9.1585767"><ele>526.0</ele><time>2026-04-16T16:19:37.878Z</time></trkpt><trkpt lat="44.4188683" lon="9.1586133"><ele>526.0</ele><time>2026-04-16T16:19:38.877Z</time></trkpt><trkpt lat="44.418795" lon="9.1586533"><ele>526.0</ele><time>2026-04-16T16:19:39.875Z</time></trkpt><trkpt lat="44.418725" lon="9.15869"><ele>526.0</ele><time>2026-04-16T16:19:40.875Z</time></trkpt><trkpt lat="44.41866" lon="9.1587367"><ele>526.0</ele><time>2026-04-16T16:19:41.874Z</time></trkpt><trkpt lat="44.4186017" lon="9.1587717"><ele>526.0</ele><time>2026-04-16T16:19:42.875Z</time></trkpt><trkpt lat="44.418515" lon="9.1588433"><ele>523.4</ele><time>2026-04-16T16:19:44.877Z</time></trkpt><trkpt lat="44.418435" lon="9.15893"><ele>520.8</ele><time>2026-04-16T16:19:46.875Z</time></trkpt><trkpt lat="44.4183767" lon="9.15904"><ele>518.1999999999999</ele><time>2026-04-16T16:19:48.873Z</time></trkpt><trkpt lat="44.4183167" lon="9.15914"><ele>515.6</ele><time>2026-04-16T16:19:50.877Z</time></trkpt><trkpt lat="44.4182433" lon="9.159255"><ele>513.0</ele><time>2026-04-16T16:19:52.875Z</time></trkpt><trkpt lat="44.4181717" lon="9.1593833"><ele>513.0</ele><time>2026-04-16T16:19:54.875Z</time></trkpt><trkpt lat="44.4180783" lon="9.1594967"><ele>513.0</ele><time>2026-04-16T16:19:56.878Z</time></trkpt><trkpt lat="44.4180117" lon="9.1595367"><ele>513.0</ele><time>2026-04-16T16:19:57.876Z</time></trkpt><trkpt lat="44.417945" lon="9.1595767"><ele>513.0</ele><time>2026-04-16T16:19:58.88Z</time></trkpt><trkpt lat="44.4178767" lon="9.15962"><ele>513.0</ele><time>2026-04-16T16:19:59.877Z</time></trkpt><trkpt lat="44.41781" lon="9.1596517"><ele>513.0</ele><time>2026-04-16T16:20:00.875Z</time></trkpt><trkpt lat="44.4177017" lon="9.15971"><ele>511.5</ele><time>2026-04-16T16:20:02.876Z</time></trkpt><trkpt lat="44.4176217" lon="9.1597517"><ele>510.0</ele><time>2026-04-16T16:20:04.873Z</time></trkpt><trkpt lat="44.41756" lon="9.1597867"><ele>508.5</ele><time>2026-04-16T16:20:06.873Z</time></trkpt><trkpt lat="44.417505" lon="9.1598467"><ele>507.0</ele><time>2026-04-16T16:20:08.875Z</time></trkpt><trkpt lat="44.4174233" lon="9.159935"><ele>505.5</ele><time>2026-04-16T16:20:10.876Z</time></trkpt><trkpt lat="44.417365" lon="9.15999"><ele>504.0</ele><time>2026-04-16T16:20:11.876Z</time></trkpt><trkpt lat="44.4172967" lon="9.160105"><ele>504.0</ele><time>2026-04-16T16:20:13.876Z</time></trkpt><trkpt lat="44.41724" lon="9.1602283"><ele>504.0</ele><time>2026-04-16T16:20:15.875Z</time></trkpt><trkpt lat="44.4171983" lon="9.1602983"><ele>504.0</ele><time>2026-04-16T16:20:16.875Z</time></trkpt><trkpt lat="44.417105" lon="9.1604183"><ele>504.0</ele><time>2026-04-16T16:20:18.875Z</time></trkpt><trkpt lat="44.4170267" lon="9.1604683"><ele>504.0</ele><time>2026-04-16T16:20:20.876Z</time></trkpt><trkpt lat="44.4169383" lon="9.1605467"><ele>501.4</ele><time>2026-04-16T16:20:22.874Z</time></trkpt><trkpt lat="44.416885" lon="9.16067"><ele>498.79999999999995</ele><time>2026-04-16T16:20:24.876Z</time></trkpt><trkpt lat="44.4168183" lon="9.160815"><ele>496.20000000000005</ele><time>2026-04-16T16:20:26.876Z</time></trkpt><trkpt lat="44.416765" lon="9.1609"><ele>493.6</ele><time>2026-04-16T16:20:27.875Z</time></trkpt><trkpt lat="44.4167083" lon="9.160975"><ele>491.0</ele><time>2026-04-16T16:20:28.875Z</time></trkpt><trkpt lat="44.41666" lon="9.16104"><ele>490.99999999999994</ele><time>2026-04-16T16:20:29.875Z</time></trkpt><trkpt lat="44.4165933" lon="9.16112"><ele>491.0</ele><time>2026-04-16T16:20:30.873Z</time></trkpt><trkpt lat="44.416525" lon="9.1611783"><ele>491.0</ele><time>2026-04-16T16:20:31.875Z</time></trkpt><trkpt lat="44.4164083" lon="9.1612367"><ele>491.0</ele><time>2026-04-16T16:20:33.877Z</time></trkpt><trkpt lat="44.4163417" lon="9.1612733"><ele>490.99999999999994</ele><time>2026-04-16T16:20:34.876Z</time></trkpt><trkpt lat="44.416285" lon="9.161325"><ele>491.0</ele><time>2026-04-16T16:20:35.88Z</time></trkpt><trkpt lat="44.4162" lon="9.16135"><ele>489.16666666666663</ele><time>2026-04-16T16:20:36.877Z</time></trkpt><trkpt lat="44.4161167" lon="9.161405"><ele>487.3333333333333</ele><time>2026-04-16T16:20:37.877Z</time></trkpt><trkpt lat="44.4160583" lon="9.1614983"><ele>485.5</ele><time>2026-04-16T16:20:38.875Z</time></trkpt><trkpt lat="44.4160067" lon="9.1615833"><ele>483.66666666666663</ele><time>2026-04-16T16:20:39.874Z</time></trkpt><trkpt lat="44.4159667" lon="9.16167"><ele>481.8333333333333</ele><time>2026-04-16T16:20:40.873Z</time></trkpt><trkpt lat="44.4159283" lon="9.161795"><ele>480.0</ele><time>2026-04-16T16:20:41.875Z</time></trkpt><trkpt lat="44.4158867" lon="9.161945"><ele>480.0</ele><time>2026-04-16T16:20:42.874Z</time></trkpt><trkpt lat="44.4158583" lon="9.1621133"><ele>480.0</ele><time>2026-04-16T16:20:43.875Z</time></trkpt><trkpt lat="44.4158333" lon="9.162265"><ele>480.0</ele><time>2026-04-16T16:20:44.874Z</time></trkpt><trkpt lat="44.4158067" lon="9.1624117"><ele>480.0</ele><time>2026-04-16T16:20:45.873Z</time></trkpt><trkpt lat="44.41577" lon="9.16255"><ele>480.0</ele><time>2026-04-16T16:20:46.875Z</time></trkpt><trkpt lat="44.415735" lon="9.1626833"><ele>481.1666666666667</ele><time>2026-04-16T16:20:47.874Z</time></trkpt><trkpt lat="44.415705" lon="9.1627917"><ele>482.33333333333337</ele><time>2026-04-16T16:20:48.876Z</time></trkpt><trkpt lat="44.41567" lon="9.1628717"><ele>483.5</ele><time>2026-04-16T16:20:49.875Z</time></trkpt><trkpt lat="44.41563" lon="9.1629417"><ele>484.6666666666667</ele><time>2026-04-16T16:20:50.875Z</time></trkpt><trkpt lat="44.4155767" lon="9.16301"><ele>485.83333333333337</ele><time>2026-04-16T16:20:51.874Z</time></trkpt><trkpt lat="44.4155183" lon="9.1630833"><ele>487.0</ele><time>2026-04-16T16:20:52.875Z</time></trkpt><trkpt lat="44.4154433" lon="9.16316"><ele>484.1666666666667</ele><time>2026-04-16T16:20:53.874Z</time></trkpt><trkpt lat="44.41536" lon="9.163225"><ele>481.33333333333337</ele><time>2026-04-16T16:20:54.88Z</time></trkpt><trkpt lat="44.4152867" lon="9.163275"><ele>478.5</ele><time>2026-04-16T16:20:55.875Z</time></trkpt><trkpt lat="44.4152233" lon="9.1633167"><ele>475.66666666666663</ele><time>2026-04-16T16:20:56.876Z</time></trkpt><trkpt lat="44.41515" lon="9.1633567"><ele>472.8333333333333</ele><time>2026-04-16T16:20:58.877Z</time></trkpt><trkpt lat="44.415085" lon="9.16344"><ele>470.0</ele><time>2026-04-16T16:21:30.875Z</time></trkpt><trkpt lat="44.4150883" lon="9.163575"><ele>469.99999999999994</ele><time>2026-04-16T16:21:33.875Z</time></trkpt><trkpt lat="44.41511" lon="9.1636933"><ele>470.0</ele><time>2026-04-16T16:21:35.876Z</time></trkpt><trkpt lat="44.4151317" lon="9.1637967"><ele>470.0</ele><time>2026-04-16T16:21:37.876Z</time></trkpt><trkpt lat="44.415155" lon="9.1638833"><ele>470.0</ele><time>2026-04-16T16:21:39.876Z</time></trkpt><trkpt lat="44.4151167" lon="9.1640117"><ele>469.99999999999994</ele><time>2026-04-16T16:21:42.875Z</time></trkpt><trkpt lat="44.4150367" lon="9.1640883"><ele>470.0</ele><time>2026-04-16T16:21:44.877Z</time></trkpt><trkpt lat="44.414945" lon="9.16418"><ele>470.4</ele><time>2026-04-16T16:21:46.877Z</time></trkpt><trkpt lat="44.41489" lon="9.1642233"><ele>470.8</ele><time>2026-04-16T16:21:47.877Z</time></trkpt><trkpt lat="44.4147833" lon="9.1643017"><ele>471.20000000000005</ele><time>2026-04-16T16:21:49.876Z</time></trkpt><trkpt lat="44.4146983" lon="9.1643833"><ele>471.6</ele><time>2026-04-16T16:21:51.874Z</time></trkpt><trkpt lat="44.4146217" lon="9.164475"><ele>472.0</ele><time>2026-04-16T16:21:53.873Z</time></trkpt><trkpt lat="44.4145717" lon="9.16461"><ele>466.40000000000003</ele><time>2026-04-16T16:21:55.874Z</time></trkpt><trkpt lat="44.4145117" lon="9.1647683"><ele>460.80000000000007</ele><time>2026-04-16T16:21:57.875Z</time></trkpt><trkpt lat="44.4144733" lon="9.1648483"><ele>455.2</ele><time>2026-04-16T16:21:58.874Z</time></trkpt><trkpt lat="44.414445" lon="9.1649283"><ele>449.6</ele><time>2026-04-16T16:21:59.873Z</time></trkpt><trkpt lat="44.414435" lon="9.1650717"><ele>444.0</ele><time>2026-04-16T16:22:01.875Z</time></trkpt><trkpt lat="44.41448" lon="9.165195"><ele>444.0</ele><time>2026-04-16T16:22:03.874Z</time></trkpt><trkpt lat="44.4145367" lon="9.1653033"><ele>444.0</ele><time>2026-04-16T16:22:05.876Z</time></trkpt><trkpt lat="44.4145633" lon="9.16541"><ele>444.0</ele><time>2026-04-16T16:22:07.876Z</time></trkpt><trkpt lat="44.4145533" lon="9.1655167"><ele>444.0</ele><time>2026-04-16T16:22:09.873Z</time></trkpt><trkpt lat="44.4145117" lon="9.1656017"><ele>444.0</ele><time>2026-04-16T16:22:12.872Z</time></trkpt><trkpt lat="44.4144383" lon="9.16564"><ele>444.0</ele><time>2026-04-16T16:22:15.875Z</time></trkpt><trkpt lat="44.4143417" lon="9.16569"><ele>445.0</ele><time>2026-04-16T16:22:17.879Z</time></trkpt><trkpt lat="44.4142167" lon="9.16575"><ele>446.0</ele><time>2026-04-16T16:22:19.878Z</time></trkpt><trkpt lat="44.4141517" lon="9.1657717"><ele>447.0</ele><time>2026-04-16T16:22:20.877Z</time></trkpt><trkpt lat="44.4140833" lon="9.165785"><ele>448.0</ele><time>2026-04-16T16:22:21.876Z</time></trkpt><trkpt lat="44.41402" lon="9.1658017"><ele>449.0</ele><time>2026-04-16T16:22:22.874Z</time></trkpt><trkpt lat="44.4139533" lon="9.1658317"><ele>450.0</ele><time>2026-04-16T16:22:23.874Z</time></trkpt><trkpt lat="44.4138867" lon="9.1658667"><ele>447.00000000000006</ele><time>2026-04-16T16:22:24.874Z</time></trkpt><trkpt lat="44.4138133" lon="9.16591"><ele>444.0</ele><time>2026-04-16T16:22:25.875Z</time></trkpt><trkpt lat="44.41375" lon="9.165955"><ele>441.0</ele><time>2026-04-16T16:22:26.876Z</time></trkpt><trkpt lat="44.4136983" lon="9.1660083"><ele>438.0</ele><time>2026-04-16T16:22:27.876Z</time></trkpt><trkpt lat="44.4136367" lon="9.1660567"><ele>435.0</ele><time>2026-04-16T16:22:28.875Z</time></trkpt><trkpt lat="44.4135617" lon="9.16612"><ele>432.0</ele><time>2026-04-16T16:22:29.875Z</time></trkpt><trkpt lat="44.413505" lon="9.1661817"><ele>429.0</ele><time>2026-04-16T16:22:30.875Z</time></trkpt><trkpt lat="44.4134233" lon="9.1662617"><ele>429.0</ele><time>2026-04-16T16:22:32.875Z</time></trkpt><trkpt lat="44.4133467" lon="9.1662583"><ele>429.0</ele><time>2026-04-16T16:22:35.877Z</time></trkpt><trkpt lat="44.41328" lon="9.1662683"><ele>429.0</ele><time>2026-04-16T16:22:38.879Z</time></trkpt><trkpt lat="44.41322" lon="9.1663033"><ele>429.0</ele><time>2026-04-16T16:22:40.874Z</time></trkpt><trkpt lat="44.4131633" lon="9.1663567"><ele>429.0</ele><time>2026-04-16T16:22:42.875Z</time></trkpt><trkpt lat="44.4130867" lon="9.1663867"><ele>429.0</ele><time>2026-04-16T16:22:44.877Z</time></trkpt><trkpt lat="44.4130283" lon="9.1664333"><ele>429.0</ele><time>2026-04-16T16:22:46.875Z</time></trkpt><trkpt lat="44.41299" lon="9.1665167"><ele>424.8333333333333</ele><time>2026-04-16T16:22:48.876Z</time></trkpt><trkpt lat="44.41297" lon="9.16661"><ele>420.66666666666663</ele><time>2026-04-16T16:22:50.877Z</time></trkpt><trkpt lat="44.4129183" lon="9.166715"><ele>416.5</ele><time>2026-04-16T16:22:52.875Z</time></trkpt><trkpt lat="44.4128617" lon="9.166825"><ele>412.3333333333333</ele><time>2026-04-16T16:22:54.876Z</time></trkpt><trkpt lat="44.4128167" lon="9.1669483"><ele>408.16666666666663</ele><time>2026-04-16T16:22:56.877Z</time></trkpt><trkpt lat="44.41281" lon="9.1670483"><ele>404.0</ele><time>2026-04-16T16:22:58.876Z</time></trkpt><trkpt lat="44.4128017" lon="9.1671433"><ele>403.99999999999994</ele><time>2026-04-16T16:23:02.877Z</time></trkpt><trkpt lat="44.4127433" lon="9.1671083"><ele>404.0</ele><time>2026-04-16T16:23:10.878Z</time></trkpt><trkpt lat="44.4127133" lon="9.16702"><ele>404.0</ele><time>2026-04-16T16:23:13.874Z</time></trkpt><trkpt lat="44.4126667" lon="9.1669517"><ele>404.0</ele><time>2026-04-16T16:23:15.875Z</time></trkpt><trkpt lat="44.412615" lon="9.1668617"><ele>403.99999999999994</ele><time>2026-04-16T16:23:17.875Z</time></trkpt><trkpt lat="44.412585" lon="9.1667267"><ele>404.0</ele><time>2026-04-16T16:23:19.875Z</time></trkpt><trkpt lat="44.4125933" lon="9.1665583"><ele>402.66666666666663</ele><time>2026-04-16T16:23:21.874Z</time></trkpt><trkpt lat="44.4126033" lon="9.166465"><ele>401.3333333333333</ele><time>2026-04-16T16:23:22.874Z</time></trkpt><trkpt lat="44.41261" lon="9.1662667"><ele>400.0</ele><time>2026-04-16T16:23:24.873Z</time></trkpt><trkpt lat="44.41262" lon="9.166165"><ele>398.66666666666663</ele><time>2026-04-16T16:23:25.873Z</time></trkpt><trkpt lat="44.4126333" lon="9.1660567"><ele>397.3333333333333</ele><time>2026-04-16T16:23:26.876Z</time></trkpt><trkpt lat="44.4126467" lon="9.1659467"><ele>396.0</ele><time>2026-04-16T16:23:27.877Z</time></trkpt><trkpt lat="44.4126667" lon="9.16583"><ele>396.0</ele><time>2026-04-16T16:23:28.873Z</time></trkpt><trkpt lat="44.41269" lon="9.16572"><ele>396.0</ele><time>2026-04-16T16:23:29.874Z</time></trkpt><trkpt lat="44.4127267" lon="9.1656067"><ele>396.0</ele><time>2026-04-16T16:23:30.876Z</time></trkpt><trkpt lat="44.412765" lon="9.1655"><ele>396.0</ele><time>2026-04-16T16:23:31.874Z</time></trkpt><trkpt lat="44.4128" lon="9.1653933"><ele>396.0</ele><time>2026-04-16T16:23:32.875Z</time></trkpt><trkpt lat="44.4128383" lon="9.165285"><ele>396.0</ele><time>2026-04-16T16:23:33.872Z</time></trkpt><trkpt lat="44.41288" lon="9.1651883"><ele>395.6</ele><time>2026-04-16T16:23:34.874Z</time></trkpt><trkpt lat="44.4129233" lon="9.1651033"><ele>395.20000000000005</ele><time>2026-04-16T16:23:35.874Z</time></trkpt><trkpt lat="44.41301" lon="9.1649867"><ele>394.79999999999995</ele><time>2026-04-16T16:23:37.873Z</time></trkpt><trkpt lat="44.4131117" lon="9.1649483"><ele>394.4</ele><time>2026-04-16T16:23:39.873Z</time></trkpt><trkpt lat="44.4132317" lon="9.1649217"><ele>394.0</ele><time>2026-04-16T16:23:41.872Z</time></trkpt><trkpt lat="44.4133017" lon="9.1647883"><ele>394.00000000000006</ele><time>2026-04-16T16:23:43.875Z</time></trkpt><trkpt lat="44.413325" lon="9.164705"><ele>394.0</ele><time>2026-04-16T16:23:44.874Z</time></trkpt><trkpt lat="44.4133367" lon="9.1646033"><ele>394.0</ele><time>2026-04-16T16:23:45.873Z</time></trkpt><trkpt lat="44.41334" lon="9.16449"><ele>394.0</ele><time>2026-04-16T16:23:46.872Z</time></trkpt><trkpt lat="44.41334" lon="9.1643683"><ele>394.00000000000006</ele><time>2026-04-16T16:23:47.875Z</time></trkpt><trkpt lat="44.4133233" lon="9.1642517"><ele>394.0</ele><time>2026-04-16T16:23:48.876Z</time></trkpt><trkpt lat="44.4133117" lon="9.1641383"><ele>394.00000000000006</ele><time>2026-04-16T16:23:49.872Z</time></trkpt><trkpt lat="44.4133183" lon="9.1640317"><ele>394.0</ele><time>2026-04-16T16:23:50.875Z</time></trkpt><trkpt lat="44.413345" lon="9.1639383"><ele>394.0</ele><time>2026-04-16T16:23:51.876Z</time></trkpt><trkpt lat="44.4133783" lon="9.1638483"><ele>394.0</ele><time>2026-04-16T16:23:52.874Z</time></trkpt><trkpt lat="44.413405" lon="9.1637617"><ele>394.00000000000006</ele><time>2026-04-16T16:23:53.875Z</time></trkpt><trkpt lat="44.41341" lon="9.1636"><ele>394.0</ele><time>2026-04-16T16:23:55.872Z</time></trkpt><trkpt lat="44.4133817" lon="9.16343"><ele>392.79999999999995</ele><time>2026-04-16T16:23:57.873Z</time></trkpt><trkpt lat="44.4133667" lon="9.1633433"><ele>391.59999999999997</ele><time>2026-04-16T16:23:58.875Z</time></trkpt><trkpt lat="44.4133467" lon="9.1631867"><ele>390.4</ele><time>2026-04-16T16:24:00.875Z</time></trkpt><trkpt lat="44.4133217" lon="9.1630367"><ele>389.2</ele><time>2026-04-16T16:24:02.876Z</time></trkpt><trkpt lat="44.413295" lon="9.1629033"><ele>388.0</ele><time>2026-04-16T16:24:04.874Z</time></trkpt><trkpt lat="44.413275" lon="9.1628033"><ele>388.00000000000006</ele><time>2026-04-16T16:24:06.874Z</time></trkpt><trkpt lat="44.41328" lon="9.1629417"><ele>388.0</ele><time>2026-04-16T16:24:13.873Z</time></trkpt><trkpt lat="44.41331" lon="9.1630233"><ele>388.0</ele><time>2026-04-16T16:24:14.876Z</time></trkpt><trkpt lat="44.41333" lon="9.1631267"><ele>388.0</ele><time>2026-04-16T16:24:15.878Z</time></trkpt><trkpt lat="44.4133433" lon="9.163255"><ele>388.00000000000006</ele><time>2026-04-16T16:24:16.875Z</time></trkpt><trkpt lat="44.4133483" lon="9.1633883"><ele>388.0</ele><time>2026-04-16T16:24:17.874Z</time></trkpt><trkpt lat="44.41335" lon="9.1635233"><ele>388.00000000000006</ele><time>2026-04-16T16:24:18.875Z</time></trkpt><trkpt lat="44.413325" lon="9.1636483"><ele>388.0</ele><time>2026-04-16T16:24:19.875Z</time></trkpt><trkpt lat="44.413295" lon="9.1637683"><ele>388.0</ele><time>2026-04-16T16:24:20.876Z</time></trkpt><trkpt lat="44.4132633" lon="9.16388"><ele>388.0</ele><time>2026-04-16T16:24:21.875Z</time></trkpt><trkpt lat="44.4132367" lon="9.163985"><ele>388.00000000000006</ele><time>2026-04-16T16:24:22.873Z</time></trkpt><trkpt lat="44.4132067" lon="9.1640967"><ele>388.0</ele><time>2026-04-16T16:24:23.874Z</time></trkpt><trkpt lat="44.413165" lon="9.1642017"><ele>389.00000000000006</ele><time>2026-04-16T16:24:24.875Z</time></trkpt><trkpt lat="44.4131067" lon="9.1642933"><ele>390.0</ele><time>2026-04-16T16:24:25.874Z</time></trkpt><trkpt lat="44.4130417" lon="9.1643717"><ele>391.0</ele><time>2026-04-16T16:24:26.878Z</time></trkpt><trkpt lat="44.41296" lon="9.164415"><ele>392.0</ele><time>2026-04-16T16:24:27.875Z</time></trkpt><trkpt lat="44.4128667" lon="9.1644267"><ele>393.00000000000006</ele><time>2026-04-16T16:24:28.873Z</time></trkpt><trkpt lat="44.412775" lon="9.164445"><ele>394.0</ele><time>2026-04-16T16:24:29.874Z</time></trkpt><trkpt lat="44.4126817" lon="9.1644717"><ele>388.50000000000006</ele><time>2026-04-16T16:24:30.874Z</time></trkpt><trkpt lat="44.41259" lon="9.1645067"><ele>383.0</ele><time>2026-04-16T16:24:31.875Z</time></trkpt><trkpt lat="44.41251" lon="9.1645533"><ele>377.5</ele><time>2026-04-16T16:24:32.876Z</time></trkpt><trkpt lat="44.4124333" lon="9.164595"><ele>372.0</ele><time>2026-04-16T16:24:33.875Z</time></trkpt><trkpt lat="44.41235" lon="9.1646283"><ele>366.5</ele><time>2026-04-16T16:24:34.872Z</time></trkpt><trkpt lat="44.4122633" lon="9.16465"><ele>361.0</ele><time>2026-04-16T16:24:35.874Z</time></trkpt><trkpt lat="44.4121733" lon="9.164665"><ele>360.8333333333333</ele><time>2026-04-16T16:24:36.875Z</time></trkpt><trkpt lat="44.4120883" lon="9.16468"><ele>360.66666666666663</ele><time>2026-04-16T16:24:37.874Z</time></trkpt><trkpt lat="44.41201" lon="9.1646983"><ele>360.5</ele><time>2026-04-16T16:24:38.873Z</time></trkpt><trkpt lat="44.4119283" lon="9.1647483"><ele>360.3333333333333</ele><time>2026-04-16T16:24:39.873Z</time></trkpt><trkpt lat="44.411855" lon="9.1648"><ele>360.1666666666667</ele><time>2026-04-16T16:24:40.874Z</time></trkpt><trkpt lat="44.41179" lon="9.1648617"><ele>360.0</ele><time>2026-04-16T16:24:41.873Z</time></trkpt><trkpt lat="44.41174" lon="9.1649433"><ele>360.0</ele><time>2026-04-16T16:24:42.873Z</time></trkpt><trkpt lat="44.4117033" lon="9.16504"><ele>360.0</ele><time>2026-04-16T16:24:43.875Z</time></trkpt><trkpt lat="44.4116717" lon="9.16514"><ele>360.0</ele><time>2026-04-16T16:24:44.874Z</time></trkpt><trkpt lat="44.4116633" lon="9.1652517"><ele>360.0</ele><time>2026-04-16T16:24:45.872Z</time></trkpt><trkpt lat="44.4116717" lon="9.1653633"><ele>360.0</ele><time>2026-04-16T16:24:46.874Z</time></trkpt><trkpt lat="44.4116917" lon="9.1654717"><ele>360.0</ele><time>2026-04-16T16:24:47.874Z</time></trkpt><trkpt lat="44.4117117" lon="9.1655833"><ele>360.0</ele><time>2026-04-16T16:24:48.875Z</time></trkpt><trkpt lat="44.4117133" lon="9.165695"><ele>360.0</ele><time>2026-04-16T16:24:49.875Z</time></trkpt><trkpt lat="44.4116817" lon="9.1657967"><ele>360.0</ele><time>2026-04-16T16:24:50.876Z</time></trkpt><trkpt lat="44.4116067" lon="9.1658617"><ele>360.0</ele><time>2026-04-16T16:24:51.873Z</time></trkpt><trkpt lat="44.41154" lon="9.1658933"><ele>360.0</ele><time>2026-04-16T16:24:52.874Z</time></trkpt><trkpt lat="44.411425" lon="9.1658833"><ele>360.0</ele><time>2026-04-16T16:24:53.874Z</time></trkpt><trkpt lat="44.411335" lon="9.1659"><ele>357.6666666666667</ele><time>2026-04-16T16:24:54.873Z</time></trkpt><trkpt lat="44.411245" lon="9.1659467"><ele>355.3333333333333</ele><time>2026-04-16T16:24:55.869Z</time></trkpt><trkpt lat="44.4111817" lon="9.16603"><ele>353.0</ele><time>2026-04-16T16:24:56.874Z</time></trkpt><trkpt lat="44.4111383" lon="9.16613"><ele>350.66666666666663</ele><time>2026-04-16T16:24:57.873Z</time></trkpt><trkpt lat="44.411115" lon="9.1662367"><ele>348.3333333333333</ele><time>2026-04-16T16:24:58.876Z</time></trkpt><trkpt lat="44.41111" lon="9.1663533"><ele>346.0</ele><time>2026-04-16T16:24:59.873Z</time></trkpt><trkpt lat="44.41111" lon="9.1664667"><ele>348.0</ele><time>2026-04-16T16:25:00.874Z</time></trkpt><trkpt lat="44.4111083" lon="9.1665733"><ele>350.0</ele><time>2026-04-16T16:25:01.874Z</time></trkpt><trkpt lat="44.4110983" lon="9.1666683"><ele>352.0</ele><time>2026-04-16T16:25:02.876Z</time></trkpt><trkpt lat="44.4110167" lon="9.16674"><ele>354.0</ele><time>2026-04-16T16:25:04.872Z</time></trkpt><trkpt lat="44.4109233" lon="9.16667"><ele>356.0</ele><time>2026-04-16T16:25:06.873Z</time></trkpt><trkpt lat="44.4108617" lon="9.166535"><ele>353.5</ele><time>2026-04-16T16:25:07.874Z</time></trkpt><trkpt lat="44.4108633" lon="9.1663733"><ele>351.0</ele><time>2026-04-16T16:25:08.875Z</time></trkpt><trkpt lat="44.4109117" lon="9.166155"><ele>348.5</ele><time>2026-04-16T16:25:09.875Z</time></trkpt><trkpt lat="44.4109533" lon="9.1659783"><ele>346.0</ele><time>2026-04-16T16:25:10.874Z</time></trkpt><trkpt lat="44.4110667" lon="9.1657683"><ele>345.4</ele><time>2026-04-16T16:25:11.875Z</time></trkpt><trkpt lat="44.41111" lon="9.1656533"><ele>344.8</ele><time>2026-04-16T16:25:12.875Z</time></trkpt><trkpt lat="44.4111367" lon="9.1655183"><ele>344.2</ele><time>2026-04-16T16:25:13.876Z</time></trkpt><trkpt lat="44.411145" lon="9.1653833"><ele>343.59999999999997</ele><time>2026-04-16T16:25:14.874Z</time></trkpt><trkpt lat="44.411125" lon="9.1652517"><ele>343.0</ele><time>2026-04-16T16:25:15.873Z</time></trkpt><trkpt lat="44.4110917" lon="9.165125"><ele>343.0</ele><time>2026-04-16T16:25:16.873Z</time></trkpt><trkpt lat="44.4110617" lon="9.1650183"><ele>343.0</ele><time>2026-04-16T16:25:17.873Z</time></trkpt><trkpt lat="44.4110333" lon="9.164895"><ele>343.0</ele><time>2026-04-16T16:25:18.875Z</time></trkpt><trkpt lat="44.411035" lon="9.164775"><ele>343.0</ele><time>2026-04-16T16:25:19.874Z</time></trkpt><trkpt lat="44.4110733" lon="9.1646567"><ele>343.0</ele><time>2026-04-16T16:25:20.875Z</time></trkpt><trkpt lat="44.41115" lon="9.1645433"><ele>341.75</ele><time>2026-04-16T16:25:21.874Z</time></trkpt><trkpt lat="44.4112567" lon="9.1644683"><ele>340.5</ele><time>2026-04-16T16:25:22.876Z</time></trkpt><trkpt lat="44.4114033" lon="9.1644317"><ele>339.25</ele><time>2026-04-16T16:25:23.876Z</time></trkpt><trkpt lat="44.41152" lon="9.164425"><ele>338.0</ele><time>2026-04-16T16:25:24.872Z</time></trkpt><trkpt lat="44.4116317" lon="9.1644233"><ele>338.0</ele><time>2026-04-16T16:25:25.873Z</time></trkpt><trkpt lat="44.4117267" lon="9.1644167"><ele>338.0</ele><time>2026-04-16T16:25:26.874Z</time></trkpt><trkpt lat="44.411815" lon="9.164405"><ele>338.0</ele><time>2026-04-16T16:25:27.876Z</time></trkpt><trkpt lat="44.4118883" lon="9.164375"><ele>338.0</ele><time>2026-04-16T16:25:28.873Z</time></trkpt><trkpt lat="44.4119517" lon="9.16426"><ele>338.0</ele><time>2026-04-16T16:25:30.873Z</time></trkpt><trkpt lat="44.411845" lon="9.1642217"><ele>338.0</ele><time>2026-04-16T16:25:32.876Z</time></trkpt><trkpt lat="44.4117583" lon="9.1642383"><ele>338.0</ele><time>2026-04-16T16:25:33.873Z</time></trkpt><trkpt lat="44.4116767" lon="9.16429"><ele>338.0</ele><time>2026-04-16T16:25:34.875Z</time></trkpt><trkpt lat="44.41159" lon="9.1643367"><ele>338.0</ele><time>2026-04-16T16:25:35.874Z</time></trkpt><trkpt lat="44.4114967" lon="9.164365"><ele>338.0</ele><time>2026-04-16T16:25:36.874Z</time></trkpt><trkpt lat="44.4114117" lon="9.1643733"><ele>338.0</ele><time>2026-04-16T16:25:37.872Z</time></trkpt><trkpt lat="44.4113333" lon="9.1643583"><ele>338.0</ele><time>2026-04-16T16:25:38.875Z</time></trkpt><trkpt lat="44.4112667" lon="9.1643317"><ele>338.0</ele><time>2026-04-16T16:25:39.874Z</time></trkpt><trkpt lat="44.4111483" lon="9.1642767"><ele>338.0</ele><time>2026-04-16T16:25:41.873Z</time></trkpt><trkpt lat="44.4110917" lon="9.164205"><ele>338.0</ele><time>2026-04-16T16:25:43.874Z</time></trkpt><trkpt lat="44.4111817" lon="9.1641333"><ele>338.0</ele><time>2026-04-16T16:25:45.873Z</time></trkpt><trkpt lat="44.411245" lon="9.16413"><ele>338.0</ele><time>2026-04-16T16:25:46.874Z</time></trkpt><trkpt lat="44.4113267" lon="9.1641417"><ele>338.0</ele><time>2026-04-16T16:25:47.874Z</time></trkpt><trkpt lat="44.4114067" lon="9.1641417"><ele>338.0</ele><time>2026-04-16T16:25:48.875Z</time></trkpt><trkpt lat="44.4114883" lon="9.1641233"><ele>338.0</ele><time>2026-04-16T16:25:49.874Z</time></trkpt><trkpt lat="44.4115633" lon="9.1640833"><ele>338.0</ele><time>2026-04-16T16:25:50.873Z</time></trkpt><trkpt lat="44.4116283" lon="9.1640333"><ele>335.2857142857143</ele><time>2026-04-16T16:25:51.874Z</time></trkpt><trkpt lat="44.41169" lon="9.163985"><ele>332.57142857142856</ele><time>2026-04-16T16:25:52.872Z</time></trkpt><trkpt lat="44.4117533" lon="9.1639533"><ele>329.8571428571429</ele><time>2026-04-16T16:25:53.873Z</time></trkpt><trkpt lat="44.4118167" lon="9.1639367"><ele>327.1428571428571</ele><time>2026-04-16T16:25:54.874Z</time></trkpt><trkpt lat="44.4119183" lon="9.1639383"><ele>324.4285714285714</ele><time>2026-04-16T16:25:56.876Z</time></trkpt><trkpt lat="44.4119817" lon="9.1639417"><ele>321.7142857142857</ele><time>2026-04-16T16:25:59.875Z</time></trkpt><trkpt lat="44.4120433" lon="9.163915"><ele>319.0</ele><time>2026-04-16T16:26:01.874Z</time></trkpt><trkpt lat="44.4121417" lon="9.1639267"><ele>325.0</ele><time>2026-04-16T16:26:03.874Z</time></trkpt><trkpt lat="44.4122317" lon="9.163865"><ele>331.0</ele><time>2026-04-16T16:26:05.873Z</time></trkpt><trkpt lat="44.412245" lon="9.1637067"><ele>337.0</ele><time>2026-04-16T16:26:07.873Z</time></trkpt><trkpt lat="44.412215" lon="9.163595"><ele>343.0</ele><time>2026-04-16T16:26:08.875Z</time></trkpt><trkpt lat="44.41219" lon="9.1634733"><ele>349.0</ele><time>2026-04-16T16:26:09.873Z</time></trkpt><trkpt lat="44.4121733" lon="9.163345"><ele>343.0</ele><time>2026-04-16T16:26:10.874Z</time></trkpt><trkpt lat="44.4121467" lon="9.1632133"><ele>337.0</ele><time>2026-04-16T16:26:11.877Z</time></trkpt><trkpt lat="44.41213" lon="9.16308"><ele>331.0</ele><time>2026-04-16T16:26:12.874Z</time></trkpt><trkpt lat="44.4121233" lon="9.1629483"><ele>325.0</ele><time>2026-04-16T16:26:13.875Z</time></trkpt><trkpt lat="44.412125" lon="9.16282"><ele>319.0</ele><time>2026-04-16T16:26:14.876Z</time></trkpt><trkpt lat="44.412135" lon="9.1626867"><ele>317.4</ele><time>2026-04-16T16:26:15.875Z</time></trkpt><trkpt lat="44.4121483" lon="9.162555"><ele>315.79999999999995</ele><time>2026-04-16T16:26:16.875Z</time></trkpt><trkpt lat="44.41217" lon="9.16242"><ele>314.20000000000005</ele><time>2026-04-16T16:26:17.879Z</time></trkpt><trkpt lat="44.4122" lon="9.1622833"><ele>312.6</ele><time>2026-04-16T16:26:18.873Z</time></trkpt><trkpt lat="44.4122367" lon="9.1621433"><ele>311.0</ele><time>2026-04-16T16:26:19.875Z</time></trkpt><trkpt lat="44.412285" lon="9.16202"><ele>314.4</ele><time>2026-04-16T16:26:20.875Z</time></trkpt><trkpt lat="44.412335" lon="9.1619017"><ele>317.8</ele><time>2026-04-16T16:26:21.874Z</time></trkpt><trkpt lat="44.412385" lon="9.1617867"><ele>321.2</ele><time>2026-04-16T16:26:22.874Z</time></trkpt><trkpt lat="44.4124333" lon="9.16168"><ele>324.59999999999997</ele><time>2026-04-16T16:26:23.874Z</time></trkpt><trkpt lat="44.4124833" lon="9.16158"><ele>328.0</ele><time>2026-04-16T16:26:24.875Z</time></trkpt><trkpt lat="44.4125283" lon="9.1614767"><ele>328.0</ele><time>2026-04-16T16:26:25.875Z</time></trkpt><trkpt lat="44.4125633" lon="9.1613667"><ele>328.0</ele><time>2026-04-16T16:26:26.874Z</time></trkpt><trkpt lat="44.4125817" lon="9.161245"><ele>328.0</ele><time>2026-04-16T16:26:27.875Z</time></trkpt><trkpt lat="44.4125883" lon="9.161115"><ele>328.0</ele><time>2026-04-16T16:26:28.874Z</time></trkpt><trkpt lat="44.4125983" lon="9.1609883"><ele>328.0</ele><time>2026-04-16T16:26:29.874Z</time></trkpt><trkpt lat="44.4126133" lon="9.1608583"><ele>328.0</ele><time>2026-04-16T16:26:30.876Z</time></trkpt><trkpt lat="44.4126383" lon="9.1607333"><ele>328.0</ele><time>2026-04-16T16:26:31.874Z</time></trkpt><trkpt lat="44.4126683" lon="9.1606217"><ele>328.0</ele><time>2026-04-16T16:26:32.877Z</time></trkpt><trkpt lat="44.4126967" lon="9.1605217"><ele>328.0</ele><time>2026-04-16T16:26:33.873Z</time></trkpt><trkpt lat="44.412705" lon="9.1604217"><ele>328.0</ele><time>2026-04-16T16:26:34.875Z</time></trkpt><trkpt lat="44.412695" lon="9.160325"><ele>328.0</ele><time>2026-04-16T16:26:35.875Z</time></trkpt><trkpt lat="44.41265" lon="9.1602467"><ele>328.2</ele><time>2026-04-16T16:26:36.874Z</time></trkpt><trkpt lat="44.4125683" lon="9.160185"><ele>328.4</ele><time>2026-04-16T16:26:37.875Z</time></trkpt><trkpt lat="44.4124733" lon="9.1601417"><ele>328.59999999999997</ele><time>2026-04-16T16:26:38.877Z</time></trkpt><trkpt lat="44.412385" lon="9.1601067"><ele>328.79999999999995</ele><time>2026-04-16T16:26:39.874Z</time></trkpt><trkpt lat="44.4123" lon="9.1600683"><ele>329.0</ele><time>2026-04-16T16:26:40.873Z</time></trkpt><trkpt lat="44.4122233" lon="9.16001"><ele>329.0</ele><time>2026-04-16T16:26:41.872Z</time></trkpt><trkpt lat="44.4121583" lon="9.1599233"><ele>329.0</ele><time>2026-04-16T16:26:42.872Z</time></trkpt><trkpt lat="44.4121333" lon="9.1598033"><ele>329.0</ele><time>2026-04-16T16:26:43.876Z</time></trkpt><trkpt lat="44.412145" lon="9.1596583"><ele>329.0</ele><time>2026-04-16T16:26:44.876Z</time></trkpt><trkpt lat="44.412185" lon="9.15952"><ele>329.0</ele><time>2026-04-16T16:26:45.872Z</time></trkpt><trkpt lat="44.41229" lon="9.1594067"><ele>327.75</ele><time>2026-04-16T16:26:46.874Z</time></trkpt><trkpt lat="44.4124067" lon="9.15932"><ele>326.5</ele><time>2026-04-16T16:26:47.873Z</time></trkpt><trkpt lat="44.4125267" lon="9.1592317"><ele>325.25</ele><time>2026-04-16T16:26:48.873Z</time></trkpt><trkpt lat="44.4126433" lon="9.159155"><ele>324.0</ele><time>2026-04-16T16:26:49.873Z</time></trkpt><trkpt lat="44.4127467" lon="9.15909"><ele>324.0</ele><time>2026-04-16T16:26:50.874Z</time></trkpt><trkpt lat="44.412825" lon="9.1590317"><ele>324.0</ele><time>2026-04-16T16:26:51.874Z</time></trkpt><trkpt lat="44.4128917" lon="9.1589933"><ele>324.0</ele><time>2026-04-16T16:26:52.873Z</time></trkpt><trkpt lat="44.41286" lon="9.15911"><ele>324.0</ele><time>2026-04-16T16:26:58.873Z</time></trkpt><trkpt lat="44.41279" lon="9.1591783"><ele>324.0</ele><time>2026-04-16T16:27:00.875Z</time></trkpt><trkpt lat="44.4127267" lon="9.1592483"><ele>324.0</ele><time>2026-04-16T16:27:02.876Z</time></trkpt><trkpt lat="44.4127767" lon="9.1593167"><ele>324.0</ele><time>2026-04-16T16:27:06.876Z</time></trkpt><trkpt lat="44.4128217" lon="9.1594067"><ele>324.0</ele><time>2026-04-16T16:29:22.878Z</time></trkpt><trkpt lat="44.4127667" lon="9.1593567"><ele>324.0</ele><time>2026-04-16T16:29:59.879Z</time></trkpt><trkpt lat="44.4127886" lon="9.1592733"><ele>324.0</ele><time>2026-04-16T16:31:42.876Z</time></trkpt></trkseg></trk></gpx>